<?xml version='1.0' encoding='UTF-8'?><gpx version="1.1" creator="JPX - https://github.com/jenetics/jpx" xmlns="http://www.topografix.com/GPX/1/1"><trk><trkseg><trkpt lat="43.1517383" lon="13.040175"><ele>409.00000000000006</ele><time>2026-04-07T11:54:30.832Z</time></trkpt><trkpt lat="43.1518117" lon="13.0402533"><ele>409.0</ele><time>2026-04-07T11:54:32.832Z</time></trkpt><trkpt lat="43.15188" lon="13.0403233"><ele>409.0</ele><time>2026-04-07T11:54:34.832Z</time></trkpt><trkpt lat="43.151945" lon="13.0403017"><ele>409.0</ele><time>2026-04-07T11:54:36.831Z</time></trkpt><trkpt lat="43.1519483" lon="13.0402"><ele>409.00000000000006</ele><time>2026-04-07T11:54:39.832Z</time></trkpt><trkpt lat="43.15188" lon="13.04023"><ele>409.0</ele><time>2026-04-07T11:54:42.832Z</time></trkpt><trkpt lat="43.1518167" lon="13.0402117"><ele>409.00000000000006</ele><time>2026-04-07T11:54:44.832Z</time></trkpt><trkpt lat="43.151745" lon="13.040145"><ele>409.0</ele><time>2026-04-07T11:54:46.832Z</time></trkpt><trkpt lat="43.1516783" lon="13.0400567"><ele>409.0</ele><time>2026-04-07T11:54:48.832Z</time></trkpt><trkpt lat="43.151615" lon="13.0399533"><ele>409.0</ele><time>2026-04-07T11:54:50.832Z</time></trkpt><trkpt lat="43.15156" lon="13.0398467"><ele>409.00000000000006</ele><time>2026-04-07T11:54:52.832Z</time></trkpt><trkpt lat="43.1515067" lon="13.0397733"><ele>409.0</ele><time>2026-04-07T11:54:54.832Z</time></trkpt><trkpt lat="43.15144" lon="13.0397833"><ele>409.0</ele><time>2026-04-07T11:54:57.831Z</time></trkpt><trkpt lat="43.1514217" lon="13.0399067"><ele>409.0</ele><time>2026-04-07T11:55:00.832Z</time></trkpt><trkpt lat="43.1514567" lon="13.04002"><ele>409.0</ele><time>2026-04-07T11:55:02.832Z</time></trkpt><trkpt lat="43.1515117" lon="13.0401317"><ele>409.0</ele><time>2026-04-07T11:55:04.832Z</time></trkpt><trkpt lat="43.1515667" lon="13.040245"><ele>409.0</ele><time>2026-04-07T11:55:06.832Z</time></trkpt><trkpt lat="43.1516183" lon="13.0403517"><ele>409.0</ele><time>2026-04-07T11:55:08.832Z</time></trkpt><trkpt lat="43.151655" lon="13.0404667"><ele>409.0</ele><time>2026-04-07T11:55:32.832Z</time></trkpt><trkpt lat="43.1516983" lon="13.0405733"><ele>409.0</ele><time>2026-04-07T11:55:34.831Z</time></trkpt><trkpt lat="43.1517533" lon="13.0406817"><ele>409.0</ele><time>2026-04-07T11:55:36.832Z</time></trkpt><trkpt lat="43.1518167" lon="13.0408183"><ele>409.0</ele><time>2026-04-07T11:55:38.831Z</time></trkpt><trkpt lat="43.15185" lon="13.0409"><ele>408.2857142857143</ele><time>2026-04-07T11:55:39.831Z</time></trkpt><trkpt lat="43.1518867" lon="13.0409883"><ele>407.5714285714286</ele><time>2026-04-07T11:55:40.832Z</time></trkpt><trkpt lat="43.1519283" lon="13.0410767"><ele>406.8571428571429</ele><time>2026-04-07T11:55:41.831Z</time></trkpt><trkpt lat="43.1519633" lon="13.0411733"><ele>406.1428571428571</ele><time>2026-04-07T11:55:42.832Z</time></trkpt><trkpt lat="43.1520017" lon="13.0412633"><ele>405.42857142857144</ele><time>2026-04-07T11:55:43.831Z</time></trkpt><trkpt lat="43.1520467" lon="13.0413383"><ele>404.7142857142857</ele><time>2026-04-07T11:55:44.832Z</time></trkpt><trkpt lat="43.1520767" lon="13.0414283"><ele>404.0</ele><time>2026-04-07T11:55:45.831Z</time></trkpt><trkpt lat="43.152105" lon="13.0415083"><ele>403.99999999999994</ele><time>2026-04-07T11:55:46.832Z</time></trkpt><trkpt lat="43.1521367" lon="13.0415883"><ele>404.0</ele><time>2026-04-07T11:55:47.832Z</time></trkpt><trkpt lat="43.15217" lon="13.0416617"><ele>404.0</ele><time>2026-04-07T11:55:48.832Z</time></trkpt><trkpt lat="43.152205" lon="13.04174"><ele>404.0</ele><time>2026-04-07T11:55:49.831Z</time></trkpt><trkpt lat="43.1522674" lon="13.0418779"><ele>403.99999999999994</ele><time>2026-04-07T11:55:51.832Z</time></trkpt><trkpt lat="43.1523185" lon="13.0419854"><ele>404.0</ele><time>2026-04-07T11:55:53.832Z</time></trkpt><trkpt lat="43.15236" lon="13.0421367"><ele>402.0</ele><time>2026-04-07T11:56:12.832Z</time></trkpt><trkpt lat="43.1523133" lon="13.0422967"><ele>400.0</ele><time>2026-04-07T11:56:14.831Z</time></trkpt><trkpt lat="43.15227" lon="13.0423917"><ele>398.0</ele><time>2026-04-07T11:56:15.832Z</time></trkpt><trkpt lat="43.1522117" lon="13.0424983"><ele>396.0</ele><time>2026-04-07T11:56:16.832Z</time></trkpt><trkpt lat="43.1521467" lon="13.042615"><ele>394.0</ele><time>2026-04-07T11:56:17.832Z</time></trkpt><trkpt lat="43.15208" lon="13.04274"><ele>393.0</ele><time>2026-04-07T11:56:18.832Z</time></trkpt><trkpt lat="43.1520067" lon="13.0428767"><ele>392.0</ele><time>2026-04-07T11:56:19.832Z</time></trkpt><trkpt lat="43.151925" lon="13.0430017"><ele>391.0</ele><time>2026-04-07T11:56:20.831Z</time></trkpt><trkpt lat="43.15184" lon="13.0431217"><ele>390.0</ele><time>2026-04-07T11:56:21.832Z</time></trkpt><trkpt lat="43.1517567" lon="13.0432183"><ele>389.75</ele><time>2026-04-07T11:56:22.832Z</time></trkpt><trkpt lat="43.15167" lon="13.0433233"><ele>389.5</ele><time>2026-04-07T11:56:23.832Z</time></trkpt><trkpt lat="43.151585" lon="13.0434333"><ele>389.25</ele><time>2026-04-07T11:56:24.832Z</time></trkpt><trkpt lat="43.15149" lon="13.0435417"><ele>389.0</ele><time>2026-04-07T11:56:25.831Z</time></trkpt><trkpt lat="43.15139" lon="13.0436517"><ele>386.5</ele><time>2026-04-07T11:56:26.832Z</time></trkpt><trkpt lat="43.151315" lon="13.0437667"><ele>384.0</ele><time>2026-04-07T11:56:27.832Z</time></trkpt><trkpt lat="43.1512517" lon="13.0438917"><ele>381.5</ele><time>2026-04-07T11:56:28.831Z</time></trkpt><trkpt lat="43.1512067" lon="13.0440333"><ele>379.0</ele><time>2026-04-07T11:56:29.831Z</time></trkpt><trkpt lat="43.1511733" lon="13.044185"><ele>379.0</ele><time>2026-04-07T11:56:30.831Z</time></trkpt><trkpt lat="43.151145" lon="13.044335"><ele>379.0</ele><time>2026-04-07T11:56:31.832Z</time></trkpt><trkpt lat="43.15112" lon="13.0444867"><ele>379.0</ele><time>2026-04-07T11:56:32.831Z</time></trkpt><trkpt lat="43.151095" lon="13.0446267"><ele>379.0</ele><time>2026-04-07T11:56:33.832Z</time></trkpt><trkpt lat="43.15107" lon="13.044765"><ele>379.0</ele><time>2026-04-07T11:56:34.831Z</time></trkpt><trkpt lat="43.15105" lon="13.044885"><ele>379.0</ele><time>2026-04-07T11:56:35.831Z</time></trkpt><trkpt lat="43.1510233" lon="13.04502"><ele>379.0</ele><time>2026-04-07T11:56:36.832Z</time></trkpt><trkpt lat="43.150995" lon="13.0451333"><ele>379.0</ele><time>2026-04-07T11:56:37.832Z</time></trkpt><trkpt lat="43.150955" lon="13.0452367"><ele>379.0</ele><time>2026-04-07T11:56:38.832Z</time></trkpt><trkpt lat="43.1508933" lon="13.0453217"><ele>379.0</ele><time>2026-04-07T11:56:39.832Z</time></trkpt><trkpt lat="43.1508167" lon="13.045395"><ele>379.0</ele><time>2026-04-07T11:56:40.832Z</time></trkpt><trkpt lat="43.150725" lon="13.045435"><ele>379.0</ele><time>2026-04-07T11:56:41.832Z</time></trkpt><trkpt lat="43.1506233" lon="13.0454417"><ele>379.0</ele><time>2026-04-07T11:56:42.832Z</time></trkpt><trkpt lat="43.15052" lon="13.0454117"><ele>379.0</ele><time>2026-04-07T11:56:43.832Z</time></trkpt><trkpt lat="43.150415" lon="13.0453683"><ele>379.0</ele><time>2026-04-07T11:56:44.832Z</time></trkpt><trkpt lat="43.150315" lon="13.0453233"><ele>378.16666666666663</ele><time>2026-04-07T11:56:45.832Z</time></trkpt><trkpt lat="43.1502183" lon="13.045285"><ele>377.3333333333333</ele><time>2026-04-07T11:56:46.831Z</time></trkpt><trkpt lat="43.1501317" lon="13.0452567"><ele>376.5</ele><time>2026-04-07T11:56:47.832Z</time></trkpt><trkpt lat="43.150055" lon="13.0452467"><ele>375.6666666666667</ele><time>2026-04-07T11:56:48.832Z</time></trkpt><trkpt lat="43.1499867" lon="13.0452683"><ele>374.83333333333337</ele><time>2026-04-07T11:56:49.832Z</time></trkpt><trkpt lat="43.1499133" lon="13.0453767"><ele>374.0</ele><time>2026-04-07T11:56:51.832Z</time></trkpt><trkpt lat="43.1499517" lon="13.04551"><ele>374.0</ele><time>2026-04-07T11:56:53.832Z</time></trkpt><trkpt lat="43.1500783" lon="13.045545"><ele>374.0</ele><time>2026-04-07T11:56:55.832Z</time></trkpt><trkpt lat="43.15016" lon="13.0455367"><ele>374.0</ele><time>2026-04-07T11:56:56.832Z</time></trkpt><trkpt lat="43.15025" lon="13.045545"><ele>374.0</ele><time>2026-04-07T11:56:57.832Z</time></trkpt><trkpt lat="43.1503217" lon="13.04559"><ele>374.0</ele><time>2026-04-07T11:56:58.832Z</time></trkpt><trkpt lat="43.1503633" lon="13.0456717"><ele>374.0</ele><time>2026-04-07T11:56:59.832Z</time></trkpt><trkpt lat="43.15038" lon="13.0457617"><ele>374.0</ele><time>2026-04-07T11:57:00.831Z</time></trkpt><trkpt lat="43.1503617" lon="13.045855"><ele>374.0</ele><time>2026-04-07T11:57:01.832Z</time></trkpt><trkpt lat="43.1503233" lon="13.04595"><ele>374.0</ele><time>2026-04-07T11:57:02.832Z</time></trkpt><trkpt lat="43.1502883" lon="13.04606"><ele>374.0</ele><time>2026-04-07T11:57:03.832Z</time></trkpt><trkpt lat="43.1502833" lon="13.046175"><ele>374.0</ele><time>2026-04-07T11:57:04.832Z</time></trkpt><trkpt lat="43.1503067" lon="13.0462917"><ele>374.0</ele><time>2026-04-07T11:57:05.832Z</time></trkpt><trkpt lat="43.1503533" lon="13.0464083"><ele>374.0</ele><time>2026-04-07T11:57:06.832Z</time></trkpt><trkpt lat="43.1503967" lon="13.0465317"><ele>374.0</ele><time>2026-04-07T11:57:07.831Z</time></trkpt><trkpt lat="43.1504167" lon="13.046665"><ele>374.0</ele><time>2026-04-07T11:57:08.832Z</time></trkpt><trkpt lat="43.1504133" lon="13.0468183"><ele>374.0</ele><time>2026-04-07T11:57:09.832Z</time></trkpt><trkpt lat="43.1504117" lon="13.0469867"><ele>374.5</ele><time>2026-04-07T11:57:10.832Z</time></trkpt><trkpt lat="43.1504117" lon="13.0471567"><ele>375.0</ele><time>2026-04-07T11:57:11.832Z</time></trkpt><trkpt lat="43.1504017" lon="13.0473333"><ele>375.5</ele><time>2026-04-07T11:57:12.832Z</time></trkpt><trkpt lat="43.1503817" lon="13.0474783"><ele>376.0</ele><time>2026-04-07T11:57:13.831Z</time></trkpt><trkpt lat="43.1503383" lon="13.0476117"><ele>376.0</ele><time>2026-04-07T11:57:14.832Z</time></trkpt><trkpt lat="43.15028" lon="13.04771"><ele>376.0</ele><time>2026-04-07T11:57:15.831Z</time></trkpt><trkpt lat="43.1502367" lon="13.0477983"><ele>376.0</ele><time>2026-04-07T11:57:16.832Z</time></trkpt><trkpt lat="43.1502233" lon="13.0478917"><ele>376.0</ele><time>2026-04-07T11:57:17.832Z</time></trkpt><trkpt lat="43.1502417" lon="13.0479967"><ele>376.0</ele><time>2026-04-07T11:57:18.831Z</time></trkpt><trkpt lat="43.1502833" lon="13.048085"><ele>376.0</ele><time>2026-04-07T11:57:19.832Z</time></trkpt><trkpt lat="43.15035" lon="13.04817"><ele>376.0</ele><time>2026-04-07T11:57:20.832Z</time></trkpt><trkpt lat="43.1504267" lon="13.04826"><ele>376.0</ele><time>2026-04-07T11:57:21.832Z</time></trkpt><trkpt lat="43.1504867" lon="13.04837"><ele>376.0</ele><time>2026-04-07T11:57:22.832Z</time></trkpt><trkpt lat="43.1505467" lon="13.048485"><ele>376.0</ele><time>2026-04-07T11:57:23.832Z</time></trkpt><trkpt lat="43.1506167" lon="13.048615"><ele>376.0</ele><time>2026-04-07T11:57:24.831Z</time></trkpt><trkpt lat="43.150695" lon="13.048745"><ele>375.25</ele><time>2026-04-07T11:57:25.832Z</time></trkpt><trkpt lat="43.150785" lon="13.04887"><ele>374.5</ele><time>2026-04-07T11:57:26.832Z</time></trkpt><trkpt lat="43.1508967" lon="13.0489717"><ele>373.75</ele><time>2026-04-07T11:57:27.832Z</time></trkpt><trkpt lat="43.151015" lon="13.04903"><ele>373.0</ele><time>2026-04-07T11:57:28.832Z</time></trkpt><trkpt lat="43.151145" lon="13.0490433"><ele>373.0</ele><time>2026-04-07T11:57:29.832Z</time></trkpt><trkpt lat="43.1512817" lon="13.0490133"><ele>373.0</ele><time>2026-04-07T11:57:30.832Z</time></trkpt><trkpt lat="43.1514233" lon="13.0489733"><ele>373.0</ele><time>2026-04-07T11:57:31.832Z</time></trkpt><trkpt lat="43.1515683" lon="13.0489317"><ele>373.0</ele><time>2026-04-07T11:57:32.832Z</time></trkpt><trkpt lat="43.151715" lon="13.0489183"><ele>375.3333333333333</ele><time>2026-04-07T11:57:33.832Z</time></trkpt><trkpt lat="43.151855" lon="13.0489517"><ele>377.6666666666667</ele><time>2026-04-07T11:57:34.832Z</time></trkpt><trkpt lat="43.152005" lon="13.0490167"><ele>380.0</ele><time>2026-04-07T11:57:35.832Z</time></trkpt><trkpt lat="43.1521467" lon="13.0491167"><ele>381.33333333333337</ele><time>2026-04-07T11:57:36.832Z</time></trkpt><trkpt lat="43.1522867" lon="13.049225"><ele>382.6666666666667</ele><time>2026-04-07T11:57:37.832Z</time></trkpt><trkpt lat="43.1524183" lon="13.0493533"><ele>384.0</ele><time>2026-04-07T11:57:38.832Z</time></trkpt><trkpt lat="43.152545" lon="13.049505"><ele>384.0</ele><time>2026-04-07T11:57:39.832Z</time></trkpt><trkpt lat="43.152655" lon="13.0496667"><ele>384.0</ele><time>2026-04-07T11:57:40.831Z</time></trkpt><trkpt lat="43.152775" lon="13.0498283"><ele>384.0</ele><time>2026-04-07T11:57:41.832Z</time></trkpt><trkpt lat="43.1529017" lon="13.0499733"><ele>383.6666666666667</ele><time>2026-04-07T11:57:42.832Z</time></trkpt><trkpt lat="43.1530417" lon="13.0501133"><ele>383.33333333333337</ele><time>2026-04-07T11:57:43.832Z</time></trkpt><trkpt lat="43.15319" lon="13.0502467"><ele>383.0</ele><time>2026-04-07T11:57:44.832Z</time></trkpt><trkpt lat="43.15335" lon="13.0503667"><ele>383.0</ele><time>2026-04-07T11:57:45.832Z</time></trkpt><trkpt lat="43.1535083" lon="13.0504933"><ele>383.0</ele><time>2026-04-07T11:57:46.832Z</time></trkpt><trkpt lat="43.15367" lon="13.0506317"><ele>383.0</ele><time>2026-04-07T11:57:47.832Z</time></trkpt><trkpt lat="43.1538333" lon="13.0507583"><ele>380.33333333333337</ele><time>2026-04-07T11:57:48.832Z</time></trkpt><trkpt lat="43.153995" lon="13.0508683"><ele>377.6666666666667</ele><time>2026-04-07T11:57:49.831Z</time></trkpt><trkpt lat="43.15416" lon="13.0509683"><ele>375.0</ele><time>2026-04-07T11:57:50.832Z</time></trkpt><trkpt lat="43.1543267" lon="13.05107"><ele>375.0</ele><time>2026-04-07T11:57:51.831Z</time></trkpt><trkpt lat="43.1544933" lon="13.05117"><ele>375.0</ele><time>2026-04-07T11:57:52.832Z</time></trkpt><trkpt lat="43.1546533" lon="13.0512683"><ele>375.0</ele><time>2026-04-07T11:57:53.832Z</time></trkpt><trkpt lat="43.154795" lon="13.0513533"><ele>375.3333333333333</ele><time>2026-04-07T11:57:54.832Z</time></trkpt><trkpt lat="43.15494" lon="13.0514467"><ele>375.66666666666663</ele><time>2026-04-07T11:57:55.832Z</time></trkpt><trkpt lat="43.155085" lon="13.0515333"><ele>376.0</ele><time>2026-04-07T11:57:56.832Z</time></trkpt><trkpt lat="43.15524" lon="13.0516117"><ele>375.0</ele><time>2026-04-07T11:57:57.832Z</time></trkpt><trkpt lat="43.1554" lon="13.0516717"><ele>374.0</ele><time>2026-04-07T11:57:58.831Z</time></trkpt><trkpt lat="43.1555683" lon="13.0517117"><ele>373.0</ele><time>2026-04-07T11:57:59.832Z</time></trkpt><trkpt lat="43.155735" lon="13.05174"><ele>372.3333333333333</ele><time>2026-04-07T11:58:00.832Z</time></trkpt><trkpt lat="43.1559" lon="13.0517767"><ele>371.6666666666667</ele><time>2026-04-07T11:58:01.832Z</time></trkpt><trkpt lat="43.156065" lon="13.0518317"><ele>371.0</ele><time>2026-04-07T11:58:02.832Z</time></trkpt><trkpt lat="43.1562217" lon="13.051905"><ele>371.0</ele><time>2026-04-07T11:58:03.832Z</time></trkpt><trkpt lat="43.156375" lon="13.0519817"><ele>371.0</ele><time>2026-04-07T11:58:04.832Z</time></trkpt><trkpt lat="43.156525" lon="13.0520633"><ele>371.0</ele><time>2026-04-07T11:58:05.832Z</time></trkpt><trkpt lat="43.1566783" lon="13.05216"><ele>370.6666666666667</ele><time>2026-04-07T11:58:06.832Z</time></trkpt><trkpt lat="43.1568333" lon="13.05224"><ele>370.3333333333333</ele><time>2026-04-07T11:58:07.831Z</time></trkpt><trkpt lat="43.1569917" lon="13.0523067"><ele>370.0</ele><time>2026-04-07T11:58:08.831Z</time></trkpt><trkpt lat="43.1571617" lon="13.0523633"><ele>370.0</ele><time>2026-04-07T11:58:09.832Z</time></trkpt><trkpt lat="43.1573267" lon="13.0524317"><ele>370.0</ele><time>2026-04-07T11:58:10.832Z</time></trkpt><trkpt lat="43.15748" lon="13.0525183"><ele>370.0</ele><time>2026-04-07T11:58:11.831Z</time></trkpt><trkpt lat="43.1576283" lon="13.05261"><ele>369.0</ele><time>2026-04-07T11:58:12.832Z</time></trkpt><trkpt lat="43.15778" lon="13.0527067"><ele>368.0</ele><time>2026-04-07T11:58:13.832Z</time></trkpt><trkpt lat="43.1579367" lon="13.0527933"><ele>367.0</ele><time>2026-04-07T11:58:14.832Z</time></trkpt><trkpt lat="43.1580867" lon="13.0528733"><ele>366.3333333333333</ele><time>2026-04-07T11:58:15.832Z</time></trkpt><trkpt lat="43.15824" lon="13.0529333"><ele>365.6666666666667</ele><time>2026-04-07T11:58:16.832Z</time></trkpt><trkpt lat="43.1583883" lon="13.05298"><ele>365.0</ele><time>2026-04-07T11:58:17.832Z</time></trkpt><trkpt lat="43.1585417" lon="13.0530117"><ele>365.0</ele><time>2026-04-07T11:58:18.832Z</time></trkpt><trkpt lat="43.1586833" lon="13.053045"><ele>365.0</ele><time>2026-04-07T11:58:19.832Z</time></trkpt><trkpt lat="43.15882" lon="13.053075"><ele>365.0</ele><time>2026-04-07T11:58:20.832Z</time></trkpt><trkpt lat="43.1589467" lon="13.0531"><ele>365.0</ele><time>2026-04-07T11:58:21.832Z</time></trkpt><trkpt lat="43.1590633" lon="13.053125"><ele>364.83333333333337</ele><time>2026-04-07T11:58:22.832Z</time></trkpt><trkpt lat="43.1591633" lon="13.0531517"><ele>364.6666666666667</ele><time>2026-04-07T11:58:23.831Z</time></trkpt><trkpt lat="43.1592483" lon="13.053185"><ele>364.5</ele><time>2026-04-07T11:58:24.832Z</time></trkpt><trkpt lat="43.1593083" lon="13.05323"><ele>364.3333333333333</ele><time>2026-04-07T11:58:25.832Z</time></trkpt><trkpt lat="43.15935" lon="13.0533067"><ele>364.16666666666663</ele><time>2026-04-07T11:58:26.832Z</time></trkpt><trkpt lat="43.1593717" lon="13.0533933"><ele>364.0</ele><time>2026-04-07T11:58:27.832Z</time></trkpt><trkpt lat="43.1593617" lon="13.05349"><ele>363.2</ele><time>2026-04-07T11:58:28.832Z</time></trkpt><trkpt lat="43.159335" lon="13.0536017"><ele>362.4</ele><time>2026-04-07T11:58:29.832Z</time></trkpt><trkpt lat="43.1592833" lon="13.0537317"><ele>361.6</ele><time>2026-04-07T11:58:30.831Z</time></trkpt><trkpt lat="43.15925" lon="13.05387"><ele>360.8</ele><time>2026-04-07T11:58:31.831Z</time></trkpt><trkpt lat="43.15926" lon="13.0540133"><ele>360.0</ele><time>2026-04-07T11:58:32.832Z</time></trkpt><trkpt lat="43.159305" lon="13.054165"><ele>359.5</ele><time>2026-04-07T11:58:33.832Z</time></trkpt><trkpt lat="43.1593733" lon="13.0543133"><ele>359.0</ele><time>2026-04-07T11:58:34.832Z</time></trkpt><trkpt lat="43.15946" lon="13.054455"><ele>358.5</ele><time>2026-04-07T11:58:35.832Z</time></trkpt><trkpt lat="43.1595533" lon="13.0545933"><ele>358.0</ele><time>2026-04-07T11:58:36.831Z</time></trkpt><trkpt lat="43.15965" lon="13.0547433"><ele>358.0</ele><time>2026-04-07T11:58:37.832Z</time></trkpt><trkpt lat="43.15975" lon="13.0548917"><ele>358.0</ele><time>2026-04-07T11:58:38.832Z</time></trkpt><trkpt lat="43.159855" lon="13.0550433"><ele>358.0</ele><time>2026-04-07T11:58:39.832Z</time></trkpt><trkpt lat="43.159965" lon="13.0551883"><ele>356.75</ele><time>2026-04-07T11:58:40.832Z</time></trkpt><trkpt lat="43.16008" lon="13.05533"><ele>355.5</ele><time>2026-04-07T11:58:41.831Z</time></trkpt><trkpt lat="43.1601917" lon="13.0554617"><ele>354.25</ele><time>2026-04-07T11:58:42.832Z</time></trkpt><trkpt lat="43.1602967" lon="13.0555917"><ele>353.0</ele><time>2026-04-07T11:58:43.832Z</time></trkpt><trkpt lat="43.1603983" lon="13.0557167"><ele>354.25</ele><time>2026-04-07T11:58:44.831Z</time></trkpt><trkpt lat="43.1604833" lon="13.055845"><ele>355.5</ele><time>2026-04-07T11:58:45.832Z</time></trkpt><trkpt lat="43.160565" lon="13.05598"><ele>356.75</ele><time>2026-04-07T11:58:46.832Z</time></trkpt><trkpt lat="43.1606333" lon="13.0561217"><ele>358.0</ele><time>2026-04-07T11:58:47.832Z</time></trkpt><trkpt lat="43.1606867" lon="13.05627"><ele>357.25</ele><time>2026-04-07T11:58:48.831Z</time></trkpt><trkpt lat="43.1607183" lon="13.056435"><ele>356.5</ele><time>2026-04-07T11:58:49.832Z</time></trkpt><trkpt lat="43.1607333" lon="13.056605"><ele>355.75</ele><time>2026-04-07T11:58:50.832Z</time></trkpt><trkpt lat="43.1607583" lon="13.056785"><ele>355.0</ele><time>2026-04-07T11:58:51.831Z</time></trkpt><trkpt lat="43.1607983" lon="13.0569533"><ele>355.0</ele><time>2026-04-07T11:58:52.832Z</time></trkpt><trkpt lat="43.1608433" lon="13.0571317"><ele>355.0</ele><time>2026-04-07T11:58:53.831Z</time></trkpt><trkpt lat="43.1609" lon="13.05732"><ele>355.0</ele><time>2026-04-07T11:58:54.832Z</time></trkpt><trkpt lat="43.1609667" lon="13.057505"><ele>355.0</ele><time>2026-04-07T11:58:55.832Z</time></trkpt><trkpt lat="43.1610367" lon="13.0576917"><ele>355.75</ele><time>2026-04-07T11:58:56.831Z</time></trkpt><trkpt lat="43.1611033" lon="13.0578683"><ele>356.5</ele><time>2026-04-07T11:58:57.831Z</time></trkpt><trkpt lat="43.1611633" lon="13.0580567"><ele>357.25</ele><time>2026-04-07T11:58:58.832Z</time></trkpt><trkpt lat="43.161215" lon="13.05823"><ele>358.0</ele><time>2026-04-07T11:58:59.832Z</time></trkpt><trkpt lat="43.1612617" lon="13.0584033"><ele>359.25</ele><time>2026-04-07T11:59:00.832Z</time></trkpt><trkpt lat="43.1613083" lon="13.0585733"><ele>360.5</ele><time>2026-04-07T11:59:01.832Z</time></trkpt><trkpt lat="43.16136" lon="13.0587383"><ele>361.75</ele><time>2026-04-07T11:59:02.832Z</time></trkpt><trkpt lat="43.16141" lon="13.0589067"><ele>363.0</ele><time>2026-04-07T11:59:03.832Z</time></trkpt><trkpt lat="43.1614517" lon="13.0590767"><ele>363.75</ele><time>2026-04-07T11:59:04.831Z</time></trkpt><trkpt lat="43.1614783" lon="13.059245"><ele>364.5</ele><time>2026-04-07T11:59:05.831Z</time></trkpt><trkpt lat="43.1614967" lon="13.05941"><ele>365.25</ele><time>2026-04-07T11:59:06.832Z</time></trkpt><trkpt lat="43.1615233" lon="13.0595583"><ele>366.0</ele><time>2026-04-07T11:59:07.832Z</time></trkpt><trkpt lat="43.1615417" lon="13.0596917"><ele>366.0</ele><time>2026-04-07T11:59:08.831Z</time></trkpt><trkpt lat="43.16155" lon="13.0598183"><ele>366.0</ele><time>2026-04-07T11:59:09.832Z</time></trkpt><trkpt lat="43.1615583" lon="13.0599317"><ele>366.0</ele><time>2026-04-07T11:59:10.832Z</time></trkpt><trkpt lat="43.1615617" lon="13.0600267"><ele>366.0</ele><time>2026-04-07T11:59:11.832Z</time></trkpt><trkpt lat="43.16155" lon="13.060145"><ele>366.0</ele><time>2026-04-07T11:59:13.831Z</time></trkpt><trkpt lat="43.161525" lon="13.0602467"><ele>366.0</ele><time>2026-04-07T11:59:15.831Z</time></trkpt><trkpt lat="43.161455" lon="13.0603883"><ele>366.0</ele><time>2026-04-07T11:59:17.831Z</time></trkpt><trkpt lat="43.1614367" lon="13.0604833"><ele>366.0</ele><time>2026-04-07T11:59:18.832Z</time></trkpt><trkpt lat="43.16145" lon="13.0605867"><ele>366.0</ele><time>2026-04-07T11:59:19.831Z</time></trkpt><trkpt lat="43.1614817" lon="13.0607067"><ele>366.0</ele><time>2026-04-07T11:59:20.832Z</time></trkpt><trkpt lat="43.1615283" lon="13.0608367"><ele>366.0</ele><time>2026-04-07T11:59:21.832Z</time></trkpt><trkpt lat="43.1615683" lon="13.0609717"><ele>364.8</ele><time>2026-04-07T11:59:22.832Z</time></trkpt><trkpt lat="43.161595" lon="13.061115"><ele>363.6</ele><time>2026-04-07T11:59:23.831Z</time></trkpt><trkpt lat="43.161615" lon="13.0612617"><ele>362.4</ele><time>2026-04-07T11:59:24.832Z</time></trkpt><trkpt lat="43.1616267" lon="13.0614117"><ele>361.2</ele><time>2026-04-07T11:59:25.832Z</time></trkpt><trkpt lat="43.161625" lon="13.061555"><ele>360.0</ele><time>2026-04-07T11:59:26.832Z</time></trkpt><trkpt lat="43.1616067" lon="13.0616867"><ele>360.0</ele><time>2026-04-07T11:59:27.832Z</time></trkpt><trkpt lat="43.1615683" lon="13.06181"><ele>360.0</ele><time>2026-04-07T11:59:28.832Z</time></trkpt><trkpt lat="43.16151" lon="13.0619217"><ele>360.0</ele><time>2026-04-07T11:59:29.832Z</time></trkpt><trkpt lat="43.1614467" lon="13.0620383"><ele>360.0</ele><time>2026-04-07T11:59:30.832Z</time></trkpt><trkpt lat="43.1613933" lon="13.062165"><ele>360.0</ele><time>2026-04-07T11:59:31.832Z</time></trkpt><trkpt lat="43.16136" lon="13.0623067"><ele>360.4</ele><time>2026-04-07T11:59:32.832Z</time></trkpt><trkpt lat="43.16134" lon="13.0624583"><ele>360.8</ele><time>2026-04-07T11:59:33.832Z</time></trkpt><trkpt lat="43.1613183" lon="13.0625983"><ele>361.20000000000005</ele><time>2026-04-07T11:59:34.832Z</time></trkpt><trkpt lat="43.1612833" lon="13.06273"><ele>361.6</ele><time>2026-04-07T11:59:35.832Z</time></trkpt><trkpt lat="43.1612283" lon="13.0628467"><ele>362.0</ele><time>2026-04-07T11:59:36.831Z</time></trkpt><trkpt lat="43.1611567" lon="13.0629717"><ele>362.0</ele><time>2026-04-07T11:59:37.831Z</time></trkpt><trkpt lat="43.1610533" lon="13.0630917"><ele>362.0</ele><time>2026-04-07T11:59:38.832Z</time></trkpt><trkpt lat="43.1609383" lon="13.0632267"><ele>362.0</ele><time>2026-04-07T11:59:39.832Z</time></trkpt><trkpt lat="43.1608367" lon="13.063375"><ele>362.0</ele><time>2026-04-07T11:59:40.832Z</time></trkpt><trkpt lat="43.1607467" lon="13.0635183"><ele>363.6666666666667</ele><time>2026-04-07T11:59:41.831Z</time></trkpt><trkpt lat="43.1606417" lon="13.06368"><ele>365.3333333333333</ele><time>2026-04-07T11:59:42.831Z</time></trkpt><trkpt lat="43.1605417" lon="13.06383"><ele>367.0</ele><time>2026-04-07T11:59:43.832Z</time></trkpt><trkpt lat="43.1604517" lon="13.0639883"><ele>368.25</ele><time>2026-04-07T11:59:44.832Z</time></trkpt><trkpt lat="43.1603683" lon="13.06415"><ele>369.5</ele><time>2026-04-07T11:59:45.832Z</time></trkpt><trkpt lat="43.1603017" lon="13.0643083"><ele>370.75</ele><time>2026-04-07T11:59:46.831Z</time></trkpt><trkpt lat="43.160245" lon="13.0644383"><ele>372.0</ele><time>2026-04-07T11:59:47.832Z</time></trkpt><trkpt lat="43.16019" lon="13.06454"><ele>372.0</ele><time>2026-04-07T11:59:48.831Z</time></trkpt><trkpt lat="43.1601317" lon="13.0646017"><ele>372.0</ele><time>2026-04-07T11:59:49.832Z</time></trkpt><trkpt lat="43.1600733" lon="13.0646417"><ele>372.0</ele><time>2026-04-07T11:59:50.832Z</time></trkpt><trkpt lat="43.1599467" lon="13.0645967"><ele>372.0</ele><time>2026-04-07T11:59:52.832Z</time></trkpt><trkpt lat="43.1598767" lon="13.06453"><ele>372.0</ele><time>2026-04-07T11:59:53.832Z</time></trkpt><trkpt lat="43.1597983" lon="13.064465"><ele>372.0</ele><time>2026-04-07T11:59:54.832Z</time></trkpt><trkpt lat="43.1597133" lon="13.06442"><ele>373.6</ele><time>2026-04-07T11:59:55.832Z</time></trkpt><trkpt lat="43.15963" lon="13.0643933"><ele>375.20000000000005</ele><time>2026-04-07T11:59:56.831Z</time></trkpt><trkpt lat="43.15954" lon="13.0644"><ele>376.8</ele><time>2026-04-07T11:59:57.831Z</time></trkpt><trkpt lat="43.1594483" lon="13.06443"><ele>378.4</ele><time>2026-04-07T11:59:58.832Z</time></trkpt><trkpt lat="43.15936" lon="13.064485"><ele>380.0</ele><time>2026-04-07T11:59:59.832Z</time></trkpt><trkpt lat="43.1592667" lon="13.0645417"><ele>380.0</ele><time>2026-04-07T12:00:00.832Z</time></trkpt><trkpt lat="43.1591733" lon="13.0646083"><ele>380.0</ele><time>2026-04-07T12:00:01.832Z</time></trkpt><trkpt lat="43.15909" lon="13.0646983"><ele>380.0</ele><time>2026-04-07T12:00:02.831Z</time></trkpt><trkpt lat="43.1590067" lon="13.0648017"><ele>380.0</ele><time>2026-04-07T12:00:03.832Z</time></trkpt><trkpt lat="43.15894" lon="13.0649167"><ele>380.0</ele><time>2026-04-07T12:00:04.832Z</time></trkpt><trkpt lat="43.1588883" lon="13.0650533"><ele>382.5</ele><time>2026-04-07T12:00:05.831Z</time></trkpt><trkpt lat="43.1588617" lon="13.065195"><ele>385.0</ele><time>2026-04-07T12:00:06.831Z</time></trkpt><trkpt lat="43.158845" lon="13.06535"><ele>387.5</ele><time>2026-04-07T12:00:07.832Z</time></trkpt><trkpt lat="43.1588333" lon="13.065515"><ele>390.0</ele><time>2026-04-07T12:00:08.832Z</time></trkpt><trkpt lat="43.1588083" lon="13.0656783"><ele>392.75</ele><time>2026-04-07T12:00:09.831Z</time></trkpt><trkpt lat="43.1587767" lon="13.0658433"><ele>395.5</ele><time>2026-04-07T12:00:10.832Z</time></trkpt><trkpt lat="43.158735" lon="13.0660117"><ele>398.25</ele><time>2026-04-07T12:00:11.831Z</time></trkpt><trkpt lat="43.1586917" lon="13.0661717"><ele>401.0</ele><time>2026-04-07T12:00:12.831Z</time></trkpt><trkpt lat="43.1586383" lon="13.0663333"><ele>401.0</ele><time>2026-04-07T12:00:13.832Z</time></trkpt><trkpt lat="43.158595" lon="13.0665033"><ele>401.0</ele><time>2026-04-07T12:00:14.832Z</time></trkpt><trkpt lat="43.158555" lon="13.0666783"><ele>401.0</ele><time>2026-04-07T12:00:15.832Z</time></trkpt><trkpt lat="43.1585283" lon="13.0668433"><ele>401.0</ele><time>2026-04-07T12:00:16.832Z</time></trkpt><trkpt lat="43.1585183" lon="13.0670083"><ele>402.8</ele><time>2026-04-07T12:00:17.831Z</time></trkpt><trkpt lat="43.1585017" lon="13.0671617"><ele>404.6</ele><time>2026-04-07T12:00:18.831Z</time></trkpt><trkpt lat="43.15848" lon="13.0672983"><ele>406.4</ele><time>2026-04-07T12:00:19.832Z</time></trkpt><trkpt lat="43.158445" lon="13.067445"><ele>408.2</ele><time>2026-04-07T12:00:20.831Z</time></trkpt><trkpt lat="43.1584017" lon="13.0675983"><ele>410.0</ele><time>2026-04-07T12:00:21.831Z</time></trkpt><trkpt lat="43.1583583" lon="13.0677583"><ele>411.25</ele><time>2026-04-07T12:00:22.831Z</time></trkpt><trkpt lat="43.1583183" lon="13.0679133"><ele>412.5</ele><time>2026-04-07T12:00:23.832Z</time></trkpt><trkpt lat="43.1582917" lon="13.0680633"><ele>413.75</ele><time>2026-04-07T12:00:24.832Z</time></trkpt><trkpt lat="43.158295" lon="13.068215"><ele>415.0</ele><time>2026-04-07T12:00:25.832Z</time></trkpt><trkpt lat="43.15831" lon="13.06838"><ele>415.0</ele><time>2026-04-07T12:00:26.832Z</time></trkpt><trkpt lat="43.1583233" lon="13.0685483"><ele>415.0</ele><time>2026-04-07T12:00:27.832Z</time></trkpt><trkpt lat="43.1583167" lon="13.068725"><ele>415.0</ele><time>2026-04-07T12:00:28.832Z</time></trkpt><trkpt lat="43.1583083" lon="13.0689067"><ele>415.0</ele><time>2026-04-07T12:00:29.831Z</time></trkpt><trkpt lat="43.1582933" lon="13.0690883"><ele>415.6</ele><time>2026-04-07T12:00:30.832Z</time></trkpt><trkpt lat="43.1582783" lon="13.0692567"><ele>416.2</ele><time>2026-04-07T12:00:31.832Z</time></trkpt><trkpt lat="43.1582683" lon="13.06941"><ele>416.79999999999995</ele><time>2026-04-07T12:00:32.832Z</time></trkpt><trkpt lat="43.1582517" lon="13.0695333"><ele>417.4</ele><time>2026-04-07T12:00:33.832Z</time></trkpt><trkpt lat="43.1582333" lon="13.069625"><ele>418.0</ele><time>2026-04-07T12:00:34.832Z</time></trkpt><trkpt lat="43.15821" lon="13.06971"><ele>420.4</ele><time>2026-04-07T12:00:35.832Z</time></trkpt><trkpt lat="43.158165" lon="13.0697933"><ele>422.79999999999995</ele><time>2026-04-07T12:00:36.832Z</time></trkpt><trkpt lat="43.1581033" lon="13.0698667"><ele>425.2</ele><time>2026-04-07T12:00:37.832Z</time></trkpt><trkpt lat="43.1580367" lon="13.0699417"><ele>427.6</ele><time>2026-04-07T12:00:38.832Z</time></trkpt><trkpt lat="43.1579767" lon="13.070065"><ele>430.0</ele><time>2026-04-07T12:00:39.831Z</time></trkpt><trkpt lat="43.1579233" lon="13.07021"><ele>432.5</ele><time>2026-04-07T12:00:40.832Z</time></trkpt><trkpt lat="43.1578717" lon="13.0703517"><ele>435.0</ele><time>2026-04-07T12:00:41.832Z</time></trkpt><trkpt lat="43.157805" lon="13.070485"><ele>437.5</ele><time>2026-04-07T12:00:42.832Z</time></trkpt><trkpt lat="43.1577283" lon="13.0706"><ele>440.0</ele><time>2026-04-07T12:00:43.832Z</time></trkpt><trkpt lat="43.1576367" lon="13.0706833"><ele>440.0</ele><time>2026-04-07T12:00:44.832Z</time></trkpt><trkpt lat="43.1575333" lon="13.070745"><ele>440.0</ele><time>2026-04-07T12:00:45.832Z</time></trkpt><trkpt lat="43.1574183" lon="13.0707983"><ele>440.0</ele><time>2026-04-07T12:00:46.832Z</time></trkpt><trkpt lat="43.1572933" lon="13.07086"><ele>440.0</ele><time>2026-04-07T12:00:47.832Z</time></trkpt><trkpt lat="43.15717" lon="13.0709333"><ele>441.75</ele><time>2026-04-07T12:00:48.831Z</time></trkpt><trkpt lat="43.1570483" lon="13.071"><ele>443.5</ele><time>2026-04-07T12:00:49.832Z</time></trkpt><trkpt lat="43.15693" lon="13.0710817"><ele>445.25</ele><time>2026-04-07T12:00:50.832Z</time></trkpt><trkpt lat="43.1568217" lon="13.0711617"><ele>447.0</ele><time>2026-04-07T12:00:51.832Z</time></trkpt><trkpt lat="43.15673" lon="13.0712467"><ele>447.0</ele><time>2026-04-07T12:00:52.831Z</time></trkpt><trkpt lat="43.1566617" lon="13.07137"><ele>447.0</ele><time>2026-04-07T12:00:53.832Z</time></trkpt><trkpt lat="43.1566133" lon="13.0715117"><ele>447.0</ele><time>2026-04-07T12:00:54.832Z</time></trkpt><trkpt lat="43.1565717" lon="13.0716717"><ele>447.0</ele><time>2026-04-07T12:00:55.832Z</time></trkpt><trkpt lat="43.1565267" lon="13.0718317"><ele>448.25</ele><time>2026-04-07T12:00:56.831Z</time></trkpt><trkpt lat="43.156485" lon="13.071995"><ele>449.5</ele><time>2026-04-07T12:00:57.832Z</time></trkpt><trkpt lat="43.1564483" lon="13.072145"><ele>450.75</ele><time>2026-04-07T12:00:58.832Z</time></trkpt><trkpt lat="43.1564" lon="13.0722833"><ele>452.0</ele><time>2026-04-07T12:00:59.832Z</time></trkpt><trkpt lat="43.15634" lon="13.0724167"><ele>454.25</ele><time>2026-04-07T12:01:00.832Z</time></trkpt><trkpt lat="43.1562533" lon="13.0725433"><ele>456.5</ele><time>2026-04-07T12:01:01.832Z</time></trkpt><trkpt lat="43.1561583" lon="13.072665"><ele>458.75</ele><time>2026-04-07T12:01:02.831Z</time></trkpt><trkpt lat="43.1560567" lon="13.0727883"><ele>461.0</ele><time>2026-04-07T12:01:03.832Z</time></trkpt><trkpt lat="43.1559517" lon="13.072905"><ele>461.0</ele><time>2026-04-07T12:01:04.832Z</time></trkpt><trkpt lat="43.1558417" lon="13.073025"><ele>461.0</ele><time>2026-04-07T12:01:05.832Z</time></trkpt><trkpt lat="43.155735" lon="13.073135"><ele>461.0</ele><time>2026-04-07T12:01:06.832Z</time></trkpt><trkpt lat="43.1556383" lon="13.0732233"><ele>461.0</ele><time>2026-04-07T12:01:07.832Z</time></trkpt><trkpt lat="43.15554" lon="13.073315"><ele>462.4</ele><time>2026-04-07T12:01:08.832Z</time></trkpt><trkpt lat="43.1554467" lon="13.0733883"><ele>463.8</ele><time>2026-04-07T12:01:09.832Z</time></trkpt><trkpt lat="43.15536" lon="13.07344"><ele>465.19999999999993</ele><time>2026-04-07T12:01:10.832Z</time></trkpt><trkpt lat="43.155265" lon="13.0734717"><ele>466.59999999999997</ele><time>2026-04-07T12:01:11.832Z</time></trkpt><trkpt lat="43.1551667" lon="13.0734667"><ele>468.0</ele><time>2026-04-07T12:01:12.832Z</time></trkpt><trkpt lat="43.1550567" lon="13.073465"><ele>468.0</ele><time>2026-04-07T12:01:13.831Z</time></trkpt><trkpt lat="43.154935" lon="13.0734617"><ele>468.0</ele><time>2026-04-07T12:01:14.832Z</time></trkpt><trkpt lat="43.1548083" lon="13.07345"><ele>468.0</ele><time>2026-04-07T12:01:15.832Z</time></trkpt><trkpt lat="43.1546717" lon="13.07343"><ele>468.0</ele><time>2026-04-07T12:01:16.832Z</time></trkpt><trkpt lat="43.1545333" lon="13.07342"><ele>468.5</ele><time>2026-04-07T12:01:17.831Z</time></trkpt><trkpt lat="43.1543933" lon="13.0734383"><ele>469.0</ele><time>2026-04-07T12:01:18.832Z</time></trkpt><trkpt lat="43.1542567" lon="13.0734583"><ele>469.5</ele><time>2026-04-07T12:01:19.832Z</time></trkpt><trkpt lat="43.15412" lon="13.0734867"><ele>470.0</ele><time>2026-04-07T12:01:20.832Z</time></trkpt><trkpt lat="43.1539783" lon="13.073535"><ele>470.25</ele><time>2026-04-07T12:01:21.831Z</time></trkpt><trkpt lat="43.1538467" lon="13.0735967"><ele>470.5</ele><time>2026-04-07T12:01:22.831Z</time></trkpt><trkpt lat="43.1537167" lon="13.0736717"><ele>470.75</ele><time>2026-04-07T12:01:23.831Z</time></trkpt><trkpt lat="43.1535883" lon="13.0737683"><ele>471.0</ele><time>2026-04-07T12:01:24.832Z</time></trkpt><trkpt lat="43.1534667" lon="13.0738667"><ele>471.0</ele><time>2026-04-07T12:01:25.831Z</time></trkpt><trkpt lat="43.1533483" lon="13.0739517"><ele>471.0</ele><time>2026-04-07T12:01:26.831Z</time></trkpt><trkpt lat="43.1532267" lon="13.0740433"><ele>471.0</ele><time>2026-04-07T12:01:27.832Z</time></trkpt><trkpt lat="43.153115" lon="13.074125"><ele>471.0</ele><time>2026-04-07T12:01:28.832Z</time></trkpt><trkpt lat="43.1530167" lon="13.0742033"><ele>473.0</ele><time>2026-04-07T12:01:29.832Z</time></trkpt><trkpt lat="43.1529333" lon="13.07426"><ele>475.0</ele><time>2026-04-07T12:01:30.832Z</time></trkpt><trkpt lat="43.1528383" lon="13.0742717"><ele>477.0</ele><time>2026-04-07T12:01:31.831Z</time></trkpt><trkpt lat="43.1527367" lon="13.0742667"><ele>479.0</ele><time>2026-04-07T12:01:32.832Z</time></trkpt><trkpt lat="43.1526233" lon="13.0742633"><ele>481.0</ele><time>2026-04-07T12:01:33.832Z</time></trkpt><trkpt lat="43.152505" lon="13.0742817"><ele>481.0</ele><time>2026-04-07T12:01:34.832Z</time></trkpt><trkpt lat="43.152385" lon="13.0743367"><ele>481.0</ele><time>2026-04-07T12:01:35.832Z</time></trkpt><trkpt lat="43.1522617" lon="13.0744"><ele>481.0</ele><time>2026-04-07T12:01:36.832Z</time></trkpt><trkpt lat="43.1521433" lon="13.0744617"><ele>481.0</ele><time>2026-04-07T12:01:37.832Z</time></trkpt><trkpt lat="43.1520433" lon="13.0745117"><ele>481.25</ele><time>2026-04-07T12:01:38.831Z</time></trkpt><trkpt lat="43.151935" lon="13.0745417"><ele>481.5</ele><time>2026-04-07T12:01:39.831Z</time></trkpt><trkpt lat="43.1518167" lon="13.0745367"><ele>481.75</ele><time>2026-04-07T12:01:40.831Z</time></trkpt><trkpt lat="43.1517" lon="13.0745283"><ele>482.0</ele><time>2026-04-07T12:01:41.831Z</time></trkpt><trkpt lat="43.1515717" lon="13.074505"><ele>484.0</ele><time>2026-04-07T12:01:42.832Z</time></trkpt><trkpt lat="43.151445" lon="13.0744767"><ele>486.0</ele><time>2026-04-07T12:01:43.832Z</time></trkpt><trkpt lat="43.1513267" lon="13.0744517"><ele>488.0</ele><time>2026-04-07T12:01:44.832Z</time></trkpt><trkpt lat="43.1512083" lon="13.0744167"><ele>490.0</ele><time>2026-04-07T12:01:45.831Z</time></trkpt><trkpt lat="43.1510883" lon="13.0743733"><ele>490.0</ele><time>2026-04-07T12:01:46.832Z</time></trkpt><trkpt lat="43.1509767" lon="13.0743167"><ele>490.0</ele><time>2026-04-07T12:01:47.831Z</time></trkpt><trkpt lat="43.1508883" lon="13.0742367"><ele>490.0</ele><time>2026-04-07T12:01:48.832Z</time></trkpt><trkpt lat="43.150805" lon="13.0741183"><ele>490.0</ele><time>2026-04-07T12:01:49.832Z</time></trkpt><trkpt lat="43.15075" lon="13.07397"><ele>491.6</ele><time>2026-04-07T12:01:50.832Z</time></trkpt><trkpt lat="43.1507017" lon="13.0738133"><ele>493.2</ele><time>2026-04-07T12:01:51.832Z</time></trkpt><trkpt lat="43.15066" lon="13.073665"><ele>494.79999999999995</ele><time>2026-04-07T12:01:52.832Z</time></trkpt><trkpt lat="43.1506117" lon="13.07353"><ele>496.4</ele><time>2026-04-07T12:01:53.832Z</time></trkpt><trkpt lat="43.15057" lon="13.073415"><ele>498.0</ele><time>2026-04-07T12:01:54.831Z</time></trkpt><trkpt lat="43.150515" lon="13.0733333"><ele>498.0</ele><time>2026-04-07T12:01:55.832Z</time></trkpt><trkpt lat="43.1504533" lon="13.0732683"><ele>497.99999999999994</ele><time>2026-04-07T12:01:56.832Z</time></trkpt><trkpt lat="43.1503767" lon="13.073235"><ele>497.99999999999994</ele><time>2026-04-07T12:01:57.832Z</time></trkpt><trkpt lat="43.1502883" lon="13.0732333"><ele>498.0</ele><time>2026-04-07T12:01:58.832Z</time></trkpt><trkpt lat="43.1501833" lon="13.0732483"><ele>498.0</ele><time>2026-04-07T12:01:59.832Z</time></trkpt><trkpt lat="43.1500617" lon="13.0732917"><ele>498.0</ele><time>2026-04-07T12:02:00.831Z</time></trkpt><trkpt lat="43.1499417" lon="13.0733467"><ele>498.0</ele><time>2026-04-07T12:02:01.832Z</time></trkpt><trkpt lat="43.1498167" lon="13.0733883"><ele>498.0</ele><time>2026-04-07T12:02:02.832Z</time></trkpt><trkpt lat="43.1496867" lon="13.073435"><ele>498.0</ele><time>2026-04-07T12:02:03.832Z</time></trkpt><trkpt lat="43.1495417" lon="13.0734633"><ele>497.25</ele><time>2026-04-07T12:02:04.832Z</time></trkpt><trkpt lat="43.1493967" lon="13.073485"><ele>496.5</ele><time>2026-04-07T12:02:05.832Z</time></trkpt><trkpt lat="43.1492483" lon="13.073495"><ele>495.75</ele><time>2026-04-07T12:02:06.832Z</time></trkpt><trkpt lat="43.1491083" lon="13.0735117"><ele>495.0</ele><time>2026-04-07T12:02:07.832Z</time></trkpt><trkpt lat="43.14897" lon="13.07352"><ele>494.75</ele><time>2026-04-07T12:02:08.832Z</time></trkpt><trkpt lat="43.1488533" lon="13.073535"><ele>494.5</ele><time>2026-04-07T12:02:09.832Z</time></trkpt><trkpt lat="43.14873" lon="13.0735733"><ele>494.25</ele><time>2026-04-07T12:02:10.831Z</time></trkpt><trkpt lat="43.1486183" lon="13.07365"><ele>494.0</ele><time>2026-04-07T12:02:11.832Z</time></trkpt><trkpt lat="43.1485133" lon="13.0737517"><ele>494.0</ele><time>2026-04-07T12:02:12.831Z</time></trkpt><trkpt lat="43.14841" lon="13.0738583"><ele>494.0</ele><time>2026-04-07T12:02:13.832Z</time></trkpt><trkpt lat="43.1482933" lon="13.0739383"><ele>494.0</ele><time>2026-04-07T12:02:14.831Z</time></trkpt><trkpt lat="43.148175" lon="13.07398"><ele>494.0</ele><time>2026-04-07T12:02:15.832Z</time></trkpt><trkpt lat="43.148055" lon="13.073985"><ele>497.75</ele><time>2026-04-07T12:02:16.832Z</time></trkpt><trkpt lat="43.14793" lon="13.0739567"><ele>501.5</ele><time>2026-04-07T12:02:17.832Z</time></trkpt><trkpt lat="43.1478067" lon="13.0739183"><ele>505.25</ele><time>2026-04-07T12:02:18.832Z</time></trkpt><trkpt lat="43.1476767" lon="13.0738783"><ele>509.0</ele><time>2026-04-07T12:02:19.831Z</time></trkpt><trkpt lat="43.1475433" lon="13.0738433"><ele>509.0</ele><time>2026-04-07T12:02:20.832Z</time></trkpt><trkpt lat="43.1474117" lon="13.0738067"><ele>509.0</ele><time>2026-04-07T12:02:21.832Z</time></trkpt><trkpt lat="43.14728" lon="13.0737767"><ele>509.0</ele><time>2026-04-07T12:02:22.832Z</time></trkpt><trkpt lat="43.1471517" lon="13.0737483"><ele>509.0</ele><time>2026-04-07T12:02:23.832Z</time></trkpt><trkpt lat="43.14703" lon="13.0737283"><ele>510.75</ele><time>2026-04-07T12:02:24.832Z</time></trkpt><trkpt lat="43.146905" lon="13.073705"><ele>512.5</ele><time>2026-04-07T12:02:25.831Z</time></trkpt><trkpt lat="43.1467817" lon="13.0736833"><ele>514.25</ele><time>2026-04-07T12:02:26.832Z</time></trkpt><trkpt lat="43.1466567" lon="13.0736583"><ele>516.0</ele><time>2026-04-07T12:02:27.831Z</time></trkpt><trkpt lat="43.14653" lon="13.073645"><ele>516.5</ele><time>2026-04-07T12:02:28.832Z</time></trkpt><trkpt lat="43.1464067" lon="13.0736583"><ele>517.0</ele><time>2026-04-07T12:02:29.832Z</time></trkpt><trkpt lat="43.1462683" lon="13.0736283"><ele>517.5</ele><time>2026-04-07T12:02:30.832Z</time></trkpt><trkpt lat="43.14612" lon="13.0736033"><ele>518.0</ele><time>2026-04-07T12:02:31.832Z</time></trkpt><trkpt lat="43.1459683" lon="13.073575"><ele>518.0</ele><time>2026-04-07T12:02:32.832Z</time></trkpt><trkpt lat="43.1458183" lon="13.0735533"><ele>518.0</ele><time>2026-04-07T12:02:33.831Z</time></trkpt><trkpt lat="43.145665" lon="13.0735367"><ele>518.0</ele><time>2026-04-07T12:02:34.832Z</time></trkpt><trkpt lat="43.1455083" lon="13.0735317"><ele>520.3333333333333</ele><time>2026-04-07T12:02:35.832Z</time></trkpt><trkpt lat="43.1453533" lon="13.073515"><ele>522.6666666666666</ele><time>2026-04-07T12:02:36.832Z</time></trkpt><trkpt lat="43.1452" lon="13.0734983"><ele>525.0</ele><time>2026-04-07T12:02:37.832Z</time></trkpt><trkpt lat="43.145045" lon="13.0734867"><ele>525.0</ele><time>2026-04-07T12:02:38.832Z</time></trkpt><trkpt lat="43.1448933" lon="13.073475"><ele>525.0</ele><time>2026-04-07T12:02:39.831Z</time></trkpt><trkpt lat="43.1447483" lon="13.0734617"><ele>525.0</ele><time>2026-04-07T12:02:40.832Z</time></trkpt><trkpt lat="43.1446017" lon="13.073455"><ele>525.0</ele><time>2026-04-07T12:02:41.832Z</time></trkpt><trkpt lat="43.144455" lon="13.0734433"><ele>527.75</ele><time>2026-04-07T12:02:42.832Z</time></trkpt><trkpt lat="43.144315" lon="13.0734367"><ele>530.5</ele><time>2026-04-07T12:02:43.832Z</time></trkpt><trkpt lat="43.1441767" lon="13.0734267"><ele>533.25</ele><time>2026-04-07T12:02:44.832Z</time></trkpt><trkpt lat="43.1440417" lon="13.0733967"><ele>536.0</ele><time>2026-04-07T12:02:45.832Z</time></trkpt><trkpt lat="43.143905" lon="13.0733733"><ele>538.0</ele><time>2026-04-07T12:02:46.831Z</time></trkpt><trkpt lat="43.1437733" lon="13.0733567"><ele>540.0</ele><time>2026-04-07T12:02:47.832Z</time></trkpt><trkpt lat="43.1436667" lon="13.0733467"><ele>542.0</ele><time>2026-04-07T12:02:48.832Z</time></trkpt><trkpt lat="43.1435717" lon="13.0733333"><ele>544.0</ele><time>2026-04-07T12:02:49.832Z</time></trkpt><trkpt lat="43.1434967" lon="13.0733233"><ele>546.0</ele><time>2026-04-07T12:02:50.832Z</time></trkpt><trkpt lat="43.1434283" lon="13.0733333"><ele>546.0</ele><time>2026-04-07T12:02:52.832Z</time></trkpt><trkpt lat="43.1434" lon="13.0734583"><ele>546.0</ele><time>2026-04-07T12:02:58.832Z</time></trkpt><trkpt lat="43.1434033" lon="13.073555"><ele>546.0</ele><time>2026-04-07T12:02:59.831Z</time></trkpt><trkpt lat="43.1434217" lon="13.0736633"><ele>546.0</ele><time>2026-04-07T12:03:00.832Z</time></trkpt><trkpt lat="43.1434383" lon="13.0737817"><ele>546.0</ele><time>2026-04-07T12:03:01.832Z</time></trkpt><trkpt lat="43.1434483" lon="13.073915"><ele>546.0</ele><time>2026-04-07T12:03:02.832Z</time></trkpt><trkpt lat="43.143445" lon="13.0740633"><ele>547.0</ele><time>2026-04-07T12:03:03.832Z</time></trkpt><trkpt lat="43.143425" lon="13.0742067"><ele>548.0</ele><time>2026-04-07T12:03:04.832Z</time></trkpt><trkpt lat="43.14339" lon="13.07436"><ele>549.0</ele><time>2026-04-07T12:03:05.832Z</time></trkpt><trkpt lat="43.1433467" lon="13.0745183"><ele>550.0</ele><time>2026-04-07T12:03:06.832Z</time></trkpt><trkpt lat="43.1433" lon="13.0746883"><ele>550.0</ele><time>2026-04-07T12:03:07.831Z</time></trkpt><trkpt lat="43.1432533" lon="13.0748633"><ele>550.0</ele><time>2026-04-07T12:03:08.832Z</time></trkpt><trkpt lat="43.1432067" lon="13.07503"><ele>550.0</ele><time>2026-04-07T12:03:09.832Z</time></trkpt><trkpt lat="43.1431667" lon="13.0752033"><ele>550.0</ele><time>2026-04-07T12:03:10.832Z</time></trkpt><trkpt lat="43.1431283" lon="13.0753883"><ele>553.5</ele><time>2026-04-07T12:03:11.832Z</time></trkpt><trkpt lat="43.1431" lon="13.075575"><ele>557.0</ele><time>2026-04-07T12:03:12.832Z</time></trkpt><trkpt lat="43.14308" lon="13.0757633"><ele>560.5</ele><time>2026-04-07T12:03:13.832Z</time></trkpt><trkpt lat="43.1430667" lon="13.0759617"><ele>564.0</ele><time>2026-04-07T12:03:14.832Z</time></trkpt><trkpt lat="43.143055" lon="13.07616"><ele>564.0</ele><time>2026-04-07T12:03:15.832Z</time></trkpt><trkpt lat="43.143035" lon="13.076365"><ele>564.0</ele><time>2026-04-07T12:03:16.832Z</time></trkpt><trkpt lat="43.1430183" lon="13.0765783"><ele>564.0</ele><time>2026-04-07T12:03:17.832Z</time></trkpt><trkpt lat="43.14301" lon="13.0767867"><ele>564.5</ele><time>2026-04-07T12:03:18.832Z</time></trkpt><trkpt lat="43.1430017" lon="13.0769817"><ele>565.0</ele><time>2026-04-07T12:03:19.832Z</time></trkpt><trkpt lat="43.1429917" lon="13.0771617"><ele>565.5</ele><time>2026-04-07T12:03:20.832Z</time></trkpt><trkpt lat="43.14298" lon="13.0773283"><ele>566.0</ele><time>2026-04-07T12:03:21.831Z</time></trkpt><trkpt lat="43.1429533" lon="13.0774667"><ele>566.5</ele><time>2026-04-07T12:03:22.831Z</time></trkpt><trkpt lat="43.1429183" lon="13.07759"><ele>567.0</ele><time>2026-04-07T12:03:23.831Z</time></trkpt><trkpt lat="43.1428617" lon="13.0776833"><ele>567.5</ele><time>2026-04-07T12:03:24.832Z</time></trkpt><trkpt lat="43.14279" lon="13.0777567"><ele>568.0</ele><time>2026-04-07T12:03:25.831Z</time></trkpt><trkpt lat="43.14271" lon="13.0777933"><ele>568.5</ele><time>2026-04-07T12:03:26.832Z</time></trkpt><trkpt lat="43.1426367" lon="13.0778033"><ele>569.0</ele><time>2026-04-07T12:03:27.831Z</time></trkpt><trkpt lat="43.1425683" lon="13.077805"><ele>569.0</ele><time>2026-04-07T12:03:28.832Z</time></trkpt><trkpt lat="43.1424833" lon="13.077875"><ele>569.0</ele><time>2026-04-07T12:03:30.832Z</time></trkpt><trkpt lat="43.1424883" lon="13.0780133"><ele>569.0</ele><time>2026-04-07T12:03:32.832Z</time></trkpt><trkpt lat="43.14252" lon="13.078115"><ele>569.0</ele><time>2026-04-07T12:03:33.832Z</time></trkpt><trkpt lat="43.1425567" lon="13.078235"><ele>569.0</ele><time>2026-04-07T12:03:34.832Z</time></trkpt><trkpt lat="43.1425967" lon="13.07837"><ele>569.25</ele><time>2026-04-07T12:03:35.831Z</time></trkpt><trkpt lat="43.1426317" lon="13.07851"><ele>569.5</ele><time>2026-04-07T12:03:36.831Z</time></trkpt><trkpt lat="43.1426683" lon="13.07866"><ele>569.75</ele><time>2026-04-07T12:03:37.832Z</time></trkpt><trkpt lat="43.1427133" lon="13.0788233"><ele>570.0</ele><time>2026-04-07T12:03:38.832Z</time></trkpt><trkpt lat="43.1427567" lon="13.0789883"><ele>569.5</ele><time>2026-04-07T12:03:39.832Z</time></trkpt><trkpt lat="43.1427983" lon="13.0791617"><ele>569.0</ele><time>2026-04-07T12:03:40.831Z</time></trkpt><trkpt lat="43.1428433" lon="13.0793367"><ele>568.5</ele><time>2026-04-07T12:03:41.831Z</time></trkpt><trkpt lat="43.14289" lon="13.0795183"><ele>568.0</ele><time>2026-04-07T12:03:42.832Z</time></trkpt><trkpt lat="43.1429433" lon="13.0797"><ele>568.0</ele><time>2026-04-07T12:03:43.831Z</time></trkpt><trkpt lat="43.1429883" lon="13.0798883"><ele>568.0</ele><time>2026-04-07T12:03:44.832Z</time></trkpt><trkpt lat="43.143025" lon="13.080085"><ele>568.0</ele><time>2026-04-07T12:03:45.831Z</time></trkpt><trkpt lat="43.1430533" lon="13.0802933"><ele>568.0</ele><time>2026-04-07T12:03:46.832Z</time></trkpt><trkpt lat="43.1430983" lon="13.0804833"><ele>567.75</ele><time>2026-04-07T12:03:47.832Z</time></trkpt><trkpt lat="43.1431383" lon="13.080675"><ele>567.5</ele><time>2026-04-07T12:03:48.832Z</time></trkpt><trkpt lat="43.1431767" lon="13.0808733"><ele>567.25</ele><time>2026-04-07T12:03:49.832Z</time></trkpt><trkpt lat="43.1432117" lon="13.0810717"><ele>567.0</ele><time>2026-04-07T12:03:50.832Z</time></trkpt><trkpt lat="43.1432667" lon="13.0812633"><ele>568.75</ele><time>2026-04-07T12:03:51.832Z</time></trkpt><trkpt lat="43.1433083" lon="13.0814617"><ele>570.5</ele><time>2026-04-07T12:03:52.832Z</time></trkpt><trkpt lat="43.1433683" lon="13.081635"><ele>572.25</ele><time>2026-04-07T12:03:53.832Z</time></trkpt><trkpt lat="43.143425" lon="13.081805"><ele>574.0</ele><time>2026-04-07T12:03:54.832Z</time></trkpt><trkpt lat="43.1435017" lon="13.0819533"><ele>574.75</ele><time>2026-04-07T12:03:55.831Z</time></trkpt><trkpt lat="43.1435917" lon="13.0821"><ele>575.5</ele><time>2026-04-07T12:03:56.831Z</time></trkpt><trkpt lat="43.143695" lon="13.08224"><ele>576.25</ele><time>2026-04-07T12:03:57.831Z</time></trkpt><trkpt lat="43.1438067" lon="13.0823683"><ele>577.0</ele><time>2026-04-07T12:03:58.831Z</time></trkpt><trkpt lat="43.1439183" lon="13.0824933"><ele>577.5</ele><time>2026-04-07T12:03:59.832Z</time></trkpt><trkpt lat="43.14402" lon="13.0826217"><ele>578.0</ele><time>2026-04-07T12:04:00.831Z</time></trkpt><trkpt lat="43.14412" lon="13.0827467"><ele>578.5</ele><time>2026-04-07T12:04:01.832Z</time></trkpt><trkpt lat="43.1442217" lon="13.082855"><ele>579.0</ele><time>2026-04-07T12:04:02.831Z</time></trkpt><trkpt lat="43.14432" lon="13.0829517"><ele>579.0</ele><time>2026-04-07T12:04:03.832Z</time></trkpt><trkpt lat="43.14441" lon="13.0830567"><ele>579.0</ele><time>2026-04-07T12:04:04.832Z</time></trkpt><trkpt lat="43.1444833" lon="13.0831717"><ele>579.0</ele><time>2026-04-07T12:04:05.832Z</time></trkpt><trkpt lat="43.1445367" lon="13.0833117"><ele>579.0</ele><time>2026-04-07T12:04:06.832Z</time></trkpt><trkpt lat="43.144565" lon="13.0834717"><ele>579.75</ele><time>2026-04-07T12:04:07.832Z</time></trkpt><trkpt lat="43.144575" lon="13.0836417"><ele>580.5</ele><time>2026-04-07T12:04:08.831Z</time></trkpt><trkpt lat="43.14456" lon="13.0838067"><ele>581.25</ele><time>2026-04-07T12:04:09.832Z</time></trkpt><trkpt lat="43.14452" lon="13.08396"><ele>582.0</ele><time>2026-04-07T12:04:10.831Z</time></trkpt><trkpt lat="43.1444533" lon="13.08412"><ele>582.0</ele><time>2026-04-07T12:04:11.832Z</time></trkpt><trkpt lat="43.1443833" lon="13.084285"><ele>582.0</ele><time>2026-04-07T12:04:12.832Z</time></trkpt><trkpt lat="43.1443167" lon="13.084465"><ele>582.0</ele><time>2026-04-07T12:04:13.831Z</time></trkpt><trkpt lat="43.14425" lon="13.08465"><ele>582.0</ele><time>2026-04-07T12:04:14.832Z</time></trkpt><trkpt lat="43.1441817" lon="13.0848383"><ele>583.5</ele><time>2026-04-07T12:04:15.831Z</time></trkpt><trkpt lat="43.14412" lon="13.0850167"><ele>585.0</ele><time>2026-04-07T12:04:16.831Z</time></trkpt><trkpt lat="43.1440617" lon="13.085195"><ele>586.5</ele><time>2026-04-07T12:04:17.831Z</time></trkpt><trkpt lat="43.1440033" lon="13.08537"><ele>588.0</ele><time>2026-04-07T12:04:18.832Z</time></trkpt><trkpt lat="43.1439383" lon="13.0855483"><ele>588.0</ele><time>2026-04-07T12:04:19.832Z</time></trkpt><trkpt lat="43.1438783" lon="13.0857167"><ele>588.0</ele><time>2026-04-07T12:04:20.831Z</time></trkpt><trkpt lat="43.1438417" lon="13.0858767"><ele>588.0</ele><time>2026-04-07T12:04:21.832Z</time></trkpt><trkpt lat="43.1438217" lon="13.086035"><ele>588.0</ele><time>2026-04-07T12:04:22.832Z</time></trkpt><trkpt lat="43.143845" lon="13.0861817"><ele>584.75</ele><time>2026-04-07T12:04:23.832Z</time></trkpt><trkpt lat="43.1438883" lon="13.0863283"><ele>581.5</ele><time>2026-04-07T12:04:24.832Z</time></trkpt><trkpt lat="43.1439433" lon="13.0864633"><ele>578.25</ele><time>2026-04-07T12:04:25.831Z</time></trkpt><trkpt lat="43.1439983" lon="13.0865917"><ele>575.0</ele><time>2026-04-07T12:04:26.832Z</time></trkpt><trkpt lat="43.144055" lon="13.0867283"><ele>571.75</ele><time>2026-04-07T12:04:27.831Z</time></trkpt><trkpt lat="43.1441283" lon="13.0868583"><ele>568.5</ele><time>2026-04-07T12:04:28.831Z</time></trkpt><trkpt lat="43.14421" lon="13.0870017"><ele>565.25</ele><time>2026-04-07T12:04:29.831Z</time></trkpt><trkpt lat="43.1442867" lon="13.08715"><ele>562.0</ele><time>2026-04-07T12:04:30.832Z</time></trkpt><trkpt lat="43.144355" lon="13.0873067"><ele>561.5</ele><time>2026-04-07T12:04:31.832Z</time></trkpt><trkpt lat="43.14444" lon="13.087455"><ele>561.0</ele><time>2026-04-07T12:04:32.831Z</time></trkpt><trkpt lat="43.1445433" lon="13.0875967"><ele>560.5</ele><time>2026-04-07T12:04:33.831Z</time></trkpt><trkpt lat="43.144655" lon="13.0877383"><ele>560.0</ele><time>2026-04-07T12:04:34.832Z</time></trkpt><trkpt lat="43.144765" lon="13.0878783"><ele>560.0</ele><time>2026-04-07T12:04:35.832Z</time></trkpt><trkpt lat="43.1448767" lon="13.0880233"><ele>560.0</ele><time>2026-04-07T12:04:36.832Z</time></trkpt><trkpt lat="43.1449933" lon="13.08817"><ele>560.0</ele><time>2026-04-07T12:04:37.832Z</time></trkpt><trkpt lat="43.145105" lon="13.0883133"><ele>562.0</ele><time>2026-04-07T12:04:38.832Z</time></trkpt><trkpt lat="43.14522" lon="13.0884517"><ele>564.0</ele><time>2026-04-07T12:04:39.832Z</time></trkpt><trkpt lat="43.14534" lon="13.088595"><ele>566.0</ele><time>2026-04-07T12:04:40.832Z</time></trkpt><trkpt lat="43.1454567" lon="13.0887433"><ele>566.0</ele><time>2026-04-07T12:04:41.832Z</time></trkpt><trkpt lat="43.14557" lon="13.088905"><ele>566.0</ele><time>2026-04-07T12:04:42.832Z</time></trkpt><trkpt lat="43.14567" lon="13.0890833"><ele>566.0</ele><time>2026-04-07T12:04:43.832Z</time></trkpt><trkpt lat="43.1457583" lon="13.0892817"><ele>570.3333333333333</ele><time>2026-04-07T12:04:44.832Z</time></trkpt><trkpt lat="43.1458383" lon="13.0894817"><ele>574.6666666666666</ele><time>2026-04-07T12:04:45.831Z</time></trkpt><trkpt lat="43.14591" lon="13.0896917"><ele>579.0</ele><time>2026-04-07T12:04:46.832Z</time></trkpt><trkpt lat="43.1459717" lon="13.0899067"><ele>579.6666666666666</ele><time>2026-04-07T12:04:47.832Z</time></trkpt><trkpt lat="43.1460433" lon="13.09012"><ele>580.3333333333333</ele><time>2026-04-07T12:04:48.831Z</time></trkpt><trkpt lat="43.1461167" lon="13.0903283"><ele>581.0</ele><time>2026-04-07T12:04:49.832Z</time></trkpt><trkpt lat="43.146185" lon="13.0905417"><ele>581.0</ele><time>2026-04-07T12:04:50.832Z</time></trkpt><trkpt lat="43.1462617" lon="13.0907383"><ele>581.0</ele><time>2026-04-07T12:04:51.831Z</time></trkpt><trkpt lat="43.146345" lon="13.0909267"><ele>581.0</ele><time>2026-04-07T12:04:52.832Z</time></trkpt><trkpt lat="43.146435" lon="13.0911"><ele>583.0</ele><time>2026-04-07T12:04:53.831Z</time></trkpt><trkpt lat="43.1465567" lon="13.0912467"><ele>585.0</ele><time>2026-04-07T12:04:54.832Z</time></trkpt><trkpt lat="43.1466967" lon="13.091385"><ele>587.0</ele><time>2026-04-07T12:04:55.832Z</time></trkpt><trkpt lat="43.1468383" lon="13.0915167"><ele>590.0</ele><time>2026-04-07T12:04:56.832Z</time></trkpt><trkpt lat="43.1469733" lon="13.0916483"><ele>593.0</ele><time>2026-04-07T12:04:57.832Z</time></trkpt><trkpt lat="43.1471067" lon="13.091785"><ele>596.0</ele><time>2026-04-07T12:04:58.832Z</time></trkpt><trkpt lat="43.1472367" lon="13.091915"><ele>596.0</ele><time>2026-04-07T12:04:59.831Z</time></trkpt><trkpt lat="43.1473683" lon="13.0920383"><ele>596.0</ele><time>2026-04-07T12:05:00.832Z</time></trkpt><trkpt lat="43.1475067" lon="13.092175"><ele>596.0</ele><time>2026-04-07T12:05:01.832Z</time></trkpt><trkpt lat="43.1476433" lon="13.09231"><ele>601.0</ele><time>2026-04-07T12:05:02.832Z</time></trkpt><trkpt lat="43.1477817" lon="13.0924367"><ele>606.0</ele><time>2026-04-07T12:05:03.832Z</time></trkpt><trkpt lat="43.14792" lon="13.09257"><ele>611.0</ele><time>2026-04-07T12:05:04.832Z</time></trkpt><trkpt lat="43.1480617" lon="13.0926733"><ele>611.0</ele><time>2026-04-07T12:05:05.831Z</time></trkpt><trkpt lat="43.1482067" lon="13.09275"><ele>611.0</ele><time>2026-04-07T12:05:06.832Z</time></trkpt><trkpt lat="43.1483467" lon="13.0928217"><ele>611.0</ele><time>2026-04-07T12:05:07.832Z</time></trkpt><trkpt lat="43.1484683" lon="13.0929083"><ele>611.0</ele><time>2026-04-07T12:05:08.832Z</time></trkpt><trkpt lat="43.1485767" lon="13.0930167"><ele>610.0</ele><time>2026-04-07T12:05:09.832Z</time></trkpt><trkpt lat="43.1486683" lon="13.0931317"><ele>609.0</ele><time>2026-04-07T12:05:10.832Z</time></trkpt><trkpt lat="43.1487533" lon="13.0932483"><ele>608.0</ele><time>2026-04-07T12:05:11.831Z</time></trkpt><trkpt lat="43.14884" lon="13.0933733"><ele>607.0</ele><time>2026-04-07T12:05:12.832Z</time></trkpt><trkpt lat="43.148935" lon="13.0934933"><ele>609.0</ele><time>2026-04-07T12:05:13.831Z</time></trkpt><trkpt lat="43.149025" lon="13.0936067"><ele>611.0</ele><time>2026-04-07T12:05:14.832Z</time></trkpt><trkpt lat="43.1491067" lon="13.0937017"><ele>613.0</ele><time>2026-04-07T12:05:15.831Z</time></trkpt><trkpt lat="43.1491833" lon="13.0937833"><ele>615.0</ele><time>2026-04-07T12:05:16.832Z</time></trkpt><trkpt lat="43.14924" lon="13.0938633"><ele>617.0</ele><time>2026-04-07T12:05:17.832Z</time></trkpt><trkpt lat="43.1492817" lon="13.0939333"><ele>617.0</ele><time>2026-04-07T12:05:18.831Z</time></trkpt><trkpt lat="43.14932" lon="13.0940167"><ele>617.0</ele><time>2026-04-07T12:05:19.832Z</time></trkpt><trkpt lat="43.149355" lon="13.094115"><ele>617.0</ele><time>2026-04-07T12:05:20.832Z</time></trkpt><trkpt lat="43.1493833" lon="13.09422"><ele>617.0</ele><time>2026-04-07T12:05:21.832Z</time></trkpt><trkpt lat="43.1494067" lon="13.0943117"><ele>617.0</ele><time>2026-04-07T12:05:22.832Z</time></trkpt><trkpt lat="43.1494383" lon="13.0944317"><ele>617.0</ele><time>2026-04-07T12:05:24.832Z</time></trkpt><trkpt lat="43.149355" lon="13.09445"><ele>621.2</ele><time>2026-04-07T12:05:27.831Z</time></trkpt><trkpt lat="43.1492667" lon="13.0943633"><ele>625.4000000000001</ele><time>2026-04-07T12:05:29.832Z</time></trkpt><trkpt lat="43.149215" lon="13.0942917"><ele>629.5999999999999</ele><time>2026-04-07T12:05:30.832Z</time></trkpt><trkpt lat="43.1491617" lon="13.094235"><ele>633.8</ele><time>2026-04-07T12:05:31.832Z</time></trkpt><trkpt lat="43.1490333" lon="13.09418"><ele>638.0</ele><time>2026-04-07T12:05:33.832Z</time></trkpt><trkpt lat="43.1489517" lon="13.094175"><ele>638.6666666666666</ele><time>2026-04-07T12:05:34.831Z</time></trkpt><trkpt lat="43.1488683" lon="13.0941967"><ele>639.3333333333333</ele><time>2026-04-07T12:05:35.831Z</time></trkpt><trkpt lat="43.1487933" lon="13.09423"><ele>640.0</ele><time>2026-04-07T12:05:36.832Z</time></trkpt><trkpt lat="43.1487183" lon="13.094265"><ele>640.6666666666666</ele><time>2026-04-07T12:05:37.832Z</time></trkpt><trkpt lat="43.148645" lon="13.0943167"><ele>641.3333333333334</ele><time>2026-04-07T12:05:38.832Z</time></trkpt><trkpt lat="43.1485717" lon="13.0943717"><ele>642.0</ele><time>2026-04-07T12:05:39.831Z</time></trkpt><trkpt lat="43.1485" lon="13.0944317"><ele>642.0</ele><time>2026-04-07T12:05:40.832Z</time></trkpt><trkpt lat="43.1484333" lon="13.0944867"><ele>642.0</ele><time>2026-04-07T12:05:41.831Z</time></trkpt><trkpt lat="43.1483617" lon="13.094535"><ele>642.0</ele><time>2026-04-07T12:05:42.832Z</time></trkpt><trkpt lat="43.1482933" lon="13.0945833"><ele>642.0</ele><time>2026-04-07T12:05:43.832Z</time></trkpt><trkpt lat="43.1482383" lon="13.0946267"><ele>642.0</ele><time>2026-04-07T12:05:44.832Z</time></trkpt><trkpt lat="43.1481883" lon="13.0947433"><ele>642.0</ele><time>2026-04-07T12:05:46.832Z</time></trkpt><trkpt lat="43.1481633" lon="13.094925"><ele>641.1666666666666</ele><time>2026-04-07T12:05:48.832Z</time></trkpt><trkpt lat="43.1481483" lon="13.0950417"><ele>640.3333333333334</ele><time>2026-04-07T12:05:49.832Z</time></trkpt><trkpt lat="43.1481283" lon="13.0951583"><ele>639.5</ele><time>2026-04-07T12:05:50.831Z</time></trkpt><trkpt lat="43.1481067" lon="13.0952767"><ele>638.6666666666667</ele><time>2026-04-07T12:05:51.832Z</time></trkpt><trkpt lat="43.1480767" lon="13.0953883"><ele>637.8333333333334</ele><time>2026-04-07T12:05:52.831Z</time></trkpt><trkpt lat="43.1480567" lon="13.0954883"><ele>637.0</ele><time>2026-04-07T12:05:53.832Z</time></trkpt><trkpt lat="43.1480367" lon="13.095585"><ele>637.0</ele><time>2026-04-07T12:05:54.832Z</time></trkpt><trkpt lat="43.1480117" lon="13.09569"><ele>637.0</ele><time>2026-04-07T12:05:55.832Z</time></trkpt><trkpt lat="43.147995" lon="13.0957883"><ele>637.0</ele><time>2026-04-07T12:05:56.832Z</time></trkpt><trkpt lat="43.1479767" lon="13.0959033"><ele>637.0</ele><time>2026-04-07T12:05:57.832Z</time></trkpt><trkpt lat="43.1479667" lon="13.0960167"><ele>637.0</ele><time>2026-04-07T12:05:58.832Z</time></trkpt><trkpt lat="43.1479567" lon="13.09613"><ele>637.0</ele><time>2026-04-07T12:05:59.831Z</time></trkpt><trkpt lat="43.1479433" lon="13.096235"><ele>637.4285714285714</ele><time>2026-04-07T12:06:00.831Z</time></trkpt><trkpt lat="43.1479283" lon="13.096325"><ele>637.8571428571429</ele><time>2026-04-07T12:06:01.832Z</time></trkpt><trkpt lat="43.1479233" lon="13.096415"><ele>638.2857142857142</ele><time>2026-04-07T12:06:02.832Z</time></trkpt><trkpt lat="43.1479267" lon="13.09652"><ele>638.7142857142858</ele><time>2026-04-07T12:06:03.832Z</time></trkpt><trkpt lat="43.147955" lon="13.0966117"><ele>639.1428571428571</ele><time>2026-04-07T12:06:04.832Z</time></trkpt><trkpt lat="43.1479683" lon="13.0967233"><ele>639.5714285714286</ele><time>2026-04-07T12:06:05.832Z</time></trkpt><trkpt lat="43.1479917" lon="13.0968267"><ele>640.0</ele><time>2026-04-07T12:06:06.832Z</time></trkpt><trkpt lat="43.14801" lon="13.0969217"><ele>641.8333333333334</ele><time>2026-04-07T12:06:07.831Z</time></trkpt><trkpt lat="43.1480283" lon="13.0970183"><ele>643.6666666666667</ele><time>2026-04-07T12:06:08.832Z</time></trkpt><trkpt lat="43.14805" lon="13.0971283"><ele>645.5</ele><time>2026-04-07T12:06:09.832Z</time></trkpt><trkpt lat="43.1480867" lon="13.09722"><ele>647.3333333333334</ele><time>2026-04-07T12:06:10.832Z</time></trkpt><trkpt lat="43.14813" lon="13.0972967"><ele>649.1666666666666</ele><time>2026-04-07T12:06:11.832Z</time></trkpt><trkpt lat="43.1481817" lon="13.0973733"><ele>651.0</ele><time>2026-04-07T12:06:12.832Z</time></trkpt><trkpt lat="43.148245" lon="13.09742"><ele>655.5</ele><time>2026-04-07T12:06:13.832Z</time></trkpt><trkpt lat="43.1483067" lon="13.0974517"><ele>660.0</ele><time>2026-04-07T12:06:14.832Z</time></trkpt><trkpt lat="43.1483733" lon="13.09747"><ele>664.5</ele><time>2026-04-07T12:06:15.831Z</time></trkpt><trkpt lat="43.148445" lon="13.097465"><ele>669.0</ele><time>2026-04-07T12:06:16.832Z</time></trkpt><trkpt lat="43.1485367" lon="13.0974717"><ele>673.5</ele><time>2026-04-07T12:06:17.832Z</time></trkpt><trkpt lat="43.1486217" lon="13.0974717"><ele>678.0</ele><time>2026-04-07T12:06:18.832Z</time></trkpt><trkpt lat="43.1487017" lon="13.0974717"><ele>678.8</ele><time>2026-04-07T12:06:19.832Z</time></trkpt><trkpt lat="43.1487817" lon="13.0973917"><ele>679.5999999999999</ele><time>2026-04-07T12:06:21.832Z</time></trkpt><trkpt lat="43.1487967" lon="13.0972867"><ele>680.4000000000001</ele><time>2026-04-07T12:06:23.832Z</time></trkpt><trkpt lat="43.1487667" lon="13.0971417"><ele>681.2</ele><time>2026-04-07T12:06:25.832Z</time></trkpt><trkpt lat="43.1487633" lon="13.0969683"><ele>682.0</ele><time>2026-04-07T12:06:27.832Z</time></trkpt><trkpt lat="43.1487833" lon="13.0968683"><ele>682.0</ele><time>2026-04-07T12:06:28.832Z</time></trkpt><trkpt lat="43.1487967" lon="13.0967467"><ele>682.0</ele><time>2026-04-07T12:06:29.831Z</time></trkpt><trkpt lat="43.148805" lon="13.0966367"><ele>682.0</ele><time>2026-04-07T12:06:30.832Z</time></trkpt><trkpt lat="43.1488167" lon="13.09653"><ele>682.0</ele><time>2026-04-07T12:06:31.831Z</time></trkpt><trkpt lat="43.1488233" lon="13.0964417"><ele>682.0</ele><time>2026-04-07T12:06:32.832Z</time></trkpt><trkpt lat="43.1488617" lon="13.0962917"><ele>682.0</ele><time>2026-04-07T12:06:34.831Z</time></trkpt><trkpt lat="43.148915" lon="13.09618"><ele>681.1666666666667</ele><time>2026-04-07T12:06:36.831Z</time></trkpt><trkpt lat="43.1489867" lon="13.096175"><ele>680.3333333333334</ele><time>2026-04-07T12:06:38.832Z</time></trkpt><trkpt lat="43.14907" lon="13.0962317"><ele>679.5</ele><time>2026-04-07T12:06:40.832Z</time></trkpt><trkpt lat="43.14917" lon="13.0963"><ele>678.6666666666666</ele><time>2026-04-07T12:06:42.832Z</time></trkpt><trkpt lat="43.14924" lon="13.0963133"><ele>677.8333333333333</ele><time>2026-04-07T12:06:43.832Z</time></trkpt><trkpt lat="43.1493217" lon="13.0963167"><ele>677.0</ele><time>2026-04-07T12:06:44.832Z</time></trkpt><trkpt lat="43.1494033" lon="13.09631"><ele>678.8333333333333</ele><time>2026-04-07T12:06:45.832Z</time></trkpt><trkpt lat="43.1494833" lon="13.09632"><ele>680.6666666666666</ele><time>2026-04-07T12:06:46.832Z</time></trkpt><trkpt lat="43.1495567" lon="13.0963283"><ele>682.5</ele><time>2026-04-07T12:06:47.832Z</time></trkpt><trkpt lat="43.1496283" lon="13.096335"><ele>684.3333333333334</ele><time>2026-04-07T12:06:48.832Z</time></trkpt><trkpt lat="43.149695" lon="13.0963483"><ele>686.1666666666667</ele><time>2026-04-07T12:06:49.832Z</time></trkpt><trkpt lat="43.1498067" lon="13.0963967"><ele>688.0</ele><time>2026-04-07T12:06:51.832Z</time></trkpt><trkpt lat="43.1498733" lon="13.096515"><ele>689.5</ele><time>2026-04-07T12:06:53.832Z</time></trkpt><trkpt lat="43.1498717" lon="13.0966917"><ele>691.0</ele><time>2026-04-07T12:06:55.832Z</time></trkpt><trkpt lat="43.1498667" lon="13.0967967"><ele>692.5</ele><time>2026-04-07T12:06:56.831Z</time></trkpt><trkpt lat="43.1498567" lon="13.0968983"><ele>694.0</ele><time>2026-04-07T12:06:57.832Z</time></trkpt><trkpt lat="43.1498583" lon="13.0969983"><ele>695.5</ele><time>2026-04-07T12:06:58.832Z</time></trkpt><trkpt lat="43.1498683" lon="13.0970867"><ele>697.0</ele><time>2026-04-07T12:06:59.832Z</time></trkpt><trkpt lat="43.1499067" lon="13.09725"><ele>697.0</ele><time>2026-04-07T12:07:01.831Z</time></trkpt><trkpt lat="43.1499967" lon="13.0973833"><ele>697.0</ele><time>2026-04-07T12:07:03.832Z</time></trkpt><trkpt lat="43.1500767" lon="13.0974483"><ele>697.0</ele><time>2026-04-07T12:07:04.832Z</time></trkpt><trkpt lat="43.1501667" lon="13.09751"><ele>697.0</ele><time>2026-04-07T12:07:05.831Z</time></trkpt><trkpt lat="43.150245" lon="13.0975683"><ele>697.0</ele><time>2026-04-07T12:07:06.832Z</time></trkpt><trkpt lat="43.1503133" lon="13.0976217"><ele>697.6666666666667</ele><time>2026-04-07T12:07:07.832Z</time></trkpt><trkpt lat="43.1503817" lon="13.0976717"><ele>698.3333333333334</ele><time>2026-04-07T12:07:08.831Z</time></trkpt><trkpt lat="43.15045" lon="13.0977267"><ele>699.0</ele><time>2026-04-07T12:07:09.831Z</time></trkpt><trkpt lat="43.150535" lon="13.09777"><ele>699.6666666666666</ele><time>2026-04-07T12:07:10.832Z</time></trkpt><trkpt lat="43.1506183" lon="13.09781"><ele>700.3333333333333</ele><time>2026-04-07T12:07:11.831Z</time></trkpt><trkpt lat="43.1506933" lon="13.09785"><ele>701.0</ele><time>2026-04-07T12:07:12.832Z</time></trkpt><trkpt lat="43.15077" lon="13.097895"><ele>700.8333333333333</ele><time>2026-04-07T12:07:13.831Z</time></trkpt><trkpt lat="43.1508433" lon="13.0979383"><ele>700.6666666666666</ele><time>2026-04-07T12:07:14.832Z</time></trkpt><trkpt lat="43.15091" lon="13.098"><ele>700.5</ele><time>2026-04-07T12:07:15.832Z</time></trkpt><trkpt lat="43.150965" lon="13.098075"><ele>700.3333333333334</ele><time>2026-04-07T12:07:16.832Z</time></trkpt><trkpt lat="43.1510067" lon="13.0981617"><ele>700.1666666666667</ele><time>2026-04-07T12:07:17.831Z</time></trkpt><trkpt lat="43.1510417" lon="13.0982467"><ele>700.0</ele><time>2026-04-07T12:07:18.832Z</time></trkpt><trkpt lat="43.1510717" lon="13.0983317"><ele>700.0</ele><time>2026-04-07T12:07:19.831Z</time></trkpt><trkpt lat="43.1510983" lon="13.0984217"><ele>700.0</ele><time>2026-04-07T12:07:20.832Z</time></trkpt><trkpt lat="43.1511217" lon="13.0985033"><ele>700.0</ele><time>2026-04-07T12:07:21.832Z</time></trkpt><trkpt lat="43.1511383" lon="13.09859"><ele>700.0</ele><time>2026-04-07T12:07:22.832Z</time></trkpt><trkpt lat="43.1511667" lon="13.0986817"><ele>700.0</ele><time>2026-04-07T12:07:23.832Z</time></trkpt><trkpt lat="43.151205" lon="13.0987717"><ele>700.0</ele><time>2026-04-07T12:07:24.832Z</time></trkpt><trkpt lat="43.15125" lon="13.0988617"><ele>700.0</ele><time>2026-04-07T12:07:25.832Z</time></trkpt><trkpt lat="43.151305" lon="13.0989417"><ele>700.0</ele><time>2026-04-07T12:07:26.831Z</time></trkpt><trkpt lat="43.15137" lon="13.0990067"><ele>700.0</ele><time>2026-04-07T12:07:27.831Z</time></trkpt><trkpt lat="43.1514383" lon="13.09907"><ele>700.0</ele><time>2026-04-07T12:07:28.832Z</time></trkpt><trkpt lat="43.1515117" lon="13.0991433"><ele>700.0</ele><time>2026-04-07T12:07:29.831Z</time></trkpt><trkpt lat="43.1515733" lon="13.0992"><ele>700.0</ele><time>2026-04-07T12:07:30.832Z</time></trkpt><trkpt lat="43.1516383" lon="13.09926"><ele>700.0</ele><time>2026-04-07T12:07:31.831Z</time></trkpt><trkpt lat="43.1516983" lon="13.0993067"><ele>701.8333333333334</ele><time>2026-04-07T12:07:32.832Z</time></trkpt><trkpt lat="43.1517633" lon="13.0993333"><ele>703.6666666666667</ele><time>2026-04-07T12:07:33.832Z</time></trkpt><trkpt lat="43.1518317" lon="13.0993583"><ele>705.5</ele><time>2026-04-07T12:07:34.832Z</time></trkpt><trkpt lat="43.1519017" lon="13.099375"><ele>707.3333333333334</ele><time>2026-04-07T12:07:35.832Z</time></trkpt><trkpt lat="43.151985" lon="13.0993783"><ele>709.1666666666666</ele><time>2026-04-07T12:07:36.832Z</time></trkpt><trkpt lat="43.15206" lon="13.0993767"><ele>711.0</ele><time>2026-04-07T12:07:37.832Z</time></trkpt><trkpt lat="43.1521467" lon="13.09937"><ele>711.0</ele><time>2026-04-07T12:07:38.832Z</time></trkpt><trkpt lat="43.1522283" lon="13.0993683"><ele>711.0</ele><time>2026-04-07T12:07:39.831Z</time></trkpt><trkpt lat="43.1523067" lon="13.0993617"><ele>711.0</ele><time>2026-04-07T12:07:40.832Z</time></trkpt><trkpt lat="43.1523867" lon="13.0993667"><ele>711.0</ele><time>2026-04-07T12:07:41.831Z</time></trkpt><trkpt lat="43.1524533" lon="13.09938"><ele>711.0</ele><time>2026-04-07T12:07:42.832Z</time></trkpt><trkpt lat="43.1525467" lon="13.0994367"><ele>711.0</ele><time>2026-04-07T12:07:44.832Z</time></trkpt><trkpt lat="43.152625" lon="13.09954"><ele>711.0</ele><time>2026-04-07T12:07:46.831Z</time></trkpt><trkpt lat="43.1526667" lon="13.0996117"><ele>711.0</ele><time>2026-04-07T12:07:47.832Z</time></trkpt><trkpt lat="43.1527117" lon="13.09969"><ele>711.0</ele><time>2026-04-07T12:07:48.832Z</time></trkpt><trkpt lat="43.1527567" lon="13.0997833"><ele>711.0</ele><time>2026-04-07T12:07:49.832Z</time></trkpt><trkpt lat="43.1528133" lon="13.0998867"><ele>711.0</ele><time>2026-04-07T12:07:50.832Z</time></trkpt><trkpt lat="43.15287" lon="13.09998"><ele>711.0</ele><time>2026-04-07T12:07:51.832Z</time></trkpt><trkpt lat="43.1529167" lon="13.1000633"><ele>711.3333333333334</ele><time>2026-04-07T12:07:52.832Z</time></trkpt><trkpt lat="43.1529767" lon="13.10017"><ele>711.6666666666666</ele><time>2026-04-07T12:07:54.832Z</time></trkpt><trkpt lat="43.1530167" lon="13.10024"><ele>712.0</ele><time>2026-04-07T12:07:55.832Z</time></trkpt><trkpt lat="43.15305" lon="13.1003283"><ele>712.3333333333333</ele><time>2026-04-07T12:07:56.832Z</time></trkpt><trkpt lat="43.15309" lon="13.1004217"><ele>712.6666666666666</ele><time>2026-04-07T12:07:57.832Z</time></trkpt><trkpt lat="43.1531367" lon="13.1005267"><ele>713.0</ele><time>2026-04-07T12:07:58.832Z</time></trkpt><trkpt lat="43.1531917" lon="13.1006417"><ele>712.8</ele><time>2026-04-07T12:07:59.831Z</time></trkpt><trkpt lat="43.15325" lon="13.10076"><ele>712.5999999999999</ele><time>2026-04-07T12:08:00.832Z</time></trkpt><trkpt lat="43.1533067" lon="13.10087"><ele>712.4000000000001</ele><time>2026-04-07T12:08:01.832Z</time></trkpt><trkpt lat="43.1533583" lon="13.1009817"><ele>712.2</ele><time>2026-04-07T12:08:02.832Z</time></trkpt><trkpt lat="43.1534067" lon="13.1011"><ele>712.0</ele><time>2026-04-07T12:08:03.832Z</time></trkpt><trkpt lat="43.1534583" lon="13.10122"><ele>712.0</ele><time>2026-04-07T12:08:04.831Z</time></trkpt><trkpt lat="43.1534983" lon="13.1013233"><ele>712.0</ele><time>2026-04-07T12:08:05.832Z</time></trkpt><trkpt lat="43.15354" lon="13.1014217"><ele>712.0</ele><time>2026-04-07T12:08:06.832Z</time></trkpt><trkpt lat="43.1535817" lon="13.1015117"><ele>712.0</ele><time>2026-04-07T12:08:07.831Z</time></trkpt><trkpt lat="43.153615" lon="13.1016017"><ele>712.0</ele><time>2026-04-07T12:08:08.832Z</time></trkpt><trkpt lat="43.1536467" lon="13.1017017"><ele>712.0</ele><time>2026-04-07T12:08:09.831Z</time></trkpt><trkpt lat="43.1536733" lon="13.1017917"><ele>711.8333333333334</ele><time>2026-04-07T12:08:10.832Z</time></trkpt><trkpt lat="43.1537183" lon="13.101955"><ele>711.6666666666667</ele><time>2026-04-07T12:08:12.832Z</time></trkpt><trkpt lat="43.15373" lon="13.102045"><ele>711.5</ele><time>2026-04-07T12:08:13.832Z</time></trkpt><trkpt lat="43.1537367" lon="13.1021417"><ele>711.3333333333334</ele><time>2026-04-07T12:08:14.832Z</time></trkpt><trkpt lat="43.1537383" lon="13.1022383"><ele>711.1666666666666</ele><time>2026-04-07T12:08:15.832Z</time></trkpt><trkpt lat="43.1537333" lon="13.10233"><ele>711.0</ele><time>2026-04-07T12:08:16.832Z</time></trkpt><trkpt lat="43.1537083" lon="13.10248"><ele>711.8</ele><time>2026-04-07T12:08:18.832Z</time></trkpt><trkpt lat="43.1536567" lon="13.1026117"><ele>712.5999999999999</ele><time>2026-04-07T12:08:20.832Z</time></trkpt><trkpt lat="43.153575" lon="13.1027417"><ele>713.4</ele><time>2026-04-07T12:08:22.832Z</time></trkpt><trkpt lat="43.1535367" lon="13.102815"><ele>714.2</ele><time>2026-04-07T12:08:23.832Z</time></trkpt><trkpt lat="43.1534683" lon="13.1029417"><ele>715.0</ele><time>2026-04-07T12:08:25.832Z</time></trkpt><trkpt lat="43.1534433" lon="13.1030533"><ele>715.0</ele><time>2026-04-07T12:08:27.832Z</time></trkpt><trkpt lat="43.1534583" lon="13.1032017"><ele>715.0</ele><time>2026-04-07T12:08:29.832Z</time></trkpt><trkpt lat="43.1534633" lon="13.103365"><ele>715.0</ele><time>2026-04-07T12:08:31.831Z</time></trkpt><trkpt lat="43.1534567" lon="13.103515"><ele>715.0</ele><time>2026-04-07T12:08:33.832Z</time></trkpt><trkpt lat="43.1534783" lon="13.1036383"><ele>715.0</ele><time>2026-04-07T12:08:35.832Z</time></trkpt><trkpt lat="43.1535233" lon="13.1037167"><ele>715.8333333333334</ele><time>2026-04-07T12:08:37.832Z</time></trkpt><trkpt lat="43.15358" lon="13.10377"><ele>716.6666666666667</ele><time>2026-04-07T12:08:39.832Z</time></trkpt><trkpt lat="43.15365" lon="13.1037917"><ele>717.5</ele><time>2026-04-07T12:08:41.832Z</time></trkpt><trkpt lat="43.15377" lon="13.1038"><ele>718.3333333333334</ele><time>2026-04-07T12:08:43.832Z</time></trkpt><trkpt lat="43.1538583" lon="13.1038133"><ele>719.1666666666666</ele><time>2026-04-07T12:08:44.831Z</time></trkpt><trkpt lat="43.15394" lon="13.1038283"><ele>720.0</ele><time>2026-04-07T12:08:45.831Z</time></trkpt><trkpt lat="43.1540117" lon="13.1038333"><ele>721.2</ele><time>2026-04-07T12:08:46.832Z</time></trkpt><trkpt lat="43.1541333" lon="13.1038433"><ele>722.4</ele><time>2026-04-07T12:08:48.832Z</time></trkpt><trkpt lat="43.1542083" lon="13.10385"><ele>723.5999999999999</ele><time>2026-04-07T12:08:49.832Z</time></trkpt><trkpt lat="43.1543" lon="13.1038567"><ele>724.8</ele><time>2026-04-07T12:08:50.832Z</time></trkpt><trkpt lat="43.1544083" lon="13.10386"><ele>726.0</ele><time>2026-04-07T12:08:51.832Z</time></trkpt><trkpt lat="43.15452" lon="13.1038617"><ele>726.0</ele><time>2026-04-07T12:08:52.832Z</time></trkpt><trkpt lat="43.154635" lon="13.1038767"><ele>726.0</ele><time>2026-04-07T12:08:53.832Z</time></trkpt><trkpt lat="43.1547533" lon="13.1038967"><ele>726.0</ele><time>2026-04-07T12:08:54.831Z</time></trkpt><trkpt lat="43.1548633" lon="13.1039233"><ele>726.0</ele><time>2026-04-07T12:08:55.831Z</time></trkpt><trkpt lat="43.15496" lon="13.1039433"><ele>726.0</ele><time>2026-04-07T12:08:56.831Z</time></trkpt><trkpt lat="43.15505" lon="13.1039383"><ele>725.3333333333334</ele><time>2026-04-07T12:08:57.831Z</time></trkpt><trkpt lat="43.1551317" lon="13.1039217"><ele>724.6666666666666</ele><time>2026-04-07T12:08:58.832Z</time></trkpt><trkpt lat="43.15521" lon="13.10389"><ele>724.0</ele><time>2026-04-07T12:08:59.832Z</time></trkpt><trkpt lat="43.155285" lon="13.1038317"><ele>723.3333333333333</ele><time>2026-04-07T12:09:00.832Z</time></trkpt><trkpt lat="43.1553417" lon="13.10375"><ele>722.6666666666666</ele><time>2026-04-07T12:09:01.832Z</time></trkpt><trkpt lat="43.155395" lon="13.103645"><ele>722.0</ele><time>2026-04-07T12:09:02.832Z</time></trkpt><trkpt lat="43.1554433" lon="13.1035283"><ele>722.0</ele><time>2026-04-07T12:09:03.832Z</time></trkpt><trkpt lat="43.1554867" lon="13.103405"><ele>722.0</ele><time>2026-04-07T12:09:04.831Z</time></trkpt><trkpt lat="43.1555417" lon="13.10329"><ele>722.0</ele><time>2026-04-07T12:09:05.832Z</time></trkpt><trkpt lat="43.1555917" lon="13.1031817"><ele>722.0</ele><time>2026-04-07T12:09:06.832Z</time></trkpt><trkpt lat="43.1556767" lon="13.1031017"><ele>722.0</ele><time>2026-04-07T12:09:07.832Z</time></trkpt><trkpt lat="43.1557667" lon="13.10303"><ele>718.2</ele><time>2026-04-07T12:09:08.832Z</time></trkpt><trkpt lat="43.1558483" lon="13.102965"><ele>714.4000000000001</ele><time>2026-04-07T12:09:09.831Z</time></trkpt><trkpt lat="43.1559217" lon="13.1028967"><ele>710.5999999999999</ele><time>2026-04-07T12:09:10.832Z</time></trkpt><trkpt lat="43.1559933" lon="13.10281"><ele>706.8</ele><time>2026-04-07T12:09:11.831Z</time></trkpt><trkpt lat="43.1560617" lon="13.1027233"><ele>703.0</ele><time>2026-04-07T12:09:12.831Z</time></trkpt><trkpt lat="43.1561317" lon="13.102645"><ele>703.0</ele><time>2026-04-07T12:09:13.832Z</time></trkpt><trkpt lat="43.1562067" lon="13.1025783"><ele>703.0</ele><time>2026-04-07T12:09:14.832Z</time></trkpt><trkpt lat="43.15628" lon="13.1025083"><ele>703.0</ele><time>2026-04-07T12:09:15.832Z</time></trkpt><trkpt lat="43.1563683" lon="13.10245"><ele>703.0</ele><time>2026-04-07T12:09:16.832Z</time></trkpt><trkpt lat="43.156445" lon="13.10239"><ele>703.0</ele><time>2026-04-07T12:09:17.832Z</time></trkpt><trkpt lat="43.1565467" lon="13.1023333"><ele>696.8</ele><time>2026-04-07T12:09:18.832Z</time></trkpt><trkpt lat="43.15665" lon="13.102275"><ele>690.5999999999999</ele><time>2026-04-07T12:09:19.832Z</time></trkpt><trkpt lat="43.1567317" lon="13.1022167"><ele>684.4000000000001</ele><time>2026-04-07T12:09:20.831Z</time></trkpt><trkpt lat="43.1568183" lon="13.1021733"><ele>678.2</ele><time>2026-04-07T12:09:21.832Z</time></trkpt><trkpt lat="43.156925" lon="13.1021383"><ele>672.0</ele><time>2026-04-07T12:09:22.831Z</time></trkpt><trkpt lat="43.1570167" lon="13.1021133"><ele>672.0</ele><time>2026-04-07T12:09:23.832Z</time></trkpt><trkpt lat="43.157095" lon="13.1020983"><ele>672.0</ele><time>2026-04-07T12:09:24.831Z</time></trkpt><trkpt lat="43.15716" lon="13.102085"><ele>672.0</ele><time>2026-04-07T12:09:25.832Z</time></trkpt><trkpt lat="43.157245" lon="13.1020767"><ele>672.0</ele><time>2026-04-07T12:09:27.832Z</time></trkpt><trkpt lat="43.1573667" lon="13.1021033"><ele>672.0</ele><time>2026-04-07T12:09:29.832Z</time></trkpt><trkpt lat="43.157445" lon="13.1021367"><ele>672.0</ele><time>2026-04-07T12:09:30.831Z</time></trkpt><trkpt lat="43.1575267" lon="13.1021917"><ele>670.25</ele><time>2026-04-07T12:09:31.832Z</time></trkpt><trkpt lat="43.1576267" lon="13.1022717"><ele>668.5</ele><time>2026-04-07T12:09:32.832Z</time></trkpt><trkpt lat="43.1577317" lon="13.10237"><ele>666.75</ele><time>2026-04-07T12:09:33.832Z</time></trkpt><trkpt lat="43.15785" lon="13.10247"><ele>665.0</ele><time>2026-04-07T12:09:34.832Z</time></trkpt><trkpt lat="43.15797" lon="13.1025783"><ele>663.6666666666666</ele><time>2026-04-07T12:09:35.831Z</time></trkpt><trkpt lat="43.1580983" lon="13.1027017"><ele>662.3333333333334</ele><time>2026-04-07T12:09:36.832Z</time></trkpt><trkpt lat="43.1582333" lon="13.1028233"><ele>661.0</ele><time>2026-04-07T12:09:37.832Z</time></trkpt><trkpt lat="43.158375" lon="13.1029333"><ele>661.0</ele><time>2026-04-07T12:09:38.832Z</time></trkpt><trkpt lat="43.158515" lon="13.103025"><ele>661.0</ele><time>2026-04-07T12:09:39.832Z</time></trkpt><trkpt lat="43.15866" lon="13.1031067"><ele>661.0</ele><time>2026-04-07T12:09:40.832Z</time></trkpt><trkpt lat="43.158815" lon="13.1031967"><ele>662.0</ele><time>2026-04-07T12:09:41.832Z</time></trkpt><trkpt lat="43.158975" lon="13.1032967"><ele>663.0</ele><time>2026-04-07T12:09:42.832Z</time></trkpt><trkpt lat="43.1591217" lon="13.1033983"><ele>664.0</ele><time>2026-04-07T12:09:43.831Z</time></trkpt><trkpt lat="43.1592633" lon="13.1035017"><ele>664.0</ele><time>2026-04-07T12:09:44.832Z</time></trkpt><trkpt lat="43.159405" lon="13.1036017"><ele>664.0</ele><time>2026-04-07T12:09:45.831Z</time></trkpt><trkpt lat="43.159545" lon="13.103715"><ele>664.0</ele><time>2026-04-07T12:09:46.831Z</time></trkpt><trkpt lat="43.15967" lon="13.10384"><ele>664.0</ele><time>2026-04-07T12:09:47.832Z</time></trkpt><trkpt lat="43.1598017" lon="13.1039733"><ele>664.0</ele><time>2026-04-07T12:09:48.832Z</time></trkpt><trkpt lat="43.1599283" lon="13.1041133"><ele>664.0</ele><time>2026-04-07T12:09:49.831Z</time></trkpt><trkpt lat="43.160045" lon="13.1042617"><ele>664.3333333333334</ele><time>2026-04-07T12:09:50.832Z</time></trkpt><trkpt lat="43.1601617" lon="13.10441"><ele>664.6666666666666</ele><time>2026-04-07T12:09:51.832Z</time></trkpt><trkpt lat="43.1602817" lon="13.1045483"><ele>665.0</ele><time>2026-04-07T12:09:52.832Z</time></trkpt><trkpt lat="43.1604283" lon="13.1046683"><ele>665.0</ele><time>2026-04-07T12:09:53.832Z</time></trkpt><trkpt lat="43.1605817" lon="13.1047883"><ele>665.0</ele><time>2026-04-07T12:09:54.832Z</time></trkpt><trkpt lat="43.1607317" lon="13.1049083"><ele>665.0</ele><time>2026-04-07T12:09:55.832Z</time></trkpt><trkpt lat="43.16088" lon="13.1050233"><ele>663.3333333333333</ele><time>2026-04-07T12:09:56.831Z</time></trkpt><trkpt lat="43.1610267" lon="13.1051317"><ele>661.6666666666666</ele><time>2026-04-07T12:09:57.832Z</time></trkpt><trkpt lat="43.16117" lon="13.1052433"><ele>660.0</ele><time>2026-04-07T12:09:58.832Z</time></trkpt><trkpt lat="43.1613067" lon="13.10536"><ele>660.0</ele><time>2026-04-07T12:09:59.832Z</time></trkpt><trkpt lat="43.1614383" lon="13.1054717"><ele>660.0</ele><time>2026-04-07T12:10:00.832Z</time></trkpt><trkpt lat="43.1615783" lon="13.1055717"><ele>660.0</ele><time>2026-04-07T12:10:01.831Z</time></trkpt><trkpt lat="43.1617283" lon="13.1056483"><ele>662.3333333333334</ele><time>2026-04-07T12:10:02.832Z</time></trkpt><trkpt lat="43.1618833" lon="13.1056817"><ele>664.6666666666667</ele><time>2026-04-07T12:10:03.832Z</time></trkpt><trkpt lat="43.1620383" lon="13.1056983"><ele>667.0</ele><time>2026-04-07T12:10:04.832Z</time></trkpt><trkpt lat="43.162205" lon="13.1056917"><ele>667.0</ele><time>2026-04-07T12:10:05.832Z</time></trkpt><trkpt lat="43.1623633" lon="13.1056983"><ele>667.0</ele><time>2026-04-07T12:10:06.832Z</time></trkpt><trkpt lat="43.162515" lon="13.1057233"><ele>667.0</ele><time>2026-04-07T12:10:07.831Z</time></trkpt><trkpt lat="43.1626617" lon="13.1057767"><ele>660.6666666666667</ele><time>2026-04-07T12:10:08.832Z</time></trkpt><trkpt lat="43.1628083" lon="13.1058483"><ele>654.3333333333334</ele><time>2026-04-07T12:10:09.832Z</time></trkpt><trkpt lat="43.16296" lon="13.10593"><ele>648.0</ele><time>2026-04-07T12:10:10.831Z</time></trkpt><trkpt lat="43.1631233" lon="13.1060017"><ele>648.3333333333334</ele><time>2026-04-07T12:10:11.831Z</time></trkpt><trkpt lat="43.16329" lon="13.1060467"><ele>648.6666666666667</ele><time>2026-04-07T12:10:12.832Z</time></trkpt><trkpt lat="43.1634617" lon="13.10607"><ele>649.0</ele><time>2026-04-07T12:10:13.832Z</time></trkpt><trkpt lat="43.1636333" lon="13.1060683"><ele>649.0</ele><time>2026-04-07T12:10:14.832Z</time></trkpt><trkpt lat="43.1637933" lon="13.1060567"><ele>649.0</ele><time>2026-04-07T12:10:15.832Z</time></trkpt><trkpt lat="43.163955" lon="13.10604"><ele>649.0</ele><time>2026-04-07T12:10:16.832Z</time></trkpt><trkpt lat="43.1641167" lon="13.1060217"><ele>646.0</ele><time>2026-04-07T12:10:17.831Z</time></trkpt><trkpt lat="43.1642733" lon="13.1060183"><ele>643.0</ele><time>2026-04-07T12:10:18.832Z</time></trkpt><trkpt lat="43.1644283" lon="13.1060183"><ele>640.0</ele><time>2026-04-07T12:10:19.832Z</time></trkpt><trkpt lat="43.1645717" lon="13.1060417"><ele>640.0</ele><time>2026-04-07T12:10:20.832Z</time></trkpt><trkpt lat="43.1647033" lon="13.10612"><ele>640.0</ele><time>2026-04-07T12:10:21.832Z</time></trkpt><trkpt lat="43.16483" lon="13.10624"><ele>640.0</ele><time>2026-04-07T12:10:22.831Z</time></trkpt><trkpt lat="43.164955" lon="13.106375"><ele>638.3333333333334</ele><time>2026-04-07T12:10:23.832Z</time></trkpt><trkpt lat="43.16509" lon="13.1065017"><ele>636.6666666666666</ele><time>2026-04-07T12:10:24.832Z</time></trkpt><trkpt lat="43.165235" lon="13.1066117"><ele>635.0</ele><time>2026-04-07T12:10:25.832Z</time></trkpt><trkpt lat="43.165385" lon="13.1067083"><ele>635.0</ele><time>2026-04-07T12:10:26.832Z</time></trkpt><trkpt lat="43.1655467" lon="13.1068033"><ele>635.0</ele><time>2026-04-07T12:10:27.832Z</time></trkpt><trkpt lat="43.165705" lon="13.1069067"><ele>635.0</ele><time>2026-04-07T12:10:28.832Z</time></trkpt><trkpt lat="43.16587" lon="13.1069967"><ele>633.75</ele><time>2026-04-07T12:10:29.832Z</time></trkpt><trkpt lat="43.1660033" lon="13.1070733"><ele>632.5</ele><time>2026-04-07T12:10:30.831Z</time></trkpt><trkpt lat="43.1661233" lon="13.1071683"><ele>631.25</ele><time>2026-04-07T12:10:31.832Z</time></trkpt><trkpt lat="43.16623" lon="13.1072667"><ele>630.0</ele><time>2026-04-07T12:10:32.832Z</time></trkpt><trkpt lat="43.1663233" lon="13.10739"><ele>630.75</ele><time>2026-04-07T12:10:33.832Z</time></trkpt><trkpt lat="43.1664083" lon="13.107545"><ele>631.5</ele><time>2026-04-07T12:10:34.832Z</time></trkpt><trkpt lat="43.1664783" lon="13.1077183"><ele>632.25</ele><time>2026-04-07T12:10:35.832Z</time></trkpt><trkpt lat="43.16653" lon="13.10791"><ele>633.0</ele><time>2026-04-07T12:10:36.831Z</time></trkpt><trkpt lat="43.166565" lon="13.1081167"><ele>636.6666666666666</ele><time>2026-04-07T12:10:37.831Z</time></trkpt><trkpt lat="43.1666183" lon="13.1083283"><ele>640.3333333333333</ele><time>2026-04-07T12:10:38.832Z</time></trkpt><trkpt lat="43.1666767" lon="13.1085333"><ele>644.0</ele><time>2026-04-07T12:10:39.832Z</time></trkpt><trkpt lat="43.1667517" lon="13.108715"><ele>644.0</ele><time>2026-04-07T12:10:40.831Z</time></trkpt><trkpt lat="43.166855" lon="13.1088867"><ele>644.0</ele><time>2026-04-07T12:10:41.832Z</time></trkpt><trkpt lat="43.1669667" lon="13.1090433"><ele>644.0</ele><time>2026-04-07T12:10:42.832Z</time></trkpt><trkpt lat="43.1671017" lon="13.1091883"><ele>642.3333333333333</ele><time>2026-04-07T12:10:43.831Z</time></trkpt><trkpt lat="43.1672533" lon="13.1093167"><ele>640.6666666666666</ele><time>2026-04-07T12:10:44.832Z</time></trkpt><trkpt lat="43.1674133" lon="13.109445"><ele>639.0</ele><time>2026-04-07T12:10:45.831Z</time></trkpt><trkpt lat="43.1675733" lon="13.109585"><ele>637.6666666666666</ele><time>2026-04-07T12:10:46.831Z</time></trkpt><trkpt lat="43.167725" lon="13.10972"><ele>636.3333333333333</ele><time>2026-04-07T12:10:47.831Z</time></trkpt><trkpt lat="43.16788" lon="13.1098383"><ele>635.0</ele><time>2026-04-07T12:10:48.831Z</time></trkpt><trkpt lat="43.1680367" lon="13.1099467"><ele>639.3333333333333</ele><time>2026-04-07T12:10:49.832Z</time></trkpt><trkpt lat="43.1681967" lon="13.1100483"><ele>643.6666666666666</ele><time>2026-04-07T12:10:50.831Z</time></trkpt><trkpt lat="43.1683567" lon="13.1101367"><ele>648.0</ele><time>2026-04-07T12:10:51.832Z</time></trkpt><trkpt lat="43.1685233" lon="13.110215"><ele>648.0</ele><time>2026-04-07T12:10:52.831Z</time></trkpt><trkpt lat="43.1686917" lon="13.110295"><ele>648.0</ele><time>2026-04-07T12:10:53.832Z</time></trkpt><trkpt lat="43.1688583" lon="13.1103683"><ele>648.0</ele><time>2026-04-07T12:10:54.832Z</time></trkpt><trkpt lat="43.1690183" lon="13.11044"><ele>649.0</ele><time>2026-04-07T12:10:55.832Z</time></trkpt><trkpt lat="43.1691667" lon="13.1105133"><ele>650.0</ele><time>2026-04-07T12:10:56.832Z</time></trkpt><trkpt lat="43.1693033" lon="13.1105733"><ele>651.0</ele><time>2026-04-07T12:10:57.832Z</time></trkpt><trkpt lat="43.1694233" lon="13.1106267"><ele>652.0</ele><time>2026-04-07T12:10:58.832Z</time></trkpt><trkpt lat="43.16954" lon="13.1106817"><ele>652.0</ele><time>2026-04-07T12:10:59.832Z</time></trkpt><trkpt lat="43.1696533" lon="13.11073"><ele>652.0</ele><time>2026-04-07T12:11:00.832Z</time></trkpt><trkpt lat="43.169755" lon="13.11077"><ele>652.0</ele><time>2026-04-07T12:11:01.832Z</time></trkpt><trkpt lat="43.1698617" lon="13.1108167"><ele>652.0</ele><time>2026-04-07T12:11:02.832Z</time></trkpt><trkpt lat="43.1699767" lon="13.1108717"><ele>655.0</ele><time>2026-04-07T12:11:03.832Z</time></trkpt><trkpt lat="43.1700967" lon="13.1109483"><ele>658.0</ele><time>2026-04-07T12:11:04.832Z</time></trkpt><trkpt lat="43.1702267" lon="13.1110433"><ele>661.0</ele><time>2026-04-07T12:11:05.831Z</time></trkpt><trkpt lat="43.170355" lon="13.1111383"><ele>664.0</ele><time>2026-04-07T12:11:06.832Z</time></trkpt><trkpt lat="43.17048" lon="13.111235"><ele>664.0</ele><time>2026-04-07T12:11:07.832Z</time></trkpt><trkpt lat="43.170625" lon="13.11133"><ele>664.0</ele><time>2026-04-07T12:11:08.832Z</time></trkpt><trkpt lat="43.1707667" lon="13.1114317"><ele>664.0</ele><time>2026-04-07T12:11:09.832Z</time></trkpt><trkpt lat="43.1709117" lon="13.1115317"><ele>667.6666666666667</ele><time>2026-04-07T12:11:10.832Z</time></trkpt><trkpt lat="43.1710517" lon="13.1116367"><ele>671.3333333333334</ele><time>2026-04-07T12:11:11.832Z</time></trkpt><trkpt lat="43.1711917" lon="13.1117367"><ele>675.0</ele><time>2026-04-07T12:11:12.832Z</time></trkpt><trkpt lat="43.171335" lon="13.111835"><ele>675.0</ele><time>2026-04-07T12:11:13.832Z</time></trkpt><trkpt lat="43.171475" lon="13.11194"><ele>675.0</ele><time>2026-04-07T12:11:14.831Z</time></trkpt><trkpt lat="43.1716167" lon="13.11205"><ele>675.0</ele><time>2026-04-07T12:11:15.832Z</time></trkpt><trkpt lat="43.1717617" lon="13.1121567"><ele>674.3333333333334</ele><time>2026-04-07T12:11:16.832Z</time></trkpt><trkpt lat="43.171905" lon="13.11226"><ele>673.6666666666667</ele><time>2026-04-07T12:11:17.832Z</time></trkpt><trkpt lat="43.1720433" lon="13.1123583"><ele>673.0</ele><time>2026-04-07T12:11:18.831Z</time></trkpt><trkpt lat="43.172185" lon="13.1124633"><ele>675.6666666666667</ele><time>2026-04-07T12:11:19.832Z</time></trkpt><trkpt lat="43.17233" lon="13.1125533"><ele>678.3333333333334</ele><time>2026-04-07T12:11:20.832Z</time></trkpt><trkpt lat="43.1724767" lon="13.11264"><ele>681.0</ele><time>2026-04-07T12:11:21.832Z</time></trkpt><trkpt lat="43.1726317" lon="13.11272"><ele>681.0</ele><time>2026-04-07T12:11:22.831Z</time></trkpt><trkpt lat="43.1727817" lon="13.1127983"><ele>681.0</ele><time>2026-04-07T12:11:23.832Z</time></trkpt><trkpt lat="43.1729283" lon="13.11287"><ele>681.0</ele><time>2026-04-07T12:11:24.832Z</time></trkpt><trkpt lat="43.1730867" lon="13.1129417"><ele>681.0</ele><time>2026-04-07T12:11:25.832Z</time></trkpt><trkpt lat="43.1732483" lon="13.1130133"><ele>681.0</ele><time>2026-04-07T12:11:26.831Z</time></trkpt><trkpt lat="43.1734167" lon="13.1130883"><ele>681.0</ele><time>2026-04-07T12:11:27.832Z</time></trkpt><trkpt lat="43.173585" lon="13.1131683"><ele>683.3333333333334</ele><time>2026-04-07T12:11:28.832Z</time></trkpt><trkpt lat="43.17376" lon="13.113245"><ele>685.6666666666667</ele><time>2026-04-07T12:11:29.832Z</time></trkpt><trkpt lat="43.1739333" lon="13.1133267"><ele>688.0</ele><time>2026-04-07T12:11:30.832Z</time></trkpt><trkpt lat="43.1741117" lon="13.1134067"><ele>689.3333333333334</ele><time>2026-04-07T12:11:31.832Z</time></trkpt><trkpt lat="43.1742833" lon="13.1134867"><ele>690.6666666666666</ele><time>2026-04-07T12:11:32.832Z</time></trkpt><trkpt lat="43.174455" lon="13.1135717"><ele>692.0</ele><time>2026-04-07T12:11:33.831Z</time></trkpt><trkpt lat="43.1746283" lon="13.1136517"><ele>692.0</ele><time>2026-04-07T12:11:34.832Z</time></trkpt><trkpt lat="43.1748017" lon="13.1137317"><ele>692.0</ele><time>2026-04-07T12:11:35.832Z</time></trkpt><trkpt lat="43.1749683" lon="13.11381"><ele>692.0</ele><time>2026-04-07T12:11:36.831Z</time></trkpt><trkpt lat="43.1751183" lon="13.11389"><ele>692.3333333333333</ele><time>2026-04-07T12:11:37.832Z</time></trkpt><trkpt lat="43.175255" lon="13.1139733"><ele>692.6666666666666</ele><time>2026-04-07T12:11:38.832Z</time></trkpt><trkpt lat="43.17539" lon="13.1140883"><ele>693.0</ele><time>2026-04-07T12:11:39.832Z</time></trkpt><trkpt lat="43.1755033" lon="13.1142183"><ele>693.0</ele><time>2026-04-07T12:11:40.832Z</time></trkpt><trkpt lat="43.1756017" lon="13.1143683"><ele>693.0</ele><time>2026-04-07T12:11:41.832Z</time></trkpt><trkpt lat="43.1756683" lon="13.1145433"><ele>693.0</ele><time>2026-04-07T12:11:42.831Z</time></trkpt><trkpt lat="43.17572" lon="13.1147367"><ele>693.0</ele><time>2026-04-07T12:11:43.832Z</time></trkpt><trkpt lat="43.1757683" lon="13.11494"><ele>698.3333333333334</ele><time>2026-04-07T12:11:44.832Z</time></trkpt><trkpt lat="43.17581" lon="13.115155"><ele>703.6666666666667</ele><time>2026-04-07T12:11:45.832Z</time></trkpt><trkpt lat="43.175845" lon="13.1153783"><ele>709.0</ele><time>2026-04-07T12:11:46.831Z</time></trkpt><trkpt lat="43.175895" lon="13.1156"><ele>709.6666666666667</ele><time>2026-04-07T12:11:47.832Z</time></trkpt><trkpt lat="43.1759367" lon="13.11583"><ele>710.3333333333334</ele><time>2026-04-07T12:11:48.832Z</time></trkpt><trkpt lat="43.1759783" lon="13.1160583"><ele>711.0</ele><time>2026-04-07T12:11:49.832Z</time></trkpt><trkpt lat="43.1760217" lon="13.11628"><ele>711.0</ele><time>2026-04-07T12:11:50.832Z</time></trkpt><trkpt lat="43.17607" lon="13.1164933"><ele>711.0</ele><time>2026-04-07T12:11:51.832Z</time></trkpt><trkpt lat="43.1761183" lon="13.1166967"><ele>711.0</ele><time>2026-04-07T12:11:52.832Z</time></trkpt><trkpt lat="43.1761883" lon="13.116885"><ele>712.6666666666666</ele><time>2026-04-07T12:11:53.832Z</time></trkpt><trkpt lat="43.176275" lon="13.1170533"><ele>714.3333333333333</ele><time>2026-04-07T12:11:54.832Z</time></trkpt><trkpt lat="43.1763867" lon="13.117205"><ele>716.0</ele><time>2026-04-07T12:11:55.831Z</time></trkpt><trkpt lat="43.1765167" lon="13.1173483"><ele>721.0</ele><time>2026-04-07T12:11:56.832Z</time></trkpt><trkpt lat="43.1766483" lon="13.11749"><ele>726.0</ele><time>2026-04-07T12:11:57.832Z</time></trkpt><trkpt lat="43.1767883" lon="13.1176233"><ele>731.0</ele><time>2026-04-07T12:11:58.832Z</time></trkpt><trkpt lat="43.1769433" lon="13.117735"><ele>731.0</ele><time>2026-04-07T12:11:59.832Z</time></trkpt><trkpt lat="43.1771033" lon="13.1178267"><ele>731.0</ele><time>2026-04-07T12:12:00.832Z</time></trkpt><trkpt lat="43.1772567" lon="13.1179"><ele>731.0</ele><time>2026-04-07T12:12:01.831Z</time></trkpt><trkpt lat="43.1774117" lon="13.117965"><ele>732.3333333333333</ele><time>2026-04-07T12:12:02.832Z</time></trkpt><trkpt lat="43.1775783" lon="13.11802"><ele>733.6666666666666</ele><time>2026-04-07T12:12:03.832Z</time></trkpt><trkpt lat="43.1777467" lon="13.1180683"><ele>735.0</ele><time>2026-04-07T12:12:04.831Z</time></trkpt><trkpt lat="43.177925" lon="13.1180967"><ele>735.0</ele><time>2026-04-07T12:12:05.832Z</time></trkpt><trkpt lat="43.1781033" lon="13.1181133"><ele>735.0</ele><time>2026-04-07T12:12:06.832Z</time></trkpt><trkpt lat="43.1782867" lon="13.1181133"><ele>735.0</ele><time>2026-04-07T12:12:07.831Z</time></trkpt><trkpt lat="43.17847" lon="13.11811"><ele>736.0</ele><time>2026-04-07T12:12:08.832Z</time></trkpt><trkpt lat="43.1786483" lon="13.118115"><ele>737.0</ele><time>2026-04-07T12:12:09.831Z</time></trkpt><trkpt lat="43.1788133" lon="13.1181217"><ele>738.0</ele><time>2026-04-07T12:12:10.831Z</time></trkpt><trkpt lat="43.1789683" lon="13.118135"><ele>738.5</ele><time>2026-04-07T12:12:11.831Z</time></trkpt><trkpt lat="43.1791117" lon="13.1181567"><ele>739.0</ele><time>2026-04-07T12:12:12.832Z</time></trkpt><trkpt lat="43.1792533" lon="13.1181967"><ele>739.5</ele><time>2026-04-07T12:12:13.831Z</time></trkpt><trkpt lat="43.1794017" lon="13.1182583"><ele>740.0</ele><time>2026-04-07T12:12:14.832Z</time></trkpt><trkpt lat="43.1795533" lon="13.1183483"><ele>740.6666666666666</ele><time>2026-04-07T12:12:15.831Z</time></trkpt><trkpt lat="43.179705" lon="13.1184467"><ele>741.3333333333334</ele><time>2026-04-07T12:12:16.831Z</time></trkpt><trkpt lat="43.179865" lon="13.118555"><ele>742.0</ele><time>2026-04-07T12:12:17.832Z</time></trkpt><trkpt lat="43.1800233" lon="13.1186683"><ele>743.0</ele><time>2026-04-07T12:12:18.832Z</time></trkpt><trkpt lat="43.180185" lon="13.1187817"><ele>744.0</ele><time>2026-04-07T12:12:19.832Z</time></trkpt><trkpt lat="43.180345" lon="13.1188883"><ele>745.0</ele><time>2026-04-07T12:12:20.832Z</time></trkpt><trkpt lat="43.1805033" lon="13.1189917"><ele>744.3333333333334</ele><time>2026-04-07T12:12:21.832Z</time></trkpt><trkpt lat="43.1806617" lon="13.1190967"><ele>743.6666666666666</ele><time>2026-04-07T12:12:22.832Z</time></trkpt><trkpt lat="43.1808167" lon="13.1192017"><ele>743.0</ele><time>2026-04-07T12:12:23.832Z</time></trkpt><trkpt lat="43.1809667" lon="13.1193083"><ele>746.3333333333333</ele><time>2026-04-07T12:12:24.831Z</time></trkpt><trkpt lat="43.1811067" lon="13.1194133"><ele>749.6666666666666</ele><time>2026-04-07T12:12:25.832Z</time></trkpt><trkpt lat="43.1812483" lon="13.11953"><ele>753.0</ele><time>2026-04-07T12:12:26.831Z</time></trkpt><trkpt lat="43.1813783" lon="13.1196633"><ele>753.0</ele><time>2026-04-07T12:12:27.832Z</time></trkpt><trkpt lat="43.1814967" lon="13.1198133"><ele>753.0</ele><time>2026-04-07T12:12:28.832Z</time></trkpt><trkpt lat="43.1816017" lon="13.1199617"><ele>753.0</ele><time>2026-04-07T12:12:29.832Z</time></trkpt><trkpt lat="43.1817" lon="13.1200983"><ele>753.0</ele><time>2026-04-07T12:12:30.832Z</time></trkpt><trkpt lat="43.181795" lon="13.1202233"><ele>753.0</ele><time>2026-04-07T12:12:31.832Z</time></trkpt><trkpt lat="43.1819017" lon="13.120335"><ele>753.0</ele><time>2026-04-07T12:12:32.832Z</time></trkpt><trkpt lat="43.1820133" lon="13.1204283"><ele>753.0</ele><time>2026-04-07T12:12:33.832Z</time></trkpt><trkpt lat="43.18214" lon="13.1204867"><ele>753.0</ele><time>2026-04-07T12:12:34.832Z</time></trkpt><trkpt lat="43.18228" lon="13.120535"><ele>753.0</ele><time>2026-04-07T12:12:35.832Z</time></trkpt><trkpt lat="43.18243" lon="13.1205767"><ele>753.0</ele><time>2026-04-07T12:12:36.832Z</time></trkpt><trkpt lat="43.182595" lon="13.120625"><ele>753.6666666666666</ele><time>2026-04-07T12:12:37.832Z</time></trkpt><trkpt lat="43.1827517" lon="13.120675"><ele>754.3333333333333</ele><time>2026-04-07T12:12:38.832Z</time></trkpt><trkpt lat="43.1829117" lon="13.1207317"><ele>755.0</ele><time>2026-04-07T12:12:39.832Z</time></trkpt><trkpt lat="43.1830633" lon="13.12079"><ele>754.0</ele><time>2026-04-07T12:12:40.832Z</time></trkpt><trkpt lat="43.1832117" lon="13.1208417"><ele>753.0</ele><time>2026-04-07T12:12:41.832Z</time></trkpt><trkpt lat="43.1833583" lon="13.1208867"><ele>752.0</ele><time>2026-04-07T12:12:42.832Z</time></trkpt><trkpt lat="43.183505" lon="13.1209383"><ele>752.0</ele><time>2026-04-07T12:12:43.831Z</time></trkpt><trkpt lat="43.1836433" lon="13.120995"><ele>752.0</ele><time>2026-04-07T12:12:44.832Z</time></trkpt><trkpt lat="43.1837767" lon="13.1210717"><ele>752.0</ele><time>2026-04-07T12:12:45.831Z</time></trkpt><trkpt lat="43.1838917" lon="13.1211733"><ele>752.0</ele><time>2026-04-07T12:12:46.831Z</time></trkpt><trkpt lat="43.1839883" lon="13.1212917"><ele>752.25</ele><time>2026-04-07T12:12:47.832Z</time></trkpt><trkpt lat="43.1840783" lon="13.121425"><ele>752.5</ele><time>2026-04-07T12:12:48.832Z</time></trkpt><trkpt lat="43.184155" lon="13.1215783"><ele>752.75</ele><time>2026-04-07T12:12:49.832Z</time></trkpt><trkpt lat="43.1842267" lon="13.1217517"><ele>753.0</ele><time>2026-04-07T12:12:50.832Z</time></trkpt><trkpt lat="43.1842867" lon="13.1219417"><ele>753.6666666666666</ele><time>2026-04-07T12:12:51.832Z</time></trkpt><trkpt lat="43.18435" lon="13.1221383"><ele>754.3333333333333</ele><time>2026-04-07T12:12:52.832Z</time></trkpt><trkpt lat="43.1844133" lon="13.12233"><ele>755.0</ele><time>2026-04-07T12:12:53.832Z</time></trkpt><trkpt lat="43.18447" lon="13.1225233"><ele>753.75</ele><time>2026-04-07T12:12:54.832Z</time></trkpt><trkpt lat="43.1845317" lon="13.1227033"><ele>752.5</ele><time>2026-04-07T12:12:55.831Z</time></trkpt><trkpt lat="43.1845967" lon="13.1228767"><ele>751.25</ele><time>2026-04-07T12:12:56.832Z</time></trkpt><trkpt lat="43.1846567" lon="13.12304"><ele>750.0</ele><time>2026-04-07T12:12:57.832Z</time></trkpt><trkpt lat="43.18473" lon="13.1232"><ele>749.75</ele><time>2026-04-07T12:12:58.831Z</time></trkpt><trkpt lat="43.1848183" lon="13.1233433"><ele>749.5</ele><time>2026-04-07T12:12:59.832Z</time></trkpt><trkpt lat="43.18492" lon="13.1234883"><ele>749.25</ele><time>2026-04-07T12:13:00.832Z</time></trkpt><trkpt lat="43.1850267" lon="13.12364"><ele>749.0</ele><time>2026-04-07T12:13:01.831Z</time></trkpt><trkpt lat="43.1851383" lon="13.1237917"><ele>749.0</ele><time>2026-04-07T12:13:02.832Z</time></trkpt><trkpt lat="43.18524" lon="13.1239383"><ele>749.0</ele><time>2026-04-07T12:13:03.832Z</time></trkpt><trkpt lat="43.1853367" lon="13.1240783"><ele>749.0</ele><time>2026-04-07T12:13:04.832Z</time></trkpt><trkpt lat="43.1854267" lon="13.1242117"><ele>749.0</ele><time>2026-04-07T12:13:05.832Z</time></trkpt><trkpt lat="43.1855133" lon="13.1243517"><ele>749.0</ele><time>2026-04-07T12:13:06.832Z</time></trkpt><trkpt lat="43.1856" lon="13.1244817"><ele>749.0</ele><time>2026-04-07T12:13:07.831Z</time></trkpt><trkpt lat="43.1856917" lon="13.1246133"><ele>749.0</ele><time>2026-04-07T12:13:08.831Z</time></trkpt><trkpt lat="43.1857917" lon="13.1247567"><ele>749.0</ele><time>2026-04-07T12:13:09.832Z</time></trkpt><trkpt lat="43.185885" lon="13.1248933"><ele>749.5</ele><time>2026-04-07T12:13:10.832Z</time></trkpt><trkpt lat="43.1859783" lon="13.1250233"><ele>750.0</ele><time>2026-04-07T12:13:11.831Z</time></trkpt><trkpt lat="43.186055" lon="13.1251467"><ele>750.5</ele><time>2026-04-07T12:13:12.832Z</time></trkpt><trkpt lat="43.1861383" lon="13.1252617"><ele>751.0</ele><time>2026-04-07T12:13:13.832Z</time></trkpt><trkpt lat="43.186205" lon="13.12536"><ele>751.0</ele><time>2026-04-07T12:13:14.832Z</time></trkpt><trkpt lat="43.1862667" lon="13.1254417"><ele>751.0</ele><time>2026-04-07T12:13:15.832Z</time></trkpt><trkpt lat="43.186315" lon="13.1255083"><ele>751.0</ele><time>2026-04-07T12:13:16.832Z</time></trkpt><trkpt lat="43.1863833" lon="13.1256167"><ele>751.0</ele><time>2026-04-07T12:13:18.832Z</time></trkpt><trkpt lat="43.1863583" lon="13.1256967"><ele>751.0</ele><time>2026-04-07T12:13:20.832Z</time></trkpt><trkpt lat="43.18627" lon="13.1257483"><ele>751.0</ele><time>2026-04-07T12:13:22.832Z</time></trkpt><trkpt lat="43.1862067" lon="13.1257667"><ele>751.1428571428572</ele><time>2026-04-07T12:13:23.831Z</time></trkpt><trkpt lat="43.1861283" lon="13.1257883"><ele>751.2857142857143</ele><time>2026-04-07T12:13:24.831Z</time></trkpt><trkpt lat="43.186055" lon="13.12582"><ele>751.4285714285714</ele><time>2026-04-07T12:13:25.832Z</time></trkpt><trkpt lat="43.185995" lon="13.1258517"><ele>751.5714285714287</ele><time>2026-04-07T12:13:26.832Z</time></trkpt><trkpt lat="43.185935" lon="13.1258817"><ele>751.7142857142857</ele><time>2026-04-07T12:13:27.832Z</time></trkpt><trkpt lat="43.1858633" lon="13.1259"><ele>751.8571428571429</ele><time>2026-04-07T12:13:28.832Z</time></trkpt><trkpt lat="43.1857833" lon="13.125915"><ele>752.0</ele><time>2026-04-07T12:13:29.832Z</time></trkpt><trkpt lat="43.1857067" lon="13.1259417"><ele>751.5</ele><time>2026-04-07T12:13:30.832Z</time></trkpt><trkpt lat="43.185625" lon="13.12596"><ele>751.0</ele><time>2026-04-07T12:13:31.832Z</time></trkpt><trkpt lat="43.185545" lon="13.1259767"><ele>750.5</ele><time>2026-04-07T12:13:32.832Z</time></trkpt><trkpt lat="43.1854667" lon="13.125995"><ele>750.0</ele><time>2026-04-07T12:13:33.832Z</time></trkpt><trkpt lat="43.185385" lon="13.12601"><ele>749.5</ele><time>2026-04-07T12:13:34.832Z</time></trkpt><trkpt lat="43.1853017" lon="13.1260383"><ele>749.0</ele><time>2026-04-07T12:13:35.832Z</time></trkpt><trkpt lat="43.1852217" lon="13.126075"><ele>749.0</ele><time>2026-04-07T12:13:36.832Z</time></trkpt><trkpt lat="43.185145" lon="13.1261033"><ele>749.0</ele><time>2026-04-07T12:13:37.832Z</time></trkpt><trkpt lat="43.1850717" lon="13.1261333"><ele>749.0</ele><time>2026-04-07T12:13:38.831Z</time></trkpt><trkpt lat="43.184995" lon="13.12617"><ele>749.0</ele><time>2026-04-07T12:13:39.832Z</time></trkpt><trkpt lat="43.1849217" lon="13.1262167"><ele>749.0</ele><time>2026-04-07T12:13:40.831Z</time></trkpt><trkpt lat="43.1848533" lon="13.1262633"><ele>749.0</ele><time>2026-04-07T12:13:41.832Z</time></trkpt><trkpt lat="43.1847867" lon="13.1263133"><ele>747.8333333333333</ele><time>2026-04-07T12:13:42.831Z</time></trkpt><trkpt lat="43.1847133" lon="13.1263583"><ele>746.6666666666666</ele><time>2026-04-07T12:13:43.831Z</time></trkpt><trkpt lat="43.1846383" lon="13.126385"><ele>745.5</ele><time>2026-04-07T12:13:44.832Z</time></trkpt><trkpt lat="43.1845533" lon="13.1263967"><ele>744.3333333333334</ele><time>2026-04-07T12:13:45.831Z</time></trkpt><trkpt lat="43.1844717" lon="13.1263967"><ele>743.1666666666667</ele><time>2026-04-07T12:13:46.832Z</time></trkpt><trkpt lat="43.1843917" lon="13.1263933"><ele>742.0</ele><time>2026-04-07T12:13:47.831Z</time></trkpt><trkpt lat="43.1843167" lon="13.1263733"><ele>742.0</ele><time>2026-04-07T12:13:48.831Z</time></trkpt><trkpt lat="43.18425" lon="13.126335"><ele>742.0</ele><time>2026-04-07T12:13:49.832Z</time></trkpt><trkpt lat="43.1841833" lon="13.1262683"><ele>742.0</ele><time>2026-04-07T12:13:50.831Z</time></trkpt><trkpt lat="43.184115" lon="13.1262083"><ele>742.0</ele><time>2026-04-07T12:13:51.832Z</time></trkpt><trkpt lat="43.1840433" lon="13.1261517"><ele>742.0</ele><time>2026-04-07T12:13:52.831Z</time></trkpt><trkpt lat="43.1839717" lon="13.126105"><ele>742.0</ele><time>2026-04-07T12:13:53.832Z</time></trkpt><trkpt lat="43.1838983" lon="13.126075"><ele>741.1666666666667</ele><time>2026-04-07T12:13:54.832Z</time></trkpt><trkpt lat="43.183825" lon="13.1260333"><ele>740.3333333333334</ele><time>2026-04-07T12:13:55.831Z</time></trkpt><trkpt lat="43.1837567" lon="13.1259683"><ele>739.5</ele><time>2026-04-07T12:13:56.832Z</time></trkpt><trkpt lat="43.183685" lon="13.125895"><ele>738.6666666666666</ele><time>2026-04-07T12:13:57.832Z</time></trkpt><trkpt lat="43.1836117" lon="13.1258333"><ele>737.8333333333333</ele><time>2026-04-07T12:13:58.832Z</time></trkpt><trkpt lat="43.183535" lon="13.125775"><ele>737.0</ele><time>2026-04-07T12:13:59.832Z</time></trkpt><trkpt lat="43.1834583" lon="13.1257233"><ele>736.6666666666666</ele><time>2026-04-07T12:14:00.832Z</time></trkpt><trkpt lat="43.183385" lon="13.1256667"><ele>736.3333333333333</ele><time>2026-04-07T12:14:01.831Z</time></trkpt><trkpt lat="43.183315" lon="13.1256067"><ele>736.0</ele><time>2026-04-07T12:14:02.832Z</time></trkpt><trkpt lat="43.1832533" lon="13.1255517"><ele>735.6666666666666</ele><time>2026-04-07T12:14:03.831Z</time></trkpt><trkpt lat="43.1831883" lon="13.1255033"><ele>735.3333333333334</ele><time>2026-04-07T12:14:04.832Z</time></trkpt><trkpt lat="43.1831233" lon="13.1254733"><ele>735.0</ele><time>2026-04-07T12:14:05.832Z</time></trkpt><trkpt lat="43.1830533" lon="13.1254667"><ele>735.0</ele><time>2026-04-07T12:14:06.832Z</time></trkpt><trkpt lat="43.1829917" lon="13.1254883"><ele>735.0</ele><time>2026-04-07T12:14:07.832Z</time></trkpt><trkpt lat="43.182925" lon="13.1255383"><ele>735.0</ele><time>2026-04-07T12:14:08.832Z</time></trkpt><trkpt lat="43.1828533" lon="13.1255967"><ele>735.0</ele><time>2026-04-07T12:14:09.832Z</time></trkpt><trkpt lat="43.18278" lon="13.125635"><ele>735.0</ele><time>2026-04-07T12:14:10.831Z</time></trkpt><trkpt lat="43.1827083" lon="13.1256717"><ele>735.0</ele><time>2026-04-07T12:14:11.832Z</time></trkpt><trkpt lat="43.1826467" lon="13.1257033"><ele>735.0</ele><time>2026-04-07T12:14:12.832Z</time></trkpt><trkpt lat="43.1825867" lon="13.1257483"><ele>735.0</ele><time>2026-04-07T12:14:13.832Z</time></trkpt><trkpt lat="43.1825067" lon="13.1258867"><ele>735.0</ele><time>2026-04-07T12:14:15.832Z</time></trkpt><trkpt lat="43.1824733" lon="13.1259867"><ele>735.0</ele><time>2026-04-07T12:14:16.832Z</time></trkpt><trkpt lat="43.1824383" lon="13.1260933"><ele>735.0</ele><time>2026-04-07T12:14:17.831Z</time></trkpt><trkpt lat="43.1824017" lon="13.1261867"><ele>735.0</ele><time>2026-04-07T12:14:18.832Z</time></trkpt><trkpt lat="43.1823683" lon="13.12627"><ele>735.0</ele><time>2026-04-07T12:14:19.832Z</time></trkpt><trkpt lat="43.1822883" lon="13.12637"><ele>734.6</ele><time>2026-04-07T12:14:21.832Z</time></trkpt><trkpt lat="43.1821733" lon="13.126395"><ele>734.2</ele><time>2026-04-07T12:14:23.831Z</time></trkpt><trkpt lat="43.1820933" lon="13.1263667"><ele>733.8</ele><time>2026-04-07T12:14:24.832Z</time></trkpt><trkpt lat="43.1820017" lon="13.12633"><ele>733.4</ele><time>2026-04-07T12:14:25.832Z</time></trkpt><trkpt lat="43.1819117" lon="13.1262867"><ele>733.0</ele><time>2026-04-07T12:14:26.832Z</time></trkpt><trkpt lat="43.1818367" lon="13.1262533"><ele>733.0</ele><time>2026-04-07T12:14:27.831Z</time></trkpt><trkpt lat="43.1817683" lon="13.1262283"><ele>733.0</ele><time>2026-04-07T12:14:28.832Z</time></trkpt><trkpt lat="43.181645" lon="13.1262567"><ele>733.0</ele><time>2026-04-07T12:14:30.832Z</time></trkpt><trkpt lat="43.1815783" lon="13.1263033"><ele>733.0</ele><time>2026-04-07T12:14:31.832Z</time></trkpt><trkpt lat="43.1815067" lon="13.12636"><ele>733.0</ele><time>2026-04-07T12:14:32.832Z</time></trkpt><trkpt lat="43.1814333" lon="13.1264283"><ele>733.0</ele><time>2026-04-07T12:14:33.831Z</time></trkpt><trkpt lat="43.1813667" lon="13.126505"><ele>734.6666666666667</ele><time>2026-04-07T12:14:34.831Z</time></trkpt><trkpt lat="43.1813017" lon="13.1265767"><ele>736.3333333333334</ele><time>2026-04-07T12:14:35.831Z</time></trkpt><trkpt lat="43.1812433" lon="13.1266517"><ele>738.0</ele><time>2026-04-07T12:14:36.831Z</time></trkpt><trkpt lat="43.1811783" lon="13.1267217"><ele>739.6666666666666</ele><time>2026-04-07T12:14:37.832Z</time></trkpt><trkpt lat="43.1811117" lon="13.12678"><ele>741.3333333333333</ele><time>2026-04-07T12:14:38.832Z</time></trkpt><trkpt lat="43.1810467" lon="13.1268367"><ele>743.0</ele><time>2026-04-07T12:14:39.832Z</time></trkpt><trkpt lat="43.1809733" lon="13.1269067"><ele>743.0</ele><time>2026-04-07T12:14:40.832Z</time></trkpt><trkpt lat="43.1808983" lon="13.1269767"><ele>743.0</ele><time>2026-04-07T12:14:41.832Z</time></trkpt><trkpt lat="43.18082" lon="13.1270483"><ele>743.0</ele><time>2026-04-07T12:14:42.832Z</time></trkpt><trkpt lat="43.1807333" lon="13.1271267"><ele>743.0</ele><time>2026-04-07T12:14:43.831Z</time></trkpt><trkpt lat="43.1806483" lon="13.127195"><ele>743.0</ele><time>2026-04-07T12:14:44.832Z</time></trkpt><trkpt lat="43.1805617" lon="13.1272533"><ele>743.4</ele><time>2026-04-07T12:14:45.832Z</time></trkpt><trkpt lat="43.1804717" lon="13.1273083"><ele>743.8</ele><time>2026-04-07T12:14:46.832Z</time></trkpt><trkpt lat="43.1803767" lon="13.1273667"><ele>744.2</ele><time>2026-04-07T12:14:47.832Z</time></trkpt><trkpt lat="43.1802817" lon="13.1274283"><ele>744.6</ele><time>2026-04-07T12:14:48.832Z</time></trkpt><trkpt lat="43.18019" lon="13.12749"><ele>745.0</ele><time>2026-04-07T12:14:49.832Z</time></trkpt><trkpt lat="43.180095" lon="13.1275633"><ele>746.2</ele><time>2026-04-07T12:14:50.832Z</time></trkpt><trkpt lat="43.1800017" lon="13.127635"><ele>747.4</ele><time>2026-04-07T12:14:51.832Z</time></trkpt><trkpt lat="43.1799133" lon="13.1277067"><ele>748.5999999999999</ele><time>2026-04-07T12:14:52.831Z</time></trkpt><trkpt lat="43.1798317" lon="13.1277767"><ele>749.8</ele><time>2026-04-07T12:14:53.832Z</time></trkpt><trkpt lat="43.17975" lon="13.1278317"><ele>751.0</ele><time>2026-04-07T12:14:54.832Z</time></trkpt><trkpt lat="43.1796617" lon="13.1278867"><ele>752.0</ele><time>2026-04-07T12:14:55.832Z</time></trkpt><trkpt lat="43.179575" lon="13.1279367"><ele>753.0</ele><time>2026-04-07T12:14:56.832Z</time></trkpt><trkpt lat="43.1794882" lon="13.1279879"><ele>754.0</ele><time>2026-04-07T12:14:57.832Z</time></trkpt><trkpt lat="43.1794042" lon="13.1280388"><ele>755.0</ele><time>2026-04-07T12:14:58.832Z</time></trkpt><trkpt lat="43.1793182" lon="13.1280898"><ele>756.0</ele><time>2026-04-07T12:14:59.832Z</time></trkpt><trkpt lat="43.1792297" lon="13.1281414"><ele>756.0</ele><time>2026-04-07T12:15:00.832Z</time></trkpt><trkpt lat="43.1791403" lon="13.1282011"><ele>756.0</ele><time>2026-04-07T12:15:01.831Z</time></trkpt><trkpt lat="43.1790504" lon="13.1282718"><ele>756.0</ele><time>2026-04-07T12:15:02.832Z</time></trkpt><trkpt lat="43.1789609" lon="13.1283439"><ele>756.0</ele><time>2026-04-07T12:15:03.831Z</time></trkpt><trkpt lat="43.1788798" lon="13.1284211"><ele>756.0</ele><time>2026-04-07T12:15:04.832Z</time></trkpt><trkpt lat="43.1788029" lon="13.1284974"><ele>758.5999999999999</ele><time>2026-04-07T12:15:05.832Z</time></trkpt><trkpt lat="43.1787253" lon="13.128569"><ele>761.2</ele><time>2026-04-07T12:15:06.832Z</time></trkpt><trkpt lat="43.1786419" lon="13.1286347"><ele>763.8</ele><time>2026-04-07T12:15:07.831Z</time></trkpt><trkpt lat="43.1785578" lon="13.1286996"><ele>766.4000000000001</ele><time>2026-04-07T12:15:08.832Z</time></trkpt><trkpt lat="43.1784745" lon="13.1287679"><ele>769.0</ele><time>2026-04-07T12:15:09.832Z</time></trkpt><trkpt lat="43.1783969" lon="13.1288431"><ele>768.9999999999999</ele><time>2026-04-07T12:15:10.832Z</time></trkpt><trkpt lat="43.1783288" lon="13.1289226"><ele>769.0</ele><time>2026-04-07T12:15:11.831Z</time></trkpt><trkpt lat="43.1782649" lon="13.1289968"><ele>769.0</ele><time>2026-04-07T12:15:12.832Z</time></trkpt><trkpt lat="43.1781935" lon="13.1290634"><ele>769.0</ele><time>2026-04-07T12:15:13.832Z</time></trkpt><trkpt lat="43.1781204" lon="13.1291148"><ele>768.9999999999999</ele><time>2026-04-07T12:15:14.831Z</time></trkpt><trkpt lat="43.1780598" lon="13.1291653"><ele>769.0</ele><time>2026-04-07T12:15:15.832Z</time></trkpt><trkpt lat="43.1780049" lon="13.1292251"><ele>771.0</ele><time>2026-04-07T12:15:16.832Z</time></trkpt><trkpt lat="43.1779301" lon="13.1293511"><ele>773.0</ele><time>2026-04-07T12:15:18.832Z</time></trkpt><trkpt lat="43.1778688" lon="13.1295104"><ele>775.0</ele><time>2026-04-07T12:15:20.832Z</time></trkpt><trkpt lat="43.1778253" lon="13.1295801"><ele>777.0</ele><time>2026-04-07T12:15:21.831Z</time></trkpt><trkpt lat="43.1777746" lon="13.1296369"><ele>779.0</ele><time>2026-04-07T12:15:22.832Z</time></trkpt><trkpt lat="43.1777186" lon="13.1296891"><ele>779.0</ele><time>2026-04-07T12:15:23.832Z</time></trkpt><trkpt lat="43.1776687" lon="13.1297564"><ele>779.0</ele><time>2026-04-07T12:15:24.832Z</time></trkpt><trkpt lat="43.1776223" lon="13.1298318"><ele>779.0</ele><time>2026-04-07T12:15:25.832Z</time></trkpt><trkpt lat="43.1775447" lon="13.1299479"><ele>779.0</ele><time>2026-04-07T12:15:27.832Z</time></trkpt><trkpt lat="43.177482" lon="13.1300469"><ele>779.0</ele><time>2026-04-07T12:15:29.832Z</time></trkpt><trkpt lat="43.1774106" lon="13.1301546"><ele>779.6</ele><time>2026-04-07T12:15:31.832Z</time></trkpt><trkpt lat="43.1773222" lon="13.1302688"><ele>780.2</ele><time>2026-04-07T12:15:33.832Z</time></trkpt><trkpt lat="43.1772252" lon="13.1303416"><ele>780.8000000000001</ele><time>2026-04-07T12:15:35.832Z</time></trkpt><trkpt lat="43.1770906" lon="13.1303437"><ele>781.4000000000001</ele><time>2026-04-07T12:15:37.832Z</time></trkpt><trkpt lat="43.1770145" lon="13.130326"><ele>782.0</ele><time>2026-04-07T12:15:38.831Z</time></trkpt><trkpt lat="43.1769452" lon="13.1303174"><ele>781.9999999999999</ele><time>2026-04-07T12:15:39.832Z</time></trkpt><trkpt lat="43.1768791" lon="13.1303318"><ele>782.0</ele><time>2026-04-07T12:15:40.832Z</time></trkpt><trkpt lat="43.1768201" lon="13.130365"><ele>782.0</ele><time>2026-04-07T12:15:41.832Z</time></trkpt><trkpt lat="43.1767592" lon="13.1304089"><ele>782.0</ele><time>2026-04-07T12:15:42.832Z</time></trkpt><trkpt lat="43.1767072" lon="13.1304713"><ele>782.0</ele><time>2026-04-07T12:15:43.831Z</time></trkpt><trkpt lat="43.1766629" lon="13.1305444"><ele>781.9999999999999</ele><time>2026-04-07T12:15:44.832Z</time></trkpt><trkpt lat="43.1766231" lon="13.1306245"><ele>782.0</ele><time>2026-04-07T12:15:45.831Z</time></trkpt><trkpt lat="43.176588" lon="13.1307204"><ele>782.4285714285713</ele><time>2026-04-07T12:15:46.831Z</time></trkpt><trkpt lat="43.1765571" lon="13.1308202"><ele>782.8571428571429</ele><time>2026-04-07T12:15:47.832Z</time></trkpt><trkpt lat="43.1765308" lon="13.1309211"><ele>783.2857142857142</ele><time>2026-04-07T12:15:48.832Z</time></trkpt><trkpt lat="43.1765033" lon="13.1310177"><ele>783.7142857142857</ele><time>2026-04-07T12:15:49.831Z</time></trkpt><trkpt lat="43.1764741" lon="13.1311142"><ele>784.1428571428571</ele><time>2026-04-07T12:15:50.832Z</time></trkpt><trkpt lat="43.1764496" lon="13.1312066"><ele>784.5714285714286</ele><time>2026-04-07T12:15:51.832Z</time></trkpt><trkpt lat="43.1764261" lon="13.13129"><ele>785.0</ele><time>2026-04-07T12:15:52.832Z</time></trkpt><trkpt lat="43.1763732" lon="13.1314363"><ele>788.4</ele><time>2026-04-07T12:15:54.832Z</time></trkpt><trkpt lat="43.1762919" lon="13.1315631"><ele>791.8</ele><time>2026-04-07T12:15:56.831Z</time></trkpt><trkpt lat="43.1762411" lon="13.1316198"><ele>795.2</ele><time>2026-04-07T12:15:57.832Z</time></trkpt><trkpt lat="43.176165" lon="13.1317301"><ele>798.6</ele><time>2026-04-07T12:15:59.832Z</time></trkpt><trkpt lat="43.176114" lon="13.1318721"><ele>802.0</ele><time>2026-04-07T12:16:01.832Z</time></trkpt><trkpt lat="43.1760839" lon="13.1319485"><ele>801.9999999999999</ele><time>2026-04-07T12:16:02.832Z</time></trkpt><trkpt lat="43.1760449" lon="13.1320217"><ele>802.0</ele><time>2026-04-07T12:16:03.832Z</time></trkpt><trkpt lat="43.176" lon="13.132095"><ele>802.0</ele><time>2026-04-07T12:16:04.832Z</time></trkpt><trkpt lat="43.175965" lon="13.1321683"><ele>802.0</ele><time>2026-04-07T12:16:05.831Z</time></trkpt><trkpt lat="43.17594" lon="13.132255"><ele>801.9999999999999</ele><time>2026-04-07T12:16:06.831Z</time></trkpt><trkpt lat="43.17589" lon="13.1323833"><ele>802.0</ele><time>2026-04-07T12:16:08.832Z</time></trkpt><trkpt lat="43.1758033" lon="13.1324733"><ele>803.1666666666666</ele><time>2026-04-07T12:16:10.831Z</time></trkpt><trkpt lat="43.17569" lon="13.1325433"><ele>804.3333333333333</ele><time>2026-04-07T12:16:12.831Z</time></trkpt><trkpt lat="43.175625" lon="13.1325833"><ele>805.5</ele><time>2026-04-07T12:16:13.831Z</time></trkpt><trkpt lat="43.17556" lon="13.1326317"><ele>806.6666666666667</ele><time>2026-04-07T12:16:14.832Z</time></trkpt><trkpt lat="43.1755" lon="13.1326917"><ele>807.8333333333334</ele><time>2026-04-07T12:16:15.832Z</time></trkpt><trkpt lat="43.1754567" lon="13.13276"><ele>809.0</ele><time>2026-04-07T12:16:16.832Z</time></trkpt><trkpt lat="43.175425" lon="13.13284"><ele>811.5000000000001</ele><time>2026-04-07T12:16:17.832Z</time></trkpt><trkpt lat="43.17539" lon="13.1329283"><ele>814.0</ele><time>2026-04-07T12:16:18.832Z</time></trkpt><trkpt lat="43.175345" lon="13.1330167"><ele>816.5</ele><time>2026-04-07T12:16:19.832Z</time></trkpt><trkpt lat="43.17529" lon="13.1330983"><ele>819.0</ele><time>2026-04-07T12:16:20.832Z</time></trkpt><trkpt lat="43.175245" lon="13.133175"><ele>821.5000000000001</ele><time>2026-04-07T12:16:21.831Z</time></trkpt><trkpt lat="43.175195" lon="13.1332517"><ele>824.0</ele><time>2026-04-07T12:16:22.832Z</time></trkpt><trkpt lat="43.1751467" lon="13.1333283"><ele>825.8333333333334</ele><time>2026-04-07T12:16:23.832Z</time></trkpt><trkpt lat="43.1750933" lon="13.133395"><ele>827.6666666666667</ele><time>2026-04-07T12:16:24.832Z</time></trkpt><trkpt lat="43.1750317" lon="13.1334683"><ele>829.5</ele><time>2026-04-07T12:16:25.832Z</time></trkpt><trkpt lat="43.17497" lon="13.1335433"><ele>831.3333333333333</ele><time>2026-04-07T12:16:26.831Z</time></trkpt><trkpt lat="43.1749167" lon="13.1336217"><ele>833.1666666666666</ele><time>2026-04-07T12:16:27.832Z</time></trkpt><trkpt lat="43.1748683" lon="13.1337"><ele>835.0</ele><time>2026-04-07T12:16:28.831Z</time></trkpt><trkpt lat="43.174815" lon="13.13379"><ele>837.6</ele><time>2026-04-07T12:16:29.832Z</time></trkpt><trkpt lat="43.1747617" lon="13.1338783"><ele>840.2</ele><time>2026-04-07T12:16:30.831Z</time></trkpt><trkpt lat="43.1747033" lon="13.1339767"><ele>842.8</ele><time>2026-04-07T12:16:31.832Z</time></trkpt><trkpt lat="43.17465" lon="13.1340833"><ele>845.4</ele><time>2026-04-07T12:16:32.832Z</time></trkpt><trkpt lat="43.1746033" lon="13.1341933"><ele>848.0</ele><time>2026-04-07T12:16:33.831Z</time></trkpt><trkpt lat="43.1745633" lon="13.1343017"><ele>849.5000000000001</ele><time>2026-04-07T12:16:34.832Z</time></trkpt><trkpt lat="43.1745283" lon="13.13441"><ele>851.0</ele><time>2026-04-07T12:16:35.832Z</time></trkpt><trkpt lat="43.1745" lon="13.1345067"><ele>852.5</ele><time>2026-04-07T12:16:36.832Z</time></trkpt><trkpt lat="43.1744667" lon="13.13458"><ele>854.0</ele><time>2026-04-07T12:16:37.832Z</time></trkpt><trkpt lat="43.1743883" lon="13.1347367"><ele>855.5000000000001</ele><time>2026-04-07T12:16:39.832Z</time></trkpt><trkpt lat="43.1743417" lon="13.1348233"><ele>857.0</ele><time>2026-04-07T12:16:40.832Z</time></trkpt><trkpt lat="43.174295" lon="13.1348983"><ele>858.1428571428571</ele><time>2026-04-07T12:16:41.832Z</time></trkpt><trkpt lat="43.1742433" lon="13.1349683"><ele>859.2857142857142</ele><time>2026-04-07T12:16:42.832Z</time></trkpt><trkpt lat="43.17419" lon="13.1350367"><ele>860.4285714285714</ele><time>2026-04-07T12:16:43.832Z</time></trkpt><trkpt lat="43.17413" lon="13.135105"><ele>861.5714285714286</ele><time>2026-04-07T12:16:44.832Z</time></trkpt><trkpt lat="43.1740767" lon="13.1351717"><ele>862.7142857142858</ele><time>2026-04-07T12:16:45.832Z</time></trkpt><trkpt lat="43.1740267" lon="13.135235"><ele>863.8571428571429</ele><time>2026-04-07T12:16:46.832Z</time></trkpt><trkpt lat="43.17397" lon="13.135305"><ele>865.0</ele><time>2026-04-07T12:16:47.832Z</time></trkpt><trkpt lat="43.1739067" lon="13.13536"><ele>866.8571428571429</ele><time>2026-04-07T12:16:48.832Z</time></trkpt><trkpt lat="43.1738467" lon="13.1354067"><ele>868.7142857142858</ele><time>2026-04-07T12:16:49.832Z</time></trkpt><trkpt lat="43.17379" lon="13.1354667"><ele>870.5714285714286</ele><time>2026-04-07T12:16:50.832Z</time></trkpt><trkpt lat="43.1737383" lon="13.13554"><ele>872.4285714285714</ele><time>2026-04-07T12:16:51.832Z</time></trkpt><trkpt lat="43.1736867" lon="13.1356183"><ele>874.2857142857142</ele><time>2026-04-07T12:16:52.832Z</time></trkpt><trkpt lat="43.173635" lon="13.13569"><ele>876.1428571428571</ele><time>2026-04-07T12:16:53.832Z</time></trkpt><trkpt lat="43.1735733" lon="13.1357583"><ele>878.0</ele><time>2026-04-07T12:16:54.832Z</time></trkpt><trkpt lat="43.1735083" lon="13.135825"><ele>879.1666666666667</ele><time>2026-04-07T12:16:55.832Z</time></trkpt><trkpt lat="43.1734433" lon="13.13589"><ele>880.3333333333334</ele><time>2026-04-07T12:16:56.832Z</time></trkpt><trkpt lat="43.1733783" lon="13.1359583"><ele>881.5</ele><time>2026-04-07T12:16:57.832Z</time></trkpt><trkpt lat="43.1733117" lon="13.1360217"><ele>882.6666666666667</ele><time>2026-04-07T12:16:58.832Z</time></trkpt><trkpt lat="43.1732433" lon="13.1360833"><ele>883.8333333333334</ele><time>2026-04-07T12:16:59.832Z</time></trkpt><trkpt lat="43.1731783" lon="13.1361383"><ele>885.0</ele><time>2026-04-07T12:17:00.832Z</time></trkpt><trkpt lat="43.1731133" lon="13.1361933"><ele>885.1666666666666</ele><time>2026-04-07T12:17:01.832Z</time></trkpt><trkpt lat="43.17304" lon="13.1362417"><ele>885.3333333333333</ele><time>2026-04-07T12:17:02.832Z</time></trkpt><trkpt lat="43.17297" lon="13.136295"><ele>885.5</ele><time>2026-04-07T12:17:03.831Z</time></trkpt><trkpt lat="43.1729117" lon="13.136355"><ele>885.6666666666666</ele><time>2026-04-07T12:17:04.832Z</time></trkpt><trkpt lat="43.1728683" lon="13.1364283"><ele>885.8333333333333</ele><time>2026-04-07T12:17:05.832Z</time></trkpt><trkpt lat="43.1728333" lon="13.1365067"><ele>886.0</ele><time>2026-04-07T12:17:06.832Z</time></trkpt><trkpt lat="43.17281" lon="13.1366117"><ele>887.4</ele><time>2026-04-07T12:17:07.832Z</time></trkpt><trkpt lat="43.1728" lon="13.13673"><ele>888.8</ele><time>2026-04-07T12:17:08.832Z</time></trkpt><trkpt lat="43.1728" lon="13.1368517"><ele>890.1999999999999</ele><time>2026-04-07T12:17:09.831Z</time></trkpt><trkpt lat="43.1728017" lon="13.136975"><ele>891.5999999999999</ele><time>2026-04-07T12:17:10.831Z</time></trkpt><trkpt lat="43.1727983" lon="13.1371"><ele>893.0</ele><time>2026-04-07T12:17:11.832Z</time></trkpt><trkpt lat="43.1727917" lon="13.13723"><ele>893.0000000000001</ele><time>2026-04-07T12:17:12.832Z</time></trkpt><trkpt lat="43.1727817" lon="13.1373567"><ele>893.0</ele><time>2026-04-07T12:17:13.832Z</time></trkpt><trkpt lat="43.1727767" lon="13.13747"><ele>893.0</ele><time>2026-04-07T12:17:14.832Z</time></trkpt><trkpt lat="43.1727583" lon="13.1375767"><ele>893.0</ele><time>2026-04-07T12:17:15.832Z</time></trkpt><trkpt lat="43.1727367" lon="13.1376867"><ele>893.0000000000001</ele><time>2026-04-07T12:17:16.831Z</time></trkpt><trkpt lat="43.17271" lon="13.1378033"><ele>893.0</ele><time>2026-04-07T12:17:17.831Z</time></trkpt><trkpt lat="43.1726717" lon="13.1379133"><ele>893.8333333333334</ele><time>2026-04-07T12:17:18.832Z</time></trkpt><trkpt lat="43.1726267" lon="13.1380183"><ele>894.6666666666667</ele><time>2026-04-07T12:17:19.832Z</time></trkpt><trkpt lat="43.17257" lon="13.1381133"><ele>895.5</ele><time>2026-04-07T12:17:20.832Z</time></trkpt><trkpt lat="43.1725117" lon="13.138205"><ele>896.3333333333333</ele><time>2026-04-07T12:17:21.832Z</time></trkpt><trkpt lat="43.1724517" lon="13.1382883"><ele>897.1666666666666</ele><time>2026-04-07T12:17:22.832Z</time></trkpt><trkpt lat="43.1723983" lon="13.1383717"><ele>898.0</ele><time>2026-04-07T12:17:23.832Z</time></trkpt><trkpt lat="43.1723567" lon="13.1384683"><ele>898.0</ele><time>2026-04-07T12:17:24.831Z</time></trkpt><trkpt lat="43.1723233" lon="13.1385633"><ele>898.0</ele><time>2026-04-07T12:17:25.832Z</time></trkpt><trkpt lat="43.1722917" lon="13.13866"><ele>898.0</ele><time>2026-04-07T12:17:26.832Z</time></trkpt><trkpt lat="43.172255" lon="13.1387383"><ele>898.0</ele><time>2026-04-07T12:17:27.832Z</time></trkpt><trkpt lat="43.17218" lon="13.13887"><ele>898.0</ele><time>2026-04-07T12:17:29.832Z</time></trkpt><trkpt lat="43.1720767" lon="13.1389567"><ele>897.9999999999999</ele><time>2026-04-07T12:17:31.832Z</time></trkpt><trkpt lat="43.1720117" lon="13.1390017"><ele>898.0</ele><time>2026-04-07T12:17:32.831Z</time></trkpt><trkpt lat="43.1719383" lon="13.139025"><ele>898.0</ele><time>2026-04-07T12:17:33.832Z</time></trkpt><trkpt lat="43.1718567" lon="13.1390483"><ele>898.0</ele><time>2026-04-07T12:17:34.832Z</time></trkpt><trkpt lat="43.1717833" lon="13.1390767"><ele>897.9999999999999</ele><time>2026-04-07T12:17:35.832Z</time></trkpt><trkpt lat="43.1717133" lon="13.1391283"><ele>898.0</ele><time>2026-04-07T12:17:36.832Z</time></trkpt><trkpt lat="43.1716433" lon="13.1392"><ele>898.6666666666666</ele><time>2026-04-07T12:17:37.832Z</time></trkpt><trkpt lat="43.17158" lon="13.1392717"><ele>899.3333333333333</ele><time>2026-04-07T12:17:38.832Z</time></trkpt><trkpt lat="43.1715217" lon="13.1393567"><ele>900.0</ele><time>2026-04-07T12:17:39.832Z</time></trkpt><trkpt lat="43.1714683" lon="13.13945"><ele>900.6666666666667</ele><time>2026-04-07T12:17:40.832Z</time></trkpt><trkpt lat="43.171415" lon="13.1395433"><ele>901.3333333333334</ele><time>2026-04-07T12:17:41.832Z</time></trkpt><trkpt lat="43.1713617" lon="13.1396383"><ele>902.0</ele><time>2026-04-07T12:17:42.832Z</time></trkpt><trkpt lat="43.1712967" lon="13.1397083"><ele>902.8</ele><time>2026-04-07T12:17:43.831Z</time></trkpt><trkpt lat="43.17123" lon="13.1397617"><ele>903.6</ele><time>2026-04-07T12:17:44.832Z</time></trkpt><trkpt lat="43.1711583" lon="13.1397983"><ele>904.3999999999999</ele><time>2026-04-07T12:17:45.831Z</time></trkpt><trkpt lat="43.1711" lon="13.1398317"><ele>905.1999999999999</ele><time>2026-04-07T12:17:46.832Z</time></trkpt><trkpt lat="43.1710017" lon="13.139915"><ele>906.0</ele><time>2026-04-07T12:17:48.832Z</time></trkpt><trkpt lat="43.1709183" lon="13.1400367"><ele>906.1666666666666</ele><time>2026-04-07T12:17:50.832Z</time></trkpt><trkpt lat="43.17087" lon="13.140115"><ele>906.3333333333333</ele><time>2026-04-07T12:17:51.832Z</time></trkpt><trkpt lat="43.1708217" lon="13.1401867"><ele>906.5</ele><time>2026-04-07T12:17:52.832Z</time></trkpt><trkpt lat="43.1707633" lon="13.1402467"><ele>906.6666666666666</ele><time>2026-04-07T12:17:53.831Z</time></trkpt><trkpt lat="43.1707" lon="13.140295"><ele>906.8333333333333</ele><time>2026-04-07T12:17:54.832Z</time></trkpt><trkpt lat="43.17063" lon="13.1403433"><ele>907.0</ele><time>2026-04-07T12:17:55.832Z</time></trkpt><trkpt lat="43.170555" lon="13.14039"><ele>908.8333333333333</ele><time>2026-04-07T12:17:56.832Z</time></trkpt><trkpt lat="43.17048" lon="13.1404317"><ele>910.6666666666666</ele><time>2026-04-07T12:17:57.832Z</time></trkpt><trkpt lat="43.1704017" lon="13.140475"><ele>912.5</ele><time>2026-04-07T12:17:58.832Z</time></trkpt><trkpt lat="43.1703233" lon="13.1405283"><ele>914.3333333333333</ele><time>2026-04-07T12:17:59.831Z</time></trkpt><trkpt lat="43.1702517" lon="13.14058"><ele>916.1666666666666</ele><time>2026-04-07T12:18:00.832Z</time></trkpt><trkpt lat="43.1701817" lon="13.1406317"><ele>918.0</ele><time>2026-04-07T12:18:01.832Z</time></trkpt><trkpt lat="43.1701133" lon="13.1406833"><ele>918.5</ele><time>2026-04-07T12:18:02.832Z</time></trkpt><trkpt lat="43.170045" lon="13.140725"><ele>919.0</ele><time>2026-04-07T12:18:03.831Z</time></trkpt><trkpt lat="43.1699733" lon="13.1407633"><ele>919.5</ele><time>2026-04-07T12:18:04.832Z</time></trkpt><trkpt lat="43.1699" lon="13.140805"><ele>920.0</ele><time>2026-04-07T12:18:05.832Z</time></trkpt><trkpt lat="43.1698217" lon="13.1408367"><ele>920.5</ele><time>2026-04-07T12:18:06.831Z</time></trkpt><trkpt lat="43.1697383" lon="13.1408633"><ele>921.0</ele><time>2026-04-07T12:18:07.832Z</time></trkpt><trkpt lat="43.1696433" lon="13.1408983"><ele>924.0</ele><time>2026-04-07T12:18:08.832Z</time></trkpt><trkpt lat="43.16954" lon="13.1409333"><ele>926.9999999999999</ele><time>2026-04-07T12:18:09.832Z</time></trkpt><trkpt lat="43.16943" lon="13.1409683"><ele>929.9999999999999</ele><time>2026-04-07T12:18:10.832Z</time></trkpt><trkpt lat="43.16932" lon="13.141005"><ele>933.0</ele><time>2026-04-07T12:18:11.832Z</time></trkpt><trkpt lat="43.1692133" lon="13.14104"><ele>936.0</ele><time>2026-04-07T12:18:12.831Z</time></trkpt><trkpt lat="43.1691183" lon="13.14107"><ele>938.8</ele><time>2026-04-07T12:18:13.832Z</time></trkpt><trkpt lat="43.1690217" lon="13.1411017"><ele>941.5999999999999</ele><time>2026-04-07T12:18:14.832Z</time></trkpt><trkpt lat="43.1689267" lon="13.1411283"><ele>944.4</ele><time>2026-04-07T12:18:15.832Z</time></trkpt><trkpt lat="43.1688333" lon="13.1411617"><ele>947.2</ele><time>2026-04-07T12:18:16.831Z</time></trkpt><trkpt lat="43.1687333" lon="13.1411933"><ele>950.0</ele><time>2026-04-07T12:18:17.832Z</time></trkpt><trkpt lat="43.168635" lon="13.1412183"><ele>950.0</ele><time>2026-04-07T12:18:18.832Z</time></trkpt><trkpt lat="43.168535" lon="13.1412367"><ele>950.0</ele><time>2026-04-07T12:18:19.832Z</time></trkpt><trkpt lat="43.1684294" lon="13.1412545"><ele>950.0</ele><time>2026-04-07T12:18:20.832Z</time></trkpt><trkpt lat="43.1683169" lon="13.1412655"><ele>950.0</ele><time>2026-04-07T12:18:21.832Z</time></trkpt><trkpt lat="43.168206" lon="13.1412776"><ele>950.0</ele><time>2026-04-07T12:18:22.831Z</time></trkpt><trkpt lat="43.1680985" lon="13.1412928"><ele>952.0</ele><time>2026-04-07T12:18:23.832Z</time></trkpt><trkpt lat="43.1679894" lon="13.1413136"><ele>954.0</ele><time>2026-04-07T12:18:24.832Z</time></trkpt><trkpt lat="43.1678831" lon="13.1413352"><ele>956.0</ele><time>2026-04-07T12:18:25.831Z</time></trkpt><trkpt lat="43.167782" lon="13.1413492"><ele>958.0</ele><time>2026-04-07T12:18:26.832Z</time></trkpt><trkpt lat="43.1676846" lon="13.1413546"><ele>960.0</ele><time>2026-04-07T12:18:27.832Z</time></trkpt><trkpt lat="43.1675892" lon="13.1413427"><ele>960.0</ele><time>2026-04-07T12:18:28.832Z</time></trkpt><trkpt lat="43.1674936" lon="13.141315"><ele>960.0</ele><time>2026-04-07T12:18:29.832Z</time></trkpt><trkpt lat="43.1673972" lon="13.1412629"><ele>960.0</ele><time>2026-04-07T12:18:30.832Z</time></trkpt><trkpt lat="43.1673008" lon="13.1411973"><ele>960.0</ele><time>2026-04-07T12:18:31.831Z</time></trkpt><trkpt lat="43.1672051" lon="13.1411261"><ele>960.0</ele><time>2026-04-07T12:18:32.832Z</time></trkpt><trkpt lat="43.1671134" lon="13.1410573"><ele>960.8</ele><time>2026-04-07T12:18:33.832Z</time></trkpt><trkpt lat="43.1670183" lon="13.1409892"><ele>961.6</ele><time>2026-04-07T12:18:34.832Z</time></trkpt><trkpt lat="43.1669217" lon="13.1409218"><ele>962.4000000000001</ele><time>2026-04-07T12:18:35.832Z</time></trkpt><trkpt lat="43.1668186" lon="13.1408627"><ele>963.2</ele><time>2026-04-07T12:18:36.831Z</time></trkpt><trkpt lat="43.1667129" lon="13.1408127"><ele>964.0</ele><time>2026-04-07T12:18:37.832Z</time></trkpt><trkpt lat="43.1666053" lon="13.1407747"><ele>964.8000000000001</ele><time>2026-04-07T12:18:38.832Z</time></trkpt><trkpt lat="43.166493" lon="13.1407392"><ele>965.6000000000001</ele><time>2026-04-07T12:18:39.831Z</time></trkpt><trkpt lat="43.1663807" lon="13.1407132"><ele>966.4</ele><time>2026-04-07T12:18:40.831Z</time></trkpt><trkpt lat="43.1662747" lon="13.1406799"><ele>967.2</ele><time>2026-04-07T12:18:41.831Z</time></trkpt><trkpt lat="43.1661767" lon="13.1406312"><ele>968.0</ele><time>2026-04-07T12:18:42.832Z</time></trkpt><trkpt lat="43.1660829" lon="13.1405691"><ele>968.0</ele><time>2026-04-07T12:18:43.832Z</time></trkpt><trkpt lat="43.1659906" lon="13.1404946"><ele>968.0</ele><time>2026-04-07T12:18:44.832Z</time></trkpt><trkpt lat="43.1658996" lon="13.1404207"><ele>968.0</ele><time>2026-04-07T12:18:45.832Z</time></trkpt><trkpt lat="43.1658073" lon="13.1403701"><ele>968.0</ele><time>2026-04-07T12:18:46.831Z</time></trkpt><trkpt lat="43.1657103" lon="13.1403471"><ele>968.0</ele><time>2026-04-07T12:18:47.831Z</time></trkpt><trkpt lat="43.1656158" lon="13.1403501"><ele>968.5999999999999</ele><time>2026-04-07T12:18:48.831Z</time></trkpt><trkpt lat="43.1655147" lon="13.1403719"><ele>969.1999999999999</ele><time>2026-04-07T12:18:49.832Z</time></trkpt><trkpt lat="43.1654058" lon="13.1404037"><ele>969.8</ele><time>2026-04-07T12:18:50.832Z</time></trkpt><trkpt lat="43.1652963" lon="13.1404294"><ele>970.4</ele><time>2026-04-07T12:18:51.831Z</time></trkpt><trkpt lat="43.1651962" lon="13.1404365"><ele>971.0</ele><time>2026-04-07T12:18:52.832Z</time></trkpt><trkpt lat="43.1651038" lon="13.1404471"><ele>971.0</ele><time>2026-04-07T12:18:53.832Z</time></trkpt><trkpt lat="43.1650134" lon="13.1404838"><ele>970.9999999999999</ele><time>2026-04-07T12:18:54.832Z</time></trkpt><trkpt lat="43.1649184" lon="13.1405499"><ele>970.9999999999999</ele><time>2026-04-07T12:18:55.832Z</time></trkpt><trkpt lat="43.1648288" lon="13.1406206"><ele>971.0</ele><time>2026-04-07T12:18:56.832Z</time></trkpt><trkpt lat="43.1647443" lon="13.1406825"><ele>971.0</ele><time>2026-04-07T12:18:57.831Z</time></trkpt><trkpt lat="43.1646586" lon="13.1407382"><ele>971.8</ele><time>2026-04-07T12:18:58.832Z</time></trkpt><trkpt lat="43.1645706" lon="13.1407929"><ele>972.5999999999999</ele><time>2026-04-07T12:18:59.831Z</time></trkpt><trkpt lat="43.1644791" lon="13.1408501"><ele>973.4</ele><time>2026-04-07T12:19:00.832Z</time></trkpt><trkpt lat="43.1643854" lon="13.1409085"><ele>974.2</ele><time>2026-04-07T12:19:01.832Z</time></trkpt><trkpt lat="43.1642865" lon="13.1409705"><ele>975.0</ele><time>2026-04-07T12:19:02.831Z</time></trkpt><trkpt lat="43.1641931" lon="13.1410311"><ele>975.0</ele><time>2026-04-07T12:19:03.832Z</time></trkpt><trkpt lat="43.1641083" lon="13.1411009"><ele>975.0</ele><time>2026-04-07T12:19:04.832Z</time></trkpt><trkpt lat="43.1640318" lon="13.1411835"><ele>975.0</ele><time>2026-04-07T12:19:05.832Z</time></trkpt><trkpt lat="43.1639622" lon="13.1412825"><ele>975.0</ele><time>2026-04-07T12:19:06.832Z</time></trkpt><trkpt lat="43.1638971" lon="13.1413976"><ele>975.0</ele><time>2026-04-07T12:19:07.831Z</time></trkpt><trkpt lat="43.1638375" lon="13.1415116"><ele>975.5</ele><time>2026-04-07T12:19:08.832Z</time></trkpt><trkpt lat="43.1637771" lon="13.1416062"><ele>976.0</ele><time>2026-04-07T12:19:09.831Z</time></trkpt><trkpt lat="43.163716" lon="13.1416952"><ele>976.5</ele><time>2026-04-07T12:19:10.832Z</time></trkpt><trkpt lat="43.1636609" lon="13.1417788"><ele>977.0</ele><time>2026-04-07T12:19:11.832Z</time></trkpt><trkpt lat="43.1636063" lon="13.1418599"><ele>977.5</ele><time>2026-04-07T12:19:12.832Z</time></trkpt><trkpt lat="43.1635427" lon="13.1419424"><ele>978.0</ele><time>2026-04-07T12:19:13.832Z</time></trkpt><trkpt lat="43.1634704" lon="13.1420225"><ele>978.0</ele><time>2026-04-07T12:19:14.831Z</time></trkpt><trkpt lat="43.1633976" lon="13.1420951"><ele>978.0</ele><time>2026-04-07T12:19:15.832Z</time></trkpt><trkpt lat="43.1633238" lon="13.1421638"><ele>978.0</ele><time>2026-04-07T12:19:16.832Z</time></trkpt><trkpt lat="43.1632421" lon="13.1422262"><ele>978.0</ele><time>2026-04-07T12:19:17.831Z</time></trkpt><trkpt lat="43.1631565" lon="13.1422795"><ele>978.0</ele><time>2026-04-07T12:19:18.832Z</time></trkpt><trkpt lat="43.1630662" lon="13.1423247"><ele>977.8</ele><time>2026-04-07T12:19:19.832Z</time></trkpt><trkpt lat="43.1629697" lon="13.1423613"><ele>977.5999999999999</ele><time>2026-04-07T12:19:20.831Z</time></trkpt><trkpt lat="43.1628699" lon="13.1423841"><ele>977.4000000000001</ele><time>2026-04-07T12:19:21.832Z</time></trkpt><trkpt lat="43.1627711" lon="13.142401"><ele>977.2</ele><time>2026-04-07T12:19:22.832Z</time></trkpt><trkpt lat="43.162678" lon="13.1424162"><ele>977.0</ele><time>2026-04-07T12:19:23.832Z</time></trkpt><trkpt lat="43.1625836" lon="13.1424341"><ele>977.0000000000001</ele><time>2026-04-07T12:19:24.832Z</time></trkpt><trkpt lat="43.1624917" lon="13.1424486"><ele>977.0</ele><time>2026-04-07T12:19:25.831Z</time></trkpt><trkpt lat="43.1624088" lon="13.1424484"><ele>977.0</ele><time>2026-04-07T12:19:26.831Z</time></trkpt><trkpt lat="43.1623283" lon="13.1424367"><ele>977.0</ele><time>2026-04-07T12:19:27.831Z</time></trkpt><trkpt lat="43.1622383" lon="13.14241"><ele>977.0000000000001</ele><time>2026-04-07T12:19:28.831Z</time></trkpt><trkpt lat="43.1621483" lon="13.1423783"><ele>977.0</ele><time>2026-04-07T12:19:29.832Z</time></trkpt><trkpt lat="43.1620567" lon="13.1423433"><ele>977.4000000000001</ele><time>2026-04-07T12:19:30.831Z</time></trkpt><trkpt lat="43.161965" lon="13.1423333"><ele>977.8000000000001</ele><time>2026-04-07T12:19:31.831Z</time></trkpt><trkpt lat="43.1618717" lon="13.1423333"><ele>978.2</ele><time>2026-04-07T12:19:32.832Z</time></trkpt><trkpt lat="43.1617767" lon="13.1423433"><ele>978.6</ele><time>2026-04-07T12:19:33.832Z</time></trkpt><trkpt lat="43.161685" lon="13.1423533"><ele>979.0</ele><time>2026-04-07T12:19:34.832Z</time></trkpt><trkpt lat="43.161595" lon="13.1423617"><ele>978.9999999999999</ele><time>2026-04-07T12:19:35.832Z</time></trkpt><trkpt lat="43.1615083" lon="13.1423683"><ele>979.0</ele><time>2026-04-07T12:19:36.831Z</time></trkpt><trkpt lat="43.16142" lon="13.1423767"><ele>979.0</ele><time>2026-04-07T12:19:37.831Z</time></trkpt><trkpt lat="43.1613367" lon="13.1423967"><ele>979.0</ele><time>2026-04-07T12:19:38.832Z</time></trkpt><trkpt lat="43.1612567" lon="13.1424583"><ele>978.9999999999999</ele><time>2026-04-07T12:19:39.832Z</time></trkpt><trkpt lat="43.16119" lon="13.1425467"><ele>979.0</ele><time>2026-04-07T12:19:40.832Z</time></trkpt><trkpt lat="43.1611333" lon="13.1426583"><ele>978.8000000000001</ele><time>2026-04-07T12:19:41.832Z</time></trkpt><trkpt lat="43.161085" lon="13.1427717"><ele>978.6000000000001</ele><time>2026-04-07T12:19:42.832Z</time></trkpt><trkpt lat="43.1610383" lon="13.1428933"><ele>978.4</ele><time>2026-04-07T12:19:43.832Z</time></trkpt><trkpt lat="43.1609867" lon="13.143015"><ele>978.2</ele><time>2026-04-07T12:19:44.831Z</time></trkpt><trkpt lat="43.1609433" lon="13.1431367"><ele>978.0</ele><time>2026-04-07T12:19:45.832Z</time></trkpt><trkpt lat="43.1609083" lon="13.1432617"><ele>977.4</ele><time>2026-04-07T12:19:46.832Z</time></trkpt><trkpt lat="43.1608817" lon="13.14339"><ele>976.8</ele><time>2026-04-07T12:19:47.832Z</time></trkpt><trkpt lat="43.1608533" lon="13.14352"><ele>976.2</ele><time>2026-04-07T12:19:48.832Z</time></trkpt><trkpt lat="43.160825" lon="13.1436483"><ele>975.6</ele><time>2026-04-07T12:19:49.831Z</time></trkpt><trkpt lat="43.1608" lon="13.1437683"><ele>975.0</ele><time>2026-04-07T12:19:50.832Z</time></trkpt><trkpt lat="43.160785" lon="13.1438967"><ele>975.0</ele><time>2026-04-07T12:19:51.832Z</time></trkpt><trkpt lat="43.1607717" lon="13.1440267"><ele>975.0</ele><time>2026-04-07T12:19:52.832Z</time></trkpt><trkpt lat="43.1607617" lon="13.1441633"><ele>975.0</ele><time>2026-04-07T12:19:53.832Z</time></trkpt><trkpt lat="43.1607433" lon="13.1442967"><ele>975.0</ele><time>2026-04-07T12:19:54.832Z</time></trkpt><trkpt lat="43.1607183" lon="13.1444333"><ele>975.0</ele><time>2026-04-07T12:19:55.832Z</time></trkpt><trkpt lat="43.16069" lon="13.1445683"><ele>977.0</ele><time>2026-04-07T12:19:56.832Z</time></trkpt><trkpt lat="43.1606583" lon="13.1447017"><ele>979.0</ele><time>2026-04-07T12:19:57.832Z</time></trkpt><trkpt lat="43.16063" lon="13.1448317"><ele>981.0</ele><time>2026-04-07T12:19:58.832Z</time></trkpt><trkpt lat="43.1605933" lon="13.14497"><ele>983.0</ele><time>2026-04-07T12:19:59.832Z</time></trkpt><trkpt lat="43.1605567" lon="13.14511"><ele>985.0</ele><time>2026-04-07T12:20:00.832Z</time></trkpt><trkpt lat="43.1605167" lon="13.145255"><ele>985.4</ele><time>2026-04-07T12:20:01.832Z</time></trkpt><trkpt lat="43.1604808" lon="13.1453871"><ele>985.8</ele><time>2026-04-07T12:20:02.832Z</time></trkpt><trkpt lat="43.1604466" lon="13.1455141"><ele>986.2</ele><time>2026-04-07T12:20:03.832Z</time></trkpt><trkpt lat="43.1604105" lon="13.1456341"><ele>986.6</ele><time>2026-04-07T12:20:04.831Z</time></trkpt><trkpt lat="43.1603741" lon="13.1457621"><ele>987.0</ele><time>2026-04-07T12:20:05.832Z</time></trkpt><trkpt lat="43.1603575" lon="13.1458947"><ele>987.4000000000001</ele><time>2026-04-07T12:20:06.832Z</time></trkpt><trkpt lat="43.1603612" lon="13.1460283"><ele>987.8000000000001</ele><time>2026-04-07T12:20:07.832Z</time></trkpt><trkpt lat="43.1603711" lon="13.1461685"><ele>988.2</ele><time>2026-04-07T12:20:08.831Z</time></trkpt><trkpt lat="43.1603761" lon="13.1463132"><ele>988.6</ele><time>2026-04-07T12:20:09.832Z</time></trkpt><trkpt lat="43.1603731" lon="13.1464468"><ele>989.0</ele><time>2026-04-07T12:20:10.831Z</time></trkpt><trkpt lat="43.1603656" lon="13.1465682"><ele>989.5000000000001</ele><time>2026-04-07T12:20:11.832Z</time></trkpt><trkpt lat="43.1603571" lon="13.1466857"><ele>990.0</ele><time>2026-04-07T12:20:12.832Z</time></trkpt><trkpt lat="43.1603478" lon="13.1467968"><ele>990.5</ele><time>2026-04-07T12:20:13.832Z</time></trkpt><trkpt lat="43.1603336" lon="13.1469097"><ele>991.0</ele><time>2026-04-07T12:20:14.831Z</time></trkpt><trkpt lat="43.1603123" lon="13.1470253"><ele>991.5000000000001</ele><time>2026-04-07T12:20:15.832Z</time></trkpt><trkpt lat="43.1602894" lon="13.1471503"><ele>992.0</ele><time>2026-04-07T12:20:16.831Z</time></trkpt><trkpt lat="43.1602622" lon="13.1472767"><ele>992.6</ele><time>2026-04-07T12:20:17.832Z</time></trkpt><trkpt lat="43.1602292" lon="13.1474013"><ele>993.2</ele><time>2026-04-07T12:20:18.831Z</time></trkpt><trkpt lat="43.1601958" lon="13.1475234"><ele>993.8</ele><time>2026-04-07T12:20:19.832Z</time></trkpt><trkpt lat="43.1601595" lon="13.147639"><ele>994.4</ele><time>2026-04-07T12:20:20.831Z</time></trkpt><trkpt lat="43.1601151" lon="13.1477583"><ele>995.0</ele><time>2026-04-07T12:20:21.832Z</time></trkpt><trkpt lat="43.1600685" lon="13.147877"><ele>995.0</ele><time>2026-04-07T12:20:22.831Z</time></trkpt><trkpt lat="43.1600187" lon="13.1479885"><ele>995.0</ele><time>2026-04-07T12:20:23.832Z</time></trkpt><trkpt lat="43.1599613" lon="13.1480941"><ele>995.0</ele><time>2026-04-07T12:20:24.832Z</time></trkpt><trkpt lat="43.1598985" lon="13.1481961"><ele>995.0</ele><time>2026-04-07T12:20:25.832Z</time></trkpt><trkpt lat="43.1598347" lon="13.1482974"><ele>995.0</ele><time>2026-04-07T12:20:26.832Z</time></trkpt><trkpt lat="43.1597673" lon="13.1483949"><ele>997.4</ele><time>2026-04-07T12:20:27.832Z</time></trkpt><trkpt lat="43.1596969" lon="13.1484923"><ele>999.8</ele><time>2026-04-07T12:20:28.832Z</time></trkpt><trkpt lat="43.1596224" lon="13.1485863"><ele>1002.2</ele><time>2026-04-07T12:20:29.832Z</time></trkpt><trkpt lat="43.1595451" lon="13.1486766"><ele>1004.6</ele><time>2026-04-07T12:20:30.832Z</time></trkpt><trkpt lat="43.1594664" lon="13.1487622"><ele>1007.0</ele><time>2026-04-07T12:20:31.832Z</time></trkpt><trkpt lat="43.1593872" lon="13.1488463"><ele>1007.0</ele><time>2026-04-07T12:20:32.831Z</time></trkpt><trkpt lat="43.1593098" lon="13.1489297"><ele>1007.0</ele><time>2026-04-07T12:20:33.832Z</time></trkpt><trkpt lat="43.1592292" lon="13.1490168"><ele>1007.0</ele><time>2026-04-07T12:20:34.832Z</time></trkpt><trkpt lat="43.1591512" lon="13.1491005"><ele>1007.0</ele><time>2026-04-07T12:20:35.832Z</time></trkpt><trkpt lat="43.1590799" lon="13.1491702"><ele>1007.0</ele><time>2026-04-07T12:20:36.832Z</time></trkpt><trkpt lat="43.159018" lon="13.1492279"><ele>1007.8333333333334</ele><time>2026-04-07T12:20:37.832Z</time></trkpt><trkpt lat="43.1589629" lon="13.1492959"><ele>1008.6666666666667</ele><time>2026-04-07T12:20:38.831Z</time></trkpt><trkpt lat="43.1589208" lon="13.1493756"><ele>1009.5</ele><time>2026-04-07T12:20:39.832Z</time></trkpt><trkpt lat="43.1588998" lon="13.149478"><ele>1010.3333333333333</ele><time>2026-04-07T12:20:40.832Z</time></trkpt><trkpt lat="43.1588967" lon="13.1495946"><ele>1011.1666666666666</ele><time>2026-04-07T12:20:41.832Z</time></trkpt><trkpt lat="43.1589042" lon="13.1497052"><ele>1012.0</ele><time>2026-04-07T12:20:42.831Z</time></trkpt><trkpt lat="43.1589106" lon="13.1498096"><ele>1011.0000000000001</ele><time>2026-04-07T12:20:43.831Z</time></trkpt><trkpt lat="43.1589152" lon="13.149904"><ele>1010.0</ele><time>2026-04-07T12:20:44.832Z</time></trkpt><trkpt lat="43.1589228" lon="13.1499898"><ele>1009.0000000000001</ele><time>2026-04-07T12:20:45.831Z</time></trkpt><trkpt lat="43.1589437" lon="13.1500876"><ele>1008.0000000000001</ele><time>2026-04-07T12:20:46.832Z</time></trkpt><trkpt lat="43.1589793" lon="13.150182"><ele>1007.0</ele><time>2026-04-07T12:20:47.832Z</time></trkpt><trkpt lat="43.1590252" lon="13.1502683"><ele>1006.0000000000001</ele><time>2026-04-07T12:20:48.831Z</time></trkpt><trkpt lat="43.1590804" lon="13.150345"><ele>1005.0000000000001</ele><time>2026-04-07T12:20:49.831Z</time></trkpt><trkpt lat="43.1591371" lon="13.1504027"><ele>1004.1666666666666</ele><time>2026-04-07T12:20:50.832Z</time></trkpt><trkpt lat="43.1591952" lon="13.1504542"><ele>1003.3333333333333</ele><time>2026-04-07T12:20:51.832Z</time></trkpt><trkpt lat="43.1592544" lon="13.1505071"><ele>1002.5</ele><time>2026-04-07T12:20:52.832Z</time></trkpt><trkpt lat="43.1593112" lon="13.1505556"><ele>1001.6666666666666</ele><time>2026-04-07T12:20:53.832Z</time></trkpt><trkpt lat="43.1594126" lon="13.1506452"><ele>1000.8333333333333</ele><time>2026-04-07T12:20:55.832Z</time></trkpt><trkpt lat="43.1595157" lon="13.1507331"><ele>1000.0</ele><time>2026-04-07T12:20:57.831Z</time></trkpt><trkpt lat="43.1596014" lon="13.1508251"><ele>998.5</ele><time>2026-04-07T12:20:59.831Z</time></trkpt><trkpt lat="43.1596844" lon="13.1509319"><ele>997.0</ele><time>2026-04-07T12:21:01.832Z</time></trkpt><trkpt lat="43.1597717" lon="13.1510367"><ele>995.5</ele><time>2026-04-07T12:21:03.831Z</time></trkpt><trkpt lat="43.1598596" lon="13.1511473"><ele>994.0</ele><time>2026-04-07T12:21:05.832Z</time></trkpt><trkpt lat="43.1599457" lon="13.1512642"><ele>993.1666666666666</ele><time>2026-04-07T12:21:07.831Z</time></trkpt><trkpt lat="43.160035" lon="13.1513783"><ele>992.3333333333333</ele><time>2026-04-07T12:21:09.832Z</time></trkpt><trkpt lat="43.1601317" lon="13.1514933"><ele>991.5</ele><time>2026-04-07T12:21:11.832Z</time></trkpt><trkpt lat="43.1601817" lon="13.1515483"><ele>990.6666666666667</ele><time>2026-04-07T12:21:12.832Z</time></trkpt><trkpt lat="43.1602317" lon="13.1516083"><ele>989.8333333333334</ele><time>2026-04-07T12:21:13.832Z</time></trkpt><trkpt lat="43.16028" lon="13.1516683"><ele>989.0</ele><time>2026-04-07T12:21:14.832Z</time></trkpt><trkpt lat="43.1603667" lon="13.15177"><ele>987.2</ele><time>2026-04-07T12:21:16.831Z</time></trkpt><trkpt lat="43.160455" lon="13.15186"><ele>985.4000000000001</ele><time>2026-04-07T12:21:18.831Z</time></trkpt><trkpt lat="43.1605433" lon="13.1519617"><ele>983.6</ele><time>2026-04-07T12:21:20.831Z</time></trkpt><trkpt lat="43.160635" lon="13.152065"><ele>981.8</ele><time>2026-04-07T12:21:22.832Z</time></trkpt><trkpt lat="43.1606817" lon="13.1521233"><ele>980.0</ele><time>2026-04-07T12:21:23.832Z</time></trkpt><trkpt lat="43.16076" lon="13.1522317"><ele>977.25</ele><time>2026-04-07T12:21:25.832Z</time></trkpt><trkpt lat="43.1608183" lon="13.1523517"><ele>974.5</ele><time>2026-04-07T12:21:27.832Z</time></trkpt><trkpt lat="43.1608717" lon="13.1524917"><ele>971.75</ele><time>2026-04-07T12:21:29.832Z</time></trkpt><trkpt lat="43.1609233" lon="13.1526333"><ele>969.0</ele><time>2026-04-07T12:21:31.832Z</time></trkpt><trkpt lat="43.1609517" lon="13.1527917"><ele>967.75</ele><time>2026-04-07T12:21:33.832Z</time></trkpt><trkpt lat="43.16097" lon="13.1529467"><ele>966.5</ele><time>2026-04-07T12:21:35.832Z</time></trkpt><trkpt lat="43.1609817" lon="13.1531"><ele>965.25</ele><time>2026-04-07T12:21:37.832Z</time></trkpt><trkpt lat="43.16099" lon="13.1532633"><ele>964.0</ele><time>2026-04-07T12:21:39.831Z</time></trkpt><trkpt lat="43.1609867" lon="13.153425"><ele>962.0</ele><time>2026-04-07T12:21:41.832Z</time></trkpt><trkpt lat="43.1609867" lon="13.1535867"><ele>960.0</ele><time>2026-04-07T12:21:43.831Z</time></trkpt><trkpt lat="43.1609883" lon="13.1537467"><ele>958.0</ele><time>2026-04-07T12:21:45.832Z</time></trkpt><trkpt lat="43.160975" lon="13.1539017"><ele>956.0</ele><time>2026-04-07T12:21:47.832Z</time></trkpt><trkpt lat="43.1609583" lon="13.1540483"><ele>954.3333333333334</ele><time>2026-04-07T12:21:49.832Z</time></trkpt><trkpt lat="43.1609417" lon="13.1542017"><ele>952.6666666666667</ele><time>2026-04-07T12:21:51.832Z</time></trkpt><trkpt lat="43.16092" lon="13.1542833"><ele>951.0</ele><time>2026-04-07T12:21:52.832Z</time></trkpt><trkpt lat="43.1608933" lon="13.15437"><ele>949.3333333333333</ele><time>2026-04-07T12:21:53.831Z</time></trkpt><trkpt lat="43.160865" lon="13.1544533"><ele>947.6666666666666</ele><time>2026-04-07T12:21:54.832Z</time></trkpt><trkpt lat="43.1608317" lon="13.1545383"><ele>946.0</ele><time>2026-04-07T12:21:55.832Z</time></trkpt><trkpt lat="43.1608" lon="13.1546217"><ele>945.9999999999999</ele><time>2026-04-07T12:21:56.832Z</time></trkpt><trkpt lat="43.1607717" lon="13.1547083"><ele>946.0</ele><time>2026-04-07T12:21:57.832Z</time></trkpt><trkpt lat="43.16074" lon="13.154795"><ele>946.0</ele><time>2026-04-07T12:21:58.831Z</time></trkpt><trkpt lat="43.1607083" lon="13.1548817"><ele>946.0</ele><time>2026-04-07T12:21:59.832Z</time></trkpt><trkpt lat="43.16068" lon="13.1549617"><ele>945.9999999999999</ele><time>2026-04-07T12:22:00.831Z</time></trkpt><trkpt lat="43.16064" lon="13.15512"><ele>946.0</ele><time>2026-04-07T12:22:02.832Z</time></trkpt><trkpt lat="43.160595" lon="13.1552583"><ele>941.8</ele><time>2026-04-07T12:22:04.832Z</time></trkpt><trkpt lat="43.1605567" lon="13.1553867"><ele>937.5999999999999</ele><time>2026-04-07T12:22:06.832Z</time></trkpt><trkpt lat="43.1605283" lon="13.155505"><ele>933.4</ele><time>2026-04-07T12:22:08.832Z</time></trkpt><trkpt lat="43.1604983" lon="13.1556267"><ele>929.2</ele><time>2026-04-07T12:22:10.832Z</time></trkpt><trkpt lat="43.1604667" lon="13.1557283"><ele>925.0</ele><time>2026-04-07T12:22:12.832Z</time></trkpt><trkpt lat="43.1604333" lon="13.1558383"><ele>923.3333333333333</ele><time>2026-04-07T12:22:14.831Z</time></trkpt><trkpt lat="43.1604183" lon="13.155965"><ele>921.6666666666666</ele><time>2026-04-07T12:22:16.832Z</time></trkpt><trkpt lat="43.1603933" lon="13.1561433"><ele>920.0</ele><time>2026-04-07T12:22:18.831Z</time></trkpt><trkpt lat="43.16037" lon="13.1562433"><ele>918.3333333333333</ele><time>2026-04-07T12:22:19.831Z</time></trkpt><trkpt lat="43.160345" lon="13.1563433"><ele>916.6666666666666</ele><time>2026-04-07T12:22:20.831Z</time></trkpt><trkpt lat="43.16032" lon="13.15643"><ele>915.0</ele><time>2026-04-07T12:22:21.831Z</time></trkpt><trkpt lat="43.160275" lon="13.156585"><ele>913.4</ele><time>2026-04-07T12:22:23.832Z</time></trkpt><trkpt lat="43.1602333" lon="13.1567317"><ele>911.8</ele><time>2026-04-07T12:22:25.832Z</time></trkpt><trkpt lat="43.1602033" lon="13.1569017"><ele>910.2</ele><time>2026-04-07T12:22:27.832Z</time></trkpt><trkpt lat="43.1601817" lon="13.1569917"><ele>908.6</ele><time>2026-04-07T12:22:28.832Z</time></trkpt><trkpt lat="43.160155" lon="13.1570833"><ele>907.0</ele><time>2026-04-07T12:22:29.832Z</time></trkpt><trkpt lat="43.1601267" lon="13.15717"><ele>907.0000000000001</ele><time>2026-04-07T12:22:30.832Z</time></trkpt><trkpt lat="43.1600867" lon="13.1572533"><ele>907.0</ele><time>2026-04-07T12:22:31.832Z</time></trkpt><trkpt lat="43.1600483" lon="13.157335"><ele>907.0000000000001</ele><time>2026-04-07T12:22:32.832Z</time></trkpt><trkpt lat="43.16001" lon="13.1574083"><ele>907.0000000000001</ele><time>2026-04-07T12:22:33.832Z</time></trkpt><trkpt lat="43.1599667" lon="13.1574817"><ele>907.0</ele><time>2026-04-07T12:22:34.832Z</time></trkpt><trkpt lat="43.15992" lon="13.15756"><ele>907.0000000000001</ele><time>2026-04-07T12:22:35.832Z</time></trkpt><trkpt lat="43.1598733" lon="13.1576317"><ele>907.0000000000001</ele><time>2026-04-07T12:22:36.832Z</time></trkpt><trkpt lat="43.159825" lon="13.157695"><ele>906.2857142857144</ele><time>2026-04-07T12:22:37.832Z</time></trkpt><trkpt lat="43.1597717" lon="13.157755"><ele>905.5714285714287</ele><time>2026-04-07T12:22:38.831Z</time></trkpt><trkpt lat="43.1597117" lon="13.1578083"><ele>904.8571428571429</ele><time>2026-04-07T12:22:39.832Z</time></trkpt><trkpt lat="43.1596483" lon="13.1578517"><ele>904.1428571428572</ele><time>2026-04-07T12:22:40.832Z</time></trkpt><trkpt lat="43.15958" lon="13.1578867"><ele>903.4285714285716</ele><time>2026-04-07T12:22:41.831Z</time></trkpt><trkpt lat="43.15951" lon="13.1579183"><ele>902.7142857142857</ele><time>2026-04-07T12:22:42.832Z</time></trkpt><trkpt lat="43.1594383" lon="13.15795"><ele>902.0</ele><time>2026-04-07T12:22:43.832Z</time></trkpt><trkpt lat="43.1593683" lon="13.1579917"><ele>902.0000000000001</ele><time>2026-04-07T12:22:44.831Z</time></trkpt><trkpt lat="43.1593033" lon="13.15804"><ele>902.0</ele><time>2026-04-07T12:22:45.832Z</time></trkpt><trkpt lat="43.1592367" lon="13.1581"><ele>902.0</ele><time>2026-04-07T12:22:46.832Z</time></trkpt><trkpt lat="43.1591767" lon="13.158165"><ele>902.0</ele><time>2026-04-07T12:22:47.832Z</time></trkpt><trkpt lat="43.1591233" lon="13.1582433"><ele>902.0000000000001</ele><time>2026-04-07T12:22:48.832Z</time></trkpt><trkpt lat="43.1590783" lon="13.1583433"><ele>902.0</ele><time>2026-04-07T12:22:49.831Z</time></trkpt><trkpt lat="43.1590433" lon="13.1584467"><ele>903.3333333333334</ele><time>2026-04-07T12:22:50.832Z</time></trkpt><trkpt lat="43.1590133" lon="13.158545"><ele>904.6666666666667</ele><time>2026-04-07T12:22:51.832Z</time></trkpt><trkpt lat="43.1589767" lon="13.1586417"><ele>906.0</ele><time>2026-04-07T12:22:52.832Z</time></trkpt><trkpt lat="43.1589433" lon="13.1587367"><ele>907.3333333333333</ele><time>2026-04-07T12:22:53.832Z</time></trkpt><trkpt lat="43.1589067" lon="13.1588283"><ele>908.6666666666666</ele><time>2026-04-07T12:22:54.832Z</time></trkpt><trkpt lat="43.15887" lon="13.15893"><ele>910.0</ele><time>2026-04-07T12:22:55.832Z</time></trkpt><trkpt lat="43.1588383" lon="13.15903"><ele>909.3333333333333</ele><time>2026-04-07T12:22:56.832Z</time></trkpt><trkpt lat="43.158815" lon="13.1591267"><ele>908.6666666666666</ele><time>2026-04-07T12:22:57.832Z</time></trkpt><trkpt lat="43.1588083" lon="13.1592317"><ele>908.0</ele><time>2026-04-07T12:22:58.832Z</time></trkpt><trkpt lat="43.1588033" lon="13.1593433"><ele>907.3333333333333</ele><time>2026-04-07T12:22:59.832Z</time></trkpt><trkpt lat="43.158795" lon="13.1594533"><ele>906.6666666666666</ele><time>2026-04-07T12:23:00.832Z</time></trkpt><trkpt lat="43.1587833" lon="13.1595533"><ele>906.0</ele><time>2026-04-07T12:23:01.831Z</time></trkpt><trkpt lat="43.1587767" lon="13.15965"><ele>906.0</ele><time>2026-04-07T12:23:02.832Z</time></trkpt><trkpt lat="43.1587717" lon="13.1597483"><ele>906.0</ele><time>2026-04-07T12:23:03.832Z</time></trkpt><trkpt lat="43.1587783" lon="13.1598567"><ele>906.0</ele><time>2026-04-07T12:23:04.831Z</time></trkpt><trkpt lat="43.1587883" lon="13.15996"><ele>906.0</ele><time>2026-04-07T12:23:05.832Z</time></trkpt><trkpt lat="43.1588033" lon="13.1600617"><ele>906.0</ele><time>2026-04-07T12:23:06.832Z</time></trkpt><trkpt lat="43.1588267" lon="13.1601667"><ele>906.0</ele><time>2026-04-07T12:23:07.832Z</time></trkpt><trkpt lat="43.15885" lon="13.16027"><ele>905.4285714285713</ele><time>2026-04-07T12:23:08.832Z</time></trkpt><trkpt lat="43.158875" lon="13.1603633"><ele>904.8571428571429</ele><time>2026-04-07T12:23:09.832Z</time></trkpt><trkpt lat="43.1588983" lon="13.1604533"><ele>904.2857142857142</ele><time>2026-04-07T12:23:10.832Z</time></trkpt><trkpt lat="43.1589183" lon="13.1605517"><ele>903.7142857142857</ele><time>2026-04-07T12:23:11.832Z</time></trkpt><trkpt lat="43.158935" lon="13.1606617"><ele>903.1428571428571</ele><time>2026-04-07T12:23:12.832Z</time></trkpt><trkpt lat="43.15895" lon="13.1607633"><ele>902.5714285714286</ele><time>2026-04-07T12:23:13.832Z</time></trkpt><trkpt lat="43.1589633" lon="13.16086"><ele>902.0</ele><time>2026-04-07T12:23:14.832Z</time></trkpt><trkpt lat="43.1589767" lon="13.160955"><ele>901.5714285714286</ele><time>2026-04-07T12:23:15.832Z</time></trkpt><trkpt lat="43.1589967" lon="13.1610517"><ele>901.1428571428571</ele><time>2026-04-07T12:23:16.832Z</time></trkpt><trkpt lat="43.1590217" lon="13.1611533"><ele>900.7142857142857</ele><time>2026-04-07T12:23:17.832Z</time></trkpt><trkpt lat="43.1590467" lon="13.1612533"><ele>900.2857142857142</ele><time>2026-04-07T12:23:18.832Z</time></trkpt><trkpt lat="43.15907" lon="13.1613433"><ele>899.8571428571429</ele><time>2026-04-07T12:23:19.832Z</time></trkpt><trkpt lat="43.159095" lon="13.1614283"><ele>899.4285714285713</ele><time>2026-04-07T12:23:20.832Z</time></trkpt><trkpt lat="43.15912" lon="13.1615117"><ele>898.9999999999999</ele><time>2026-04-07T12:23:21.832Z</time></trkpt><trkpt lat="43.1591633" lon="13.1616617"><ele>896.25</ele><time>2026-04-07T12:23:23.832Z</time></trkpt><trkpt lat="43.1592183" lon="13.161795"><ele>893.5</ele><time>2026-04-07T12:23:25.831Z</time></trkpt><trkpt lat="43.159275" lon="13.1619267"><ele>890.75</ele><time>2026-04-07T12:23:27.832Z</time></trkpt><trkpt lat="43.1593383" lon="13.1620583"><ele>888.0</ele><time>2026-04-07T12:23:29.831Z</time></trkpt><trkpt lat="43.1594033" lon="13.1621933"><ele>888.0</ele><time>2026-04-07T12:23:31.832Z</time></trkpt><trkpt lat="43.1594567" lon="13.1623367"><ele>888.0</ele><time>2026-04-07T12:23:33.831Z</time></trkpt><trkpt lat="43.159505" lon="13.162485"><ele>888.0</ele><time>2026-04-07T12:23:35.831Z</time></trkpt><trkpt lat="43.159545" lon="13.1626367"><ele>888.0</ele><time>2026-04-07T12:23:37.831Z</time></trkpt><trkpt lat="43.1595883" lon="13.16279"><ele>886.4</ele><time>2026-04-07T12:23:39.831Z</time></trkpt><trkpt lat="43.1596333" lon="13.1629317"><ele>884.8</ele><time>2026-04-07T12:23:41.832Z</time></trkpt><trkpt lat="43.1596733" lon="13.163085"><ele>883.2</ele><time>2026-04-07T12:23:43.832Z</time></trkpt><trkpt lat="43.15969" lon="13.1631683"><ele>881.6</ele><time>2026-04-07T12:23:44.832Z</time></trkpt><trkpt lat="43.1597133" lon="13.16333"><ele>880.0</ele><time>2026-04-07T12:23:46.832Z</time></trkpt><trkpt lat="43.1597517" lon="13.1634817"><ele>878.8333333333333</ele><time>2026-04-07T12:23:48.832Z</time></trkpt><trkpt lat="43.15978" lon="13.16356"><ele>877.6666666666666</ele><time>2026-04-07T12:23:49.832Z</time></trkpt><trkpt lat="43.159815" lon="13.163635"><ele>876.5</ele><time>2026-04-07T12:23:50.832Z</time></trkpt><trkpt lat="43.1598533" lon="13.1637083"><ele>875.3333333333333</ele><time>2026-04-07T12:23:51.832Z</time></trkpt><trkpt lat="43.1598983" lon="13.1637733"><ele>874.1666666666666</ele><time>2026-04-07T12:23:52.832Z</time></trkpt><trkpt lat="43.1599683" lon="13.1638933"><ele>873.0</ele><time>2026-04-07T12:23:54.832Z</time></trkpt><trkpt lat="43.16002" lon="13.16402"><ele>870.8</ele><time>2026-04-07T12:23:56.832Z</time></trkpt><trkpt lat="43.16007" lon="13.1641483"><ele>868.5999999999999</ele><time>2026-04-07T12:23:58.832Z</time></trkpt><trkpt lat="43.160115" lon="13.164265"><ele>866.4000000000001</ele><time>2026-04-07T12:24:00.832Z</time></trkpt><trkpt lat="43.16014" lon="13.16437"><ele>864.2</ele><time>2026-04-07T12:24:02.832Z</time></trkpt><trkpt lat="43.1601417" lon="13.1644983"><ele>862.0</ele><time>2026-04-07T12:24:04.831Z</time></trkpt><trkpt lat="43.1601117" lon="13.164615"><ele>862.0</ele><time>2026-04-07T12:24:06.832Z</time></trkpt><trkpt lat="43.16006" lon="13.1647317"><ele>862.0</ele><time>2026-04-07T12:24:08.831Z</time></trkpt><trkpt lat="43.1600167" lon="13.1648483"><ele>862.0</ele><time>2026-04-07T12:24:10.832Z</time></trkpt><trkpt lat="43.1599833" lon="13.1649683"><ele>862.0</ele><time>2026-04-07T12:24:12.832Z</time></trkpt><trkpt lat="43.1599483" lon="13.1650967"><ele>862.0</ele><time>2026-04-07T12:24:14.832Z</time></trkpt><trkpt lat="43.1599033" lon="13.16524"><ele>859.0</ele><time>2026-04-07T12:24:16.832Z</time></trkpt><trkpt lat="43.1598683" lon="13.16539"><ele>856.0</ele><time>2026-04-07T12:24:18.831Z</time></trkpt><trkpt lat="43.1598383" lon="13.1655383"><ele>853.0</ele><time>2026-04-07T12:24:20.832Z</time></trkpt><trkpt lat="43.159805" lon="13.1656933"><ele>850.0</ele><time>2026-04-07T12:24:22.832Z</time></trkpt><trkpt lat="43.1597767" lon="13.1658383"><ele>847.0</ele><time>2026-04-07T12:24:24.831Z</time></trkpt><trkpt lat="43.1597583" lon="13.1659667"><ele>844.0</ele><time>2026-04-07T12:24:26.831Z</time></trkpt><trkpt lat="43.1597567" lon="13.166085"><ele>841.0</ele><time>2026-04-07T12:24:28.832Z</time></trkpt><trkpt lat="43.15976" lon="13.1661933"><ele>838.0</ele><time>2026-04-07T12:24:31.832Z</time></trkpt><trkpt lat="43.1597583" lon="13.16636"><ele>835.0</ele><time>2026-04-07T12:26:01.832Z</time></trkpt><trkpt lat="43.159705" lon="13.166425"><ele>835.0</ele><time>2026-04-07T12:26:03.832Z</time></trkpt><trkpt lat="43.159615" lon="13.1663583"><ele>835.0</ele><time>2026-04-07T12:26:06.832Z</time></trkpt><trkpt lat="43.1595367" lon="13.1662483"><ele>835.0</ele><time>2026-04-07T12:26:08.832Z</time></trkpt><trkpt lat="43.1594883" lon="13.1661883"><ele>835.0</ele><time>2026-04-07T12:26:09.832Z</time></trkpt><trkpt lat="43.1593917" lon="13.1661083"><ele>835.0</ele><time>2026-04-07T12:26:11.831Z</time></trkpt><trkpt lat="43.159275" lon="13.16605"><ele>835.0000000000001</ele><time>2026-04-07T12:26:13.832Z</time></trkpt><trkpt lat="43.15921" lon="13.1660167"><ele>835.0</ele><time>2026-04-07T12:26:14.831Z</time></trkpt><trkpt lat="43.1591433" lon="13.1659833"><ele>835.0</ele><time>2026-04-07T12:26:15.832Z</time></trkpt><trkpt lat="43.1590717" lon="13.165945"><ele>835.0</ele><time>2026-04-07T12:26:16.832Z</time></trkpt><trkpt lat="43.1590056" lon="13.1659045"><ele>835.0</ele><time>2026-04-07T12:26:17.832Z</time></trkpt><trkpt lat="43.158947" lon="13.1658669"><ele>835.0000000000001</ele><time>2026-04-07T12:26:18.832Z</time></trkpt><trkpt lat="43.1588888" lon="13.1658242"><ele>835.0</ele><time>2026-04-07T12:26:19.832Z</time></trkpt><trkpt lat="43.1587833" lon="13.1657274"><ele>835.8333333333333</ele><time>2026-04-07T12:26:21.832Z</time></trkpt><trkpt lat="43.1587234" lon="13.1656613"><ele>836.6666666666666</ele><time>2026-04-07T12:26:22.832Z</time></trkpt><trkpt lat="43.1586608" lon="13.1655865"><ele>837.5</ele><time>2026-04-07T12:26:23.831Z</time></trkpt><trkpt lat="43.1586032" lon="13.1655083"><ele>838.3333333333333</ele><time>2026-04-07T12:26:24.832Z</time></trkpt><trkpt lat="43.1585507" lon="13.1654408"><ele>839.1666666666666</ele><time>2026-04-07T12:26:25.832Z</time></trkpt><trkpt lat="43.1584988" lon="13.1653745"><ele>840.0</ele><time>2026-04-07T12:26:26.832Z</time></trkpt><trkpt lat="43.1584442" lon="13.1653138"><ele>840.0</ele><time>2026-04-07T12:26:27.832Z</time></trkpt><trkpt lat="43.1583837" lon="13.1652575"><ele>840.0</ele><time>2026-04-07T12:26:28.832Z</time></trkpt><trkpt lat="43.1583197" lon="13.1652004"><ele>840.0</ele><time>2026-04-07T12:26:29.831Z</time></trkpt><trkpt lat="43.1582525" lon="13.1651438"><ele>840.0</ele><time>2026-04-07T12:26:30.832Z</time></trkpt><trkpt lat="43.1581883" lon="13.1650929"><ele>840.0</ele><time>2026-04-07T12:26:31.832Z</time></trkpt><trkpt lat="43.1581189" lon="13.1650426"><ele>840.0</ele><time>2026-04-07T12:26:32.831Z</time></trkpt><trkpt lat="43.1580531" lon="13.1649907"><ele>840.6666666666666</ele><time>2026-04-07T12:26:33.832Z</time></trkpt><trkpt lat="43.157986" lon="13.1649363"><ele>841.3333333333333</ele><time>2026-04-07T12:26:34.832Z</time></trkpt><trkpt lat="43.1579107" lon="13.1648744"><ele>842.0</ele><time>2026-04-07T12:26:35.831Z</time></trkpt><trkpt lat="43.1578311" lon="13.1648085"><ele>842.6666666666666</ele><time>2026-04-07T12:26:36.832Z</time></trkpt><trkpt lat="43.1577533" lon="13.1647383"><ele>843.3333333333333</ele><time>2026-04-07T12:26:37.831Z</time></trkpt><trkpt lat="43.1576793" lon="13.1646661"><ele>844.0</ele><time>2026-04-07T12:26:38.832Z</time></trkpt><trkpt lat="43.15761" lon="13.1645973"><ele>843.9999999999999</ele><time>2026-04-07T12:26:39.831Z</time></trkpt><trkpt lat="43.1575409" lon="13.1645306"><ele>844.0</ele><time>2026-04-07T12:26:40.832Z</time></trkpt><trkpt lat="43.1574738" lon="13.164471"><ele>844.0</ele><time>2026-04-07T12:26:41.831Z</time></trkpt><trkpt lat="43.1574084" lon="13.1644072"><ele>844.0</ele><time>2026-04-07T12:26:42.832Z</time></trkpt><trkpt lat="43.1573441" lon="13.1643463"><ele>843.9999999999999</ele><time>2026-04-07T12:26:43.832Z</time></trkpt><trkpt lat="43.1572856" lon="13.1642921"><ele>844.0</ele><time>2026-04-07T12:26:44.832Z</time></trkpt><trkpt lat="43.1572336" lon="13.1642432"><ele>844.6666666666666</ele><time>2026-04-07T12:26:45.832Z</time></trkpt><trkpt lat="43.1571406" lon="13.1641583"><ele>845.3333333333333</ele><time>2026-04-07T12:26:47.832Z</time></trkpt><trkpt lat="43.1570801" lon="13.1641175"><ele>846.0</ele><time>2026-04-07T12:26:48.832Z</time></trkpt><trkpt lat="43.1570087" lon="13.1640862"><ele>846.6666666666667</ele><time>2026-04-07T12:26:49.831Z</time></trkpt><trkpt lat="43.1569328" lon="13.1640571"><ele>847.3333333333334</ele><time>2026-04-07T12:26:50.832Z</time></trkpt><trkpt lat="43.15686" lon="13.1640273"><ele>848.0</ele><time>2026-04-07T12:26:51.831Z</time></trkpt><trkpt lat="43.1567872" lon="13.1640001"><ele>848.0000000000001</ele><time>2026-04-07T12:26:52.832Z</time></trkpt><trkpt lat="43.1567157" lon="13.1639768"><ele>848.0</ele><time>2026-04-07T12:26:53.832Z</time></trkpt><trkpt lat="43.1566498" lon="13.163952"><ele>848.0</ele><time>2026-04-07T12:26:54.832Z</time></trkpt><trkpt lat="43.156538" lon="13.1638812"><ele>848.0</ele><time>2026-04-07T12:26:56.831Z</time></trkpt><trkpt lat="43.1564799" lon="13.1638438"><ele>848.0000000000001</ele><time>2026-04-07T12:26:57.832Z</time></trkpt><trkpt lat="43.1564155" lon="13.1638143"><ele>848.0</ele><time>2026-04-07T12:26:58.832Z</time></trkpt><trkpt lat="43.1563407" lon="13.163796"><ele>846.1428571428572</ele><time>2026-04-07T12:26:59.832Z</time></trkpt><trkpt lat="43.1562651" lon="13.1637818"><ele>844.2857142857142</ele><time>2026-04-07T12:27:00.831Z</time></trkpt><trkpt lat="43.1561964" lon="13.1637641"><ele>842.4285714285714</ele><time>2026-04-07T12:27:01.832Z</time></trkpt><trkpt lat="43.1561286" lon="13.1637482"><ele>840.5714285714287</ele><time>2026-04-07T12:27:02.832Z</time></trkpt><trkpt lat="43.1560646" lon="13.1637339"><ele>838.7142857142858</ele><time>2026-04-07T12:27:03.832Z</time></trkpt><trkpt lat="43.1560013" lon="13.1637154"><ele>836.8571428571429</ele><time>2026-04-07T12:27:04.832Z</time></trkpt><trkpt lat="43.155939" lon="13.1636908"><ele>835.0</ele><time>2026-04-07T12:27:05.831Z</time></trkpt><trkpt lat="43.15588" lon="13.1636583"><ele>835.0</ele><time>2026-04-07T12:27:06.832Z</time></trkpt><trkpt lat="43.155768" lon="13.1635762"><ele>835.0</ele><time>2026-04-07T12:27:08.832Z</time></trkpt><trkpt lat="43.1556833" lon="13.1634889"><ele>835.0</ele><time>2026-04-07T12:27:10.831Z</time></trkpt><trkpt lat="43.15564" lon="13.1634032"><ele>835.0</ele><time>2026-04-07T12:27:13.832Z</time></trkpt><trkpt lat="43.1555867" lon="13.1633"><ele>835.0</ele><time>2026-04-07T12:27:52.831Z</time></trkpt><trkpt lat="43.15552" lon="13.1631883"><ele>832.4</ele><time>2026-04-07T12:27:54.832Z</time></trkpt><trkpt lat="43.1554667" lon="13.1630867"><ele>829.8</ele><time>2026-04-07T12:27:56.832Z</time></trkpt><trkpt lat="43.1554187" lon="13.1629953"><ele>827.2</ele><time>2026-04-07T12:27:58.832Z</time></trkpt><trkpt lat="43.1553675" lon="13.1629056"><ele>824.6</ele><time>2026-04-07T12:28:00.832Z</time></trkpt><trkpt lat="43.1553248" lon="13.1628312"><ele>822.0</ele><time>2026-04-07T12:28:02.832Z</time></trkpt><trkpt lat="43.1552417" lon="13.1626765"><ele>822.0</ele><time>2026-04-07T12:32:57.905Z</time></trkpt><trkpt lat="43.1551581" lon="13.1625363"><ele>822.0</ele><time>2026-04-07T12:33:03.919Z</time></trkpt><trkpt lat="43.1551115" lon="13.1624476"><ele>822.0</ele><time>2026-04-07T12:33:05.83Z</time></trkpt><trkpt lat="43.1550623" lon="13.16236"><ele>822.0</ele><time>2026-04-07T12:33:08.831Z</time></trkpt><trkpt lat="43.1550329" lon="13.1622702"><ele>822.0</ele><time>2026-04-07T12:33:11.835Z</time></trkpt><trkpt lat="43.1550048" lon="13.1621685"><ele>822.0</ele><time>2026-04-07T12:33:14.879Z</time></trkpt><trkpt lat="43.1549771" lon="13.1620802"><ele>820.6666666666666</ele><time>2026-04-07T12:33:17.759Z</time></trkpt><trkpt lat="43.1549459" lon="13.1619795"><ele>819.3333333333333</ele><time>2026-04-07T12:33:20.863Z</time></trkpt><trkpt lat="43.1549107" lon="13.1618827"><ele>818.0</ele><time>2026-04-07T12:33:23.861Z</time></trkpt><trkpt lat="43.154881" lon="13.1618024"><ele>816.6666666666666</ele><time>2026-04-07T12:33:26.868Z</time></trkpt><trkpt lat="43.1548448" lon="13.1617212"><ele>815.3333333333333</ele><time>2026-04-07T12:33:29.881Z</time></trkpt><trkpt lat="43.1548093" lon="13.1616132"><ele>814.0</ele><time>2026-04-07T12:33:33.882Z</time></trkpt><trkpt lat="43.154786" lon="13.1615067"><ele>808.8333333333333</ele><time>2026-04-07T12:33:36.889Z</time></trkpt><trkpt lat="43.1547688" lon="13.1614126"><ele>803.6666666666666</ele><time>2026-04-07T12:33:38.659Z</time></trkpt><trkpt lat="43.1547373" lon="13.1612736"><ele>798.5</ele><time>2026-04-07T12:33:40.83Z</time></trkpt><trkpt lat="43.1547177" lon="13.1611634"><ele>793.3333333333333</ele><time>2026-04-07T12:33:42.882Z</time></trkpt><trkpt lat="43.1546916" lon="13.1610666"><ele>788.1666666666666</ele><time>2026-04-07T12:33:44.83Z</time></trkpt><trkpt lat="43.1546588" lon="13.1609381"><ele>783.0</ele><time>2026-04-07T12:33:47.831Z</time></trkpt><trkpt lat="43.1546489" lon="13.160844"><ele>783.0</ele><time>2026-04-07T12:33:49.831Z</time></trkpt><trkpt lat="43.1546246" lon="13.1607427"><ele>783.0</ele><time>2026-04-07T12:33:51.831Z</time></trkpt><trkpt lat="43.1545954" lon="13.1606446"><ele>783.0</ele><time>2026-04-07T12:33:53.831Z</time></trkpt><trkpt lat="43.1545515" lon="13.1605631"><ele>783.0</ele><time>2026-04-07T12:33:56.83Z</time></trkpt><trkpt lat="43.1546145" lon="13.1605711"><ele>783.0</ele><time>2026-04-07T12:34:05.722Z</time></trkpt><trkpt lat="43.1544959" lon="13.1604507"><ele>783.0</ele><time>2026-04-07T12:34:12.855Z</time></trkpt><trkpt lat="43.1544166" lon="13.160292"><ele>783.5</ele><time>2026-04-07T12:34:17.866Z</time></trkpt><trkpt lat="43.1543366" lon="13.1601341"><ele>784.0</ele><time>2026-04-07T12:34:22.876Z</time></trkpt><trkpt lat="43.1542976" lon="13.1600426"><ele>784.5</ele><time>2026-04-07T12:34:25.883Z</time></trkpt><trkpt lat="43.1542526" lon="13.1599371"><ele>785.0</ele><time>2026-04-07T12:34:27.887Z</time></trkpt><trkpt lat="43.1541756" lon="13.1597624"><ele>785.0</ele><time>2026-04-07T12:34:31.895Z</time></trkpt><trkpt lat="43.1541375" lon="13.159692"><ele>785.0</ele><time>2026-04-07T12:34:34.802Z</time></trkpt><trkpt lat="43.1540656" lon="13.1596482"><ele>785.0</ele><time>2026-04-07T12:34:36.906Z</time></trkpt><trkpt lat="43.1540442" lon="13.159555"><ele>785.0</ele><time>2026-04-07T12:34:39.912Z</time></trkpt><trkpt lat="43.1540252" lon="13.159472"><ele>785.0</ele><time>2026-04-07T12:34:41.916Z</time></trkpt><trkpt lat="43.153973" lon="13.1593835"><ele>785.0</ele><time>2026-04-07T12:34:44.92Z</time></trkpt><trkpt lat="43.1539198" lon="13.1593215"><ele>785.0</ele><time>2026-04-07T12:34:47.831Z</time></trkpt><trkpt lat="43.1538666" lon="13.1592617"><ele>776.8333333333334</ele><time>2026-04-07T12:34:50.702Z</time></trkpt><trkpt lat="43.153805" lon="13.1591817"><ele>768.6666666666667</ele><time>2026-04-07T12:34:53.83Z</time></trkpt><trkpt lat="43.1537417" lon="13.1591133"><ele>760.5</ele><time>2026-04-07T12:34:56.831Z</time></trkpt><trkpt lat="43.1536833" lon="13.1590417"><ele>752.3333333333334</ele><time>2026-04-07T12:34:59.83Z</time></trkpt><trkpt lat="43.1536167" lon="13.15895"><ele>744.1666666666667</ele><time>2026-04-07T12:35:02.831Z</time></trkpt><trkpt lat="43.1535683" lon="13.15885"><ele>736.0</ele><time>2026-04-07T12:35:04.831Z</time></trkpt><trkpt lat="43.15352" lon="13.1587317"><ele>736.0</ele><time>2026-04-07T12:35:06.831Z</time></trkpt><trkpt lat="43.1534767" lon="13.1585983"><ele>736.0</ele><time>2026-04-07T12:35:08.831Z</time></trkpt><trkpt lat="43.1534467" lon="13.1584633"><ele>736.0</ele><time>2026-04-07T12:35:10.831Z</time></trkpt><trkpt lat="43.153425" lon="13.158325"><ele>736.0</ele><time>2026-04-07T12:35:12.831Z</time></trkpt><trkpt lat="43.1534167" lon="13.1581733"><ele>736.0</ele><time>2026-04-07T12:35:14.831Z</time></trkpt><trkpt lat="43.1534167" lon="13.1580483"><ele>733.5</ele><time>2026-04-07T12:35:16.831Z</time></trkpt><trkpt lat="43.1534273" lon="13.1579617"><ele>731.0</ele><time>2026-04-07T12:35:18.831Z</time></trkpt><trkpt lat="43.1534589" lon="13.1578552"><ele>728.5</ele><time>2026-04-07T12:35:21.831Z</time></trkpt><trkpt lat="43.1535097" lon="13.1577325"><ele>726.0</ele><time>2026-04-07T12:35:25.892Z</time></trkpt><trkpt lat="43.1535447" lon="13.1576533"><ele>723.5</ele><time>2026-04-07T12:35:27.91Z</time></trkpt><trkpt lat="43.153594" lon="13.15757"><ele>721.0</ele><time>2026-04-07T12:35:30.831Z</time></trkpt><trkpt lat="43.1536562" lon="13.1574885"><ele>721.0</ele><time>2026-04-07T12:35:33.849Z</time></trkpt><trkpt lat="43.1537059" lon="13.1574121"><ele>721.0</ele><time>2026-04-07T12:35:36.789Z</time></trkpt><trkpt lat="43.153745" lon="13.1573417"><ele>721.0</ele><time>2026-04-07T12:35:39.83Z</time></trkpt><trkpt lat="43.1537933" lon="13.15725"><ele>721.0</ele><time>2026-04-07T12:35:43.831Z</time></trkpt><trkpt lat="43.1538417" lon="13.1571417"><ele>721.0</ele><time>2026-04-07T12:35:46.831Z</time></trkpt><trkpt lat="43.1538846" lon="13.1570366"><ele>721.0</ele><time>2026-04-07T12:35:49.857Z</time></trkpt><trkpt lat="43.1539157" lon="13.1569564"><ele>721.7142857142857</ele><time>2026-04-07T12:35:51.86Z</time></trkpt><trkpt lat="43.1539518" lon="13.1568598"><ele>722.4285714285714</ele><time>2026-04-07T12:35:54.867Z</time></trkpt><trkpt lat="43.1539883" lon="13.1567496"><ele>723.1428571428571</ele><time>2026-04-07T12:35:57.874Z</time></trkpt><trkpt lat="43.1540033" lon="13.1566617"><ele>723.8571428571429</ele><time>2026-04-07T12:35:59.831Z</time></trkpt><trkpt lat="43.1540167" lon="13.156575"><ele>724.5714285714286</ele><time>2026-04-07T12:36:01.831Z</time></trkpt><trkpt lat="43.1540305" lon="13.1564818"><ele>725.2857142857142</ele><time>2026-04-07T12:36:03.833Z</time></trkpt><trkpt lat="43.1540526" lon="13.1563848"><ele>726.0</ele><time>2026-04-07T12:36:05.891Z</time></trkpt><trkpt lat="43.1540661" lon="13.1562628"><ele>726.0</ele><time>2026-04-07T12:36:07.894Z</time></trkpt><trkpt lat="43.1540898" lon="13.1561382"><ele>726.0</ele><time>2026-04-07T12:36:09.83Z</time></trkpt><trkpt lat="43.1541329" lon="13.1560004"><ele>726.0</ele><time>2026-04-07T12:36:11.831Z</time></trkpt><trkpt lat="43.1541777" lon="13.1558609"><ele>726.0</ele><time>2026-04-07T12:36:13.831Z</time></trkpt><trkpt lat="43.1542177" lon="13.1557528"><ele>726.0</ele><time>2026-04-07T12:36:15.83Z</time></trkpt><trkpt lat="43.1542548" lon="13.1556711"><ele>727.8</ele><time>2026-04-07T12:36:17.83Z</time></trkpt><trkpt lat="43.1542414" lon="13.155571"><ele>729.5999999999999</ele><time>2026-04-07T12:36:20.831Z</time></trkpt><trkpt lat="43.154158" lon="13.1555757"><ele>731.4</ele><time>2026-04-07T12:36:22.83Z</time></trkpt><trkpt lat="43.1540544" lon="13.155605"><ele>733.2</ele><time>2026-04-07T12:36:24.83Z</time></trkpt><trkpt lat="43.1539476" lon="13.1556256"><ele>735.0</ele><time>2026-04-07T12:36:26.831Z</time></trkpt><trkpt lat="43.1538299" lon="13.1556191"><ele>735.0</ele><time>2026-04-07T12:36:28.831Z</time></trkpt><trkpt lat="43.1537142" lon="13.1555747"><ele>735.0</ele><time>2026-04-07T12:36:30.831Z</time></trkpt><trkpt lat="43.1536231" lon="13.1555179"><ele>735.0</ele><time>2026-04-07T12:36:32.83Z</time></trkpt><trkpt lat="43.1535586" lon="13.1554059"><ele>735.0</ele><time>2026-04-07T12:36:34.83Z</time></trkpt><trkpt lat="43.1535218" lon="13.1552372"><ele>735.0</ele><time>2026-04-07T12:36:36.831Z</time></trkpt><trkpt lat="43.1534887" lon="13.1550872"><ele>735.0</ele><time>2026-04-07T12:36:38.831Z</time></trkpt><trkpt lat="43.1534326" lon="13.1549852"><ele>735.0</ele><time>2026-04-07T12:36:40.83Z</time></trkpt><trkpt lat="43.1533528" lon="13.1549532"><ele>735.0</ele><time>2026-04-07T12:36:42.831Z</time></trkpt><trkpt lat="43.1532649" lon="13.1549735"><ele>735.0</ele><time>2026-04-07T12:36:44.831Z</time></trkpt><trkpt lat="43.1531946" lon="13.155037"><ele>731.6666666666666</ele><time>2026-04-07T12:36:46.831Z</time></trkpt><trkpt lat="43.1531458" lon="13.1550935"><ele>728.3333333333334</ele><time>2026-04-07T12:36:48.831Z</time></trkpt><trkpt lat="43.1530967" lon="13.1551755"><ele>725.0</ele><time>2026-04-07T12:36:51.831Z</time></trkpt><trkpt lat="43.1530157" lon="13.1552237"><ele>721.6666666666667</ele><time>2026-04-07T12:36:54.831Z</time></trkpt><trkpt lat="43.1529294" lon="13.1552167"><ele>718.3333333333334</ele><time>2026-04-07T12:36:57.831Z</time></trkpt><trkpt lat="43.1528616" lon="13.1551835"><ele>715.0</ele><time>2026-04-07T12:37:00.831Z</time></trkpt><trkpt lat="43.1528067" lon="13.155101"><ele>715.0</ele><time>2026-04-07T12:37:02.831Z</time></trkpt><trkpt lat="43.1527537" lon="13.1549838"><ele>715.0</ele><time>2026-04-07T12:37:04.831Z</time></trkpt><trkpt lat="43.152683" lon="13.1548957"><ele>715.0</ele><time>2026-04-07T12:37:06.831Z</time></trkpt><trkpt lat="43.1525925" lon="13.1548716"><ele>715.0</ele><time>2026-04-07T12:37:08.831Z</time></trkpt><trkpt lat="43.152491" lon="13.1548806"><ele>715.0</ele><time>2026-04-07T12:37:10.831Z</time></trkpt><trkpt lat="43.1523904" lon="13.1548857"><ele>714.6</ele><time>2026-04-07T12:37:12.83Z</time></trkpt><trkpt lat="43.1522863" lon="13.1548773"><ele>714.2</ele><time>2026-04-07T12:37:14.83Z</time></trkpt><trkpt lat="43.1521738" lon="13.1548634"><ele>713.8</ele><time>2026-04-07T12:37:16.831Z</time></trkpt><trkpt lat="43.1520793" lon="13.1548413"><ele>713.4</ele><time>2026-04-07T12:37:18.831Z</time></trkpt><trkpt lat="43.1520005" lon="13.1547526"><ele>713.0</ele><time>2026-04-07T12:37:20.831Z</time></trkpt><trkpt lat="43.1519352" lon="13.1546094"><ele>713.0</ele><time>2026-04-07T12:37:22.831Z</time></trkpt><trkpt lat="43.1518798" lon="13.1544598"><ele>713.0</ele><time>2026-04-07T12:37:24.83Z</time></trkpt><trkpt lat="43.1518254" lon="13.1543008"><ele>713.0</ele><time>2026-04-07T12:37:26.83Z</time></trkpt><trkpt lat="43.1518021" lon="13.1542194"><ele>713.0</ele><time>2026-04-07T12:37:27.83Z</time></trkpt><trkpt lat="43.1517515" lon="13.1540672"><ele>713.0</ele><time>2026-04-07T12:37:29.83Z</time></trkpt><trkpt lat="43.1517162" lon="13.1539112"><ele>715.2</ele><time>2026-04-07T12:37:31.831Z</time></trkpt><trkpt lat="43.1516829" lon="13.1537415"><ele>717.4</ele><time>2026-04-07T12:37:33.831Z</time></trkpt><trkpt lat="43.1516653" lon="13.1536586"><ele>719.6</ele><time>2026-04-07T12:37:34.831Z</time></trkpt><trkpt lat="43.1516354" lon="13.1535098"><ele>721.8000000000001</ele><time>2026-04-07T12:37:36.831Z</time></trkpt><trkpt lat="43.1516012" lon="13.1533589"><ele>724.0</ele><time>2026-04-07T12:37:38.831Z</time></trkpt><trkpt lat="43.1515801" lon="13.1532078"><ele>726.0</ele><time>2026-04-07T12:37:40.831Z</time></trkpt><trkpt lat="43.1515417" lon="13.1530583"><ele>728.0</ele><time>2026-04-07T12:37:42.83Z</time></trkpt><trkpt lat="43.1515083" lon="13.15297"><ele>730.0</ele><time>2026-04-07T12:37:43.83Z</time></trkpt><trkpt lat="43.151475" lon="13.152875"><ele>732.0</ele><time>2026-04-07T12:37:44.831Z</time></trkpt><trkpt lat="43.15144" lon="13.152775"><ele>734.0</ele><time>2026-04-07T12:37:45.83Z</time></trkpt><trkpt lat="43.15141" lon="13.1526767"><ele>736.0</ele><time>2026-04-07T12:37:46.831Z</time></trkpt><trkpt lat="43.151375" lon="13.1525867"><ele>731.1666666666667</ele><time>2026-04-07T12:37:47.831Z</time></trkpt><trkpt lat="43.1513483" lon="13.1525"><ele>726.3333333333334</ele><time>2026-04-07T12:37:48.831Z</time></trkpt><trkpt lat="43.151295" lon="13.1523367"><ele>721.5</ele><time>2026-04-07T12:37:50.83Z</time></trkpt><trkpt lat="43.151265" lon="13.1522567"><ele>716.6666666666666</ele><time>2026-04-07T12:37:51.831Z</time></trkpt><trkpt lat="43.151235" lon="13.152175"><ele>711.8333333333333</ele><time>2026-04-07T12:37:52.831Z</time></trkpt><trkpt lat="43.15119" lon="13.1520567"><ele>707.0</ele><time>2026-04-07T12:37:54.831Z</time></trkpt><trkpt lat="43.1511483" lon="13.1519467"><ele>707.0</ele><time>2026-04-07T12:37:56.831Z</time></trkpt><trkpt lat="43.1511067" lon="13.1518233"><ele>707.0</ele><time>2026-04-07T12:37:58.831Z</time></trkpt><trkpt lat="43.15106" lon="13.1516833"><ele>707.0</ele><time>2026-04-07T12:38:00.831Z</time></trkpt><trkpt lat="43.151025" lon="13.1515533"><ele>707.0</ele><time>2026-04-07T12:38:02.831Z</time></trkpt><trkpt lat="43.150995" lon="13.15141"><ele>707.0</ele><time>2026-04-07T12:38:04.831Z</time></trkpt><trkpt lat="43.15096" lon="13.1512717"><ele>709.0</ele><time>2026-04-07T12:38:06.831Z</time></trkpt><trkpt lat="43.1509217" lon="13.1511467"><ele>711.0</ele><time>2026-04-07T12:38:08.83Z</time></trkpt><trkpt lat="43.15089" lon="13.1510517"><ele>713.0</ele><time>2026-04-07T12:38:10.831Z</time></trkpt><trkpt lat="43.15086" lon="13.150975"><ele>715.0</ele><time>2026-04-07T12:38:12.831Z</time></trkpt><trkpt lat="43.1508183" lon="13.150865"><ele>717.0</ele><time>2026-04-07T12:38:15.831Z</time></trkpt><trkpt lat="43.1507717" lon="13.150765"><ele>719.0</ele><time>2026-04-07T12:38:18.831Z</time></trkpt><trkpt lat="43.1507201" lon="13.150674"><ele>713.8333333333333</ele><time>2026-04-07T12:38:21.818Z</time></trkpt><trkpt lat="43.1506685" lon="13.1506079"><ele>708.6666666666666</ele><time>2026-04-07T12:38:24.897Z</time></trkpt><trkpt lat="43.1506122" lon="13.1505285"><ele>703.5</ele><time>2026-04-07T12:38:27.905Z</time></trkpt><trkpt lat="43.1505518" lon="13.1504446"><ele>698.3333333333334</ele><time>2026-04-07T12:38:30.917Z</time></trkpt><trkpt lat="43.1504894" lon="13.1503718"><ele>693.1666666666667</ele><time>2026-04-07T12:38:34.92Z</time></trkpt><trkpt lat="43.1504495" lon="13.1502758"><ele>688.0</ele><time>2026-04-07T12:38:38.929Z</time></trkpt><trkpt lat="43.1504004" lon="13.1501747"><ele>688.0</ele><time>2026-04-07T12:38:41.835Z</time></trkpt><trkpt lat="43.150339" lon="13.1500919"><ele>688.0</ele><time>2026-04-07T12:38:44.841Z</time></trkpt><trkpt lat="43.1502818" lon="13.1499965"><ele>688.0</ele><time>2026-04-07T12:38:47.848Z</time></trkpt><trkpt lat="43.1502076" lon="13.149918"><ele>688.0</ele><time>2026-04-07T12:38:50.854Z</time></trkpt><trkpt lat="43.1501581" lon="13.1498609"><ele>688.0</ele><time>2026-04-07T12:38:52.857Z</time></trkpt><trkpt lat="43.1501027" lon="13.1497711"><ele>688.0</ele><time>2026-04-07T12:38:55.865Z</time></trkpt><trkpt lat="43.150068" lon="13.1496984"><ele>689.5</ele><time>2026-04-07T12:38:57.869Z</time></trkpt><trkpt lat="43.1500133" lon="13.149605"><ele>691.0</ele><time>2026-04-07T12:39:01.831Z</time></trkpt><trkpt lat="43.1499567" lon="13.1495083"><ele>692.5</ele><time>2026-04-07T12:39:04.831Z</time></trkpt><trkpt lat="43.1498974" lon="13.1494049"><ele>694.0</ele><time>2026-04-07T12:39:07.891Z</time></trkpt><trkpt lat="43.149855" lon="13.1493343"><ele>695.5</ele><time>2026-04-07T12:39:09.895Z</time></trkpt><trkpt lat="43.1498006" lon="13.1492247"><ele>697.0</ele><time>2026-04-07T12:39:12.9Z</time></trkpt><trkpt lat="43.1497573" lon="13.149141"><ele>692.3333333333334</ele><time>2026-04-07T12:39:14.906Z</time></trkpt><trkpt lat="43.1497227" lon="13.1490676"><ele>687.6666666666667</ele><time>2026-04-07T12:39:16.909Z</time></trkpt><trkpt lat="43.1496778" lon="13.1489551"><ele>683.0</ele><time>2026-04-07T12:39:19.897Z</time></trkpt><trkpt lat="43.1496406" lon="13.1488355"><ele>678.3333333333334</ele><time>2026-04-07T12:39:22.759Z</time></trkpt><trkpt lat="43.1495918" lon="13.1487434"><ele>673.6666666666666</ele><time>2026-04-07T12:39:24.831Z</time></trkpt><trkpt lat="43.1495545" lon="13.1486409"><ele>669.0</ele><time>2026-04-07T12:39:26.831Z</time></trkpt><trkpt lat="43.1495133" lon="13.14852"><ele>669.0</ele><time>2026-04-07T12:39:28.83Z</time></trkpt><trkpt lat="43.1494783" lon="13.148405"><ele>669.0</ele><time>2026-04-07T12:39:30.831Z</time></trkpt><trkpt lat="43.1494533" lon="13.14829"><ele>669.0</ele><time>2026-04-07T12:39:32.831Z</time></trkpt><trkpt lat="43.149415" lon="13.148175"><ele>669.0</ele><time>2026-04-07T12:39:34.83Z</time></trkpt><trkpt lat="43.1493783" lon="13.1480767"><ele>669.0</ele><time>2026-04-07T12:39:36.831Z</time></trkpt><trkpt lat="43.1493483" lon="13.1479767"><ele>669.0</ele><time>2026-04-07T12:39:38.83Z</time></trkpt><trkpt lat="43.1493217" lon="13.1478583"><ele>669.1666666666666</ele><time>2026-04-07T12:39:40.831Z</time></trkpt><trkpt lat="43.1492867" lon="13.1477417"><ele>669.3333333333334</ele><time>2026-04-07T12:39:42.83Z</time></trkpt><trkpt lat="43.1492617" lon="13.1476517"><ele>669.5</ele><time>2026-04-07T12:39:44.83Z</time></trkpt><trkpt lat="43.1492183" lon="13.147535"><ele>669.6666666666667</ele><time>2026-04-07T12:39:47.83Z</time></trkpt><trkpt lat="43.1491673" lon="13.1474501"><ele>669.8333333333334</ele><time>2026-04-07T12:39:50.863Z</time></trkpt><trkpt lat="43.1491079" lon="13.1473395"><ele>670.0</ele><time>2026-04-07T12:40:16.825Z</time></trkpt><trkpt lat="43.1490365" lon="13.1472905"><ele>664.8333333333334</ele><time>2026-04-07T12:40:21.87Z</time></trkpt><trkpt lat="43.1489818" lon="13.1473809"><ele>659.6666666666667</ele><time>2026-04-07T12:40:24.807Z</time></trkpt><trkpt lat="43.1489464" lon="13.14748"><ele>654.5</ele><time>2026-04-07T12:40:26.879Z</time></trkpt><trkpt lat="43.1488973" lon="13.1475964"><ele>649.3333333333334</ele><time>2026-04-07T12:40:28.885Z</time></trkpt><trkpt lat="43.14889" lon="13.1476933"><ele>644.1666666666666</ele><time>2026-04-07T12:40:29.831Z</time></trkpt><trkpt lat="43.1488567" lon="13.1477883"><ele>639.0</ele><time>2026-04-07T12:40:31.831Z</time></trkpt><trkpt lat="43.1488183" lon="13.1478917"><ele>639.0</ele><time>2026-04-07T12:40:34.83Z</time></trkpt><trkpt lat="43.148775" lon="13.1479983"><ele>639.0</ele><time>2026-04-07T12:40:37.83Z</time></trkpt><trkpt lat="43.1487383" lon="13.1480983"><ele>639.0</ele><time>2026-04-07T12:40:39.831Z</time></trkpt><trkpt lat="43.148704" lon="13.1482128"><ele>639.0</ele><time>2026-04-07T12:40:41.904Z</time></trkpt><trkpt lat="43.1486692" lon="13.1483409"><ele>639.0</ele><time>2026-04-07T12:40:43.831Z</time></trkpt><trkpt lat="43.1486378" lon="13.1484803"><ele>638.6666666666666</ele><time>2026-04-07T12:40:45.831Z</time></trkpt><trkpt lat="43.1486111" lon="13.1485972"><ele>638.3333333333334</ele><time>2026-04-07T12:40:47.831Z</time></trkpt><trkpt lat="43.148586" lon="13.1486967"><ele>638.0</ele><time>2026-04-07T12:40:49.83Z</time></trkpt><trkpt lat="43.1485588" lon="13.148796"><ele>637.6666666666667</ele><time>2026-04-07T12:40:51.83Z</time></trkpt><trkpt lat="43.14853" lon="13.1489063"><ele>637.3333333333334</ele><time>2026-04-07T12:40:53.831Z</time></trkpt><trkpt lat="43.1484963" lon="13.1490434"><ele>637.0</ele><time>2026-04-07T12:40:55.831Z</time></trkpt><trkpt lat="43.1484577" lon="13.1491819"><ele>636.4</ele><time>2026-04-07T12:40:57.831Z</time></trkpt><trkpt lat="43.1484205" lon="13.1492981"><ele>635.8000000000001</ele><time>2026-04-07T12:40:59.831Z</time></trkpt><trkpt lat="43.1483851" lon="13.1494037"><ele>635.2</ele><time>2026-04-07T12:41:01.831Z</time></trkpt><trkpt lat="43.1483457" lon="13.1495027"><ele>634.6</ele><time>2026-04-07T12:41:03.831Z</time></trkpt><trkpt lat="43.1482908" lon="13.149578"><ele>634.0</ele><time>2026-04-07T12:41:05.831Z</time></trkpt><trkpt lat="43.1481817" lon="13.1496336"><ele>631.0</ele><time>2026-04-07T12:41:08.877Z</time></trkpt><trkpt lat="43.148068" lon="13.1496574"><ele>628.0</ele><time>2026-04-07T12:41:10.831Z</time></trkpt><trkpt lat="43.1479571" lon="13.149656"><ele>625.0</ele><time>2026-04-07T12:41:12.831Z</time></trkpt><trkpt lat="43.1478563" lon="13.1496641"><ele>622.0</ele><time>2026-04-07T12:41:14.831Z</time></trkpt><trkpt lat="43.1477582" lon="13.1496631"><ele>619.0</ele><time>2026-04-07T12:41:16.831Z</time></trkpt><trkpt lat="43.1476761" lon="13.1496525"><ele>619.0</ele><time>2026-04-07T12:41:18.831Z</time></trkpt><trkpt lat="43.1475894" lon="13.1496044"><ele>619.0</ele><time>2026-04-07T12:41:20.831Z</time></trkpt><trkpt lat="43.1474957" lon="13.1495431"><ele>619.0</ele><time>2026-04-07T12:41:22.831Z</time></trkpt><trkpt lat="43.1473972" lon="13.1494861"><ele>619.0</ele><time>2026-04-07T12:41:24.831Z</time></trkpt><trkpt lat="43.1473017" lon="13.1494287"><ele>619.0</ele><time>2026-04-07T12:41:26.831Z</time></trkpt><trkpt lat="43.1472088" lon="13.1493752"><ele>616.6</ele><time>2026-04-07T12:41:28.831Z</time></trkpt><trkpt lat="43.1471079" lon="13.1493418"><ele>614.2</ele><time>2026-04-07T12:41:30.831Z</time></trkpt><trkpt lat="43.1470095" lon="13.1493261"><ele>611.8000000000001</ele><time>2026-04-07T12:41:32.831Z</time></trkpt><trkpt lat="43.146904" lon="13.1493211"><ele>609.4</ele><time>2026-04-07T12:41:34.831Z</time></trkpt><trkpt lat="43.1468029" lon="13.1493218"><ele>607.0</ele><time>2026-04-07T12:41:36.831Z</time></trkpt><trkpt lat="43.1467238" lon="13.1493202"><ele>607.0</ele><time>2026-04-07T12:41:38.831Z</time></trkpt><trkpt lat="43.14662" lon="13.1492691"><ele>607.0</ele><time>2026-04-07T12:41:40.831Z</time></trkpt><trkpt lat="43.1465157" lon="13.1492143"><ele>607.0</ele><time>2026-04-07T12:41:42.831Z</time></trkpt><trkpt lat="43.1464441" lon="13.1491634"><ele>607.0</ele><time>2026-04-07T12:41:45.871Z</time></trkpt><trkpt lat="43.1464287" lon="13.1490729"><ele>607.0</ele><time>2026-04-07T12:41:46.864Z</time></trkpt><trkpt lat="43.1464281" lon="13.1489824"><ele>607.0</ele><time>2026-04-07T12:41:47.83Z</time></trkpt><trkpt lat="43.1464416" lon="13.1488844"><ele>606.0</ele><time>2026-04-07T12:41:48.831Z</time></trkpt><trkpt lat="43.1464608" lon="13.1487679"><ele>605.0</ele><time>2026-04-07T12:41:49.831Z</time></trkpt><trkpt lat="43.1464874" lon="13.1486468"><ele>604.0</ele><time>2026-04-07T12:41:50.831Z</time></trkpt><trkpt lat="43.1465143" lon="13.1485256"><ele>603.0</ele><time>2026-04-07T12:41:51.83Z</time></trkpt><trkpt lat="43.1465481" lon="13.1483984"><ele>602.0</ele><time>2026-04-07T12:41:52.831Z</time></trkpt><trkpt lat="43.1465896" lon="13.1482613"><ele>599.8000000000001</ele><time>2026-04-07T12:41:53.831Z</time></trkpt><trkpt lat="43.1466385" lon="13.1481229"><ele>597.6</ele><time>2026-04-07T12:41:54.831Z</time></trkpt><trkpt lat="43.146686" lon="13.147985"><ele>595.4000000000001</ele><time>2026-04-07T12:41:55.831Z</time></trkpt><trkpt lat="43.1467214" lon="13.1478473"><ele>593.2</ele><time>2026-04-07T12:41:56.831Z</time></trkpt><trkpt lat="43.1467463" lon="13.1477141"><ele>591.0</ele><time>2026-04-07T12:41:57.831Z</time></trkpt><trkpt lat="43.1467751" lon="13.1475793"><ele>591.0</ele><time>2026-04-07T12:41:58.83Z</time></trkpt><trkpt lat="43.1468184" lon="13.1474528"><ele>591.0</ele><time>2026-04-07T12:41:59.831Z</time></trkpt><trkpt lat="43.1468794" lon="13.1473307"><ele>591.0</ele><time>2026-04-07T12:42:00.831Z</time></trkpt><trkpt lat="43.1469499" lon="13.1472146"><ele>591.0</ele><time>2026-04-07T12:42:01.831Z</time></trkpt><trkpt lat="43.1470155" lon="13.1470979"><ele>591.0</ele><time>2026-04-07T12:42:02.831Z</time></trkpt><trkpt lat="43.1470693" lon="13.1469729"><ele>589.0</ele><time>2026-04-07T12:42:03.831Z</time></trkpt><trkpt lat="43.1471031" lon="13.1468418"><ele>587.0</ele><time>2026-04-07T12:42:04.83Z</time></trkpt><trkpt lat="43.1471171" lon="13.1467193"><ele>585.0</ele><time>2026-04-07T12:42:05.831Z</time></trkpt><trkpt lat="43.147106" lon="13.1465916"><ele>583.0</ele><time>2026-04-07T12:42:06.831Z</time></trkpt><trkpt lat="43.1470699" lon="13.146461"><ele>581.0</ele><time>2026-04-07T12:42:07.831Z</time></trkpt><trkpt lat="43.1470348" lon="13.1463285"><ele>579.4</ele><time>2026-04-07T12:42:08.831Z</time></trkpt><trkpt lat="43.1470156" lon="13.1461986"><ele>577.8</ele><time>2026-04-07T12:42:09.831Z</time></trkpt><trkpt lat="43.1470142" lon="13.1460727"><ele>576.1999999999999</ele><time>2026-04-07T12:42:10.831Z</time></trkpt><trkpt lat="43.147026" lon="13.1459466"><ele>574.6</ele><time>2026-04-07T12:42:11.831Z</time></trkpt><trkpt lat="43.1470401" lon="13.1458217"><ele>573.0</ele><time>2026-04-07T12:42:12.83Z</time></trkpt><trkpt lat="43.1470633" lon="13.1456998"><ele>571.0</ele><time>2026-04-07T12:42:13.83Z</time></trkpt><trkpt lat="43.1470917" lon="13.1455825"><ele>569.0</ele><time>2026-04-07T12:42:14.831Z</time></trkpt><trkpt lat="43.1471197" lon="13.1454632"><ele>567.0</ele><time>2026-04-07T12:42:15.83Z</time></trkpt><trkpt lat="43.1471494" lon="13.1453332"><ele>565.0</ele><time>2026-04-07T12:42:16.831Z</time></trkpt><trkpt lat="43.1471779" lon="13.1451991"><ele>563.0</ele><time>2026-04-07T12:42:17.831Z</time></trkpt><trkpt lat="43.1472065" lon="13.1450679"><ele>563.0</ele><time>2026-04-07T12:42:18.83Z</time></trkpt><trkpt lat="43.1472382" lon="13.1449418"><ele>563.0</ele><time>2026-04-07T12:42:19.831Z</time></trkpt><trkpt lat="43.1472683" lon="13.144819"><ele>563.0</ele><time>2026-04-07T12:42:20.831Z</time></trkpt><trkpt lat="43.1473054" lon="13.1446974"><ele>563.0</ele><time>2026-04-07T12:42:21.83Z</time></trkpt><trkpt lat="43.1473471" lon="13.1445847"><ele>563.0</ele><time>2026-04-07T12:42:22.831Z</time></trkpt><trkpt lat="43.147384" lon="13.1444773"><ele>566.8</ele><time>2026-04-07T12:42:23.831Z</time></trkpt><trkpt lat="43.1474187" lon="13.1443692"><ele>570.5999999999999</ele><time>2026-04-07T12:42:24.83Z</time></trkpt><trkpt lat="43.1474547" lon="13.1442504"><ele>574.4000000000001</ele><time>2026-04-07T12:42:25.831Z</time></trkpt><trkpt lat="43.1474833" lon="13.1441167"><ele>578.2</ele><time>2026-04-07T12:42:26.831Z</time></trkpt><trkpt lat="43.1475067" lon="13.143975"><ele>582.0</ele><time>2026-04-07T12:42:27.831Z</time></trkpt><trkpt lat="43.147535" lon="13.1438317"><ele>582.0</ele><time>2026-04-07T12:42:28.831Z</time></trkpt><trkpt lat="43.1475533" lon="13.14369"><ele>582.0</ele><time>2026-04-07T12:42:29.831Z</time></trkpt><trkpt lat="43.147575" lon="13.1435417"><ele>582.0</ele><time>2026-04-07T12:42:30.831Z</time></trkpt><trkpt lat="43.14758" lon="13.143385"><ele>582.0</ele><time>2026-04-07T12:42:31.831Z</time></trkpt><trkpt lat="43.147605" lon="13.1432333"><ele>582.0</ele><time>2026-04-07T12:42:32.831Z</time></trkpt><trkpt lat="43.1476317" lon="13.1430883"><ele>580.4</ele><time>2026-04-07T12:42:33.831Z</time></trkpt><trkpt lat="43.14766" lon="13.1429467"><ele>578.8000000000001</ele><time>2026-04-07T12:42:34.831Z</time></trkpt><trkpt lat="43.1476867" lon="13.1428167"><ele>577.2</ele><time>2026-04-07T12:42:35.831Z</time></trkpt><trkpt lat="43.1477167" lon="13.1426883"><ele>575.6</ele><time>2026-04-07T12:42:36.83Z</time></trkpt><trkpt lat="43.14774" lon="13.1425633"><ele>574.0</ele><time>2026-04-07T12:42:37.831Z</time></trkpt><trkpt lat="43.1477417" lon="13.142445"><ele>572.6666666666667</ele><time>2026-04-07T12:42:38.831Z</time></trkpt><trkpt lat="43.147745" lon="13.1423233"><ele>571.3333333333334</ele><time>2026-04-07T12:42:39.83Z</time></trkpt><trkpt lat="43.1477533" lon="13.14219"><ele>570.0</ele><time>2026-04-07T12:42:40.831Z</time></trkpt><trkpt lat="43.1477583" lon="13.1420717"><ele>568.6666666666666</ele><time>2026-04-07T12:42:41.831Z</time></trkpt><trkpt lat="43.1477617" lon="13.1419767"><ele>567.3333333333333</ele><time>2026-04-07T12:42:42.831Z</time></trkpt><trkpt lat="43.1477667" lon="13.1418367"><ele>566.0</ele><time>2026-04-07T12:42:44.831Z</time></trkpt><trkpt lat="43.1477067" lon="13.1418017"><ele>566.0</ele><time>2026-04-07T12:42:47.83Z</time></trkpt><trkpt lat="43.1476583" lon="13.14189"><ele>566.0</ele><time>2026-04-07T12:42:49.83Z</time></trkpt><trkpt lat="43.1476417" lon="13.1419767"><ele>566.0</ele><time>2026-04-07T12:42:50.831Z</time></trkpt><trkpt lat="43.14763" lon="13.1420867"><ele>566.0</ele><time>2026-04-07T12:42:51.831Z</time></trkpt><trkpt lat="43.1476233" lon="13.1422017"><ele>566.0</ele><time>2026-04-07T12:42:52.83Z</time></trkpt><trkpt lat="43.147615" lon="13.1423017"><ele>566.0</ele><time>2026-04-07T12:42:53.83Z</time></trkpt><trkpt lat="43.1476" lon="13.1424"><ele>567.3333333333333</ele><time>2026-04-07T12:42:54.83Z</time></trkpt><trkpt lat="43.14759" lon="13.142495"><ele>568.6666666666666</ele><time>2026-04-07T12:42:55.831Z</time></trkpt><trkpt lat="43.1475717" lon="13.1425833"><ele>570.0</ele><time>2026-04-07T12:42:56.831Z</time></trkpt><trkpt lat="43.14755" lon="13.1426783"><ele>571.3333333333334</ele><time>2026-04-07T12:42:57.831Z</time></trkpt><trkpt lat="43.1475117" lon="13.1427833"><ele>572.6666666666667</ele><time>2026-04-07T12:42:58.83Z</time></trkpt><trkpt lat="43.1474683" lon="13.14288"><ele>574.0</ele><time>2026-04-07T12:42:59.83Z</time></trkpt><trkpt lat="43.14742" lon="13.14297"><ele>570.0</ele><time>2026-04-07T12:43:00.83Z</time></trkpt><trkpt lat="43.1473717" lon="13.1430533"><ele>566.0</ele><time>2026-04-07T12:43:01.831Z</time></trkpt><trkpt lat="43.14733" lon="13.1431333"><ele>562.0</ele><time>2026-04-07T12:43:02.831Z</time></trkpt><trkpt lat="43.1472767" lon="13.1432067"><ele>558.0</ele><time>2026-04-07T12:43:03.831Z</time></trkpt><trkpt lat="43.1472267" lon="13.1432867"><ele>554.0</ele><time>2026-04-07T12:43:04.831Z</time></trkpt><trkpt lat="43.1471733" lon="13.1433633"><ele>550.0</ele><time>2026-04-07T12:43:05.831Z</time></trkpt><trkpt lat="43.1471167" lon="13.1434433"><ele>550.0</ele><time>2026-04-07T12:43:06.831Z</time></trkpt><trkpt lat="43.1470583" lon="13.143525"><ele>550.0</ele><time>2026-04-07T12:43:07.83Z</time></trkpt><trkpt lat="43.1470033" lon="13.1436017"><ele>550.0</ele><time>2026-04-07T12:43:08.831Z</time></trkpt><trkpt lat="43.1469533" lon="13.1436833"><ele>550.0</ele><time>2026-04-07T12:43:09.831Z</time></trkpt><trkpt lat="43.1469033" lon="13.1437667"><ele>550.0</ele><time>2026-04-07T12:43:10.831Z</time></trkpt><trkpt lat="43.1468617" lon="13.1438517"><ele>550.0</ele><time>2026-04-07T12:43:11.831Z</time></trkpt><trkpt lat="43.146825" lon="13.14393"><ele>551.4</ele><time>2026-04-07T12:43:12.83Z</time></trkpt><trkpt lat="43.1467767" lon="13.14407"><ele>552.8</ele><time>2026-04-07T12:43:14.831Z</time></trkpt><trkpt lat="43.1467417" lon="13.1441917"><ele>554.2</ele><time>2026-04-07T12:43:16.831Z</time></trkpt><trkpt lat="43.1466767" lon="13.1442567"><ele>555.6</ele><time>2026-04-07T12:43:18.831Z</time></trkpt><trkpt lat="43.1466133" lon="13.1442067"><ele>557.0</ele><time>2026-04-07T12:43:20.831Z</time></trkpt><trkpt lat="43.1466033" lon="13.1440667"><ele>555.8333333333333</ele><time>2026-04-07T12:43:22.83Z</time></trkpt><trkpt lat="43.1466117" lon="13.1439783"><ele>554.6666666666666</ele><time>2026-04-07T12:43:23.831Z</time></trkpt><trkpt lat="43.1466267" lon="13.1438783"><ele>553.5</ele><time>2026-04-07T12:43:24.831Z</time></trkpt><trkpt lat="43.146645" lon="13.14376"><ele>552.3333333333334</ele><time>2026-04-07T12:43:25.831Z</time></trkpt><trkpt lat="43.1466583" lon="13.1436333"><ele>551.1666666666667</ele><time>2026-04-07T12:43:26.831Z</time></trkpt><trkpt lat="43.1466767" lon="13.1435083"><ele>550.0</ele><time>2026-04-07T12:43:27.831Z</time></trkpt><trkpt lat="43.1466883" lon="13.1433867"><ele>550.0</ele><time>2026-04-07T12:43:28.83Z</time></trkpt><trkpt lat="43.1467" lon="13.14327"><ele>550.0</ele><time>2026-04-07T12:43:29.831Z</time></trkpt><trkpt lat="43.1467033" lon="13.1431633"><ele>550.0</ele><time>2026-04-07T12:43:30.831Z</time></trkpt><trkpt lat="43.1467083" lon="13.1430467"><ele>550.0</ele><time>2026-04-07T12:43:31.831Z</time></trkpt><trkpt lat="43.1467183" lon="13.14292"><ele>550.0</ele><time>2026-04-07T12:43:32.831Z</time></trkpt><trkpt lat="43.1467383" lon="13.1427983"><ele>550.0</ele><time>2026-04-07T12:43:33.831Z</time></trkpt><trkpt lat="43.146755" lon="13.1426833"><ele>548.5</ele><time>2026-04-07T12:43:34.831Z</time></trkpt><trkpt lat="43.1467683" lon="13.1425667"><ele>547.0</ele><time>2026-04-07T12:43:35.831Z</time></trkpt><trkpt lat="43.146785" lon="13.1424467"><ele>545.5</ele><time>2026-04-07T12:43:36.831Z</time></trkpt><trkpt lat="43.1467967" lon="13.14233"><ele>544.0</ele><time>2026-04-07T12:43:37.831Z</time></trkpt><trkpt lat="43.146805" lon="13.142205"><ele>542.5</ele><time>2026-04-07T12:43:38.831Z</time></trkpt><trkpt lat="43.1468183" lon="13.142085"><ele>541.0</ele><time>2026-04-07T12:43:39.831Z</time></trkpt><trkpt lat="43.1468317" lon="13.1419483"><ele>539.6</ele><time>2026-04-07T12:43:40.831Z</time></trkpt><trkpt lat="43.1468417" lon="13.1418167"><ele>538.2</ele><time>2026-04-07T12:43:41.831Z</time></trkpt><trkpt lat="43.146845" lon="13.1416883"><ele>536.8</ele><time>2026-04-07T12:43:42.83Z</time></trkpt><trkpt lat="43.1468383" lon="13.141545"><ele>535.4</ele><time>2026-04-07T12:43:43.831Z</time></trkpt><trkpt lat="43.1468283" lon="13.1414033"><ele>534.0</ele><time>2026-04-07T12:43:44.831Z</time></trkpt><trkpt lat="43.14682" lon="13.1412667"><ele>533.0</ele><time>2026-04-07T12:43:45.831Z</time></trkpt><trkpt lat="43.1468183" lon="13.14115"><ele>532.0</ele><time>2026-04-07T12:43:46.831Z</time></trkpt><trkpt lat="43.14681" lon="13.14104"><ele>531.0</ele><time>2026-04-07T12:43:47.83Z</time></trkpt><trkpt lat="43.1468183" lon="13.1409317"><ele>530.0</ele><time>2026-04-07T12:43:48.831Z</time></trkpt><trkpt lat="43.1468467" lon="13.1408083"><ele>529.0</ele><time>2026-04-07T12:43:49.83Z</time></trkpt><trkpt lat="43.1468933" lon="13.1406883"><ele>528.0</ele><time>2026-04-07T12:43:50.831Z</time></trkpt><trkpt lat="43.1469483" lon="13.1405783"><ele>525.0</ele><time>2026-04-07T12:43:51.831Z</time></trkpt><trkpt lat="43.1470167" lon="13.1404633"><ele>522.0</ele><time>2026-04-07T12:43:52.83Z</time></trkpt><trkpt lat="43.1470917" lon="13.14035"><ele>519.0</ele><time>2026-04-07T12:43:53.831Z</time></trkpt><trkpt lat="43.1471683" lon="13.1402383"><ele>516.0</ele><time>2026-04-07T12:43:54.83Z</time></trkpt><trkpt lat="43.1472383" lon="13.1401483"><ele>513.0</ele><time>2026-04-07T12:43:55.831Z</time></trkpt><trkpt lat="43.147295" lon="13.1400633"><ele>513.0</ele><time>2026-04-07T12:43:56.83Z</time></trkpt><trkpt lat="43.1473533" lon="13.1399883"><ele>513.0</ele><time>2026-04-07T12:43:57.831Z</time></trkpt><trkpt lat="43.1474067" lon="13.1398967"><ele>513.0</ele><time>2026-04-07T12:43:58.831Z</time></trkpt><trkpt lat="43.1474433" lon="13.1397967"><ele>513.0</ele><time>2026-04-07T12:43:59.831Z</time></trkpt><trkpt lat="43.147475" lon="13.1396867"><ele>513.0</ele><time>2026-04-07T12:44:00.831Z</time></trkpt><trkpt lat="43.1474867" lon="13.1395717"><ele>513.0</ele><time>2026-04-07T12:44:01.831Z</time></trkpt><trkpt lat="43.1475017" lon="13.139445"><ele>513.8</ele><time>2026-04-07T12:44:02.831Z</time></trkpt><trkpt lat="43.1475233" lon="13.1393067"><ele>514.5999999999999</ele><time>2026-04-07T12:44:03.83Z</time></trkpt><trkpt lat="43.147545" lon="13.13918"><ele>515.4000000000001</ele><time>2026-04-07T12:44:04.83Z</time></trkpt><trkpt lat="43.1475767" lon="13.1390567"><ele>516.2</ele><time>2026-04-07T12:44:05.831Z</time></trkpt><trkpt lat="43.1475933" lon="13.1389333"><ele>517.0</ele><time>2026-04-07T12:44:06.831Z</time></trkpt><trkpt lat="43.14761" lon="13.1388"><ele>517.0</ele><time>2026-04-07T12:44:07.83Z</time></trkpt><trkpt lat="43.14762" lon="13.13866"><ele>517.0</ele><time>2026-04-07T12:44:08.831Z</time></trkpt><trkpt lat="43.1476433" lon="13.13853"><ele>517.0</ele><time>2026-04-07T12:44:09.83Z</time></trkpt><trkpt lat="43.1476517" lon="13.1383833"><ele>517.0</ele><time>2026-04-07T12:44:10.831Z</time></trkpt><trkpt lat="43.14766" lon="13.1382467"><ele>517.0</ele><time>2026-04-07T12:44:11.831Z</time></trkpt><trkpt lat="43.14767" lon="13.13811"><ele>514.6</ele><time>2026-04-07T12:44:12.831Z</time></trkpt><trkpt lat="43.1476817" lon="13.1379767"><ele>512.2</ele><time>2026-04-07T12:44:13.83Z</time></trkpt><trkpt lat="43.147685" lon="13.1378367"><ele>509.8</ele><time>2026-04-07T12:44:14.831Z</time></trkpt><trkpt lat="43.1476767" lon="13.1376867"><ele>507.4</ele><time>2026-04-07T12:44:15.831Z</time></trkpt><trkpt lat="43.1476717" lon="13.1375333"><ele>505.0</ele><time>2026-04-07T12:44:16.831Z</time></trkpt><trkpt lat="43.14768" lon="13.137385"><ele>503.4</ele><time>2026-04-07T12:44:17.831Z</time></trkpt><trkpt lat="43.1476817" lon="13.1372417"><ele>501.8</ele><time>2026-04-07T12:44:18.831Z</time></trkpt><trkpt lat="43.14769" lon="13.1371033"><ele>500.20000000000005</ele><time>2026-04-07T12:44:19.831Z</time></trkpt><trkpt lat="43.1477017" lon="13.136975"><ele>498.6</ele><time>2026-04-07T12:44:20.831Z</time></trkpt><trkpt lat="43.1477067" lon="13.136845"><ele>497.0</ele><time>2026-04-07T12:44:21.831Z</time></trkpt><trkpt lat="43.1477167" lon="13.1367067"><ele>497.0</ele><time>2026-04-07T12:44:22.831Z</time></trkpt><trkpt lat="43.1477167" lon="13.1365733"><ele>497.00000000000006</ele><time>2026-04-07T12:44:23.831Z</time></trkpt><trkpt lat="43.147725" lon="13.1364367"><ele>497.00000000000006</ele><time>2026-04-07T12:44:24.831Z</time></trkpt><trkpt lat="43.147735" lon="13.1363067"><ele>497.0</ele><time>2026-04-07T12:44:25.831Z</time></trkpt><trkpt lat="43.1477433" lon="13.136185"><ele>497.0</ele><time>2026-04-07T12:44:26.83Z</time></trkpt><trkpt lat="43.1477583" lon="13.1360567"><ele>495.40000000000003</ele><time>2026-04-07T12:44:27.83Z</time></trkpt><trkpt lat="43.1477683" lon="13.1359283"><ele>493.80000000000007</ele><time>2026-04-07T12:44:28.831Z</time></trkpt><trkpt lat="43.147785" lon="13.1358033"><ele>492.2</ele><time>2026-04-07T12:44:29.831Z</time></trkpt><trkpt lat="43.1477983" lon="13.1356833"><ele>490.6</ele><time>2026-04-07T12:44:30.831Z</time></trkpt><trkpt lat="43.1478083" lon="13.1355617"><ele>489.0</ele><time>2026-04-07T12:44:31.831Z</time></trkpt><trkpt lat="43.1478217" lon="13.1354367"><ele>488.0</ele><time>2026-04-07T12:44:32.831Z</time></trkpt><trkpt lat="43.1478383" lon="13.1352983"><ele>487.0</ele><time>2026-04-07T12:44:33.83Z</time></trkpt><trkpt lat="43.14785" lon="13.1351583"><ele>486.0</ele><time>2026-04-07T12:44:34.831Z</time></trkpt><trkpt lat="43.1478617" lon="13.1350183"><ele>485.0</ele><time>2026-04-07T12:44:35.831Z</time></trkpt><trkpt lat="43.1478767" lon="13.1348833"><ele>484.0</ele><time>2026-04-07T12:44:36.83Z</time></trkpt><trkpt lat="43.1478883" lon="13.1347433"><ele>483.1666666666667</ele><time>2026-04-07T12:44:37.831Z</time></trkpt><trkpt lat="43.1478983" lon="13.1346033"><ele>482.33333333333337</ele><time>2026-04-07T12:44:38.831Z</time></trkpt><trkpt lat="43.1479133" lon="13.134475"><ele>481.5</ele><time>2026-04-07T12:44:39.83Z</time></trkpt><trkpt lat="43.1479233" lon="13.134355"><ele>480.66666666666663</ele><time>2026-04-07T12:44:40.83Z</time></trkpt><trkpt lat="43.1479383" lon="13.1342483"><ele>479.8333333333333</ele><time>2026-04-07T12:44:41.831Z</time></trkpt><trkpt lat="43.1479533" lon="13.13415"><ele>479.0</ele><time>2026-04-07T12:44:42.83Z</time></trkpt><trkpt lat="43.1479617" lon="13.134045"><ele>477.16666666666663</ele><time>2026-04-07T12:44:43.83Z</time></trkpt><trkpt lat="43.1479733" lon="13.133935"><ele>475.3333333333333</ele><time>2026-04-07T12:44:44.831Z</time></trkpt><trkpt lat="43.1479817" lon="13.1338167"><ele>473.5</ele><time>2026-04-07T12:44:45.831Z</time></trkpt><trkpt lat="43.1479983" lon="13.1336933"><ele>471.66666666666663</ele><time>2026-04-07T12:44:46.831Z</time></trkpt><trkpt lat="43.148015" lon="13.1335717"><ele>469.8333333333333</ele><time>2026-04-07T12:44:47.831Z</time></trkpt><trkpt lat="43.1480317" lon="13.1334517"><ele>468.0</ele><time>2026-04-07T12:44:48.83Z</time></trkpt><trkpt lat="43.14805" lon="13.13334"><ele>468.0</ele><time>2026-04-07T12:44:49.83Z</time></trkpt><trkpt lat="43.1480783" lon="13.133225"><ele>467.99999999999994</ele><time>2026-04-07T12:44:50.83Z</time></trkpt><trkpt lat="43.148115" lon="13.1331"><ele>467.99999999999994</ele><time>2026-04-07T12:44:51.83Z</time></trkpt><trkpt lat="43.1481583" lon="13.1329783"><ele>468.0</ele><time>2026-04-07T12:44:52.831Z</time></trkpt><trkpt lat="43.1482067" lon="13.1328517"><ele>468.0</ele><time>2026-04-07T12:44:53.831Z</time></trkpt><trkpt lat="43.14825" lon="13.1327333"><ele>466.59999999999997</ele><time>2026-04-07T12:44:54.831Z</time></trkpt><trkpt lat="43.1482967" lon="13.1326117"><ele>465.19999999999993</ele><time>2026-04-07T12:44:55.831Z</time></trkpt><trkpt lat="43.1483433" lon="13.13249"><ele>463.8</ele><time>2026-04-07T12:44:56.83Z</time></trkpt><trkpt lat="43.1483967" lon="13.1323633"><ele>462.4</ele><time>2026-04-07T12:44:57.831Z</time></trkpt><trkpt lat="43.1484467" lon="13.1322333"><ele>461.0</ele><time>2026-04-07T12:44:58.831Z</time></trkpt><trkpt lat="43.1484917" lon="13.1321083"><ele>461.0</ele><time>2026-04-07T12:44:59.831Z</time></trkpt><trkpt lat="43.1485367" lon="13.1319833"><ele>461.0</ele><time>2026-04-07T12:45:00.831Z</time></trkpt><trkpt lat="43.1485817" lon="13.1318633"><ele>461.0</ele><time>2026-04-07T12:45:01.831Z</time></trkpt><trkpt lat="43.148625" lon="13.13174"><ele>461.0</ele><time>2026-04-07T12:45:02.83Z</time></trkpt><trkpt lat="43.14867" lon="13.13162"><ele>461.0</ele><time>2026-04-07T12:45:03.831Z</time></trkpt><trkpt lat="43.1487217" lon="13.13151"><ele>456.4</ele><time>2026-04-07T12:45:04.83Z</time></trkpt><trkpt lat="43.1487717" lon="13.131395"><ele>451.8</ele><time>2026-04-07T12:45:05.831Z</time></trkpt><trkpt lat="43.148825" lon="13.131275"><ele>447.19999999999993</ele><time>2026-04-07T12:45:06.831Z</time></trkpt><trkpt lat="43.1488783" lon="13.1311483"><ele>442.59999999999997</ele><time>2026-04-07T12:45:07.831Z</time></trkpt><trkpt lat="43.1489367" lon="13.1310317"><ele>438.0</ele><time>2026-04-07T12:45:08.831Z</time></trkpt><trkpt lat="43.1489917" lon="13.1309167"><ele>438.0</ele><time>2026-04-07T12:45:09.831Z</time></trkpt><trkpt lat="43.1490367" lon="13.1308067"><ele>437.99999999999994</ele><time>2026-04-07T12:45:10.831Z</time></trkpt><trkpt lat="43.1490867" lon="13.1307"><ele>437.99999999999994</ele><time>2026-04-07T12:45:11.83Z</time></trkpt><trkpt lat="43.14914" lon="13.1305867"><ele>438.0</ele><time>2026-04-07T12:45:12.83Z</time></trkpt><trkpt lat="43.1492017" lon="13.1304633"><ele>438.0</ele><time>2026-04-07T12:45:13.831Z</time></trkpt><trkpt lat="43.1492667" lon="13.1303383"><ele>435.79999999999995</ele><time>2026-04-07T12:45:14.83Z</time></trkpt><trkpt lat="43.1493233" lon="13.1302117"><ele>433.59999999999997</ele><time>2026-04-07T12:45:15.831Z</time></trkpt><trkpt lat="43.1493817" lon="13.1300917"><ele>431.40000000000003</ele><time>2026-04-07T12:45:16.831Z</time></trkpt><trkpt lat="43.1494383" lon="13.1299867"><ele>429.20000000000005</ele><time>2026-04-07T12:45:17.831Z</time></trkpt><trkpt lat="43.1494917" lon="13.129885"><ele>427.0</ele><time>2026-04-07T12:45:18.831Z</time></trkpt><trkpt lat="43.1495433" lon="13.1297867"><ele>427.0</ele><time>2026-04-07T12:45:19.831Z</time></trkpt><trkpt lat="43.1496" lon="13.12969"><ele>427.00000000000006</ele><time>2026-04-07T12:45:20.831Z</time></trkpt><trkpt lat="43.14967" lon="13.1296017"><ele>427.00000000000006</ele><time>2026-04-07T12:45:21.831Z</time></trkpt><trkpt lat="43.1497417" lon="13.1295167"><ele>427.0</ele><time>2026-04-07T12:45:22.83Z</time></trkpt><trkpt lat="43.14982" lon="13.1294333"><ele>427.0</ele><time>2026-04-07T12:45:23.83Z</time></trkpt><trkpt lat="43.1498967" lon="13.129355"><ele>426.0</ele><time>2026-04-07T12:45:24.831Z</time></trkpt><trkpt lat="43.1499733" lon="13.129265"><ele>425.00000000000006</ele><time>2026-04-07T12:45:25.83Z</time></trkpt><trkpt lat="43.15005" lon="13.1291833"><ele>424.0</ele><time>2026-04-07T12:45:26.831Z</time></trkpt><trkpt lat="43.150125" lon="13.1291033"><ele>423.0</ele><time>2026-04-07T12:45:27.831Z</time></trkpt><trkpt lat="43.150205" lon="13.1290333"><ele>422.0</ele><time>2026-04-07T12:45:28.831Z</time></trkpt><trkpt lat="43.150285" lon="13.1289633"><ele>422.0</ele><time>2026-04-07T12:45:29.831Z</time></trkpt><trkpt lat="43.1503633" lon="13.1288983"><ele>422.0</ele><time>2026-04-07T12:45:30.831Z</time></trkpt><trkpt lat="43.15044" lon="13.128835"><ele>422.0</ele><time>2026-04-07T12:45:31.831Z</time></trkpt><trkpt lat="43.1505183" lon="13.128765"><ele>422.0</ele><time>2026-04-07T12:45:32.831Z</time></trkpt><trkpt lat="43.150605" lon="13.1286967"><ele>422.0</ele><time>2026-04-07T12:45:33.831Z</time></trkpt><trkpt lat="43.1507033" lon="13.128635"><ele>425.0</ele><time>2026-04-07T12:45:34.831Z</time></trkpt><trkpt lat="43.150805" lon="13.1285633"><ele>428.0</ele><time>2026-04-07T12:45:35.83Z</time></trkpt><trkpt lat="43.15091" lon="13.1285"><ele>431.00000000000006</ele><time>2026-04-07T12:45:36.831Z</time></trkpt><trkpt lat="43.1510083" lon="13.1284383"><ele>434.0</ele><time>2026-04-07T12:45:37.83Z</time></trkpt><trkpt lat="43.1511" lon="13.1283817"><ele>437.0</ele><time>2026-04-07T12:45:38.831Z</time></trkpt><trkpt lat="43.1511867" lon="13.1283367"><ele>437.0</ele><time>2026-04-07T12:45:39.831Z</time></trkpt><trkpt lat="43.15127" lon="13.128295"><ele>437.00000000000006</ele><time>2026-04-07T12:45:40.831Z</time></trkpt><trkpt lat="43.1513517" lon="13.12825"><ele>437.00000000000006</ele><time>2026-04-07T12:45:41.831Z</time></trkpt><trkpt lat="43.15143" lon="13.1282017"><ele>437.0</ele><time>2026-04-07T12:45:42.831Z</time></trkpt><trkpt lat="43.1515133" lon="13.12814"><ele>437.0</ele><time>2026-04-07T12:45:43.83Z</time></trkpt><trkpt lat="43.15159" lon="13.1280667"><ele>435.6</ele><time>2026-04-07T12:45:44.831Z</time></trkpt><trkpt lat="43.1516533" lon="13.127975"><ele>434.20000000000005</ele><time>2026-04-07T12:45:45.83Z</time></trkpt><trkpt lat="43.1517117" lon="13.127875"><ele>432.8</ele><time>2026-04-07T12:45:46.83Z</time></trkpt><trkpt lat="43.15176" lon="13.1277633"><ele>431.4</ele><time>2026-04-07T12:45:47.831Z</time></trkpt><trkpt lat="43.1518117" lon="13.1276483"><ele>430.0</ele><time>2026-04-07T12:45:48.831Z</time></trkpt><trkpt lat="43.1518617" lon="13.1275333"><ele>430.0</ele><time>2026-04-07T12:45:49.83Z</time></trkpt><trkpt lat="43.1519117" lon="13.127425"><ele>430.0</ele><time>2026-04-07T12:45:50.831Z</time></trkpt><trkpt lat="43.1519633" lon="13.1273133"><ele>430.0</ele><time>2026-04-07T12:45:51.831Z</time></trkpt><trkpt lat="43.1520233" lon="13.1271967"><ele>430.0</ele><time>2026-04-07T12:45:52.831Z</time></trkpt><trkpt lat="43.1520833" lon="13.1270767"><ele>430.0</ele><time>2026-04-07T12:45:53.831Z</time></trkpt><trkpt lat="43.1521433" lon="13.1269717"><ele>430.4</ele><time>2026-04-07T12:45:54.831Z</time></trkpt><trkpt lat="43.1522083" lon="13.126875"><ele>430.8</ele><time>2026-04-07T12:45:55.83Z</time></trkpt><trkpt lat="43.1522817" lon="13.1267833"><ele>431.20000000000005</ele><time>2026-04-07T12:45:56.831Z</time></trkpt><trkpt lat="43.1523667" lon="13.1266883"><ele>431.6</ele><time>2026-04-07T12:45:57.831Z</time></trkpt><trkpt lat="43.1524633" lon="13.1266133"><ele>432.0</ele><time>2026-04-07T12:45:58.831Z</time></trkpt><trkpt lat="43.1525683" lon="13.1265433"><ele>431.20000000000005</ele><time>2026-04-07T12:45:59.831Z</time></trkpt><trkpt lat="43.1526683" lon="13.1264667"><ele>430.40000000000003</ele><time>2026-04-07T12:46:00.83Z</time></trkpt><trkpt lat="43.1527467" lon="13.1263883"><ele>429.59999999999997</ele><time>2026-04-07T12:46:01.831Z</time></trkpt><trkpt lat="43.1528183" lon="13.1262967"><ele>428.79999999999995</ele><time>2026-04-07T12:46:02.831Z</time></trkpt><trkpt lat="43.15289" lon="13.1261767"><ele>428.0</ele><time>2026-04-07T12:46:03.831Z</time></trkpt><trkpt lat="43.1529467" lon="13.1260533"><ele>427.99999999999994</ele><time>2026-04-07T12:46:04.83Z</time></trkpt><trkpt lat="43.1529917" lon="13.1259367"><ele>428.0</ele><time>2026-04-07T12:46:05.831Z</time></trkpt><trkpt lat="43.153035" lon="13.1258167"><ele>428.0</ele><time>2026-04-07T12:46:06.831Z</time></trkpt><trkpt lat="43.1530733" lon="13.1256967"><ele>428.0</ele><time>2026-04-07T12:46:07.83Z</time></trkpt><trkpt lat="43.1531" lon="13.1255917"><ele>427.99999999999994</ele><time>2026-04-07T12:46:08.831Z</time></trkpt><trkpt lat="43.15312" lon="13.1254983"><ele>428.0</ele><time>2026-04-07T12:46:09.831Z</time></trkpt><trkpt lat="43.153145" lon="13.1253383"><ele>429.4</ele><time>2026-04-07T12:46:11.83Z</time></trkpt><trkpt lat="43.1531533" lon="13.12517"><ele>430.79999999999995</ele><time>2026-04-07T12:46:13.831Z</time></trkpt><trkpt lat="43.1531867" lon="13.12502"><ele>432.2</ele><time>2026-04-07T12:46:15.831Z</time></trkpt><trkpt lat="43.15322" lon="13.124925"><ele>433.6</ele><time>2026-04-07T12:46:16.831Z</time></trkpt><trkpt lat="43.153255" lon="13.1248417"><ele>435.0</ele><time>2026-04-07T12:46:17.83Z</time></trkpt><trkpt lat="43.1532917" lon="13.12475"><ele>435.0</ele><time>2026-04-07T12:46:18.831Z</time></trkpt><trkpt lat="43.1533217" lon="13.12465"><ele>435.0</ele><time>2026-04-07T12:46:19.831Z</time></trkpt><trkpt lat="43.1533567" lon="13.1245483"><ele>435.0</ele><time>2026-04-07T12:46:20.831Z</time></trkpt><trkpt lat="43.15339" lon="13.1244483"><ele>435.0</ele><time>2026-04-07T12:46:21.83Z</time></trkpt><trkpt lat="43.1534183" lon="13.1243417"><ele>435.0</ele><time>2026-04-07T12:46:22.83Z</time></trkpt><trkpt lat="43.1534433" lon="13.124245"><ele>435.0</ele><time>2026-04-07T12:46:23.83Z</time></trkpt><trkpt lat="43.1534683" lon="13.1241417"><ele>436.8571428571429</ele><time>2026-04-07T12:46:24.831Z</time></trkpt><trkpt lat="43.1535" lon="13.1240517"><ele>438.7142857142857</ele><time>2026-04-07T12:46:25.831Z</time></trkpt><trkpt lat="43.1535417" lon="13.12397"><ele>440.57142857142856</ele><time>2026-04-07T12:46:26.831Z</time></trkpt><trkpt lat="43.15359" lon="13.1238983"><ele>442.42857142857144</ele><time>2026-04-07T12:46:27.831Z</time></trkpt><trkpt lat="43.1536467" lon="13.1238333"><ele>444.2857142857143</ele><time>2026-04-07T12:46:28.83Z</time></trkpt><trkpt lat="43.1537033" lon="13.1237817"><ele>446.14285714285717</ele><time>2026-04-07T12:46:29.83Z</time></trkpt><trkpt lat="43.15377" lon="13.123745"><ele>448.0</ele><time>2026-04-07T12:46:30.831Z</time></trkpt><trkpt lat="43.15384" lon="13.12371"><ele>448.00000000000006</ele><time>2026-04-07T12:46:31.831Z</time></trkpt><trkpt lat="43.15391" lon="13.1236517"><ele>448.0</ele><time>2026-04-07T12:46:32.831Z</time></trkpt><trkpt lat="43.1539783" lon="13.1235917"><ele>448.0</ele><time>2026-04-07T12:46:33.831Z</time></trkpt><trkpt lat="43.1540367" lon="13.1235133"><ele>448.0</ele><time>2026-04-07T12:46:34.831Z</time></trkpt><trkpt lat="43.1540783" lon="13.1234233"><ele>448.00000000000006</ele><time>2026-04-07T12:46:35.831Z</time></trkpt><trkpt lat="43.1541117" lon="13.1233233"><ele>448.0</ele><time>2026-04-07T12:46:36.831Z</time></trkpt><trkpt lat="43.15414" lon="13.1232167"><ele>446.59999999999997</ele><time>2026-04-07T12:46:37.831Z</time></trkpt><trkpt lat="43.1541783" lon="13.1231"><ele>445.19999999999993</ele><time>2026-04-07T12:46:38.831Z</time></trkpt><trkpt lat="43.1542367" lon="13.1229967"><ele>443.8</ele><time>2026-04-07T12:46:39.83Z</time></trkpt><trkpt lat="43.1542933" lon="13.122895"><ele>442.4</ele><time>2026-04-07T12:46:40.83Z</time></trkpt><trkpt lat="43.154345" lon="13.1227967"><ele>441.0</ele><time>2026-04-07T12:46:41.831Z</time></trkpt><trkpt lat="43.15439" lon="13.1226967"><ele>441.0</ele><time>2026-04-07T12:46:42.831Z</time></trkpt><trkpt lat="43.15443" lon="13.1226017"><ele>441.0</ele><time>2026-04-07T12:46:43.831Z</time></trkpt><trkpt lat="43.1544717" lon="13.1225067"><ele>441.0</ele><time>2026-04-07T12:46:44.831Z</time></trkpt><trkpt lat="43.1545133" lon="13.1224133"><ele>441.0</ele><time>2026-04-07T12:46:45.831Z</time></trkpt><trkpt lat="43.1545517" lon="13.1223183"><ele>441.0</ele><time>2026-04-07T12:46:46.83Z</time></trkpt><trkpt lat="43.1545867" lon="13.1222317"><ele>441.0</ele><time>2026-04-07T12:46:47.83Z</time></trkpt><trkpt lat="43.15462" lon="13.1221267"><ele>443.1666666666667</ele><time>2026-04-07T12:46:48.831Z</time></trkpt><trkpt lat="43.15464" lon="13.122015"><ele>445.33333333333337</ele><time>2026-04-07T12:46:49.831Z</time></trkpt><trkpt lat="43.154655" lon="13.1219017"><ele>447.5</ele><time>2026-04-07T12:46:50.83Z</time></trkpt><trkpt lat="43.1546717" lon="13.121795"><ele>449.6666666666667</ele><time>2026-04-07T12:46:51.831Z</time></trkpt><trkpt lat="43.1546917" lon="13.1216883"><ele>451.83333333333337</ele><time>2026-04-07T12:46:52.831Z</time></trkpt><trkpt lat="43.1547183" lon="13.121585"><ele>454.0</ele><time>2026-04-07T12:46:53.83Z</time></trkpt><trkpt lat="43.1547597" lon="13.1214934"><ele>452.4</ele><time>2026-04-07T12:46:54.831Z</time></trkpt><trkpt lat="43.1548066" lon="13.1214088"><ele>450.79999999999995</ele><time>2026-04-07T12:46:55.83Z</time></trkpt><trkpt lat="43.1548484" lon="13.1213388"><ele>449.20000000000005</ele><time>2026-04-07T12:46:56.831Z</time></trkpt><trkpt lat="43.1549195" lon="13.1212071"><ele>447.6</ele><time>2026-04-07T12:46:58.831Z</time></trkpt><trkpt lat="43.154961" lon="13.1210577"><ele>446.0</ele><time>2026-04-07T12:47:00.831Z</time></trkpt><trkpt lat="43.1549889" lon="13.1208871"><ele>445.99999999999994</ele><time>2026-04-07T12:47:02.831Z</time></trkpt><trkpt lat="43.1550189" lon="13.1208001"><ele>446.0</ele><time>2026-04-07T12:47:03.831Z</time></trkpt><trkpt lat="43.155054" lon="13.1207063"><ele>446.0</ele><time>2026-04-07T12:47:04.831Z</time></trkpt><trkpt lat="43.1550996" lon="13.1206209"><ele>446.0</ele><time>2026-04-07T12:47:05.831Z</time></trkpt><trkpt lat="43.1551558" lon="13.1205385"><ele>445.99999999999994</ele><time>2026-04-07T12:47:06.831Z</time></trkpt><trkpt lat="43.1552171" lon="13.1204564"><ele>446.0</ele><time>2026-04-07T12:47:07.831Z</time></trkpt><trkpt lat="43.1552768" lon="13.1203772"><ele>446.57142857142856</ele><time>2026-04-07T12:47:08.831Z</time></trkpt><trkpt lat="43.1553321" lon="13.1203072"><ele>447.1428571428571</ele><time>2026-04-07T12:47:09.83Z</time></trkpt><trkpt lat="43.1553828" lon="13.1202357"><ele>447.7142857142858</ele><time>2026-04-07T12:47:10.831Z</time></trkpt><trkpt lat="43.1554395" lon="13.1201582"><ele>448.28571428571433</ele><time>2026-04-07T12:47:11.831Z</time></trkpt><trkpt lat="43.1554945" lon="13.1200907"><ele>448.8571428571429</ele><time>2026-04-07T12:47:12.831Z</time></trkpt><trkpt lat="43.1555514" lon="13.1200423"><ele>449.4285714285715</ele><time>2026-04-07T12:47:13.831Z</time></trkpt><trkpt lat="43.1556087" lon="13.1199943"><ele>450.00000000000006</ele><time>2026-04-07T12:47:14.831Z</time></trkpt><trkpt lat="43.1556645" lon="13.1199449"><ele>451.28571428571433</ele><time>2026-04-07T12:47:15.83Z</time></trkpt><trkpt lat="43.1557224" lon="13.1198988"><ele>452.57142857142856</ele><time>2026-04-07T12:47:16.831Z</time></trkpt><trkpt lat="43.1557772" lon="13.1198525"><ele>453.8571428571429</ele><time>2026-04-07T12:47:17.831Z</time></trkpt><trkpt lat="43.1558332" lon="13.1198056"><ele>455.14285714285717</ele><time>2026-04-07T12:47:18.831Z</time></trkpt><trkpt lat="43.1558927" lon="13.1197564"><ele>456.42857142857144</ele><time>2026-04-07T12:47:19.831Z</time></trkpt><trkpt lat="43.1559541" lon="13.1197172"><ele>457.7142857142857</ele><time>2026-04-07T12:47:20.83Z</time></trkpt><trkpt lat="43.156015" lon="13.1196891"><ele>459.0</ele><time>2026-04-07T12:47:21.831Z</time></trkpt><trkpt lat="43.1560826" lon="13.1196515"><ele>459.0</ele><time>2026-04-07T12:47:22.831Z</time></trkpt><trkpt lat="43.156154" lon="13.1195975"><ele>459.0</ele><time>2026-04-07T12:47:23.831Z</time></trkpt><trkpt lat="43.1562241" lon="13.1195271"><ele>459.0</ele><time>2026-04-07T12:47:24.831Z</time></trkpt><trkpt lat="43.1562871" lon="13.1194406"><ele>459.0</ele><time>2026-04-07T12:47:25.831Z</time></trkpt><trkpt lat="43.1563444" lon="13.1193601"><ele>459.0</ele><time>2026-04-07T12:47:26.831Z</time></trkpt><trkpt lat="43.1564" lon="13.1192783"><ele>459.0</ele><time>2026-04-07T12:47:27.831Z</time></trkpt><trkpt lat="43.1564583" lon="13.1191967"><ele>459.0</ele><time>2026-04-07T12:47:28.83Z</time></trkpt><trkpt lat="43.1565183" lon="13.119115"><ele>459.0</ele><time>2026-04-07T12:47:29.831Z</time></trkpt><trkpt lat="43.1565717" lon="13.119055"><ele>459.0</ele><time>2026-04-07T12:47:30.831Z</time></trkpt><trkpt lat="43.15668" lon="13.1189783"><ele>459.0</ele><time>2026-04-07T12:47:32.83Z</time></trkpt><trkpt lat="43.1567517" lon="13.1189533"><ele>459.0</ele><time>2026-04-07T12:47:33.83Z</time></trkpt><trkpt lat="43.156825" lon="13.1189267"><ele>459.0</ele><time>2026-04-07T12:47:34.83Z</time></trkpt><trkpt lat="43.156905" lon="13.1189067"><ele>459.1666666666667</ele><time>2026-04-07T12:47:35.831Z</time></trkpt><trkpt lat="43.156985" lon="13.1188817"><ele>459.33333333333337</ele><time>2026-04-07T12:47:36.831Z</time></trkpt><trkpt lat="43.157065" lon="13.118855"><ele>459.5</ele><time>2026-04-07T12:47:37.831Z</time></trkpt><trkpt lat="43.1571533" lon="13.1188317"><ele>459.6666666666667</ele><time>2026-04-07T12:47:38.831Z</time></trkpt><trkpt lat="43.15724" lon="13.1188"><ele>459.83333333333337</ele><time>2026-04-07T12:47:39.83Z</time></trkpt><trkpt lat="43.1573217" lon="13.11877"><ele>460.0</ele><time>2026-04-07T12:47:40.831Z</time></trkpt><trkpt lat="43.1574033" lon="13.1187433"><ele>460.00000000000006</ele><time>2026-04-07T12:47:41.83Z</time></trkpt><trkpt lat="43.1574683" lon="13.118715"><ele>460.0</ele><time>2026-04-07T12:47:42.831Z</time></trkpt><trkpt lat="43.1575317" lon="13.11869"><ele>460.0</ele><time>2026-04-07T12:47:43.831Z</time></trkpt><trkpt lat="43.15766" lon="13.1186167"><ele>460.0</ele><time>2026-04-07T12:47:45.831Z</time></trkpt><trkpt lat="43.1577333" lon="13.118565"><ele>460.00000000000006</ele><time>2026-04-07T12:47:46.831Z</time></trkpt><trkpt lat="43.1578117" lon="13.1184983"><ele>460.0</ele><time>2026-04-07T12:47:47.831Z</time></trkpt><trkpt lat="43.1578717" lon="13.11842"><ele>460.00000000000006</ele><time>2026-04-07T12:47:48.831Z</time></trkpt><trkpt lat="43.1579367" lon="13.118335"><ele>460.0</ele><time>2026-04-07T12:47:49.831Z</time></trkpt><trkpt lat="43.1579933" lon="13.1182467"><ele>460.0</ele><time>2026-04-07T12:47:50.831Z</time></trkpt><trkpt lat="43.1580367" lon="13.118155"><ele>460.0</ele><time>2026-04-07T12:47:51.831Z</time></trkpt><trkpt lat="43.1580833" lon="13.11806"><ele>460.00000000000006</ele><time>2026-04-07T12:47:52.83Z</time></trkpt><trkpt lat="43.1581217" lon="13.1179717"><ele>460.0</ele><time>2026-04-07T12:47:53.831Z</time></trkpt><trkpt lat="43.1581683" lon="13.1179"><ele>462.1666666666667</ele><time>2026-04-07T12:47:54.831Z</time></trkpt><trkpt lat="43.1582733" lon="13.1178133"><ele>464.33333333333337</ele><time>2026-04-07T12:47:56.831Z</time></trkpt><trkpt lat="43.1583417" lon="13.1177983"><ele>466.5</ele><time>2026-04-07T12:47:57.83Z</time></trkpt><trkpt lat="43.158415" lon="13.11781"><ele>468.66666666666663</ele><time>2026-04-07T12:47:58.831Z</time></trkpt><trkpt lat="43.158485" lon="13.1178233"><ele>470.8333333333333</ele><time>2026-04-07T12:47:59.831Z</time></trkpt><trkpt lat="43.1585717" lon="13.1178383"><ele>473.0</ele><time>2026-04-07T12:48:00.831Z</time></trkpt><trkpt lat="43.1586517" lon="13.11785"><ele>472.99999999999994</ele><time>2026-04-07T12:48:01.831Z</time></trkpt><trkpt lat="43.1587333" lon="13.1178517"><ele>473.0</ele><time>2026-04-07T12:48:02.83Z</time></trkpt><trkpt lat="43.15881" lon="13.1178433"><ele>473.0</ele><time>2026-04-07T12:48:03.831Z</time></trkpt><trkpt lat="43.15888" lon="13.11782"><ele>473.0</ele><time>2026-04-07T12:48:04.83Z</time></trkpt><trkpt lat="43.1589433" lon="13.1177817"><ele>472.99999999999994</ele><time>2026-04-07T12:48:05.831Z</time></trkpt><trkpt lat="43.159005" lon="13.1177233"><ele>473.0</ele><time>2026-04-07T12:48:06.831Z</time></trkpt><trkpt lat="43.15907" lon="13.11765"><ele>471.8333333333333</ele><time>2026-04-07T12:48:07.831Z</time></trkpt><trkpt lat="43.159135" lon="13.11758"><ele>470.66666666666663</ele><time>2026-04-07T12:48:08.831Z</time></trkpt><trkpt lat="43.1592067" lon="13.1175067"><ele>469.5</ele><time>2026-04-07T12:48:09.831Z</time></trkpt><trkpt lat="43.1592783" lon="13.117445"><ele>468.33333333333337</ele><time>2026-04-07T12:48:10.831Z</time></trkpt><trkpt lat="43.15936" lon="13.1173883"><ele>467.1666666666667</ele><time>2026-04-07T12:48:11.83Z</time></trkpt><trkpt lat="43.15944" lon="13.11733"><ele>466.0</ele><time>2026-04-07T12:48:12.831Z</time></trkpt><trkpt lat="43.1595067" lon="13.1172633"><ele>466.6666666666667</ele><time>2026-04-07T12:48:13.831Z</time></trkpt><trkpt lat="43.1595717" lon="13.1171867"><ele>467.33333333333337</ele><time>2026-04-07T12:48:14.831Z</time></trkpt><trkpt lat="43.1596333" lon="13.1171"><ele>468.0</ele><time>2026-04-07T12:48:15.831Z</time></trkpt><trkpt lat="43.1596917" lon="13.1170117"><ele>468.66666666666663</ele><time>2026-04-07T12:48:16.831Z</time></trkpt><trkpt lat="43.1597567" lon="13.1169283"><ele>469.3333333333333</ele><time>2026-04-07T12:48:17.831Z</time></trkpt><trkpt lat="43.159825" lon="13.1168533"><ele>470.0</ele><time>2026-04-07T12:48:18.831Z</time></trkpt><trkpt lat="43.159895" lon="13.1167883"><ele>470.0</ele><time>2026-04-07T12:48:19.831Z</time></trkpt><trkpt lat="43.159975" lon="13.1167183"><ele>470.0</ele><time>2026-04-07T12:48:20.831Z</time></trkpt><trkpt lat="43.16006" lon="13.11665"><ele>470.0</ele><time>2026-04-07T12:48:21.83Z</time></trkpt><trkpt lat="43.1601517" lon="13.1165783"><ele>470.0</ele><time>2026-04-07T12:48:22.831Z</time></trkpt><trkpt lat="43.16023" lon="13.1164967"><ele>470.0</ele><time>2026-04-07T12:48:23.831Z</time></trkpt><trkpt lat="43.1602983" lon="13.1164133"><ele>470.66666666666663</ele><time>2026-04-07T12:48:24.831Z</time></trkpt><trkpt lat="43.1603667" lon="13.1163283"><ele>471.3333333333333</ele><time>2026-04-07T12:48:25.831Z</time></trkpt><trkpt lat="43.1604333" lon="13.116255"><ele>472.0</ele><time>2026-04-07T12:48:26.831Z</time></trkpt><trkpt lat="43.1605" lon="13.1161917"><ele>472.66666666666663</ele><time>2026-04-07T12:48:27.83Z</time></trkpt><trkpt lat="43.16057" lon="13.1161433"><ele>473.3333333333333</ele><time>2026-04-07T12:48:28.83Z</time></trkpt><trkpt lat="43.1606367" lon="13.1161233"><ele>474.0</ele><time>2026-04-07T12:48:29.831Z</time></trkpt><trkpt lat="43.1607083" lon="13.11613"><ele>474.0</ele><time>2026-04-07T12:48:30.831Z</time></trkpt><trkpt lat="43.1607933" lon="13.1161383"><ele>474.0</ele><time>2026-04-07T12:48:31.831Z</time></trkpt><trkpt lat="43.160875" lon="13.1161317"><ele>474.0</ele><time>2026-04-07T12:48:32.831Z</time></trkpt><trkpt lat="43.1609667" lon="13.116125"><ele>474.0</ele><time>2026-04-07T12:48:33.831Z</time></trkpt><trkpt lat="43.1610467" lon="13.1161083"><ele>474.0</ele><time>2026-04-07T12:48:34.83Z</time></trkpt><trkpt lat="43.1611183" lon="13.1161117"><ele>474.0</ele><time>2026-04-07T12:48:35.83Z</time></trkpt><trkpt lat="43.1612033" lon="13.11613"><ele>474.0</ele><time>2026-04-07T12:48:36.831Z</time></trkpt><trkpt lat="43.1612917" lon="13.1161517"><ele>474.0</ele><time>2026-04-07T12:48:37.831Z</time></trkpt><trkpt lat="43.1613767" lon="13.1161767"><ele>474.0</ele><time>2026-04-07T12:48:38.831Z</time></trkpt><trkpt lat="43.1614667" lon="13.1161933"><ele>474.0</ele><time>2026-04-07T12:48:39.83Z</time></trkpt><trkpt lat="43.161535" lon="13.116215"><ele>474.0</ele><time>2026-04-07T12:48:40.83Z</time></trkpt><trkpt lat="43.1616167" lon="13.11622"><ele>474.0</ele><time>2026-04-07T12:48:41.83Z</time></trkpt><trkpt lat="43.1616817" lon="13.116225"><ele>474.6</ele><time>2026-04-07T12:48:42.831Z</time></trkpt><trkpt lat="43.1617767" lon="13.116225"><ele>475.2</ele><time>2026-04-07T12:48:44.831Z</time></trkpt><trkpt lat="43.1618983" lon="13.1162183"><ele>475.80000000000007</ele><time>2026-04-07T12:48:46.831Z</time></trkpt><trkpt lat="43.1619767" lon="13.116205"><ele>476.40000000000003</ele><time>2026-04-07T12:48:47.831Z</time></trkpt><trkpt lat="43.162065" lon="13.1161917"><ele>477.0</ele><time>2026-04-07T12:48:48.831Z</time></trkpt><trkpt lat="43.1621533" lon="13.1161817"><ele>477.0</ele><time>2026-04-07T12:48:49.831Z</time></trkpt><trkpt lat="43.1622483" lon="13.11616"><ele>477.0</ele><time>2026-04-07T12:48:50.83Z</time></trkpt><trkpt lat="43.1623317" lon="13.1161417"><ele>477.0</ele><time>2026-04-07T12:48:51.83Z</time></trkpt><trkpt lat="43.1624117" lon="13.1161167"><ele>477.0</ele><time>2026-04-07T12:48:52.831Z</time></trkpt><trkpt lat="43.1624883" lon="13.1160833"><ele>477.0</ele><time>2026-04-07T12:48:53.83Z</time></trkpt><trkpt lat="43.162555" lon="13.1160567"><ele>477.0</ele><time>2026-04-07T12:48:54.831Z</time></trkpt><trkpt lat="43.16263" lon="13.1160183"><ele>478.8</ele><time>2026-04-07T12:48:55.831Z</time></trkpt><trkpt lat="43.1627183" lon="13.1159767"><ele>480.6</ele><time>2026-04-07T12:48:56.831Z</time></trkpt><trkpt lat="43.1628117" lon="13.1159383"><ele>482.40000000000003</ele><time>2026-04-07T12:48:57.831Z</time></trkpt><trkpt lat="43.1628933" lon="13.1158933"><ele>484.20000000000005</ele><time>2026-04-07T12:48:58.831Z</time></trkpt><trkpt lat="43.1629617" lon="13.1158617"><ele>486.0</ele><time>2026-04-07T12:48:59.831Z</time></trkpt><trkpt lat="43.163095" lon="13.11585"><ele>486.0</ele><time>2026-04-07T12:49:01.831Z</time></trkpt><trkpt lat="43.1631717" lon="13.115855"><ele>486.0</ele><time>2026-04-07T12:49:02.83Z</time></trkpt><trkpt lat="43.16325" lon="13.11587"><ele>486.0</ele><time>2026-04-07T12:49:03.831Z</time></trkpt><trkpt lat="43.1633317" lon="13.1159"><ele>486.0</ele><time>2026-04-07T12:49:04.831Z</time></trkpt><trkpt lat="43.16342" lon="13.115935"><ele>486.0</ele><time>2026-04-07T12:49:05.831Z</time></trkpt><trkpt lat="43.1635133" lon="13.1159783"><ele>486.0</ele><time>2026-04-07T12:49:06.831Z</time></trkpt><trkpt lat="43.1636233" lon="13.1160017"><ele>486.8</ele><time>2026-04-07T12:49:07.83Z</time></trkpt><trkpt lat="43.163725" lon="13.1160233"><ele>487.6</ele><time>2026-04-07T12:49:08.831Z</time></trkpt><trkpt lat="43.1638367" lon="13.1160333"><ele>488.4</ele><time>2026-04-07T12:49:09.83Z</time></trkpt><trkpt lat="43.163945" lon="13.1160517"><ele>489.2</ele><time>2026-04-07T12:49:10.831Z</time></trkpt><trkpt lat="43.1640533" lon="13.1160567"><ele>490.0</ele><time>2026-04-07T12:49:11.831Z</time></trkpt><trkpt lat="43.1641683" lon="13.1160417"><ele>491.0</ele><time>2026-04-07T12:49:12.831Z</time></trkpt><trkpt lat="43.1642717" lon="13.116035"><ele>492.0</ele><time>2026-04-07T12:49:13.831Z</time></trkpt><trkpt lat="43.1643617" lon="13.1160217"><ele>493.0</ele><time>2026-04-07T12:49:14.83Z</time></trkpt><trkpt lat="43.1644483" lon="13.11601"><ele>494.0</ele><time>2026-04-07T12:49:15.83Z</time></trkpt><trkpt lat="43.1645367" lon="13.1159867"><ele>495.0</ele><time>2026-04-07T12:49:16.83Z</time></trkpt><trkpt lat="43.164615" lon="13.1159633"><ele>495.0</ele><time>2026-04-07T12:49:17.83Z</time></trkpt><trkpt lat="43.1646917" lon="13.1159433"><ele>495.0</ele><time>2026-04-07T12:49:18.83Z</time></trkpt><trkpt lat="43.164765" lon="13.1159333"><ele>495.0</ele><time>2026-04-07T12:49:19.831Z</time></trkpt><trkpt lat="43.1648417" lon="13.1159217"><ele>495.0</ele><time>2026-04-07T12:49:20.831Z</time></trkpt><trkpt lat="43.1649267" lon="13.1159167"><ele>495.0</ele><time>2026-04-07T12:49:21.831Z</time></trkpt><trkpt lat="43.1650233" lon="13.1159183"><ele>495.0</ele><time>2026-04-07T12:49:22.831Z</time></trkpt><trkpt lat="43.1651233" lon="13.115935"><ele>496.6</ele><time>2026-04-07T12:49:23.83Z</time></trkpt><trkpt lat="43.16522" lon="13.1159617"><ele>498.2</ele><time>2026-04-07T12:49:24.831Z</time></trkpt><trkpt lat="43.1653183" lon="13.1159883"><ele>499.79999999999995</ele><time>2026-04-07T12:49:25.831Z</time></trkpt><trkpt lat="43.1654183" lon="13.11601"><ele>501.4</ele><time>2026-04-07T12:49:26.831Z</time></trkpt><trkpt lat="43.1655217" lon="13.1160283"><ele>503.0</ele><time>2026-04-07T12:49:27.831Z</time></trkpt><trkpt lat="43.1656267" lon="13.116055"><ele>503.79999999999995</ele><time>2026-04-07T12:49:28.83Z</time></trkpt><trkpt lat="43.1657383" lon="13.1160817"><ele>504.59999999999997</ele><time>2026-04-07T12:49:29.831Z</time></trkpt><trkpt lat="43.1658483" lon="13.116125"><ele>505.40000000000003</ele><time>2026-04-07T12:49:30.831Z</time></trkpt><trkpt lat="43.165955" lon="13.1161617"><ele>506.20000000000005</ele><time>2026-04-07T12:49:31.831Z</time></trkpt><trkpt lat="43.1660517" lon="13.11621"><ele>507.0</ele><time>2026-04-07T12:49:32.83Z</time></trkpt><trkpt lat="43.1661367" lon="13.1162533"><ele>507.0</ele><time>2026-04-07T12:49:33.831Z</time></trkpt><trkpt lat="43.1662267" lon="13.1162683"><ele>507.00000000000006</ele><time>2026-04-07T12:49:34.831Z</time></trkpt><trkpt lat="43.166325" lon="13.1162683"><ele>507.00000000000006</ele><time>2026-04-07T12:49:35.831Z</time></trkpt><trkpt lat="43.16642" lon="13.11626"><ele>507.0</ele><time>2026-04-07T12:49:36.831Z</time></trkpt><trkpt lat="43.16652" lon="13.116245"><ele>507.0</ele><time>2026-04-07T12:49:37.831Z</time></trkpt><trkpt lat="43.16662" lon="13.116225"><ele>507.0</ele><time>2026-04-07T12:49:38.83Z</time></trkpt><trkpt lat="43.166715" lon="13.1162067"><ele>507.00000000000006</ele><time>2026-04-07T12:49:39.831Z</time></trkpt><trkpt lat="43.166805" lon="13.1161967"><ele>507.00000000000006</ele><time>2026-04-07T12:49:40.831Z</time></trkpt><trkpt lat="43.16689" lon="13.1161767"><ele>507.0</ele><time>2026-04-07T12:49:41.831Z</time></trkpt><trkpt lat="43.166975" lon="13.11617"><ele>507.0</ele><time>2026-04-07T12:49:42.83Z</time></trkpt><trkpt lat="43.16707" lon="13.1161717"><ele>507.0</ele><time>2026-04-07T12:49:43.83Z</time></trkpt><trkpt lat="43.1671667" lon="13.1161833"><ele>507.00000000000006</ele><time>2026-04-07T12:49:44.831Z</time></trkpt><trkpt lat="43.1672617" lon="13.116195"><ele>507.00000000000006</ele><time>2026-04-07T12:49:45.831Z</time></trkpt><trkpt lat="43.1673567" lon="13.1161967"><ele>507.0</ele><time>2026-04-07T12:49:46.83Z</time></trkpt><trkpt lat="43.1674533" lon="13.1161983"><ele>507.0</ele><time>2026-04-07T12:49:47.831Z</time></trkpt><trkpt lat="43.1675583" lon="13.116205"><ele>508.0</ele><time>2026-04-07T12:49:48.831Z</time></trkpt><trkpt lat="43.16766" lon="13.1162067"><ele>509.00000000000006</ele><time>2026-04-07T12:49:49.831Z</time></trkpt><trkpt lat="43.1677633" lon="13.1162217"><ele>510.00000000000006</ele><time>2026-04-07T12:49:50.831Z</time></trkpt><trkpt lat="43.1678683" lon="13.1162467"><ele>511.0</ele><time>2026-04-07T12:49:51.831Z</time></trkpt><trkpt lat="43.1679733" lon="13.1162767"><ele>512.0</ele><time>2026-04-07T12:49:52.831Z</time></trkpt><trkpt lat="43.168075" lon="13.1163133"><ele>512.0</ele><time>2026-04-07T12:49:53.831Z</time></trkpt><trkpt lat="43.1681767" lon="13.11634"><ele>512.0</ele><time>2026-04-07T12:49:54.83Z</time></trkpt><trkpt lat="43.16827" lon="13.1163667"><ele>512.0</ele><time>2026-04-07T12:49:55.831Z</time></trkpt><trkpt lat="43.1683667" lon="13.1164"><ele>512.0</ele><time>2026-04-07T12:49:56.83Z</time></trkpt><trkpt lat="43.168455" lon="13.1164417"><ele>512.0</ele><time>2026-04-07T12:49:57.83Z</time></trkpt><trkpt lat="43.1685483" lon="13.11649"><ele>513.4</ele><time>2026-04-07T12:49:58.831Z</time></trkpt><trkpt lat="43.168645" lon="13.1165383"><ele>514.8000000000001</ele><time>2026-04-07T12:49:59.831Z</time></trkpt><trkpt lat="43.168735" lon="13.1165933"><ele>516.2</ele><time>2026-04-07T12:50:00.831Z</time></trkpt><trkpt lat="43.1688267" lon="13.11665"><ele>517.6</ele><time>2026-04-07T12:50:01.831Z</time></trkpt><trkpt lat="43.1689183" lon="13.1167183"><ele>519.0</ele><time>2026-04-07T12:50:02.831Z</time></trkpt><trkpt lat="43.1690133" lon="13.11678"><ele>521.8</ele><time>2026-04-07T12:50:03.831Z</time></trkpt><trkpt lat="43.1691167" lon="13.1168367"><ele>524.5999999999999</ele><time>2026-04-07T12:50:04.83Z</time></trkpt><trkpt lat="43.16922" lon="13.1168867"><ele>527.4</ele><time>2026-04-07T12:50:05.831Z</time></trkpt><trkpt lat="43.1693217" lon="13.1169217"><ele>530.1999999999999</ele><time>2026-04-07T12:50:06.831Z</time></trkpt><trkpt lat="43.169435" lon="13.1169533"><ele>533.0</ele><time>2026-04-07T12:50:07.831Z</time></trkpt><trkpt lat="43.1695433" lon="13.1169817"><ele>533.0</ele><time>2026-04-07T12:50:08.831Z</time></trkpt><trkpt lat="43.1696533" lon="13.117005"><ele>533.0</ele><time>2026-04-07T12:50:09.831Z</time></trkpt><trkpt lat="43.1697633" lon="13.117025"><ele>533.0</ele><time>2026-04-07T12:50:10.831Z</time></trkpt><trkpt lat="43.1698717" lon="13.117045"><ele>533.0</ele><time>2026-04-07T12:50:11.831Z</time></trkpt><trkpt lat="43.1699867" lon="13.11707"><ele>533.0</ele><time>2026-04-07T12:50:12.831Z</time></trkpt><trkpt lat="43.1700917" lon="13.1170917"><ele>532.1999999999999</ele><time>2026-04-07T12:50:13.831Z</time></trkpt><trkpt lat="43.1701917" lon="13.1171267"><ele>531.4</ele><time>2026-04-07T12:50:14.83Z</time></trkpt><trkpt lat="43.1702967" lon="13.1171533"><ele>530.5999999999999</ele><time>2026-04-07T12:50:15.83Z</time></trkpt><trkpt lat="43.1704" lon="13.1171867"><ele>529.8</ele><time>2026-04-07T12:50:16.831Z</time></trkpt><trkpt lat="43.1705016" lon="13.1172277"><ele>529.0</ele><time>2026-04-07T12:50:17.831Z</time></trkpt><trkpt lat="43.1705997" lon="13.1172704"><ele>529.0</ele><time>2026-04-07T12:50:18.831Z</time></trkpt><trkpt lat="43.1706885" lon="13.1173233"><ele>529.0</ele><time>2026-04-07T12:50:19.831Z</time></trkpt><trkpt lat="43.1707813" lon="13.1173931"><ele>529.0</ele><time>2026-04-07T12:50:20.83Z</time></trkpt><trkpt lat="43.1708725" lon="13.1174733"><ele>529.0</ele><time>2026-04-07T12:50:21.831Z</time></trkpt><trkpt lat="43.170964" lon="13.1175595"><ele>529.0</ele><time>2026-04-07T12:50:22.83Z</time></trkpt><trkpt lat="43.171048" lon="13.1176535"><ele>532.6</ele><time>2026-04-07T12:50:23.831Z</time></trkpt><trkpt lat="43.1711273" lon="13.1177512"><ele>536.2</ele><time>2026-04-07T12:50:24.83Z</time></trkpt><trkpt lat="43.1711993" lon="13.1178428"><ele>539.8000000000001</ele><time>2026-04-07T12:50:25.831Z</time></trkpt><trkpt lat="43.1712743" lon="13.1179287"><ele>543.4</ele><time>2026-04-07T12:50:26.831Z</time></trkpt><trkpt lat="43.1713597" lon="13.1180113"><ele>547.0</ele><time>2026-04-07T12:50:27.831Z</time></trkpt><trkpt lat="43.1714527" lon="13.1180953"><ele>546.2</ele><time>2026-04-07T12:50:28.831Z</time></trkpt><trkpt lat="43.1715425" lon="13.1181741"><ele>545.4000000000001</ele><time>2026-04-07T12:50:29.831Z</time></trkpt><trkpt lat="43.1716328" lon="13.1182458"><ele>544.5999999999999</ele><time>2026-04-07T12:50:30.83Z</time></trkpt><trkpt lat="43.1717224" lon="13.1183192"><ele>543.8</ele><time>2026-04-07T12:50:31.831Z</time></trkpt><trkpt lat="43.1718048" lon="13.1183954"><ele>543.0</ele><time>2026-04-07T12:50:32.831Z</time></trkpt><trkpt lat="43.171891" lon="13.1184747"><ele>545.4</ele><time>2026-04-07T12:50:33.831Z</time></trkpt><trkpt lat="43.171974" lon="13.1185524"><ele>547.8</ele><time>2026-04-07T12:50:34.83Z</time></trkpt><trkpt lat="43.1720495" lon="13.118635"><ele>550.2</ele><time>2026-04-07T12:50:35.83Z</time></trkpt><trkpt lat="43.1721209" lon="13.1187293"><ele>552.6</ele><time>2026-04-07T12:50:36.831Z</time></trkpt><trkpt lat="43.1721885" lon="13.1188372"><ele>555.0</ele><time>2026-04-07T12:50:37.831Z</time></trkpt><trkpt lat="43.172254" lon="13.118949"><ele>555.0</ele><time>2026-04-07T12:50:38.83Z</time></trkpt><trkpt lat="43.172316" lon="13.1190604"><ele>555.0</ele><time>2026-04-07T12:50:39.831Z</time></trkpt><trkpt lat="43.1723767" lon="13.1191769"><ele>555.0</ele><time>2026-04-07T12:50:40.831Z</time></trkpt><trkpt lat="43.1724495" lon="13.1192968"><ele>555.0</ele><time>2026-04-07T12:50:41.831Z</time></trkpt><trkpt lat="43.1725172" lon="13.1194057"><ele>555.0</ele><time>2026-04-07T12:50:42.83Z</time></trkpt><trkpt lat="43.1725706" lon="13.1194939"><ele>556.4</ele><time>2026-04-07T12:50:43.831Z</time></trkpt><trkpt lat="43.1726114" lon="13.1195666"><ele>557.8</ele><time>2026-04-07T12:50:44.831Z</time></trkpt><trkpt lat="43.1726647" lon="13.1196738"><ele>559.2</ele><time>2026-04-07T12:50:46.831Z</time></trkpt><trkpt lat="43.1727234" lon="13.119804"><ele>560.6</ele><time>2026-04-07T12:50:48.831Z</time></trkpt><trkpt lat="43.172765" lon="13.1198986"><ele>562.0</ele><time>2026-04-07T12:50:49.83Z</time></trkpt><trkpt lat="43.17281" lon="13.1200233"><ele>565.6</ele><time>2026-04-07T12:50:50.831Z</time></trkpt><trkpt lat="43.1728467" lon="13.12016"><ele>569.2</ele><time>2026-04-07T12:50:51.831Z</time></trkpt><trkpt lat="43.17288" lon="13.12029"><ele>572.8</ele><time>2026-04-07T12:50:52.83Z</time></trkpt><trkpt lat="43.1729217" lon="13.1203967"><ele>576.4</ele><time>2026-04-07T12:50:53.831Z</time></trkpt><trkpt lat="43.1729867" lon="13.1204833"><ele>580.0</ele><time>2026-04-07T12:50:54.831Z</time></trkpt><trkpt lat="43.1730717" lon="13.1205467"><ele>580.0</ele><time>2026-04-07T12:50:55.831Z</time></trkpt><trkpt lat="43.17317" lon="13.1205783"><ele>580.0</ele><time>2026-04-07T12:50:56.831Z</time></trkpt><trkpt lat="43.173295" lon="13.1206"><ele>580.0</ele><time>2026-04-07T12:50:57.831Z</time></trkpt><trkpt lat="43.1734417" lon="13.120615"><ele>580.0</ele><time>2026-04-07T12:50:58.831Z</time></trkpt><trkpt lat="43.1735917" lon="13.12063"><ele>579.0</ele><time>2026-04-07T12:50:59.83Z</time></trkpt><trkpt lat="43.1737233" lon="13.1206383"><ele>578.0</ele><time>2026-04-07T12:51:00.83Z</time></trkpt><trkpt lat="43.1738433" lon="13.12064"><ele>577.0</ele><time>2026-04-07T12:51:01.831Z</time></trkpt><trkpt lat="43.1739467" lon="13.1206433"><ele>576.0</ele><time>2026-04-07T12:51:02.831Z</time></trkpt><trkpt lat="43.174045" lon="13.120655"><ele>576.0</ele><time>2026-04-07T12:51:03.83Z</time></trkpt><trkpt lat="43.1741367" lon="13.1206717"><ele>576.0</ele><time>2026-04-07T12:51:04.83Z</time></trkpt><trkpt lat="43.1742267" lon="13.120685"><ele>576.0</ele><time>2026-04-07T12:51:05.831Z</time></trkpt><trkpt lat="43.1743083" lon="13.120695"><ele>576.0</ele><time>2026-04-07T12:51:06.83Z</time></trkpt><trkpt lat="43.1743967" lon="13.1206817"><ele>576.0</ele><time>2026-04-07T12:51:07.831Z</time></trkpt><trkpt lat="43.1744917" lon="13.1206483"><ele>576.0</ele><time>2026-04-07T12:51:08.83Z</time></trkpt><trkpt lat="43.1745733" lon="13.1205933"><ele>576.0</ele><time>2026-04-07T12:51:09.831Z</time></trkpt><trkpt lat="43.1746383" lon="13.1205067"><ele>576.0</ele><time>2026-04-07T12:51:10.831Z</time></trkpt><trkpt lat="43.1746717" lon="13.120415"><ele>576.0</ele><time>2026-04-07T12:51:11.831Z</time></trkpt><trkpt lat="43.1746733" lon="13.12032"><ele>576.0</ele><time>2026-04-07T12:51:12.831Z</time></trkpt><trkpt lat="43.1746533" lon="13.12023"><ele>576.0</ele><time>2026-04-07T12:51:13.831Z</time></trkpt><trkpt lat="43.174605" lon="13.1201583"><ele>576.0</ele><time>2026-04-07T12:51:14.831Z</time></trkpt><trkpt lat="43.1745267" lon="13.1200833"><ele>576.0</ele><time>2026-04-07T12:51:15.83Z</time></trkpt><trkpt lat="43.1744183" lon="13.12"><ele>576.0</ele><time>2026-04-07T12:51:16.83Z</time></trkpt><trkpt lat="43.1743033" lon="13.1199067"><ele>576.0</ele><time>2026-04-07T12:51:17.831Z</time></trkpt><trkpt lat="43.1741883" lon="13.1198133"><ele>574.25</ele><time>2026-04-07T12:51:18.831Z</time></trkpt><trkpt lat="43.1740917" lon="13.1197267"><ele>572.5</ele><time>2026-04-07T12:51:19.83Z</time></trkpt><trkpt lat="43.1739883" lon="13.1196317"><ele>570.75</ele><time>2026-04-07T12:51:20.831Z</time></trkpt><trkpt lat="43.1738933" lon="13.1195233"><ele>569.0</ele><time>2026-04-07T12:51:21.831Z</time></trkpt><trkpt lat="43.173815" lon="13.1194033"><ele>569.0</ele><time>2026-04-07T12:51:22.831Z</time></trkpt><trkpt lat="43.173745" lon="13.1192667"><ele>569.0</ele><time>2026-04-07T12:51:23.83Z</time></trkpt><trkpt lat="43.1736783" lon="13.1191133"><ele>569.0</ele><time>2026-04-07T12:51:24.831Z</time></trkpt><trkpt lat="43.1736083" lon="13.1189417"><ele>569.0</ele><time>2026-04-07T12:51:25.83Z</time></trkpt><trkpt lat="43.1735433" lon="13.118765"><ele>573.75</ele><time>2026-04-07T12:51:26.831Z</time></trkpt><trkpt lat="43.1734767" lon="13.1185933"><ele>578.5</ele><time>2026-04-07T12:51:27.831Z</time></trkpt><trkpt lat="43.173415" lon="13.1184167"><ele>583.25</ele><time>2026-04-07T12:51:28.831Z</time></trkpt><trkpt lat="43.1733567" lon="13.118245"><ele>588.0</ele><time>2026-04-07T12:51:29.831Z</time></trkpt><trkpt lat="43.1732933" lon="13.1180917"><ele>592.0</ele><time>2026-04-07T12:51:30.83Z</time></trkpt><trkpt lat="43.1732317" lon="13.1179367"><ele>596.0</ele><time>2026-04-07T12:51:31.831Z</time></trkpt><trkpt lat="43.173175" lon="13.117785"><ele>600.0</ele><time>2026-04-07T12:51:32.831Z</time></trkpt><trkpt lat="43.17312" lon="13.1176267"><ele>604.0</ele><time>2026-04-07T12:51:33.831Z</time></trkpt><trkpt lat="43.1730933" lon="13.1174683"><ele>603.0</ele><time>2026-04-07T12:51:34.831Z</time></trkpt><trkpt lat="43.1730967" lon="13.1173067"><ele>602.0</ele><time>2026-04-07T12:51:35.831Z</time></trkpt><trkpt lat="43.173115" lon="13.1171483"><ele>601.0</ele><time>2026-04-07T12:51:36.83Z</time></trkpt><trkpt lat="43.173155" lon="13.11698"><ele>600.0</ele><time>2026-04-07T12:51:37.831Z</time></trkpt><trkpt lat="43.1732133" lon="13.1168117"><ele>600.0</ele><time>2026-04-07T12:51:38.83Z</time></trkpt><trkpt lat="43.17328" lon="13.116655"><ele>600.0</ele><time>2026-04-07T12:51:39.831Z</time></trkpt><trkpt lat="43.1733517" lon="13.1165067"><ele>600.0</ele><time>2026-04-07T12:51:40.831Z</time></trkpt><trkpt lat="43.173435" lon="13.1163617"><ele>600.0</ele><time>2026-04-07T12:51:41.831Z</time></trkpt><trkpt lat="43.1735217" lon="13.1162233"><ele>601.25</ele><time>2026-04-07T12:51:42.831Z</time></trkpt><trkpt lat="43.173615" lon="13.1160817"><ele>602.5</ele><time>2026-04-07T12:51:43.831Z</time></trkpt><trkpt lat="43.173695" lon="13.1159567"><ele>603.75</ele><time>2026-04-07T12:51:44.831Z</time></trkpt><trkpt lat="43.1737517" lon="13.1158317"><ele>605.0</ele><time>2026-04-07T12:51:45.83Z</time></trkpt><trkpt lat="43.173795" lon="13.1157217"><ele>611.4</ele><time>2026-04-07T12:51:46.83Z</time></trkpt><trkpt lat="43.1738167" lon="13.1156233"><ele>617.8</ele><time>2026-04-07T12:51:47.83Z</time></trkpt><trkpt lat="43.1738167" lon="13.1155133"><ele>624.2</ele><time>2026-04-07T12:51:48.831Z</time></trkpt><trkpt lat="43.1737133" lon="13.1153833"><ele>630.6</ele><time>2026-04-07T12:51:50.831Z</time></trkpt><trkpt lat="43.1736133" lon="13.1153467"><ele>637.0</ele><time>2026-04-07T12:51:51.83Z</time></trkpt><trkpt lat="43.1735083" lon="13.1153167"><ele>637.0</ele><time>2026-04-07T12:51:52.831Z</time></trkpt><trkpt lat="43.1733933" lon="13.11534"><ele>637.0</ele><time>2026-04-07T12:51:53.831Z</time></trkpt><trkpt lat="43.1732733" lon="13.1153933"><ele>637.0</ele><time>2026-04-07T12:51:54.831Z</time></trkpt><trkpt lat="43.1731633" lon="13.1154417"><ele>637.0</ele><time>2026-04-07T12:51:55.831Z</time></trkpt><trkpt lat="43.1730567" lon="13.1154967"><ele>638.2</ele><time>2026-04-07T12:51:56.831Z</time></trkpt><trkpt lat="43.1729483" lon="13.1155583"><ele>639.4000000000001</ele><time>2026-04-07T12:51:57.831Z</time></trkpt><trkpt lat="43.17284" lon="13.11561"><ele>640.5999999999999</ele><time>2026-04-07T12:51:58.831Z</time></trkpt><trkpt lat="43.172735" lon="13.1156533"><ele>641.8</ele><time>2026-04-07T12:51:59.831Z</time></trkpt><trkpt lat="43.1726417" lon="13.1156817"><ele>643.0</ele><time>2026-04-07T12:52:00.831Z</time></trkpt><trkpt lat="43.1725417" lon="13.1156883"><ele>643.0</ele><time>2026-04-07T12:52:01.831Z</time></trkpt><trkpt lat="43.1724417" lon="13.11565"><ele>643.0</ele><time>2026-04-07T12:52:02.831Z</time></trkpt><trkpt lat="43.172345" lon="13.1155717"><ele>643.0</ele><time>2026-04-07T12:52:03.831Z</time></trkpt><trkpt lat="43.172255" lon="13.115475"><ele>643.0</ele><time>2026-04-07T12:52:04.831Z</time></trkpt><trkpt lat="43.172155" lon="13.115365"><ele>644.25</ele><time>2026-04-07T12:52:05.83Z</time></trkpt><trkpt lat="43.172045" lon="13.11524"><ele>645.5</ele><time>2026-04-07T12:52:06.831Z</time></trkpt><trkpt lat="43.17194" lon="13.1151167"><ele>646.75</ele><time>2026-04-07T12:52:07.831Z</time></trkpt><trkpt lat="43.1718467" lon="13.1149867"><ele>648.0</ele><time>2026-04-07T12:52:08.83Z</time></trkpt><trkpt lat="43.1717717" lon="13.11484"><ele>648.0</ele><time>2026-04-07T12:52:09.831Z</time></trkpt><trkpt lat="43.1717167" lon="13.114675"><ele>648.0</ele><time>2026-04-07T12:52:10.831Z</time></trkpt><trkpt lat="43.1716717" lon="13.1145017"><ele>648.0</ele><time>2026-04-07T12:52:11.831Z</time></trkpt><trkpt lat="43.171635" lon="13.1143517"><ele>648.0</ele><time>2026-04-07T12:52:12.831Z</time></trkpt><trkpt lat="43.17159" lon="13.1142333"><ele>648.0</ele><time>2026-04-07T12:52:13.831Z</time></trkpt><trkpt lat="43.171535" lon="13.114145"><ele>648.0</ele><time>2026-04-07T12:52:14.831Z</time></trkpt><trkpt lat="43.171475" lon="13.1140667"><ele>648.0</ele><time>2026-04-07T12:52:15.831Z</time></trkpt><trkpt lat="43.1713833" lon="13.11402"><ele>648.0</ele><time>2026-04-07T12:52:16.831Z</time></trkpt><trkpt lat="43.1712833" lon="13.1140233"><ele>648.0</ele><time>2026-04-07T12:52:17.831Z</time></trkpt><trkpt lat="43.17117" lon="13.1140567"><ele>652.0</ele><time>2026-04-07T12:52:18.831Z</time></trkpt><trkpt lat="43.17105" lon="13.1140917"><ele>656.0</ele><time>2026-04-07T12:52:19.831Z</time></trkpt><trkpt lat="43.170935" lon="13.114105"><ele>660.0</ele><time>2026-04-07T12:52:20.83Z</time></trkpt><trkpt lat="43.1708183" lon="13.1140583"><ele>664.0</ele><time>2026-04-07T12:52:21.831Z</time></trkpt><trkpt lat="43.1707133" lon="13.1139683"><ele>658.75</ele><time>2026-04-07T12:52:22.83Z</time></trkpt><trkpt lat="43.1706" lon="13.1138683"><ele>653.5</ele><time>2026-04-07T12:52:23.831Z</time></trkpt><trkpt lat="43.1704833" lon="13.11381"><ele>648.25</ele><time>2026-04-07T12:52:24.831Z</time></trkpt><trkpt lat="43.1703633" lon="13.11375"><ele>643.0</ele><time>2026-04-07T12:52:25.831Z</time></trkpt><trkpt lat="43.1702533" lon="13.1137"><ele>643.0</ele><time>2026-04-07T12:52:26.83Z</time></trkpt><trkpt lat="43.1701583" lon="13.1136317"><ele>643.0</ele><time>2026-04-07T12:52:27.83Z</time></trkpt><trkpt lat="43.17007" lon="13.113525"><ele>643.0</ele><time>2026-04-07T12:52:28.83Z</time></trkpt><trkpt lat="43.1700167" lon="13.1133933"><ele>643.0</ele><time>2026-04-07T12:52:29.831Z</time></trkpt><trkpt lat="43.16996" lon="13.1132733"><ele>643.0</ele><time>2026-04-07T12:52:30.831Z</time></trkpt><trkpt lat="43.1699117" lon="13.113135"><ele>647.0</ele><time>2026-04-07T12:52:31.831Z</time></trkpt><trkpt lat="43.169859" lon="13.1129973"><ele>651.0</ele><time>2026-04-07T12:52:32.83Z</time></trkpt><trkpt lat="43.1697915" lon="13.1128643"><ele>655.0</ele><time>2026-04-07T12:52:33.831Z</time></trkpt><trkpt lat="43.1697078" lon="13.1127561"><ele>659.0</ele><time>2026-04-07T12:52:34.83Z</time></trkpt><trkpt lat="43.1696057" lon="13.1126868"><ele>659.0</ele><time>2026-04-07T12:52:35.831Z</time></trkpt><trkpt lat="43.1694886" lon="13.1126529"><ele>659.0</ele><time>2026-04-07T12:52:36.831Z</time></trkpt><trkpt lat="43.16936" lon="13.1126432"><ele>659.0</ele><time>2026-04-07T12:52:37.83Z</time></trkpt><trkpt lat="43.1692212" lon="13.1126587"><ele>659.0</ele><time>2026-04-07T12:52:38.831Z</time></trkpt><trkpt lat="43.1690926" lon="13.1126852"><ele>659.0</ele><time>2026-04-07T12:52:39.83Z</time></trkpt><trkpt lat="43.1689727" lon="13.1127357"><ele>659.0</ele><time>2026-04-07T12:52:40.831Z</time></trkpt><trkpt lat="43.1688663" lon="13.1127844"><ele>659.0</ele><time>2026-04-07T12:52:41.83Z</time></trkpt><trkpt lat="43.1687679" lon="13.1128349"><ele>659.0</ele><time>2026-04-07T12:52:42.83Z</time></trkpt><trkpt lat="43.1686676" lon="13.1128638"><ele>659.0</ele><time>2026-04-07T12:52:43.831Z</time></trkpt><trkpt lat="43.168561" lon="13.1128674"><ele>659.0</ele><time>2026-04-07T12:52:44.831Z</time></trkpt><trkpt lat="43.1684433" lon="13.1128497"><ele>659.0</ele><time>2026-04-07T12:52:45.831Z</time></trkpt><trkpt lat="43.1683209" lon="13.1128173"><ele>659.0</ele><time>2026-04-07T12:52:46.831Z</time></trkpt><trkpt lat="43.1682006" lon="13.1127698"><ele>659.0</ele><time>2026-04-07T12:52:47.83Z</time></trkpt><trkpt lat="43.1680943" lon="13.1127111"><ele>657.3333333333333</ele><time>2026-04-07T12:52:48.831Z</time></trkpt><trkpt lat="43.1680056" lon="13.1126486"><ele>655.6666666666666</ele><time>2026-04-07T12:52:49.831Z</time></trkpt><trkpt lat="43.1679318" lon="13.1125901"><ele>654.0</ele><time>2026-04-07T12:52:50.831Z</time></trkpt><trkpt lat="43.1678776" lon="13.112519"><ele>652.3333333333334</ele><time>2026-04-07T12:52:51.831Z</time></trkpt><trkpt lat="43.167844" lon="13.1124372"><ele>650.6666666666667</ele><time>2026-04-07T12:52:52.831Z</time></trkpt><trkpt lat="43.1678286" lon="13.1123449"><ele>649.0</ele><time>2026-04-07T12:52:53.83Z</time></trkpt><trkpt lat="43.1678347" lon="13.1122508"><ele>649.5</ele><time>2026-04-07T12:52:54.831Z</time></trkpt><trkpt lat="43.1678588" lon="13.1121641"><ele>650.0</ele><time>2026-04-07T12:52:55.831Z</time></trkpt><trkpt lat="43.1679043" lon="13.1120958"><ele>650.5</ele><time>2026-04-07T12:52:56.831Z</time></trkpt><trkpt lat="43.1679636" lon="13.1120443"><ele>651.0</ele><time>2026-04-07T12:52:57.831Z</time></trkpt><trkpt lat="43.1680425" lon="13.1120075"><ele>651.5</ele><time>2026-04-07T12:52:58.831Z</time></trkpt><trkpt lat="43.1681391" lon="13.1119901"><ele>652.0</ele><time>2026-04-07T12:52:59.831Z</time></trkpt><trkpt lat="43.1682483" lon="13.1119852"><ele>652.0</ele><time>2026-04-07T12:53:00.831Z</time></trkpt><trkpt lat="43.1683556" lon="13.111983"><ele>652.0</ele><time>2026-04-07T12:53:01.831Z</time></trkpt><trkpt lat="43.1684602" lon="13.111979"><ele>652.0</ele><time>2026-04-07T12:53:02.83Z</time></trkpt><trkpt lat="43.1685626" lon="13.1119705"><ele>652.0</ele><time>2026-04-07T12:53:03.831Z</time></trkpt><trkpt lat="43.1686614" lon="13.111948"><ele>652.0</ele><time>2026-04-07T12:53:04.831Z</time></trkpt><trkpt lat="43.1687467" lon="13.1118983"><ele>652.0</ele><time>2026-04-07T12:53:05.83Z</time></trkpt><trkpt lat="43.1688167" lon="13.1118333"><ele>652.0</ele><time>2026-04-07T12:53:06.83Z</time></trkpt><trkpt lat="43.1688683" lon="13.1117433"><ele>652.0</ele><time>2026-04-07T12:53:07.831Z</time></trkpt><trkpt lat="43.168905" lon="13.1116167"><ele>652.0</ele><time>2026-04-07T12:53:08.83Z</time></trkpt><trkpt lat="43.168925" lon="13.1114783"><ele>652.0</ele><time>2026-04-07T12:53:09.83Z</time></trkpt><trkpt lat="43.1689333" lon="13.1113383"><ele>652.0</ele><time>2026-04-07T12:53:10.831Z</time></trkpt><trkpt lat="43.1689433" lon="13.1112133"><ele>652.0</ele><time>2026-04-07T12:53:11.83Z</time></trkpt><trkpt lat="43.1689567" lon="13.1110917"><ele>652.0</ele><time>2026-04-07T12:53:12.83Z</time></trkpt><trkpt lat="43.16897" lon="13.11098"><ele>652.0</ele><time>2026-04-07T12:53:13.831Z</time></trkpt><trkpt lat="43.1689833" lon="13.1108717"><ele>652.0</ele><time>2026-04-07T12:53:14.831Z</time></trkpt><trkpt lat="43.1690017" lon="13.1107683"><ele>652.0</ele><time>2026-04-07T12:53:15.831Z</time></trkpt><trkpt lat="43.1690367" lon="13.110625"><ele>652.0</ele><time>2026-04-07T12:53:17.83Z</time></trkpt><trkpt lat="43.16907" lon="13.1105517"><ele>652.0</ele><time>2026-04-07T12:53:19.831Z</time></trkpt><trkpt lat="43.16913" lon="13.1105083"><ele>652.0</ele><time>2026-04-07T12:53:21.831Z</time></trkpt><trkpt lat="43.16926" lon="13.1105333"><ele>652.0</ele><time>2026-04-07T12:53:23.831Z</time></trkpt><trkpt lat="43.1693483" lon="13.1105833"><ele>652.0</ele><time>2026-04-07T12:53:24.831Z</time></trkpt><trkpt lat="43.1694383" lon="13.1106367"><ele>652.0</ele><time>2026-04-07T12:53:25.831Z</time></trkpt><trkpt lat="43.1695383" lon="13.1106883"><ele>652.0</ele><time>2026-04-07T12:53:26.831Z</time></trkpt><trkpt lat="43.16965" lon="13.1107417"><ele>652.0</ele><time>2026-04-07T12:53:27.831Z</time></trkpt><trkpt lat="43.1697617" lon="13.1107917"><ele>652.0</ele><time>2026-04-07T12:53:28.831Z</time></trkpt><trkpt lat="43.1698833" lon="13.1108483"><ele>655.0</ele><time>2026-04-07T12:53:29.831Z</time></trkpt><trkpt lat="43.170005" lon="13.1109183"><ele>658.0</ele><time>2026-04-07T12:53:30.831Z</time></trkpt><trkpt lat="43.1701267" lon="13.1109967"><ele>661.0</ele><time>2026-04-07T12:53:31.83Z</time></trkpt><trkpt lat="43.17025" lon="13.11108"><ele>664.0</ele><time>2026-04-07T12:53:32.831Z</time></trkpt><trkpt lat="43.170375" lon="13.1111683"><ele>664.0</ele><time>2026-04-07T12:53:33.831Z</time></trkpt><trkpt lat="43.1705033" lon="13.11126"><ele>664.0</ele><time>2026-04-07T12:53:34.83Z</time></trkpt><trkpt lat="43.1706317" lon="13.1113533"><ele>664.0</ele><time>2026-04-07T12:53:35.83Z</time></trkpt><trkpt lat="43.1707533" lon="13.1114417"><ele>664.0</ele><time>2026-04-07T12:53:36.83Z</time></trkpt><trkpt lat="43.1708833" lon="13.11153"><ele>667.6666666666667</ele><time>2026-04-07T12:53:37.831Z</time></trkpt><trkpt lat="43.1710167" lon="13.1116233"><ele>671.3333333333334</ele><time>2026-04-07T12:53:38.83Z</time></trkpt><trkpt lat="43.171155" lon="13.111725"><ele>675.0</ele><time>2026-04-07T12:53:39.831Z</time></trkpt><trkpt lat="43.1712983" lon="13.1118217"><ele>675.0</ele><time>2026-04-07T12:53:40.831Z</time></trkpt><trkpt lat="43.17144" lon="13.1119233"><ele>675.0</ele><time>2026-04-07T12:53:41.83Z</time></trkpt><trkpt lat="43.171575" lon="13.112025"><ele>675.0</ele><time>2026-04-07T12:53:42.83Z</time></trkpt><trkpt lat="43.1717217" lon="13.11213"><ele>674.3333333333334</ele><time>2026-04-07T12:53:43.83Z</time></trkpt><trkpt lat="43.1718633" lon="13.1122283"><ele>673.6666666666667</ele><time>2026-04-07T12:53:44.83Z</time></trkpt><trkpt lat="43.1720033" lon="13.1123267"><ele>673.0</ele><time>2026-04-07T12:53:45.831Z</time></trkpt><trkpt lat="43.1721467" lon="13.112425"><ele>675.6666666666667</ele><time>2026-04-07T12:53:46.831Z</time></trkpt><trkpt lat="43.17229" lon="13.1125167"><ele>678.3333333333334</ele><time>2026-04-07T12:53:47.83Z</time></trkpt><trkpt lat="43.172435" lon="13.1126083"><ele>681.0</ele><time>2026-04-07T12:53:48.831Z</time></trkpt><trkpt lat="43.17259" lon="13.1126933"><ele>681.0</ele><time>2026-04-07T12:53:49.831Z</time></trkpt><trkpt lat="43.1727417" lon="13.1127767"><ele>681.0</ele><time>2026-04-07T12:53:50.831Z</time></trkpt><trkpt lat="43.1728983" lon="13.112855"><ele>681.0</ele><time>2026-04-07T12:53:51.831Z</time></trkpt><trkpt lat="43.1730583" lon="13.1129267"><ele>681.0</ele><time>2026-04-07T12:53:52.831Z</time></trkpt><trkpt lat="43.1732183" lon="13.1130033"><ele>681.0</ele><time>2026-04-07T12:53:53.831Z</time></trkpt><trkpt lat="43.1733817" lon="13.1130833"><ele>681.0</ele><time>2026-04-07T12:53:54.831Z</time></trkpt><trkpt lat="43.17354" lon="13.1131517"><ele>681.0</ele><time>2026-04-07T12:53:55.831Z</time></trkpt><trkpt lat="43.1736917" lon="13.1132283"><ele>681.0</ele><time>2026-04-07T12:53:56.831Z</time></trkpt><trkpt lat="43.173855" lon="13.1133033"><ele>681.0</ele><time>2026-04-07T12:53:57.831Z</time></trkpt><trkpt lat="43.1740217" lon="13.1133783"><ele>684.6666666666666</ele><time>2026-04-07T12:53:58.831Z</time></trkpt><trkpt lat="43.1741867" lon="13.113455"><ele>688.3333333333333</ele><time>2026-04-07T12:53:59.83Z</time></trkpt><trkpt lat="43.1743583" lon="13.1135333"><ele>692.0</ele><time>2026-04-07T12:54:00.831Z</time></trkpt><trkpt lat="43.1745317" lon="13.1136133"><ele>692.0</ele><time>2026-04-07T12:54:01.831Z</time></trkpt><trkpt lat="43.1747083" lon="13.1136933"><ele>692.0</ele><time>2026-04-07T12:54:02.831Z</time></trkpt><trkpt lat="43.1748717" lon="13.1137717"><ele>692.0</ele><time>2026-04-07T12:54:03.831Z</time></trkpt><trkpt lat="43.1750267" lon="13.113845"><ele>692.3333333333333</ele><time>2026-04-07T12:54:04.831Z</time></trkpt><trkpt lat="43.1751733" lon="13.1139233"><ele>692.6666666666666</ele><time>2026-04-07T12:54:05.831Z</time></trkpt><trkpt lat="43.1753083" lon="13.114025"><ele>693.0</ele><time>2026-04-07T12:54:06.83Z</time></trkpt><trkpt lat="43.17544" lon="13.1141417"><ele>693.0</ele><time>2026-04-07T12:54:07.83Z</time></trkpt><trkpt lat="43.175545" lon="13.11428"><ele>693.0</ele><time>2026-04-07T12:54:08.831Z</time></trkpt><trkpt lat="43.1756333" lon="13.1144567"><ele>693.0</ele><time>2026-04-07T12:54:09.831Z</time></trkpt><trkpt lat="43.1757033" lon="13.1146533"><ele>697.0</ele><time>2026-04-07T12:54:10.831Z</time></trkpt><trkpt lat="43.175765" lon="13.11487"><ele>701.0</ele><time>2026-04-07T12:54:11.831Z</time></trkpt><trkpt lat="43.1758167" lon="13.1150933"><ele>705.0</ele><time>2026-04-07T12:54:12.831Z</time></trkpt><trkpt lat="43.1758617" lon="13.115315"><ele>706.3333333333334</ele><time>2026-04-07T12:54:13.831Z</time></trkpt><trkpt lat="43.1759033" lon="13.115545"><ele>707.6666666666667</ele><time>2026-04-07T12:54:14.83Z</time></trkpt><trkpt lat="43.1759433" lon="13.1157733"><ele>709.0</ele><time>2026-04-07T12:54:15.831Z</time></trkpt><trkpt lat="43.175985" lon="13.1159983"><ele>709.6666666666667</ele><time>2026-04-07T12:54:16.831Z</time></trkpt><trkpt lat="43.1760283" lon="13.1162233"><ele>710.3333333333334</ele><time>2026-04-07T12:54:17.831Z</time></trkpt><trkpt lat="43.1760667" lon="13.116435"><ele>711.0</ele><time>2026-04-07T12:54:18.83Z</time></trkpt><trkpt lat="43.1761133" lon="13.1166317"><ele>712.25</ele><time>2026-04-07T12:54:19.831Z</time></trkpt><trkpt lat="43.17616" lon="13.1168083"><ele>713.5</ele><time>2026-04-07T12:54:20.831Z</time></trkpt><trkpt lat="43.1762233" lon="13.1169683"><ele>714.75</ele><time>2026-04-07T12:54:21.831Z</time></trkpt><trkpt lat="43.1763067" lon="13.11711"><ele>716.0</ele><time>2026-04-07T12:54:22.83Z</time></trkpt><trkpt lat="43.176405" lon="13.1172383"><ele>719.75</ele><time>2026-04-07T12:54:23.83Z</time></trkpt><trkpt lat="43.1765217" lon="13.117355"><ele>723.5</ele><time>2026-04-07T12:54:24.83Z</time></trkpt><trkpt lat="43.1766383" lon="13.117475"><ele>727.25</ele><time>2026-04-07T12:54:25.831Z</time></trkpt><trkpt lat="43.1767517" lon="13.117595"><ele>731.0</ele><time>2026-04-07T12:54:26.83Z</time></trkpt><trkpt lat="43.1768717" lon="13.1177017"><ele>731.0</ele><time>2026-04-07T12:54:27.83Z</time></trkpt><trkpt lat="43.177005" lon="13.1177883"><ele>731.0</ele><time>2026-04-07T12:54:28.83Z</time></trkpt><trkpt lat="43.17715" lon="13.1178567"><ele>731.0</ele><time>2026-04-07T12:54:29.831Z</time></trkpt><trkpt lat="43.1772933" lon="13.1179217"><ele>732.3333333333333</ele><time>2026-04-07T12:54:30.83Z</time></trkpt><trkpt lat="43.1774467" lon="13.1179783"><ele>733.6666666666666</ele><time>2026-04-07T12:54:31.831Z</time></trkpt><trkpt lat="43.1775983" lon="13.1180333"><ele>735.0</ele><time>2026-04-07T12:54:32.83Z</time></trkpt><trkpt lat="43.1777567" lon="13.11808"><ele>735.0</ele><time>2026-04-07T12:54:33.831Z</time></trkpt><trkpt lat="43.1779133" lon="13.118105"><ele>735.0</ele><time>2026-04-07T12:54:34.831Z</time></trkpt><trkpt lat="43.1780683" lon="13.1181133"><ele>735.0</ele><time>2026-04-07T12:54:35.831Z</time></trkpt><trkpt lat="43.1782267" lon="13.118115"><ele>736.0</ele><time>2026-04-07T12:54:36.831Z</time></trkpt><trkpt lat="43.178385" lon="13.1181233"><ele>737.0</ele><time>2026-04-07T12:54:37.83Z</time></trkpt><trkpt lat="43.1785433" lon="13.11813"><ele>738.0</ele><time>2026-04-07T12:54:38.831Z</time></trkpt><trkpt lat="43.1787017" lon="13.118135"><ele>738.0</ele><time>2026-04-07T12:54:39.831Z</time></trkpt><trkpt lat="43.1788517" lon="13.1181367"><ele>738.0</ele><time>2026-04-07T12:54:40.831Z</time></trkpt><trkpt lat="43.178995" lon="13.1181433"><ele>738.0</ele><time>2026-04-07T12:54:41.83Z</time></trkpt><trkpt lat="43.1791283" lon="13.118165"><ele>738.0</ele><time>2026-04-07T12:54:42.83Z</time></trkpt><trkpt lat="43.1792533" lon="13.1182"><ele>739.0</ele><time>2026-04-07T12:54:43.83Z</time></trkpt><trkpt lat="43.17938" lon="13.1182517"><ele>740.0</ele><time>2026-04-07T12:54:44.831Z</time></trkpt><trkpt lat="43.17951" lon="13.1183233"><ele>741.0</ele><time>2026-04-07T12:54:45.831Z</time></trkpt><trkpt lat="43.1796433" lon="13.1184117"><ele>742.0</ele><time>2026-04-07T12:54:46.831Z</time></trkpt><trkpt lat="43.1797733" lon="13.1185117"><ele>743.0</ele><time>2026-04-07T12:54:47.831Z</time></trkpt><trkpt lat="43.179915" lon="13.1186017"><ele>744.0</ele><time>2026-04-07T12:54:48.831Z</time></trkpt><trkpt lat="43.1800567" lon="13.118705"><ele>745.0</ele><time>2026-04-07T12:54:49.831Z</time></trkpt><trkpt lat="43.1801967" lon="13.1187917"><ele>745.0</ele><time>2026-04-07T12:54:50.831Z</time></trkpt><trkpt lat="43.18034" lon="13.118885"><ele>745.0</ele><time>2026-04-07T12:54:51.83Z</time></trkpt><trkpt lat="43.180485" lon="13.11899"><ele>745.0</ele><time>2026-04-07T12:54:52.83Z</time></trkpt><trkpt lat="43.180635" lon="13.1190817"><ele>747.6666666666667</ele><time>2026-04-07T12:54:53.831Z</time></trkpt><trkpt lat="43.180785" lon="13.1191817"><ele>750.3333333333334</ele><time>2026-04-07T12:54:54.831Z</time></trkpt><trkpt lat="43.180935" lon="13.11929"><ele>753.0</ele><time>2026-04-07T12:54:55.831Z</time></trkpt><trkpt lat="43.18108" lon="13.119395"><ele>753.0</ele><time>2026-04-07T12:54:56.831Z</time></trkpt><trkpt lat="43.1812217" lon="13.11951"><ele>753.0</ele><time>2026-04-07T12:54:57.831Z</time></trkpt><trkpt lat="43.1813583" lon="13.1196333"><ele>753.0</ele><time>2026-04-07T12:54:58.83Z</time></trkpt><trkpt lat="43.1814867" lon="13.1197633"><ele>753.0</ele><time>2026-04-07T12:54:59.831Z</time></trkpt><trkpt lat="43.18159" lon="13.1199167"><ele>753.0</ele><time>2026-04-07T12:55:00.831Z</time></trkpt><trkpt lat="43.1816867" lon="13.1200717"><ele>753.0</ele><time>2026-04-07T12:55:01.831Z</time></trkpt><trkpt lat="43.1817817" lon="13.1202167"><ele>753.0</ele><time>2026-04-07T12:55:02.831Z</time></trkpt><trkpt lat="43.1818967" lon="13.120335"><ele>753.0</ele><time>2026-04-07T12:55:03.831Z</time></trkpt><trkpt lat="43.1820133" lon="13.1204233"><ele>753.0</ele><time>2026-04-07T12:55:04.831Z</time></trkpt><trkpt lat="43.1821567" lon="13.1204867"><ele>753.0</ele><time>2026-04-07T12:55:05.83Z</time></trkpt><trkpt lat="43.1823067" lon="13.1205417"><ele>753.0</ele><time>2026-04-07T12:55:06.831Z</time></trkpt><trkpt lat="43.1824633" lon="13.120595"><ele>753.6666666666666</ele><time>2026-04-07T12:55:07.831Z</time></trkpt><trkpt lat="43.1826217" lon="13.120645"><ele>754.3333333333333</ele><time>2026-04-07T12:55:08.831Z</time></trkpt><trkpt lat="43.1827667" lon="13.1206933"><ele>755.0</ele><time>2026-04-07T12:55:09.831Z</time></trkpt><trkpt lat="43.1829067" lon="13.1207483"><ele>754.25</ele><time>2026-04-07T12:55:10.831Z</time></trkpt><trkpt lat="43.1830433" lon="13.1207967"><ele>753.5</ele><time>2026-04-07T12:55:11.831Z</time></trkpt><trkpt lat="43.18318" lon="13.12084"><ele>752.75</ele><time>2026-04-07T12:55:12.831Z</time></trkpt><trkpt lat="43.1833233" lon="13.1208867"><ele>752.0</ele><time>2026-04-07T12:55:13.83Z</time></trkpt><trkpt lat="43.1834683" lon="13.1209333"><ele>752.0</ele><time>2026-04-07T12:55:14.83Z</time></trkpt><trkpt lat="43.1836083" lon="13.1209933"><ele>752.0</ele><time>2026-04-07T12:55:15.831Z</time></trkpt><trkpt lat="43.183745" lon="13.1210717"><ele>752.0</ele><time>2026-04-07T12:55:16.831Z</time></trkpt><trkpt lat="43.1838617" lon="13.1211633"><ele>752.0</ele><time>2026-04-07T12:55:17.831Z</time></trkpt><trkpt lat="43.1839617" lon="13.1212717"><ele>752.25</ele><time>2026-04-07T12:55:18.83Z</time></trkpt><trkpt lat="43.1840617" lon="13.1214017"><ele>752.5</ele><time>2026-04-07T12:55:19.831Z</time></trkpt><trkpt lat="43.184145" lon="13.12156"><ele>752.75</ele><time>2026-04-07T12:55:20.831Z</time></trkpt><trkpt lat="43.1842183" lon="13.12174"><ele>753.0</ele><time>2026-04-07T12:55:21.83Z</time></trkpt><trkpt lat="43.1842841" lon="13.1219284"><ele>753.6666666666666</ele><time>2026-04-07T12:55:22.831Z</time></trkpt><trkpt lat="43.1843438" lon="13.12213"><ele>754.3333333333333</ele><time>2026-04-07T12:55:23.83Z</time></trkpt><trkpt lat="43.1844056" lon="13.1223233"><ele>755.0</ele><time>2026-04-07T12:55:24.831Z</time></trkpt><trkpt lat="43.1844686" lon="13.122507"><ele>753.75</ele><time>2026-04-07T12:55:25.831Z</time></trkpt><trkpt lat="43.1845251" lon="13.1226908"><ele>752.5</ele><time>2026-04-07T12:55:26.831Z</time></trkpt><trkpt lat="43.1845861" lon="13.1228709"><ele>751.25</ele><time>2026-04-07T12:55:27.831Z</time></trkpt><trkpt lat="43.1846527" lon="13.1230496"><ele>750.0</ele><time>2026-04-07T12:55:28.831Z</time></trkpt><trkpt lat="43.1847313" lon="13.1232184"><ele>749.6666666666666</ele><time>2026-04-07T12:55:29.831Z</time></trkpt><trkpt lat="43.1848274" lon="13.1233777"><ele>749.3333333333333</ele><time>2026-04-07T12:55:30.831Z</time></trkpt><trkpt lat="43.1849411" lon="13.1235302"><ele>749.0</ele><time>2026-04-07T12:55:31.831Z</time></trkpt><trkpt lat="43.185051" lon="13.1236873"><ele>749.0</ele><time>2026-04-07T12:55:32.831Z</time></trkpt><trkpt lat="43.18516" lon="13.123843"><ele>749.0</ele><time>2026-04-07T12:55:33.83Z</time></trkpt><trkpt lat="43.1852722" lon="13.1239963"><ele>749.0</ele><time>2026-04-07T12:55:34.831Z</time></trkpt><trkpt lat="43.18538" lon="13.1241453"><ele>749.0</ele><time>2026-04-07T12:55:35.831Z</time></trkpt><trkpt lat="43.1854879" lon="13.1242945"><ele>749.0</ele><time>2026-04-07T12:55:36.831Z</time></trkpt><trkpt lat="43.1855898" lon="13.1244435"><ele>749.0</ele><time>2026-04-07T12:55:37.831Z</time></trkpt><trkpt lat="43.1856912" lon="13.1245902"><ele>749.5</ele><time>2026-04-07T12:55:38.831Z</time></trkpt><trkpt lat="43.1857969" lon="13.1247318"><ele>750.0</ele><time>2026-04-07T12:55:39.831Z</time></trkpt><trkpt lat="43.1858996" lon="13.1248835"><ele>750.5</ele><time>2026-04-07T12:55:40.831Z</time></trkpt><trkpt lat="43.1859972" lon="13.1250377"><ele>751.0</ele><time>2026-04-07T12:55:41.831Z</time></trkpt><trkpt lat="43.1860983" lon="13.1251927"><ele>751.0</ele><time>2026-04-07T12:55:42.831Z</time></trkpt><trkpt lat="43.1862006" lon="13.1253452"><ele>751.0</ele><time>2026-04-07T12:55:43.831Z</time></trkpt><trkpt lat="43.1863026" lon="13.1254971"><ele>751.0</ele><time>2026-04-07T12:55:44.831Z</time></trkpt><trkpt lat="43.1864005" lon="13.1256495"><ele>751.25</ele><time>2026-04-07T12:55:45.83Z</time></trkpt><trkpt lat="43.1864982" lon="13.1257981"><ele>751.5</ele><time>2026-04-07T12:55:46.831Z</time></trkpt><trkpt lat="43.1865901" lon="13.1259376"><ele>751.75</ele><time>2026-04-07T12:55:47.831Z</time></trkpt><trkpt lat="43.1866638" lon="13.1260654"><ele>752.0</ele><time>2026-04-07T12:55:48.83Z</time></trkpt><trkpt lat="43.1867186" lon="13.1261929"><ele>751.25</ele><time>2026-04-07T12:55:49.831Z</time></trkpt><trkpt lat="43.1867638" lon="13.1263312"><ele>750.5</ele><time>2026-04-07T12:55:50.831Z</time></trkpt><trkpt lat="43.1867959" lon="13.1265018"><ele>749.75</ele><time>2026-04-07T12:55:51.831Z</time></trkpt><trkpt lat="43.1868119" lon="13.1266883"><ele>749.0</ele><time>2026-04-07T12:55:52.831Z</time></trkpt><trkpt lat="43.1868226" lon="13.1268871"><ele>748.5</ele><time>2026-04-07T12:55:53.831Z</time></trkpt><trkpt lat="43.1868253" lon="13.127083"><ele>748.0</ele><time>2026-04-07T12:55:54.831Z</time></trkpt><trkpt lat="43.1868284" lon="13.1272713"><ele>747.5</ele><time>2026-04-07T12:55:55.831Z</time></trkpt><trkpt lat="43.1868291" lon="13.127451"><ele>747.0</ele><time>2026-04-07T12:55:56.83Z</time></trkpt><trkpt lat="43.1868324" lon="13.1276244"><ele>745.0</ele><time>2026-04-07T12:55:57.831Z</time></trkpt><trkpt lat="43.1868467" lon="13.1277906"><ele>743.0</ele><time>2026-04-07T12:55:58.831Z</time></trkpt><trkpt lat="43.1868747" lon="13.1279435"><ele>741.0</ele><time>2026-04-07T12:55:59.831Z</time></trkpt><trkpt lat="43.186932" lon="13.1280683"><ele>739.0</ele><time>2026-04-07T12:56:00.831Z</time></trkpt><trkpt lat="43.1870124" lon="13.1281585"><ele>737.0</ele><time>2026-04-07T12:56:01.83Z</time></trkpt><trkpt lat="43.1871094" lon="13.1282414"><ele>733.5</ele><time>2026-04-07T12:56:02.83Z</time></trkpt><trkpt lat="43.1872055" lon="13.1283289"><ele>730.0</ele><time>2026-04-07T12:56:03.83Z</time></trkpt><trkpt lat="43.1872919" lon="13.1284504"><ele>726.5</ele><time>2026-04-07T12:56:04.83Z</time></trkpt><trkpt lat="43.1873646" lon="13.128599"><ele>723.0</ele><time>2026-04-07T12:56:05.83Z</time></trkpt><trkpt lat="43.1874307" lon="13.1287616"><ele>726.25</ele><time>2026-04-07T12:56:06.83Z</time></trkpt><trkpt lat="43.1874896" lon="13.1289229"><ele>729.5</ele><time>2026-04-07T12:56:07.831Z</time></trkpt><trkpt lat="43.1875399" lon="13.1290781"><ele>732.75</ele><time>2026-04-07T12:56:08.83Z</time></trkpt><trkpt lat="43.1875894" lon="13.1292264"><ele>736.0</ele><time>2026-04-07T12:56:09.831Z</time></trkpt><trkpt lat="43.1876396" lon="13.1293689"><ele>736.0</ele><time>2026-04-07T12:56:10.831Z</time></trkpt><trkpt lat="43.1876839" lon="13.1295107"><ele>736.0</ele><time>2026-04-07T12:56:11.83Z</time></trkpt><trkpt lat="43.1877305" lon="13.129639"><ele>736.0</ele><time>2026-04-07T12:56:12.831Z</time></trkpt><trkpt lat="43.1877819" lon="13.1297608"><ele>736.0</ele><time>2026-04-07T12:56:13.831Z</time></trkpt><trkpt lat="43.1878367" lon="13.1298819"><ele>736.0</ele><time>2026-04-07T12:56:14.831Z</time></trkpt><trkpt lat="43.1879009" lon="13.1300172"><ele>732.5</ele><time>2026-04-07T12:56:15.831Z</time></trkpt><trkpt lat="43.1879712" lon="13.1301591"><ele>729.0</ele><time>2026-04-07T12:56:16.831Z</time></trkpt><trkpt lat="43.1880424" lon="13.1303044"><ele>725.5</ele><time>2026-04-07T12:56:17.831Z</time></trkpt><trkpt lat="43.1881046" lon="13.1304591"><ele>722.0</ele><time>2026-04-07T12:56:18.831Z</time></trkpt><trkpt lat="43.1881615" lon="13.1306057"><ele>726.2</ele><time>2026-04-07T12:56:19.831Z</time></trkpt><trkpt lat="43.1882219" lon="13.1307448"><ele>730.4000000000001</ele><time>2026-04-07T12:56:20.831Z</time></trkpt><trkpt lat="43.1882944" lon="13.1308641"><ele>734.5999999999999</ele><time>2026-04-07T12:56:21.83Z</time></trkpt><trkpt lat="43.1883669" lon="13.1309639"><ele>738.8</ele><time>2026-04-07T12:56:22.831Z</time></trkpt><trkpt lat="43.1884312" lon="13.1310525"><ele>743.0</ele><time>2026-04-07T12:56:23.831Z</time></trkpt><trkpt lat="43.1884739" lon="13.1311427"><ele>743.0</ele><time>2026-04-07T12:56:24.831Z</time></trkpt><trkpt lat="43.1884873" lon="13.1312439"><ele>743.0</ele><time>2026-04-07T12:56:25.83Z</time></trkpt><trkpt lat="43.1884658" lon="13.1313368"><ele>743.0</ele><time>2026-04-07T12:56:26.83Z</time></trkpt><trkpt lat="43.1884044" lon="13.1313966"><ele>743.0</ele><time>2026-04-07T12:56:27.831Z</time></trkpt><trkpt lat="43.1883017" lon="13.1314133"><ele>743.0</ele><time>2026-04-07T12:56:28.83Z</time></trkpt><trkpt lat="43.1881917" lon="13.1313983"><ele>743.0</ele><time>2026-04-07T12:56:29.831Z</time></trkpt><trkpt lat="43.188065" lon="13.131345"><ele>740.0</ele><time>2026-04-07T12:56:30.831Z</time></trkpt><trkpt lat="43.1879367" lon="13.1312533"><ele>737.0</ele><time>2026-04-07T12:56:31.831Z</time></trkpt><trkpt lat="43.1878083" lon="13.1311533"><ele>734.0</ele><time>2026-04-07T12:56:32.831Z</time></trkpt><trkpt lat="43.187675" lon="13.1310567"><ele>731.0</ele><time>2026-04-07T12:56:33.831Z</time></trkpt><trkpt lat="43.1875333" lon="13.1309667"><ele>731.0</ele><time>2026-04-07T12:56:34.831Z</time></trkpt><trkpt lat="43.1873883" lon="13.1308783"><ele>731.0</ele><time>2026-04-07T12:56:35.831Z</time></trkpt><trkpt lat="43.1872517" lon="13.1307867"><ele>731.0</ele><time>2026-04-07T12:56:36.831Z</time></trkpt><trkpt lat="43.1871183" lon="13.1306933"><ele>723.75</ele><time>2026-04-07T12:56:37.831Z</time></trkpt><trkpt lat="43.1869917" lon="13.130605"><ele>716.5</ele><time>2026-04-07T12:56:38.831Z</time></trkpt><trkpt lat="43.1868583" lon="13.130515"><ele>709.25</ele><time>2026-04-07T12:56:39.831Z</time></trkpt><trkpt lat="43.186735" lon="13.1304283"><ele>702.0</ele><time>2026-04-07T12:56:40.831Z</time></trkpt><trkpt lat="43.1866133" lon="13.1303567"><ele>696.25</ele><time>2026-04-07T12:56:41.831Z</time></trkpt><trkpt lat="43.1864917" lon="13.1302883"><ele>690.5</ele><time>2026-04-07T12:56:42.831Z</time></trkpt><trkpt lat="43.1863717" lon="13.1302483"><ele>684.75</ele><time>2026-04-07T12:56:43.831Z</time></trkpt><trkpt lat="43.1862467" lon="13.130245"><ele>679.0</ele><time>2026-04-07T12:56:44.83Z</time></trkpt><trkpt lat="43.1861283" lon="13.130285"><ele>679.0</ele><time>2026-04-07T12:56:45.831Z</time></trkpt><trkpt lat="43.1860167" lon="13.1303767"><ele>679.0</ele><time>2026-04-07T12:56:46.83Z</time></trkpt><trkpt lat="43.1859183" lon="13.1304933"><ele>679.0</ele><time>2026-04-07T12:56:47.831Z</time></trkpt><trkpt lat="43.1858233" lon="13.130635"><ele>679.0</ele><time>2026-04-07T12:56:48.831Z</time></trkpt><trkpt lat="43.1857317" lon="13.130805"><ele>672.6666666666667</ele><time>2026-04-07T12:56:49.831Z</time></trkpt><trkpt lat="43.1856417" lon="13.1309783"><ele>666.3333333333334</ele><time>2026-04-07T12:56:50.83Z</time></trkpt><trkpt lat="43.1855667" lon="13.1311567"><ele>660.0</ele><time>2026-04-07T12:56:51.83Z</time></trkpt><trkpt lat="43.1855" lon="13.1313417"><ele>660.0</ele><time>2026-04-07T12:56:52.831Z</time></trkpt><trkpt lat="43.1854467" lon="13.1315233"><ele>660.0</ele><time>2026-04-07T12:56:53.831Z</time></trkpt><trkpt lat="43.1854" lon="13.1317167"><ele>660.0</ele><time>2026-04-07T12:56:54.831Z</time></trkpt><trkpt lat="43.18535" lon="13.1319133"><ele>660.0</ele><time>2026-04-07T12:56:55.83Z</time></trkpt><trkpt lat="43.1853083" lon="13.1321217"><ele>664.0</ele><time>2026-04-07T12:56:56.831Z</time></trkpt><trkpt lat="43.185275" lon="13.1323283"><ele>668.0</ele><time>2026-04-07T12:56:57.831Z</time></trkpt><trkpt lat="43.18524" lon="13.1325417"><ele>672.0</ele><time>2026-04-07T12:56:58.831Z</time></trkpt><trkpt lat="43.1852117" lon="13.1327717"><ele>673.6666666666666</ele><time>2026-04-07T12:56:59.831Z</time></trkpt><trkpt lat="43.185185" lon="13.1329983"><ele>675.3333333333333</ele><time>2026-04-07T12:57:00.831Z</time></trkpt><trkpt lat="43.1851667" lon="13.13323"><ele>677.0</ele><time>2026-04-07T12:57:01.831Z</time></trkpt><trkpt lat="43.1851467" lon="13.1334533"><ele>677.0</ele><time>2026-04-07T12:57:02.83Z</time></trkpt><trkpt lat="43.1851283" lon="13.133675"><ele>677.0</ele><time>2026-04-07T12:57:03.83Z</time></trkpt><trkpt lat="43.18512" lon="13.133895"><ele>677.0</ele><time>2026-04-07T12:57:04.83Z</time></trkpt><trkpt lat="43.1851033" lon="13.1341117"><ele>677.0</ele><time>2026-04-07T12:57:05.831Z</time></trkpt><trkpt lat="43.1850883" lon="13.1343233"><ele>677.0</ele><time>2026-04-07T12:57:06.831Z</time></trkpt><trkpt lat="43.1850767" lon="13.134535"><ele>677.0</ele><time>2026-04-07T12:57:07.83Z</time></trkpt><trkpt lat="43.1850633" lon="13.134755"><ele>677.0</ele><time>2026-04-07T12:57:08.83Z</time></trkpt><trkpt lat="43.1850417" lon="13.134985"><ele>677.0</ele><time>2026-04-07T12:57:09.831Z</time></trkpt><trkpt lat="43.1850233" lon="13.1352133"><ele>677.0</ele><time>2026-04-07T12:57:10.831Z</time></trkpt><trkpt lat="43.184995" lon="13.1354383"><ele>677.0</ele><time>2026-04-07T12:57:11.831Z</time></trkpt><trkpt lat="43.18497" lon="13.1356583"><ele>677.0</ele><time>2026-04-07T12:57:12.831Z</time></trkpt><trkpt lat="43.18495" lon="13.1358767"><ele>677.0</ele><time>2026-04-07T12:57:13.83Z</time></trkpt><trkpt lat="43.1849333" lon="13.1360933"><ele>678.3333333333333</ele><time>2026-04-07T12:57:14.83Z</time></trkpt><trkpt lat="43.1849083" lon="13.13632"><ele>679.6666666666666</ele><time>2026-04-07T12:57:15.83Z</time></trkpt><trkpt lat="43.1848867" lon="13.136555"><ele>681.0</ele><time>2026-04-07T12:57:16.83Z</time></trkpt><trkpt lat="43.1848667" lon="13.1367917"><ele>681.0</ele><time>2026-04-07T12:57:17.831Z</time></trkpt><trkpt lat="43.18485" lon="13.1370267"><ele>681.0</ele><time>2026-04-07T12:57:18.831Z</time></trkpt><trkpt lat="43.1848367" lon="13.1372517"><ele>681.0</ele><time>2026-04-07T12:57:19.831Z</time></trkpt><trkpt lat="43.1848267" lon="13.1374783"><ele>664.3333333333334</ele><time>2026-04-07T12:57:20.831Z</time></trkpt><trkpt lat="43.1848167" lon="13.137705"><ele>647.6666666666667</ele><time>2026-04-07T12:57:21.831Z</time></trkpt><trkpt lat="43.1848133" lon="13.1379333"><ele>631.0</ele><time>2026-04-07T12:57:22.831Z</time></trkpt><trkpt lat="43.1848083" lon="13.138165"><ele>630.3333333333334</ele><time>2026-04-07T12:57:23.831Z</time></trkpt><trkpt lat="43.1848067" lon="13.1383917"><ele>629.6666666666666</ele><time>2026-04-07T12:57:24.831Z</time></trkpt><trkpt lat="43.1847983" lon="13.1386167"><ele>629.0</ele><time>2026-04-07T12:57:25.831Z</time></trkpt><trkpt lat="43.18479" lon="13.1388317"><ele>629.0</ele><time>2026-04-07T12:57:26.83Z</time></trkpt><trkpt lat="43.1847783" lon="13.139045"><ele>629.0</ele><time>2026-04-07T12:57:27.83Z</time></trkpt><trkpt lat="43.18477" lon="13.1392633"><ele>629.0</ele><time>2026-04-07T12:57:28.831Z</time></trkpt><trkpt lat="43.1847567" lon="13.1394883"><ele>628.6666666666666</ele><time>2026-04-07T12:57:29.831Z</time></trkpt><trkpt lat="43.184735" lon="13.13971"><ele>628.3333333333334</ele><time>2026-04-07T12:57:30.83Z</time></trkpt><trkpt lat="43.18471" lon="13.1399317"><ele>628.0</ele><time>2026-04-07T12:57:31.831Z</time></trkpt><trkpt lat="43.1846983" lon="13.140155"><ele>627.6666666666667</ele><time>2026-04-07T12:57:32.831Z</time></trkpt><trkpt lat="43.1846817" lon="13.1403833"><ele>627.3333333333334</ele><time>2026-04-07T12:57:33.83Z</time></trkpt><trkpt lat="43.1846633" lon="13.1406083"><ele>627.0</ele><time>2026-04-07T12:57:34.83Z</time></trkpt><trkpt lat="43.18465" lon="13.140825"><ele>626.6666666666666</ele><time>2026-04-07T12:57:35.831Z</time></trkpt><trkpt lat="43.1846383" lon="13.1410433"><ele>626.3333333333333</ele><time>2026-04-07T12:57:36.831Z</time></trkpt><trkpt lat="43.1846233" lon="13.1412583"><ele>626.0</ele><time>2026-04-07T12:57:37.831Z</time></trkpt><trkpt lat="43.1846117" lon="13.1414817"><ele>625.3333333333333</ele><time>2026-04-07T12:57:38.831Z</time></trkpt><trkpt lat="43.1846083" lon="13.1417133"><ele>624.6666666666666</ele><time>2026-04-07T12:57:39.83Z</time></trkpt><trkpt lat="43.18462" lon="13.141955"><ele>624.0</ele><time>2026-04-07T12:57:40.831Z</time></trkpt><trkpt lat="43.18463" lon="13.142185"><ele>623.3333333333334</ele><time>2026-04-07T12:57:41.831Z</time></trkpt><trkpt lat="43.1846483" lon="13.142415"><ele>622.6666666666667</ele><time>2026-04-07T12:57:42.831Z</time></trkpt><trkpt lat="43.1846667" lon="13.1426417"><ele>622.0</ele><time>2026-04-07T12:57:43.83Z</time></trkpt><trkpt lat="43.1846783" lon="13.1428617"><ele>622.0</ele><time>2026-04-07T12:57:44.831Z</time></trkpt><trkpt lat="43.1846883" lon="13.14308"><ele>622.0</ele><time>2026-04-07T12:57:45.831Z</time></trkpt><trkpt lat="43.1846933" lon="13.1432967"><ele>622.0</ele><time>2026-04-07T12:57:46.831Z</time></trkpt><trkpt lat="43.1846983" lon="13.1435167"><ele>622.3333333333334</ele><time>2026-04-07T12:57:47.83Z</time></trkpt><trkpt lat="43.1847083" lon="13.14373"><ele>622.6666666666666</ele><time>2026-04-07T12:57:48.83Z</time></trkpt><trkpt lat="43.1847183" lon="13.1439367"><ele>623.0</ele><time>2026-04-07T12:57:49.831Z</time></trkpt><trkpt lat="43.1847233" lon="13.1441433"><ele>623.25</ele><time>2026-04-07T12:57:50.831Z</time></trkpt><trkpt lat="43.1847183" lon="13.1443333"><ele>623.5</ele><time>2026-04-07T12:57:51.831Z</time></trkpt><trkpt lat="43.184705" lon="13.14451"><ele>623.75</ele><time>2026-04-07T12:57:52.831Z</time></trkpt><trkpt lat="43.1846817" lon="13.14465"><ele>624.0</ele><time>2026-04-07T12:57:53.831Z</time></trkpt><trkpt lat="43.1846533" lon="13.14478"><ele>625.5</ele><time>2026-04-07T12:57:54.83Z</time></trkpt><trkpt lat="43.1846333" lon="13.1449167"><ele>627.0</ele><time>2026-04-07T12:57:55.831Z</time></trkpt><trkpt lat="43.1846167" lon="13.14506"><ele>628.5</ele><time>2026-04-07T12:57:56.831Z</time></trkpt><trkpt lat="43.1845933" lon="13.145225"><ele>630.0</ele><time>2026-04-07T12:57:57.83Z</time></trkpt><trkpt lat="43.1845617" lon="13.1453983"><ele>630.0</ele><time>2026-04-07T12:57:58.831Z</time></trkpt><trkpt lat="43.1845417" lon="13.145575"><ele>630.0</ele><time>2026-04-07T12:57:59.831Z</time></trkpt><trkpt lat="43.18453" lon="13.14574"><ele>630.0</ele><time>2026-04-07T12:58:00.831Z</time></trkpt><trkpt lat="43.1845217" lon="13.1458917"><ele>630.0</ele><time>2026-04-07T12:58:01.83Z</time></trkpt><trkpt lat="43.1845267" lon="13.1460217"><ele>631.2</ele><time>2026-04-07T12:58:02.831Z</time></trkpt><trkpt lat="43.18454" lon="13.1461483"><ele>632.4</ele><time>2026-04-07T12:58:03.831Z</time></trkpt><trkpt lat="43.1845767" lon="13.14626"><ele>633.6</ele><time>2026-04-07T12:58:04.831Z</time></trkpt><trkpt lat="43.1846333" lon="13.1463583"><ele>634.8</ele><time>2026-04-07T12:58:05.831Z</time></trkpt><trkpt lat="43.1846833" lon="13.14647"><ele>636.0</ele><time>2026-04-07T12:58:06.83Z</time></trkpt><trkpt lat="43.1847267" lon="13.14658"><ele>637.0</ele><time>2026-04-07T12:58:07.83Z</time></trkpt><trkpt lat="43.1847667" lon="13.1466667"><ele>638.0</ele><time>2026-04-07T12:58:08.831Z</time></trkpt><trkpt lat="43.184825" lon="13.1467483"><ele>639.0</ele><time>2026-04-07T12:58:09.831Z</time></trkpt><trkpt lat="43.1848783" lon="13.1468367"><ele>640.0</ele><time>2026-04-07T12:58:10.831Z</time></trkpt><trkpt lat="43.1849217" lon="13.146935"><ele>641.0</ele><time>2026-04-07T12:58:11.83Z</time></trkpt><trkpt lat="43.184965" lon="13.147045"><ele>642.0</ele><time>2026-04-07T12:58:12.831Z</time></trkpt><trkpt lat="43.185" lon="13.147155"><ele>646.8</ele><time>2026-04-07T12:58:13.83Z</time></trkpt><trkpt lat="43.1850367" lon="13.147265"><ele>651.6</ele><time>2026-04-07T12:58:14.831Z</time></trkpt><trkpt lat="43.185095" lon="13.147365"><ele>656.4</ele><time>2026-04-07T12:58:15.831Z</time></trkpt><trkpt lat="43.18515" lon="13.147475"><ele>661.1999999999999</ele><time>2026-04-07T12:58:16.831Z</time></trkpt><trkpt lat="43.1852083" lon="13.1475783"><ele>666.0</ele><time>2026-04-07T12:58:17.831Z</time></trkpt><trkpt lat="43.1852617" lon="13.14768"><ele>666.4</ele><time>2026-04-07T12:58:18.831Z</time></trkpt><trkpt lat="43.1853017" lon="13.1477867"><ele>666.8</ele><time>2026-04-07T12:58:19.831Z</time></trkpt><trkpt lat="43.18533" lon="13.1478967"><ele>667.1999999999999</ele><time>2026-04-07T12:58:20.83Z</time></trkpt><trkpt lat="43.1853483" lon="13.1480167"><ele>667.5999999999999</ele><time>2026-04-07T12:58:21.831Z</time></trkpt><trkpt lat="43.185365" lon="13.1481417"><ele>668.0</ele><time>2026-04-07T12:58:22.831Z</time></trkpt><trkpt lat="43.1853833" lon="13.1482733"><ele>669.0</ele><time>2026-04-07T12:58:23.831Z</time></trkpt><trkpt lat="43.1853983" lon="13.14841"><ele>670.0</ele><time>2026-04-07T12:58:24.83Z</time></trkpt><trkpt lat="43.1854217" lon="13.14854"><ele>671.0</ele><time>2026-04-07T12:58:25.831Z</time></trkpt><trkpt lat="43.1854467" lon="13.1486767"><ele>672.0</ele><time>2026-04-07T12:58:26.831Z</time></trkpt><trkpt lat="43.1854667" lon="13.148805"><ele>673.0</ele><time>2026-04-07T12:58:27.83Z</time></trkpt><trkpt lat="43.1854833" lon="13.1489317"><ele>674.2</ele><time>2026-04-07T12:58:28.831Z</time></trkpt><trkpt lat="43.1855083" lon="13.14906"><ele>675.4</ele><time>2026-04-07T12:58:29.831Z</time></trkpt><trkpt lat="43.1855267" lon="13.1491833"><ele>676.6</ele><time>2026-04-07T12:58:30.831Z</time></trkpt><trkpt lat="43.18553" lon="13.1493133"><ele>677.8000000000001</ele><time>2026-04-07T12:58:31.831Z</time></trkpt><trkpt lat="43.1855317" lon="13.1494483"><ele>679.0</ele><time>2026-04-07T12:58:32.831Z</time></trkpt><trkpt lat="43.1855183" lon="13.1495783"><ele>679.0</ele><time>2026-04-07T12:58:33.831Z</time></trkpt><trkpt lat="43.1854967" lon="13.1497117"><ele>679.0</ele><time>2026-04-07T12:58:34.831Z</time></trkpt><trkpt lat="43.1854533" lon="13.1498433"><ele>679.0</ele><time>2026-04-07T12:58:35.83Z</time></trkpt><trkpt lat="43.1854283" lon="13.149965"><ele>679.0</ele><time>2026-04-07T12:58:36.83Z</time></trkpt><trkpt lat="43.18541" lon="13.1500817"><ele>679.0</ele><time>2026-04-07T12:58:37.831Z</time></trkpt><trkpt lat="43.185395" lon="13.1502017"><ele>680.6</ele><time>2026-04-07T12:58:38.83Z</time></trkpt><trkpt lat="43.185385" lon="13.1503317"><ele>682.2</ele><time>2026-04-07T12:58:39.831Z</time></trkpt><trkpt lat="43.1853783" lon="13.150465"><ele>683.8000000000001</ele><time>2026-04-07T12:58:40.83Z</time></trkpt><trkpt lat="43.1853683" lon="13.1506067"><ele>685.4000000000001</ele><time>2026-04-07T12:58:41.831Z</time></trkpt><trkpt lat="43.1853567" lon="13.1507533"><ele>687.0</ele><time>2026-04-07T12:58:42.83Z</time></trkpt><trkpt lat="43.18535" lon="13.1508917"><ele>688.6</ele><time>2026-04-07T12:58:43.83Z</time></trkpt><trkpt lat="43.1853483" lon="13.15103"><ele>690.2</ele><time>2026-04-07T12:58:44.83Z</time></trkpt><trkpt lat="43.185355" lon="13.151165"><ele>691.8</ele><time>2026-04-07T12:58:45.831Z</time></trkpt><trkpt lat="43.1853733" lon="13.1513"><ele>693.4</ele><time>2026-04-07T12:58:46.831Z</time></trkpt><trkpt lat="43.1853933" lon="13.151435"><ele>695.0</ele><time>2026-04-07T12:58:47.83Z</time></trkpt><trkpt lat="43.1854217" lon="13.15156"><ele>696.2</ele><time>2026-04-07T12:58:48.83Z</time></trkpt><trkpt lat="43.1854567" lon="13.1516883"><ele>697.4</ele><time>2026-04-07T12:58:49.829Z</time></trkpt><trkpt lat="43.18549" lon="13.1518117"><ele>698.5999999999999</ele><time>2026-04-07T12:58:50.83Z</time></trkpt><trkpt lat="43.185525" lon="13.151935"><ele>699.8</ele><time>2026-04-07T12:58:51.829Z</time></trkpt><trkpt lat="43.1855583" lon="13.1520717"><ele>701.0</ele><time>2026-04-07T12:58:52.83Z</time></trkpt><trkpt lat="43.1855867" lon="13.1522167"><ele>701.0</ele><time>2026-04-07T12:58:53.829Z</time></trkpt><trkpt lat="43.1856067" lon="13.15237"><ele>701.0</ele><time>2026-04-07T12:58:54.829Z</time></trkpt><trkpt lat="43.18563" lon="13.1525117"><ele>701.0</ele><time>2026-04-07T12:58:55.829Z</time></trkpt><trkpt lat="43.1856567" lon="13.1526583"><ele>701.0</ele><time>2026-04-07T12:58:56.83Z</time></trkpt><trkpt lat="43.1856833" lon="13.152815"><ele>701.0</ele><time>2026-04-07T12:58:57.83Z</time></trkpt><trkpt lat="43.18571" lon="13.152985"><ele>712.0</ele><time>2026-04-07T12:58:58.83Z</time></trkpt><trkpt lat="43.18574" lon="13.1531433"><ele>723.0</ele><time>2026-04-07T12:58:59.83Z</time></trkpt><trkpt lat="43.1857783" lon="13.1533017"><ele>734.0</ele><time>2026-04-07T12:59:00.83Z</time></trkpt><trkpt lat="43.1858217" lon="13.15345"><ele>745.0</ele><time>2026-04-07T12:59:01.83Z</time></trkpt><trkpt lat="43.1858667" lon="13.1535933"><ele>745.0</ele><time>2026-04-07T12:59:02.83Z</time></trkpt><trkpt lat="43.18592" lon="13.15373"><ele>745.0</ele><time>2026-04-07T12:59:03.83Z</time></trkpt><trkpt lat="43.185975" lon="13.1538717"><ele>745.0</ele><time>2026-04-07T12:59:04.829Z</time></trkpt><trkpt lat="43.1860233" lon="13.1540167"><ele>745.0</ele><time>2026-04-07T12:59:05.83Z</time></trkpt><trkpt lat="43.18605" lon="13.15416"><ele>745.0</ele><time>2026-04-07T12:59:06.83Z</time></trkpt><trkpt lat="43.186065" lon="13.1543083"><ele>745.0</ele><time>2026-04-07T12:59:07.83Z</time></trkpt><trkpt lat="43.18608" lon="13.15447"><ele>745.0</ele><time>2026-04-07T12:59:08.83Z</time></trkpt><trkpt lat="43.186095" lon="13.1546333"><ele>745.0</ele><time>2026-04-07T12:59:09.829Z</time></trkpt><trkpt lat="43.186115" lon="13.154795"><ele>745.25</ele><time>2026-04-07T12:59:10.829Z</time></trkpt><trkpt lat="43.1861367" lon="13.15495"><ele>745.5</ele><time>2026-04-07T12:59:11.83Z</time></trkpt><trkpt lat="43.186165" lon="13.15511"><ele>745.75</ele><time>2026-04-07T12:59:12.83Z</time></trkpt><trkpt lat="43.1861967" lon="13.15527"><ele>746.0</ele><time>2026-04-07T12:59:13.83Z</time></trkpt><trkpt lat="43.18624" lon="13.1554283"><ele>746.0</ele><time>2026-04-07T12:59:14.829Z</time></trkpt><trkpt lat="43.1862917" lon="13.1555767"><ele>746.0</ele><time>2026-04-07T12:59:15.829Z</time></trkpt><trkpt lat="43.1863433" lon="13.1557367"><ele>746.0</ele><time>2026-04-07T12:59:16.83Z</time></trkpt><trkpt lat="43.1863983" lon="13.1558967"><ele>746.0</ele><time>2026-04-07T12:59:17.83Z</time></trkpt><trkpt lat="43.1864583" lon="13.1560517"><ele>752.75</ele><time>2026-04-07T12:59:18.829Z</time></trkpt><trkpt lat="43.18652" lon="13.1562017"><ele>759.5</ele><time>2026-04-07T12:59:19.829Z</time></trkpt><trkpt lat="43.1865833" lon="13.156345"><ele>766.25</ele><time>2026-04-07T12:59:20.829Z</time></trkpt><trkpt lat="43.186645" lon="13.1564833"><ele>773.0</ele><time>2026-04-07T12:59:21.83Z</time></trkpt><trkpt lat="43.186705" lon="13.1566167"><ele>773.0</ele><time>2026-04-07T12:59:22.83Z</time></trkpt><trkpt lat="43.1867767" lon="13.15674"><ele>773.0</ele><time>2026-04-07T12:59:23.83Z</time></trkpt><trkpt lat="43.18685" lon="13.1568517"><ele>773.0</ele><time>2026-04-07T12:59:24.83Z</time></trkpt><trkpt lat="43.1869117" lon="13.15694"><ele>773.0</ele><time>2026-04-07T12:59:25.83Z</time></trkpt><trkpt lat="43.1869717" lon="13.1570233"><ele>773.0</ele><time>2026-04-07T12:59:26.83Z</time></trkpt><trkpt lat="43.18704" lon="13.157105"><ele>773.0</ele><time>2026-04-07T12:59:27.83Z</time></trkpt><trkpt lat="43.187115" lon="13.1571733"><ele>773.0</ele><time>2026-04-07T12:59:28.83Z</time></trkpt><trkpt lat="43.1872033" lon="13.1572217"><ele>773.0</ele><time>2026-04-07T12:59:29.83Z</time></trkpt><trkpt lat="43.1872983" lon="13.15725"><ele>773.0</ele><time>2026-04-07T12:59:30.829Z</time></trkpt><trkpt lat="43.1873983" lon="13.1572833"><ele>773.0</ele><time>2026-04-07T12:59:31.83Z</time></trkpt><trkpt lat="43.1875033" lon="13.1573133"><ele>775.0</ele><time>2026-04-07T12:59:32.83Z</time></trkpt><trkpt lat="43.1876117" lon="13.1573467"><ele>777.0</ele><time>2026-04-07T12:59:33.83Z</time></trkpt><trkpt lat="43.1877133" lon="13.1573983"><ele>779.0</ele><time>2026-04-07T12:59:34.83Z</time></trkpt><trkpt lat="43.1878167" lon="13.1574433"><ele>781.0</ele><time>2026-04-07T12:59:35.83Z</time></trkpt><trkpt lat="43.1879167" lon="13.1574817"><ele>783.0</ele><time>2026-04-07T12:59:36.83Z</time></trkpt><trkpt lat="43.1880133" lon="13.15751"><ele>783.0</ele><time>2026-04-07T12:59:37.83Z</time></trkpt><trkpt lat="43.1881183" lon="13.1575217"><ele>783.0</ele><time>2026-04-07T12:59:38.829Z</time></trkpt><trkpt lat="43.1882133" lon="13.1575317"><ele>783.0</ele><time>2026-04-07T12:59:39.829Z</time></trkpt><trkpt lat="43.1883083" lon="13.15754"><ele>783.0</ele><time>2026-04-07T12:59:40.83Z</time></trkpt><trkpt lat="43.1884067" lon="13.1575533"><ele>783.0</ele><time>2026-04-07T12:59:41.83Z</time></trkpt><trkpt lat="43.1885017" lon="13.15758"><ele>785.5</ele><time>2026-04-07T12:59:42.83Z</time></trkpt><trkpt lat="43.1885867" lon="13.15761"><ele>788.0</ele><time>2026-04-07T12:59:43.83Z</time></trkpt><trkpt lat="43.1886633" lon="13.1576517"><ele>790.5</ele><time>2026-04-07T12:59:44.83Z</time></trkpt><trkpt lat="43.1887317" lon="13.157695"><ele>793.0</ele><time>2026-04-07T12:59:45.83Z</time></trkpt><trkpt lat="43.18881" lon="13.157735"><ele>795.5</ele><time>2026-04-07T12:59:46.83Z</time></trkpt><trkpt lat="43.18889" lon="13.15778"><ele>798.0</ele><time>2026-04-07T12:59:47.83Z</time></trkpt><trkpt lat="43.188965" lon="13.1578367"><ele>798.3333333333334</ele><time>2026-04-07T12:59:48.83Z</time></trkpt><trkpt lat="43.1890383" lon="13.1579017"><ele>798.6666666666667</ele><time>2026-04-07T12:59:49.83Z</time></trkpt><trkpt lat="43.189105" lon="13.157965"><ele>799.0</ele><time>2026-04-07T12:59:50.83Z</time></trkpt><trkpt lat="43.1891767" lon="13.1580267"><ele>799.3333333333334</ele><time>2026-04-07T12:59:51.83Z</time></trkpt><trkpt lat="43.18924" lon="13.1580817"><ele>799.6666666666667</ele><time>2026-04-07T12:59:52.83Z</time></trkpt><trkpt lat="43.1893067" lon="13.1581267"><ele>800.0</ele><time>2026-04-07T12:59:53.83Z</time></trkpt><trkpt lat="43.1893867" lon="13.1581633"><ele>800.0000000000001</ele><time>2026-04-07T12:59:54.83Z</time></trkpt><trkpt lat="43.18946" lon="13.1581833"><ele>800.0</ele><time>2026-04-07T12:59:55.83Z</time></trkpt><trkpt lat="43.18953" lon="13.1581933"><ele>800.0</ele><time>2026-04-07T12:59:56.83Z</time></trkpt><trkpt lat="43.1895983" lon="13.1582183"><ele>800.0</ele><time>2026-04-07T12:59:57.829Z</time></trkpt><trkpt lat="43.1896617" lon="13.1582567"><ele>800.0</ele><time>2026-04-07T12:59:58.829Z</time></trkpt><trkpt lat="43.1897217" lon="13.1583083"><ele>800.0000000000001</ele><time>2026-04-07T12:59:59.83Z</time></trkpt><trkpt lat="43.1897667" lon="13.1583767"><ele>800.0</ele><time>2026-04-07T13:00:00.83Z</time></trkpt><trkpt lat="43.1898417" lon="13.15851"><ele>797.0000000000001</ele><time>2026-04-07T13:00:02.83Z</time></trkpt><trkpt lat="43.1898883" lon="13.1586483"><ele>794.0</ele><time>2026-04-07T13:00:04.83Z</time></trkpt><trkpt lat="43.1898967" lon="13.15876"><ele>791.0</ele><time>2026-04-07T13:00:06.83Z</time></trkpt><trkpt lat="43.1899133" lon="13.1588433"><ele>788.0</ele><time>2026-04-07T13:00:08.83Z</time></trkpt><trkpt lat="43.1899833" lon="13.1589283"><ele>785.0000000000001</ele><time>2026-04-07T13:00:11.83Z</time></trkpt><trkpt lat="43.19004" lon="13.1589917"><ele>782.0</ele><time>2026-04-07T13:00:13.829Z</time></trkpt><trkpt lat="43.1900767" lon="13.1590867"><ele>782.0</ele><time>2026-04-07T13:00:16.779Z</time></trkpt><trkpt lat="43.1902122" lon="13.1592008"><ele>782.0</ele><time>2026-04-07T13:00:24.83Z</time></trkpt><trkpt lat="43.1903015" lon="13.1592822"><ele>782.0</ele><time>2026-04-07T13:00:25.83Z</time></trkpt><trkpt lat="43.1903962" lon="13.1593539"><ele>782.0</ele><time>2026-04-07T13:00:26.83Z</time></trkpt><trkpt lat="43.1904937" lon="13.1594203"><ele>782.0</ele><time>2026-04-07T13:00:27.83Z</time></trkpt><trkpt lat="43.1905867" lon="13.1594813"><ele>782.0</ele><time>2026-04-07T13:00:28.829Z</time></trkpt><trkpt lat="43.1906805" lon="13.1595324"><ele>782.0</ele><time>2026-04-07T13:00:29.83Z</time></trkpt><trkpt lat="43.1907659" lon="13.1595868"><ele>782.0</ele><time>2026-04-07T13:00:30.83Z</time></trkpt><trkpt lat="43.1908404" lon="13.1596552"><ele>782.0</ele><time>2026-04-07T13:00:31.83Z</time></trkpt><trkpt lat="43.1909084" lon="13.1597431"><ele>782.5000000000001</ele><time>2026-04-07T13:00:32.829Z</time></trkpt><trkpt lat="43.1909656" lon="13.1598466"><ele>783.0</ele><time>2026-04-07T13:00:33.83Z</time></trkpt><trkpt lat="43.1910179" lon="13.1599647"><ele>783.5</ele><time>2026-04-07T13:00:34.829Z</time></trkpt><trkpt lat="43.1910615" lon="13.1600829"><ele>784.0</ele><time>2026-04-07T13:00:35.829Z</time></trkpt><trkpt lat="43.1910945" lon="13.1601904"><ele>784.5000000000001</ele><time>2026-04-07T13:00:36.83Z</time></trkpt><trkpt lat="43.1911233" lon="13.1602809"><ele>785.0</ele><time>2026-04-07T13:00:37.83Z</time></trkpt><trkpt lat="43.1911694" lon="13.1603497"><ele>785.0000000000001</ele><time>2026-04-07T13:00:38.83Z</time></trkpt><trkpt lat="43.19123" lon="13.1603943"><ele>785.0</ele><time>2026-04-07T13:00:39.83Z</time></trkpt><trkpt lat="43.1913053" lon="13.1604147"><ele>785.0</ele><time>2026-04-07T13:00:40.83Z</time></trkpt><trkpt lat="43.1913993" lon="13.1604051"><ele>785.0</ele><time>2026-04-07T13:00:41.829Z</time></trkpt><trkpt lat="43.1915012" lon="13.1603879"><ele>785.0000000000001</ele><time>2026-04-07T13:00:42.829Z</time></trkpt><trkpt lat="43.191603" lon="13.1603771"><ele>785.0</ele><time>2026-04-07T13:00:43.83Z</time></trkpt><trkpt lat="43.1916946" lon="13.1603769"><ele>785.1666666666667</ele><time>2026-04-07T13:00:44.83Z</time></trkpt><trkpt lat="43.1917785" lon="13.1603893"><ele>785.3333333333334</ele><time>2026-04-07T13:00:45.83Z</time></trkpt><trkpt lat="43.1918602" lon="13.1604155"><ele>785.5</ele><time>2026-04-07T13:00:46.83Z</time></trkpt><trkpt lat="43.1919338" lon="13.160456"><ele>785.6666666666667</ele><time>2026-04-07T13:00:47.83Z</time></trkpt><trkpt lat="43.1920111" lon="13.1605197"><ele>785.8333333333334</ele><time>2026-04-07T13:00:48.829Z</time></trkpt><trkpt lat="43.1920939" lon="13.160601"><ele>786.0</ele><time>2026-04-07T13:00:49.83Z</time></trkpt><trkpt lat="43.192187" lon="13.1606863"><ele>786.1999999999999</ele><time>2026-04-07T13:00:50.829Z</time></trkpt><trkpt lat="43.1922858" lon="13.1607688"><ele>786.4</ele><time>2026-04-07T13:00:51.829Z</time></trkpt><trkpt lat="43.1923807" lon="13.1608428"><ele>786.6</ele><time>2026-04-07T13:00:52.83Z</time></trkpt><trkpt lat="43.1924762" lon="13.1609081"><ele>786.8</ele><time>2026-04-07T13:00:53.83Z</time></trkpt><trkpt lat="43.1925766" lon="13.1609619"><ele>787.0</ele><time>2026-04-07T13:00:54.83Z</time></trkpt><trkpt lat="43.1926789" lon="13.1610144"><ele>787.0</ele><time>2026-04-07T13:00:55.83Z</time></trkpt><trkpt lat="43.1927825" lon="13.1610645"><ele>787.0</ele><time>2026-04-07T13:00:56.829Z</time></trkpt><trkpt lat="43.1928845" lon="13.1611119"><ele>787.0</ele><time>2026-04-07T13:00:57.83Z</time></trkpt><trkpt lat="43.1929836" lon="13.1611573"><ele>787.0</ele><time>2026-04-07T13:00:58.83Z</time></trkpt><trkpt lat="43.1930835" lon="13.1612048"><ele>787.0</ele><time>2026-04-07T13:00:59.83Z</time></trkpt><trkpt lat="43.1931822" lon="13.1612501"><ele>786.0</ele><time>2026-04-07T13:01:00.83Z</time></trkpt><trkpt lat="43.1932805" lon="13.1612959"><ele>785.0</ele><time>2026-04-07T13:01:01.83Z</time></trkpt><trkpt lat="43.1933798" lon="13.1613387"><ele>784.0</ele><time>2026-04-07T13:01:02.83Z</time></trkpt><trkpt lat="43.1934755" lon="13.1613701"><ele>783.0</ele><time>2026-04-07T13:01:03.83Z</time></trkpt><trkpt lat="43.1935755" lon="13.1613859"><ele>782.0</ele><time>2026-04-07T13:01:04.83Z</time></trkpt><trkpt lat="43.1936728" lon="13.161389"><ele>782.0</ele><time>2026-04-07T13:01:05.83Z</time></trkpt><trkpt lat="43.1937649" lon="13.1613997"><ele>782.0</ele><time>2026-04-07T13:01:06.83Z</time></trkpt><trkpt lat="43.1938602" lon="13.1614206"><ele>782.0</ele><time>2026-04-07T13:01:07.83Z</time></trkpt><trkpt lat="43.1939577" lon="13.1614526"><ele>782.0</ele><time>2026-04-07T13:01:08.83Z</time></trkpt><trkpt lat="43.1940463" lon="13.1614883"><ele>782.0</ele><time>2026-04-07T13:01:09.829Z</time></trkpt><trkpt lat="43.1941241" lon="13.1615173"><ele>784.1666666666667</ele><time>2026-04-07T13:01:10.83Z</time></trkpt><trkpt lat="43.1941993" lon="13.1615501"><ele>786.3333333333334</ele><time>2026-04-07T13:01:11.83Z</time></trkpt><trkpt lat="43.1942754" lon="13.1615943"><ele>788.5</ele><time>2026-04-07T13:01:12.83Z</time></trkpt><trkpt lat="43.1943504" lon="13.1616423"><ele>790.6666666666667</ele><time>2026-04-07T13:01:13.83Z</time></trkpt><trkpt lat="43.1944183" lon="13.1616895"><ele>792.8333333333334</ele><time>2026-04-07T13:01:14.829Z</time></trkpt><trkpt lat="43.1944833" lon="13.16173"><ele>795.0</ele><time>2026-04-07T13:01:15.829Z</time></trkpt><trkpt lat="43.1945467" lon="13.1617783"><ele>795.0</ele><time>2026-04-07T13:01:16.83Z</time></trkpt><trkpt lat="43.1946067" lon="13.1618367"><ele>795.0</ele><time>2026-04-07T13:01:17.83Z</time></trkpt><trkpt lat="43.1946667" lon="13.1619"><ele>795.0</ele><time>2026-04-07T13:01:18.83Z</time></trkpt><trkpt lat="43.1947267" lon="13.1619617"><ele>795.0</ele><time>2026-04-07T13:01:19.829Z</time></trkpt><trkpt lat="43.194795" lon="13.162"><ele>795.0</ele><time>2026-04-07T13:01:20.83Z</time></trkpt><trkpt lat="43.1948633" lon="13.16202"><ele>795.0</ele><time>2026-04-07T13:01:21.83Z</time></trkpt><trkpt lat="43.19498" lon="13.1620567"><ele>793.0</ele><time>2026-04-07T13:01:23.83Z</time></trkpt><trkpt lat="43.1950667" lon="13.1621717"><ele>791.0</ele><time>2026-04-07T13:01:25.829Z</time></trkpt><trkpt lat="43.1950967" lon="13.16227"><ele>789.0</ele><time>2026-04-07T13:01:26.829Z</time></trkpt><trkpt lat="43.1951183" lon="13.16237"><ele>787.0</ele><time>2026-04-07T13:01:27.83Z</time></trkpt><trkpt lat="43.1951433" lon="13.1624883"><ele>785.0</ele><time>2026-04-07T13:01:28.83Z</time></trkpt><trkpt lat="43.195165" lon="13.1626117"><ele>785.0</ele><time>2026-04-07T13:01:29.829Z</time></trkpt><trkpt lat="43.1952" lon="13.162735"><ele>785.0</ele><time>2026-04-07T13:01:30.829Z</time></trkpt><trkpt lat="43.1952367" lon="13.16286"><ele>785.0</ele><time>2026-04-07T13:01:31.83Z</time></trkpt><trkpt lat="43.1952767" lon="13.1629783"><ele>785.0</ele><time>2026-04-07T13:01:32.83Z</time></trkpt><trkpt lat="43.19531" lon="13.1630967"><ele>785.0</ele><time>2026-04-07T13:01:33.829Z</time></trkpt><trkpt lat="43.1953383" lon="13.163215"><ele>785.5000000000001</ele><time>2026-04-07T13:01:34.83Z</time></trkpt><trkpt lat="43.1953617" lon="13.1633333"><ele>786.0</ele><time>2026-04-07T13:01:35.83Z</time></trkpt><trkpt lat="43.1953917" lon="13.1634467"><ele>786.5</ele><time>2026-04-07T13:01:36.829Z</time></trkpt><trkpt lat="43.1954317" lon="13.1635583"><ele>787.0</ele><time>2026-04-07T13:01:37.829Z</time></trkpt><trkpt lat="43.1954767" lon="13.1636633"><ele>787.5000000000001</ele><time>2026-04-07T13:01:38.83Z</time></trkpt><trkpt lat="43.195525" lon="13.16377"><ele>788.0</ele><time>2026-04-07T13:01:39.829Z</time></trkpt><trkpt lat="43.1955817" lon="13.1638667"><ele>788.0</ele><time>2026-04-07T13:01:40.83Z</time></trkpt><trkpt lat="43.1956567" lon="13.163945"><ele>788.0</ele><time>2026-04-07T13:01:41.83Z</time></trkpt><trkpt lat="43.1957417" lon="13.1640067"><ele>788.0</ele><time>2026-04-07T13:01:42.829Z</time></trkpt><trkpt lat="43.1958383" lon="13.1640383"><ele>788.0</ele><time>2026-04-07T13:01:43.83Z</time></trkpt><trkpt lat="43.1959517" lon="13.16405"><ele>788.0</ele><time>2026-04-07T13:01:44.83Z</time></trkpt><trkpt lat="43.1960533" lon="13.16406"><ele>786.6666666666667</ele><time>2026-04-07T13:01:45.83Z</time></trkpt><trkpt lat="43.19614" lon="13.1640533"><ele>785.3333333333334</ele><time>2026-04-07T13:01:46.83Z</time></trkpt><trkpt lat="43.1962267" lon="13.16401"><ele>784.0</ele><time>2026-04-07T13:01:47.83Z</time></trkpt><trkpt lat="43.19631" lon="13.1639517"><ele>782.6666666666667</ele><time>2026-04-07T13:01:48.83Z</time></trkpt><trkpt lat="43.1963883" lon="13.1639033"><ele>781.3333333333334</ele><time>2026-04-07T13:01:49.83Z</time></trkpt><trkpt lat="43.196455" lon="13.1638633"><ele>780.0</ele><time>2026-04-07T13:01:50.83Z</time></trkpt><trkpt lat="43.19655" lon="13.1638667"><ele>780.0</ele><time>2026-04-07T13:01:52.83Z</time></trkpt><trkpt lat="43.19667" lon="13.163945"><ele>780.0</ele><time>2026-04-07T13:01:54.83Z</time></trkpt><trkpt lat="43.1967533" lon="13.1640033"><ele>780.0</ele><time>2026-04-07T13:01:55.83Z</time></trkpt><trkpt lat="43.1968483" lon="13.1640667"><ele>780.0</ele><time>2026-04-07T13:01:56.83Z</time></trkpt><trkpt lat="43.1969433" lon="13.164135"><ele>780.0</ele><time>2026-04-07T13:01:57.83Z</time></trkpt><trkpt lat="43.1970417" lon="13.1642033"><ele>780.0</ele><time>2026-04-07T13:01:58.83Z</time></trkpt><trkpt lat="43.1971417" lon="13.164275"><ele>780.0</ele><time>2026-04-07T13:01:59.83Z</time></trkpt><trkpt lat="43.1972417" lon="13.1643417"><ele>780.0</ele><time>2026-04-07T13:02:00.829Z</time></trkpt><trkpt lat="43.1973317" lon="13.1644033"><ele>780.0</ele><time>2026-04-07T13:02:01.829Z</time></trkpt><trkpt lat="43.1974167" lon="13.1644667"><ele>780.0</ele><time>2026-04-07T13:02:02.829Z</time></trkpt><trkpt lat="43.197505" lon="13.1645233"><ele>780.8</ele><time>2026-04-07T13:02:03.83Z</time></trkpt><trkpt lat="43.197595" lon="13.1645817"><ele>781.6</ele><time>2026-04-07T13:02:04.83Z</time></trkpt><trkpt lat="43.1976867" lon="13.16464"><ele>782.4000000000001</ele><time>2026-04-07T13:02:05.83Z</time></trkpt><trkpt lat="43.1977867" lon="13.16469"><ele>783.2</ele><time>2026-04-07T13:02:06.83Z</time></trkpt><trkpt lat="43.197885" lon="13.1647367"><ele>784.0</ele><time>2026-04-07T13:02:07.83Z</time></trkpt><trkpt lat="43.1979833" lon="13.16478"><ele>784.0</ele><time>2026-04-07T13:02:08.83Z</time></trkpt><trkpt lat="43.1980767" lon="13.1648183"><ele>784.0</ele><time>2026-04-07T13:02:09.83Z</time></trkpt><trkpt lat="43.1981633" lon="13.16485"><ele>784.0</ele><time>2026-04-07T13:02:10.83Z</time></trkpt><trkpt lat="43.1982483" lon="13.164875"><ele>784.0</ele><time>2026-04-07T13:02:11.83Z</time></trkpt><trkpt lat="43.19834" lon="13.1648983"><ele>784.0</ele><time>2026-04-07T13:02:12.83Z</time></trkpt><trkpt lat="43.1984333" lon="13.164925"><ele>784.8000000000001</ele><time>2026-04-07T13:02:13.83Z</time></trkpt><trkpt lat="43.1985367" lon="13.16497"><ele>785.6</ele><time>2026-04-07T13:02:14.83Z</time></trkpt><trkpt lat="43.1986333" lon="13.1650167"><ele>786.4</ele><time>2026-04-07T13:02:15.83Z</time></trkpt><trkpt lat="43.198715" lon="13.16507"><ele>787.2</ele><time>2026-04-07T13:02:16.83Z</time></trkpt><trkpt lat="43.1988" lon="13.1651167"><ele>788.0</ele><time>2026-04-07T13:02:17.83Z</time></trkpt><trkpt lat="43.1988783" lon="13.1651517"><ele>788.0000000000001</ele><time>2026-04-07T13:02:18.829Z</time></trkpt><trkpt lat="43.1989483" lon="13.1651867"><ele>788.0</ele><time>2026-04-07T13:02:19.83Z</time></trkpt><trkpt lat="43.1990133" lon="13.16522"><ele>788.0</ele><time>2026-04-07T13:02:20.829Z</time></trkpt><trkpt lat="43.1990733" lon="13.1652633"><ele>788.0</ele><time>2026-04-07T13:02:21.829Z</time></trkpt><trkpt lat="43.199135" lon="13.1653367"><ele>788.0000000000001</ele><time>2026-04-07T13:02:22.829Z</time></trkpt><trkpt lat="43.1992017" lon="13.1654183"><ele>788.0</ele><time>2026-04-07T13:02:23.83Z</time></trkpt><trkpt lat="43.1992633" lon="13.1654917"><ele>787.5000000000001</ele><time>2026-04-07T13:02:24.83Z</time></trkpt><trkpt lat="43.19933" lon="13.1655567"><ele>787.0</ele><time>2026-04-07T13:02:25.829Z</time></trkpt><trkpt lat="43.1994083" lon="13.165615"><ele>786.5</ele><time>2026-04-07T13:02:26.829Z</time></trkpt><trkpt lat="43.1994933" lon="13.1656667"><ele>786.0</ele><time>2026-04-07T13:02:27.83Z</time></trkpt><trkpt lat="43.19958" lon="13.16571"><ele>785.5000000000001</ele><time>2026-04-07T13:02:28.83Z</time></trkpt><trkpt lat="43.1996633" lon="13.1657583"><ele>785.0</ele><time>2026-04-07T13:02:29.83Z</time></trkpt><trkpt lat="43.199745" lon="13.165805"><ele>785.0</ele><time>2026-04-07T13:02:30.83Z</time></trkpt><trkpt lat="43.1998283" lon="13.165865"><ele>785.0</ele><time>2026-04-07T13:02:31.829Z</time></trkpt><trkpt lat="43.1999117" lon="13.1659267"><ele>785.0</ele><time>2026-04-07T13:02:32.83Z</time></trkpt><trkpt lat="43.2000033" lon="13.1659817"><ele>785.0</ele><time>2026-04-07T13:02:33.829Z</time></trkpt><trkpt lat="43.2000933" lon="13.1660417"><ele>785.0</ele><time>2026-04-07T13:02:34.83Z</time></trkpt><trkpt lat="43.2001733" lon="13.1661033"><ele>785.5000000000001</ele><time>2026-04-07T13:02:35.83Z</time></trkpt><trkpt lat="43.2002433" lon="13.16618"><ele>786.0</ele><time>2026-04-07T13:02:36.83Z</time></trkpt><trkpt lat="43.2003017" lon="13.1662533"><ele>786.5</ele><time>2026-04-07T13:02:37.829Z</time></trkpt><trkpt lat="43.20035" lon="13.1663317"><ele>787.0</ele><time>2026-04-07T13:02:38.83Z</time></trkpt><trkpt lat="43.2004167" lon="13.1663983"><ele>787.5000000000001</ele><time>2026-04-07T13:02:39.83Z</time></trkpt><trkpt lat="43.200495" lon="13.1664633"><ele>788.0</ele><time>2026-04-07T13:02:40.83Z</time></trkpt><trkpt lat="43.2005683" lon="13.1665233"><ele>787.6666666666667</ele><time>2026-04-07T13:02:41.83Z</time></trkpt><trkpt lat="43.2006417" lon="13.166575"><ele>787.3333333333334</ele><time>2026-04-07T13:02:42.83Z</time></trkpt><trkpt lat="43.20071" lon="13.166625"><ele>787.0</ele><time>2026-04-07T13:02:43.83Z</time></trkpt><trkpt lat="43.2007767" lon="13.166665"><ele>786.6666666666667</ele><time>2026-04-07T13:02:44.83Z</time></trkpt><trkpt lat="43.2008433" lon="13.1667083"><ele>786.3333333333334</ele><time>2026-04-07T13:02:45.83Z</time></trkpt><trkpt lat="43.2009183" lon="13.16675"><ele>786.0</ele><time>2026-04-07T13:02:46.829Z</time></trkpt><trkpt lat="43.2009933" lon="13.1668017"><ele>786.0000000000001</ele><time>2026-04-07T13:02:47.829Z</time></trkpt><trkpt lat="43.2010667" lon="13.1668517"><ele>786.0</ele><time>2026-04-07T13:02:48.83Z</time></trkpt><trkpt lat="43.2011333" lon="13.166905"><ele>786.0</ele><time>2026-04-07T13:02:49.83Z</time></trkpt><trkpt lat="43.2012033" lon="13.166945"><ele>786.0</ele><time>2026-04-07T13:02:50.83Z</time></trkpt><trkpt lat="43.201265" lon="13.1669817"><ele>786.0</ele><time>2026-04-07T13:02:51.829Z</time></trkpt><trkpt lat="43.2013333" lon="13.1670167"><ele>786.0000000000001</ele><time>2026-04-07T13:02:52.83Z</time></trkpt><trkpt lat="43.2013967" lon="13.167045"><ele>786.0</ele><time>2026-04-07T13:02:53.83Z</time></trkpt><trkpt lat="43.2014667" lon="13.167085"><ele>786.0000000000001</ele><time>2026-04-07T13:02:54.83Z</time></trkpt><trkpt lat="43.2015367" lon="13.1671317"><ele>786.0</ele><time>2026-04-07T13:02:55.83Z</time></trkpt><trkpt lat="43.2016083" lon="13.1671683"><ele>786.0</ele><time>2026-04-07T13:02:56.83Z</time></trkpt><trkpt lat="43.2016833" lon="13.167195"><ele>786.0</ele><time>2026-04-07T13:02:57.829Z</time></trkpt><trkpt lat="43.2017517" lon="13.1672283"><ele>786.0</ele><time>2026-04-07T13:02:58.829Z</time></trkpt><trkpt lat="43.2018167" lon="13.1672567"><ele>786.0000000000001</ele><time>2026-04-07T13:02:59.829Z</time></trkpt><trkpt lat="43.2018783" lon="13.16728"><ele>786.0</ele><time>2026-04-07T13:03:00.83Z</time></trkpt><trkpt lat="43.2020017" lon="13.1673067"><ele>786.0</ele><time>2026-04-07T13:03:02.83Z</time></trkpt><trkpt lat="43.20207" lon="13.167315"><ele>786.0</ele><time>2026-04-07T13:03:03.83Z</time></trkpt><trkpt lat="43.202145" lon="13.1673183"><ele>786.0</ele><time>2026-04-07T13:03:04.83Z</time></trkpt><trkpt lat="43.2022583" lon="13.1673067"><ele>786.0</ele><time>2026-04-07T13:03:06.83Z</time></trkpt><trkpt lat="43.2023367" lon="13.1672517"><ele>786.0</ele><time>2026-04-07T13:03:08.83Z</time></trkpt><trkpt lat="43.2024133" lon="13.1672217"><ele>786.0</ele><time>2026-04-07T13:03:10.83Z</time></trkpt><trkpt lat="43.2025133" lon="13.1672317"><ele>785.5</ele><time>2026-04-07T13:03:12.83Z</time></trkpt><trkpt lat="43.2026167" lon="13.1672083"><ele>785.0</ele><time>2026-04-07T13:03:14.83Z</time></trkpt><trkpt lat="43.2027" lon="13.1671767"><ele>784.5</ele><time>2026-04-07T13:03:16.829Z</time></trkpt><trkpt lat="43.2027767" lon="13.1671467"><ele>784.0</ele><time>2026-04-07T13:03:18.83Z</time></trkpt><trkpt lat="43.20285" lon="13.16712"><ele>783.5</ele><time>2026-04-07T13:03:20.829Z</time></trkpt><trkpt lat="43.2029367" lon="13.1670767"><ele>783.0</ele><time>2026-04-07T13:03:23.83Z</time></trkpt><trkpt lat="43.203" lon="13.1670433"><ele>783.0</ele><time>2026-04-07T13:03:25.83Z</time></trkpt><trkpt lat="43.203065" lon="13.1669983"><ele>783.0</ele><time>2026-04-07T13:03:27.829Z</time></trkpt><trkpt lat="43.2031563" lon="13.1669566"><ele>783.0</ele><time>2026-04-07T13:03:30.766Z</time></trkpt><trkpt lat="43.2032178" lon="13.1669364"><ele>783.0</ele><time>2026-04-07T13:03:32.898Z</time></trkpt><trkpt lat="43.2032795" lon="13.1669146"><ele>783.0</ele><time>2026-04-07T13:03:34.903Z</time></trkpt><trkpt lat="43.2033408" lon="13.1668886"><ele>783.0</ele><time>2026-04-07T13:03:36.908Z</time></trkpt><trkpt lat="43.2034181" lon="13.1668525"><ele>783.0</ele><time>2026-04-07T13:03:39.83Z</time></trkpt><trkpt lat="43.2035" lon="13.166811"><ele>781.6666666666666</ele><time>2026-04-07T13:03:42.626Z</time></trkpt><trkpt lat="43.2035708" lon="13.1667934"><ele>780.3333333333333</ele><time>2026-04-07T13:03:44.83Z</time></trkpt><trkpt lat="43.203632" lon="13.1667672"><ele>779.0</ele><time>2026-04-07T13:03:46.83Z</time></trkpt><trkpt lat="43.2037005" lon="13.1667524"><ele>777.6666666666666</ele><time>2026-04-07T13:03:48.834Z</time></trkpt><trkpt lat="43.2037632" lon="13.1667436"><ele>776.3333333333333</ele><time>2026-04-07T13:03:51.84Z</time></trkpt><trkpt lat="43.2037466" lon="13.1666383"><ele>775.0</ele><time>2026-04-07T13:03:55.849Z</time></trkpt><trkpt lat="43.203634" lon="13.1666379"><ele>774.9999999999999</ele><time>2026-04-07T13:03:57.83Z</time></trkpt><trkpt lat="43.2035682" lon="13.1666723"><ele>775.0</ele><time>2026-04-07T13:03:58.83Z</time></trkpt><trkpt lat="43.2035009" lon="13.1667319"><ele>775.0</ele><time>2026-04-07T13:03:59.83Z</time></trkpt><trkpt lat="43.2034376" lon="13.1667966"><ele>775.0</ele><time>2026-04-07T13:04:00.83Z</time></trkpt><trkpt lat="43.203385" lon="13.1669"><ele>774.9999999999999</ele><time>2026-04-07T13:04:02.83Z</time></trkpt><trkpt lat="43.2033183" lon="13.1669733"><ele>775.0</ele><time>2026-04-07T13:04:05.83Z</time></trkpt><trkpt lat="43.203225" lon="13.1670033"><ele>776.3333333333333</ele><time>2026-04-07T13:04:07.83Z</time></trkpt><trkpt lat="43.2031567" lon="13.1670267"><ele>777.6666666666666</ele><time>2026-04-07T13:04:08.83Z</time></trkpt><trkpt lat="43.2030867" lon="13.16706"><ele>779.0</ele><time>2026-04-07T13:04:09.83Z</time></trkpt><trkpt lat="43.2030117" lon="13.1670967"><ele>780.3333333333333</ele><time>2026-04-07T13:04:10.83Z</time></trkpt><trkpt lat="43.2029333" lon="13.1671383"><ele>781.6666666666666</ele><time>2026-04-07T13:04:11.829Z</time></trkpt><trkpt lat="43.2028517" lon="13.1671783"><ele>783.0</ele><time>2026-04-07T13:04:12.83Z</time></trkpt><trkpt lat="43.2027667" lon="13.1672133"><ele>783.0</ele><time>2026-04-07T13:04:13.83Z</time></trkpt><trkpt lat="43.202675" lon="13.1672467"><ele>783.0</ele><time>2026-04-07T13:04:14.83Z</time></trkpt><trkpt lat="43.2025867" lon="13.1672783"><ele>783.0</ele><time>2026-04-07T13:04:15.83Z</time></trkpt><trkpt lat="43.2025083" lon="13.16731"><ele>783.0</ele><time>2026-04-07T13:04:16.83Z</time></trkpt><trkpt lat="43.2024383" lon="13.1673333"><ele>783.0</ele><time>2026-04-07T13:04:17.83Z</time></trkpt><trkpt lat="43.2023683" lon="13.1673433"><ele>783.0</ele><time>2026-04-07T13:04:18.829Z</time></trkpt><trkpt lat="43.2022867" lon="13.1673417"><ele>783.5</ele><time>2026-04-07T13:04:19.83Z</time></trkpt><trkpt lat="43.2022" lon="13.167335"><ele>784.0</ele><time>2026-04-07T13:04:20.829Z</time></trkpt><trkpt lat="43.2021117" lon="13.16733"><ele>784.5</ele><time>2026-04-07T13:04:21.829Z</time></trkpt><trkpt lat="43.2020233" lon="13.1673183"><ele>785.0</ele><time>2026-04-07T13:04:22.83Z</time></trkpt><trkpt lat="43.2019333" lon="13.1672967"><ele>785.5</ele><time>2026-04-07T13:04:23.83Z</time></trkpt><trkpt lat="43.2018417" lon="13.1672733"><ele>786.0</ele><time>2026-04-07T13:04:24.83Z</time></trkpt><trkpt lat="43.2017517" lon="13.16723"><ele>786.0</ele><time>2026-04-07T13:04:25.83Z</time></trkpt><trkpt lat="43.2016667" lon="13.1671917"><ele>786.0</ele><time>2026-04-07T13:04:26.83Z</time></trkpt><trkpt lat="43.2015767" lon="13.167155"><ele>786.0</ele><time>2026-04-07T13:04:27.83Z</time></trkpt><trkpt lat="43.20149" lon="13.1671117"><ele>786.0</ele><time>2026-04-07T13:04:28.83Z</time></trkpt><trkpt lat="43.2014017" lon="13.1670683"><ele>786.0</ele><time>2026-04-07T13:04:29.83Z</time></trkpt><trkpt lat="43.20132" lon="13.167015"><ele>786.0</ele><time>2026-04-07T13:04:30.83Z</time></trkpt><trkpt lat="43.2012367" lon="13.1669633"><ele>786.0</ele><time>2026-04-07T13:04:31.829Z</time></trkpt><trkpt lat="43.2011433" lon="13.166905"><ele>786.0</ele><time>2026-04-07T13:04:32.83Z</time></trkpt><trkpt lat="43.20105" lon="13.166845"><ele>786.0</ele><time>2026-04-07T13:04:33.83Z</time></trkpt><trkpt lat="43.200975" lon="13.1667917"><ele>786.0</ele><time>2026-04-07T13:04:34.83Z</time></trkpt><trkpt lat="43.20091" lon="13.1667517"><ele>786.0</ele><time>2026-04-07T13:04:35.83Z</time></trkpt><trkpt lat="43.2008467" lon="13.1667217"><ele>786.0</ele><time>2026-04-07T13:04:36.83Z</time></trkpt><trkpt lat="43.2007817" lon="13.1666917"><ele>786.0</ele><time>2026-04-07T13:04:37.829Z</time></trkpt><trkpt lat="43.2007117" lon="13.1666433"><ele>786.0</ele><time>2026-04-07T13:04:38.83Z</time></trkpt><trkpt lat="43.2006267" lon="13.1665767"><ele>786.0</ele><time>2026-04-07T13:04:39.83Z</time></trkpt><trkpt lat="43.2005367" lon="13.166495"><ele>786.0</ele><time>2026-04-07T13:04:40.83Z</time></trkpt><trkpt lat="43.20045" lon="13.16642"><ele>786.4</ele><time>2026-04-07T13:04:41.829Z</time></trkpt><trkpt lat="43.200365" lon="13.16633"><ele>786.8</ele><time>2026-04-07T13:04:42.83Z</time></trkpt><trkpt lat="43.2002717" lon="13.1662267"><ele>787.1999999999999</ele><time>2026-04-07T13:04:43.83Z</time></trkpt><trkpt lat="43.2001867" lon="13.1661367"><ele>787.5999999999999</ele><time>2026-04-07T13:04:44.83Z</time></trkpt><trkpt lat="43.2001033" lon="13.1660633"><ele>788.0</ele><time>2026-04-07T13:04:45.83Z</time></trkpt><trkpt lat="43.200005" lon="13.165995"><ele>788.0</ele><time>2026-04-07T13:04:46.83Z</time></trkpt><trkpt lat="43.1999067" lon="13.1659233"><ele>788.0</ele><time>2026-04-07T13:04:47.83Z</time></trkpt><trkpt lat="43.1998117" lon="13.1658583"><ele>788.0</ele><time>2026-04-07T13:04:48.83Z</time></trkpt><trkpt lat="43.1997233" lon="13.16579"><ele>788.0</ele><time>2026-04-07T13:04:49.83Z</time></trkpt><trkpt lat="43.1996317" lon="13.1657283"><ele>788.0</ele><time>2026-04-07T13:04:50.83Z</time></trkpt><trkpt lat="43.1995367" lon="13.1656667"><ele>787.5000000000001</ele><time>2026-04-07T13:04:51.83Z</time></trkpt><trkpt lat="43.19945" lon="13.1656117"><ele>787.0</ele><time>2026-04-07T13:04:52.83Z</time></trkpt><trkpt lat="43.19937" lon="13.1655683"><ele>786.5</ele><time>2026-04-07T13:04:53.83Z</time></trkpt><trkpt lat="43.1993083" lon="13.1655267"><ele>786.0</ele><time>2026-04-07T13:04:54.83Z</time></trkpt><trkpt lat="43.1992483" lon="13.1654883"><ele>785.5000000000001</ele><time>2026-04-07T13:04:55.83Z</time></trkpt><trkpt lat="43.1991883" lon="13.1654467"><ele>785.0</ele><time>2026-04-07T13:04:56.829Z</time></trkpt><trkpt lat="43.19912" lon="13.16539"><ele>785.0</ele><time>2026-04-07T13:04:57.83Z</time></trkpt><trkpt lat="43.1990433" lon="13.1653283"><ele>785.0</ele><time>2026-04-07T13:04:58.83Z</time></trkpt><trkpt lat="43.1989567" lon="13.1652783"><ele>785.0</ele><time>2026-04-07T13:04:59.83Z</time></trkpt><trkpt lat="43.19887" lon="13.1652383"><ele>785.0</ele><time>2026-04-07T13:05:00.83Z</time></trkpt><trkpt lat="43.1987767" lon="13.1651917"><ele>785.0</ele><time>2026-04-07T13:05:01.83Z</time></trkpt><trkpt lat="43.198675" lon="13.165145"><ele>785.0000000000001</ele><time>2026-04-07T13:05:02.83Z</time></trkpt><trkpt lat="43.19858" lon="13.1650833"><ele>785.0</ele><time>2026-04-07T13:05:03.83Z</time></trkpt><trkpt lat="43.1984967" lon="13.1650233"><ele>785.0</ele><time>2026-04-07T13:05:04.83Z</time></trkpt><trkpt lat="43.1984183" lon="13.16498"><ele>785.0</ele><time>2026-04-07T13:05:05.829Z</time></trkpt><trkpt lat="43.1983483" lon="13.1649367"><ele>785.0000000000001</ele><time>2026-04-07T13:05:06.83Z</time></trkpt><trkpt lat="43.1982717" lon="13.1648933"><ele>785.0</ele><time>2026-04-07T13:05:07.83Z</time></trkpt><trkpt lat="43.1981917" lon="13.1648517"><ele>784.8333333333334</ele><time>2026-04-07T13:05:08.829Z</time></trkpt><trkpt lat="43.1981133" lon="13.1648117"><ele>784.6666666666667</ele><time>2026-04-07T13:05:09.83Z</time></trkpt><trkpt lat="43.1980417" lon="13.1647833"><ele>784.5</ele><time>2026-04-07T13:05:10.83Z</time></trkpt><trkpt lat="43.1979767" lon="13.16476"><ele>784.3333333333333</ele><time>2026-04-07T13:05:11.83Z</time></trkpt><trkpt lat="43.1979117" lon="13.1647383"><ele>784.1666666666666</ele><time>2026-04-07T13:05:12.829Z</time></trkpt><trkpt lat="43.19784" lon="13.1647083"><ele>784.0</ele><time>2026-04-07T13:05:13.829Z</time></trkpt><trkpt lat="43.1977617" lon="13.1646717"><ele>783.9999999999999</ele><time>2026-04-07T13:05:14.83Z</time></trkpt><trkpt lat="43.19769" lon="13.164625"><ele>784.0</ele><time>2026-04-07T13:05:15.83Z</time></trkpt><trkpt lat="43.197615" lon="13.1645817"><ele>784.0</ele><time>2026-04-07T13:05:16.83Z</time></trkpt><trkpt lat="43.1975383" lon="13.164535"><ele>784.0</ele><time>2026-04-07T13:05:17.829Z</time></trkpt><trkpt lat="43.197465" lon="13.164485"><ele>783.9999999999999</ele><time>2026-04-07T13:05:18.83Z</time></trkpt><trkpt lat="43.197395" lon="13.16444"><ele>784.0</ele><time>2026-04-07T13:05:19.83Z</time></trkpt><trkpt lat="43.1973183" lon="13.1643883"><ele>783.2</ele><time>2026-04-07T13:05:20.83Z</time></trkpt><trkpt lat="43.1972367" lon="13.16433"><ele>782.4000000000001</ele><time>2026-04-07T13:05:21.83Z</time></trkpt><trkpt lat="43.1971533" lon="13.16427"><ele>781.6</ele><time>2026-04-07T13:05:22.83Z</time></trkpt><trkpt lat="43.197065" lon="13.1642083"><ele>780.8</ele><time>2026-04-07T13:05:23.829Z</time></trkpt><trkpt lat="43.1969767" lon="13.1641483"><ele>780.0</ele><time>2026-04-07T13:05:24.829Z</time></trkpt><trkpt lat="43.19689" lon="13.1640917"><ele>780.0</ele><time>2026-04-07T13:05:25.83Z</time></trkpt><trkpt lat="43.1968067" lon="13.16404"><ele>780.0</ele><time>2026-04-07T13:05:26.83Z</time></trkpt><trkpt lat="43.1967217" lon="13.1639833"><ele>780.0</ele><time>2026-04-07T13:05:27.83Z</time></trkpt><trkpt lat="43.196635" lon="13.1639317"><ele>780.0</ele><time>2026-04-07T13:05:28.829Z</time></trkpt><trkpt lat="43.19656" lon="13.1638783"><ele>780.0</ele><time>2026-04-07T13:05:29.83Z</time></trkpt><trkpt lat="43.1964917" lon="13.1638467"><ele>780.0</ele><time>2026-04-07T13:05:30.83Z</time></trkpt><trkpt lat="43.1963733" lon="13.1638667"><ele>780.0</ele><time>2026-04-07T13:05:32.829Z</time></trkpt><trkpt lat="43.1963033" lon="13.1639117"><ele>780.0</ele><time>2026-04-07T13:05:33.83Z</time></trkpt><trkpt lat="43.196225" lon="13.1639633"><ele>780.0</ele><time>2026-04-07T13:05:34.83Z</time></trkpt><trkpt lat="43.1961433" lon="13.1640117"><ele>780.0</ele><time>2026-04-07T13:05:35.83Z</time></trkpt><trkpt lat="43.1960517" lon="13.164035"><ele>780.0</ele><time>2026-04-07T13:05:36.83Z</time></trkpt><trkpt lat="43.1959517" lon="13.164025"><ele>780.0</ele><time>2026-04-07T13:05:37.829Z</time></trkpt><trkpt lat="43.1958567" lon="13.16401"><ele>781.6</ele><time>2026-04-07T13:05:38.83Z</time></trkpt><trkpt lat="43.1957667" lon="13.1639867"><ele>783.2</ele><time>2026-04-07T13:05:39.829Z</time></trkpt><trkpt lat="43.1956867" lon="13.16394"><ele>784.8</ele><time>2026-04-07T13:05:40.83Z</time></trkpt><trkpt lat="43.1956133" lon="13.163865"><ele>786.4</ele><time>2026-04-07T13:05:41.83Z</time></trkpt><trkpt lat="43.1955483" lon="13.163775"><ele>788.0</ele><time>2026-04-07T13:05:42.83Z</time></trkpt><trkpt lat="43.1954917" lon="13.1636583"><ele>788.0</ele><time>2026-04-07T13:05:43.83Z</time></trkpt><trkpt lat="43.1954383" lon="13.1635317"><ele>788.0</ele><time>2026-04-07T13:05:44.83Z</time></trkpt><trkpt lat="43.195395" lon="13.1633967"><ele>788.0</ele><time>2026-04-07T13:05:45.83Z</time></trkpt><trkpt lat="43.1953667" lon="13.1632567"><ele>788.0</ele><time>2026-04-07T13:05:46.83Z</time></trkpt><trkpt lat="43.1953317" lon="13.1631183"><ele>788.0</ele><time>2026-04-07T13:05:47.83Z</time></trkpt><trkpt lat="43.195295" lon="13.162985"><ele>787.4</ele><time>2026-04-07T13:05:48.83Z</time></trkpt><trkpt lat="43.1952517" lon="13.162845"><ele>786.8</ele><time>2026-04-07T13:05:49.83Z</time></trkpt><trkpt lat="43.1952083" lon="13.1627017"><ele>786.2</ele><time>2026-04-07T13:05:50.829Z</time></trkpt><trkpt lat="43.19517" lon="13.1625583"><ele>785.6</ele><time>2026-04-07T13:05:51.83Z</time></trkpt><trkpt lat="43.1951433" lon="13.16242"><ele>785.0</ele><time>2026-04-07T13:05:52.829Z</time></trkpt><trkpt lat="43.1951167" lon="13.1622967"><ele>785.0000000000001</ele><time>2026-04-07T13:05:53.83Z</time></trkpt><trkpt lat="43.1950917" lon="13.1621933"><ele>785.0</ele><time>2026-04-07T13:05:54.829Z</time></trkpt><trkpt lat="43.1950617" lon="13.1621133"><ele>785.0</ele><time>2026-04-07T13:05:55.829Z</time></trkpt><trkpt lat="43.1950117" lon="13.1620417"><ele>785.0</ele><time>2026-04-07T13:05:56.83Z</time></trkpt><trkpt lat="43.19495" lon="13.1619967"><ele>785.0000000000001</ele><time>2026-04-07T13:05:57.83Z</time></trkpt><trkpt lat="43.1948617" lon="13.1619717"><ele>785.0</ele><time>2026-04-07T13:05:58.83Z</time></trkpt><trkpt lat="43.19477" lon="13.1619467"><ele>787.0</ele><time>2026-04-07T13:05:59.829Z</time></trkpt><trkpt lat="43.19469" lon="13.1619"><ele>789.0</ele><time>2026-04-07T13:06:00.83Z</time></trkpt><trkpt lat="43.1946067" lon="13.1618267"><ele>791.0</ele><time>2026-04-07T13:06:01.829Z</time></trkpt><trkpt lat="43.1945183" lon="13.1617467"><ele>793.0</ele><time>2026-04-07T13:06:02.83Z</time></trkpt><trkpt lat="43.1944383" lon="13.1616817"><ele>795.0</ele><time>2026-04-07T13:06:03.83Z</time></trkpt><trkpt lat="43.19435" lon="13.1616183"><ele>795.0</ele><time>2026-04-07T13:06:04.829Z</time></trkpt><trkpt lat="43.194259" lon="13.1615617"><ele>795.0</ele><time>2026-04-07T13:06:05.83Z</time></trkpt><trkpt lat="43.1941572" lon="13.1615131"><ele>795.0</ele><time>2026-04-07T13:06:06.83Z</time></trkpt><trkpt lat="43.1940463" lon="13.1614753"><ele>795.0</ele><time>2026-04-07T13:06:07.829Z</time></trkpt><trkpt lat="43.1939415" lon="13.1614431"><ele>795.0</ele><time>2026-04-07T13:06:08.83Z</time></trkpt><trkpt lat="43.1938508" lon="13.1614189"><ele>792.4</ele><time>2026-04-07T13:06:09.829Z</time></trkpt><trkpt lat="43.1937513" lon="13.1613957"><ele>789.8</ele><time>2026-04-07T13:06:10.83Z</time></trkpt><trkpt lat="43.1936481" lon="13.1613857"><ele>787.2</ele><time>2026-04-07T13:06:11.83Z</time></trkpt><trkpt lat="43.1935418" lon="13.1613808"><ele>784.6</ele><time>2026-04-07T13:06:12.829Z</time></trkpt><trkpt lat="43.1934367" lon="13.16136"><ele>782.0</ele><time>2026-04-07T13:06:13.829Z</time></trkpt><trkpt lat="43.1933327" lon="13.1613112"><ele>782.0</ele><time>2026-04-07T13:06:14.83Z</time></trkpt><trkpt lat="43.1932329" lon="13.1612626"><ele>782.0</ele><time>2026-04-07T13:06:15.83Z</time></trkpt><trkpt lat="43.1931347" lon="13.1612161"><ele>782.0</ele><time>2026-04-07T13:06:16.83Z</time></trkpt><trkpt lat="43.1930362" lon="13.1611683"><ele>782.0</ele><time>2026-04-07T13:06:17.83Z</time></trkpt><trkpt lat="43.1929326" lon="13.1611179"><ele>782.0</ele><time>2026-04-07T13:06:18.829Z</time></trkpt><trkpt lat="43.1928256" lon="13.1610682"><ele>783.0</ele><time>2026-04-07T13:06:19.83Z</time></trkpt><trkpt lat="43.1927193" lon="13.161019"><ele>784.0</ele><time>2026-04-07T13:06:20.83Z</time></trkpt><trkpt lat="43.1926226" lon="13.1609683"><ele>785.0</ele><time>2026-04-07T13:06:21.829Z</time></trkpt><trkpt lat="43.1925297" lon="13.1609165"><ele>786.0</ele><time>2026-04-07T13:06:22.829Z</time></trkpt><trkpt lat="43.1924327" lon="13.160853"><ele>787.0</ele><time>2026-04-07T13:06:23.83Z</time></trkpt><trkpt lat="43.1923287" lon="13.1607787"><ele>786.8</ele><time>2026-04-07T13:06:24.829Z</time></trkpt><trkpt lat="43.1922306" lon="13.1606938"><ele>786.6</ele><time>2026-04-07T13:06:25.83Z</time></trkpt><trkpt lat="43.192141" lon="13.1606099"><ele>786.4</ele><time>2026-04-07T13:06:26.83Z</time></trkpt><trkpt lat="43.1920659" lon="13.1605385"><ele>786.1999999999999</ele><time>2026-04-07T13:06:27.83Z</time></trkpt><trkpt lat="43.1920033" lon="13.1604864"><ele>786.0</ele><time>2026-04-07T13:06:28.829Z</time></trkpt><trkpt lat="43.191938" lon="13.1604359"><ele>786.0</ele><time>2026-04-07T13:06:29.83Z</time></trkpt><trkpt lat="43.191858" lon="13.1603902"><ele>786.0</ele><time>2026-04-07T13:06:30.83Z</time></trkpt><trkpt lat="43.1917671" lon="13.1603644"><ele>786.0</ele><time>2026-04-07T13:06:31.83Z</time></trkpt><trkpt lat="43.1916666" lon="13.1603545"><ele>786.0</ele><time>2026-04-07T13:06:32.83Z</time></trkpt><trkpt lat="43.1915633" lon="13.1603495"><ele>786.0</ele><time>2026-04-07T13:06:33.83Z</time></trkpt><trkpt lat="43.1914727" lon="13.1603544"><ele>785.8</ele><time>2026-04-07T13:06:34.83Z</time></trkpt><trkpt lat="43.1913883" lon="13.1603694"><ele>785.5999999999999</ele><time>2026-04-07T13:06:35.83Z</time></trkpt><trkpt lat="43.1913141" lon="13.1603745"><ele>785.4</ele><time>2026-04-07T13:06:36.83Z</time></trkpt><trkpt lat="43.1912466" lon="13.1603785"><ele>785.2</ele><time>2026-04-07T13:06:37.83Z</time></trkpt><trkpt lat="43.19115" lon="13.16033"><ele>785.0</ele><time>2026-04-07T13:06:39.83Z</time></trkpt><trkpt lat="43.1910883" lon="13.1601867"><ele>785.0000000000001</ele><time>2026-04-07T13:06:41.83Z</time></trkpt><trkpt lat="43.1910617" lon="13.1600883"><ele>785.0</ele><time>2026-04-07T13:06:42.83Z</time></trkpt><trkpt lat="43.191035" lon="13.15999"><ele>785.0</ele><time>2026-04-07T13:06:43.83Z</time></trkpt><trkpt lat="43.1909933" lon="13.1598917"><ele>785.0</ele><time>2026-04-07T13:06:44.83Z</time></trkpt><trkpt lat="43.1909383" lon="13.159785"><ele>785.0000000000001</ele><time>2026-04-07T13:06:45.83Z</time></trkpt><trkpt lat="43.1908767" lon="13.159685"><ele>785.0</ele><time>2026-04-07T13:06:46.83Z</time></trkpt><trkpt lat="43.190805" lon="13.1596017"><ele>784.5000000000001</ele><time>2026-04-07T13:06:47.83Z</time></trkpt><trkpt lat="43.1907217" lon="13.1595383"><ele>784.0</ele><time>2026-04-07T13:06:48.83Z</time></trkpt><trkpt lat="43.1906367" lon="13.1594967"><ele>783.5</ele><time>2026-04-07T13:06:49.829Z</time></trkpt><trkpt lat="43.190555" lon="13.1594533"><ele>783.0</ele><time>2026-04-07T13:06:50.83Z</time></trkpt><trkpt lat="43.1904817" lon="13.1594067"><ele>782.5000000000001</ele><time>2026-04-07T13:06:51.829Z</time></trkpt><trkpt lat="43.190415" lon="13.159355"><ele>782.0</ele><time>2026-04-07T13:06:52.829Z</time></trkpt><trkpt lat="43.19035" lon="13.1593033"><ele>782.0000000000001</ele><time>2026-04-07T13:06:53.829Z</time></trkpt><trkpt lat="43.19026" lon="13.1592317"><ele>782.0</ele><time>2026-04-07T13:06:55.83Z</time></trkpt><trkpt lat="43.1901733" lon="13.159235"><ele>782.0</ele><time>2026-04-07T13:06:57.83Z</time></trkpt><trkpt lat="43.1900683" lon="13.1592483"><ele>782.0</ele><time>2026-04-07T13:06:59.83Z</time></trkpt><trkpt lat="43.1900033" lon="13.1592217"><ele>782.0000000000001</ele><time>2026-04-07T13:07:00.83Z</time></trkpt><trkpt lat="43.1899417" lon="13.15918"><ele>782.0</ele><time>2026-04-07T13:07:01.83Z</time></trkpt><trkpt lat="43.1898867" lon="13.1591283"><ele>781.6666666666667</ele><time>2026-04-07T13:07:02.83Z</time></trkpt><trkpt lat="43.1898117" lon="13.15903"><ele>781.3333333333334</ele><time>2026-04-07T13:07:04.83Z</time></trkpt><trkpt lat="43.18979" lon="13.15893"><ele>781.0</ele><time>2026-04-07T13:07:06.83Z</time></trkpt><trkpt lat="43.18985" lon="13.1587933"><ele>780.6666666666667</ele><time>2026-04-07T13:16:18.83Z</time></trkpt><trkpt lat="43.1898883" lon="13.1587083"><ele>780.3333333333334</ele><time>2026-04-07T13:16:20.83Z</time></trkpt><trkpt lat="43.1898883" lon="13.1586167"><ele>780.0</ele><time>2026-04-07T13:16:22.83Z</time></trkpt><trkpt lat="43.1898567" lon="13.1585133"><ele>781.4</ele><time>2026-04-07T13:16:24.83Z</time></trkpt><trkpt lat="43.189805" lon="13.1583967"><ele>782.8</ele><time>2026-04-07T13:16:26.83Z</time></trkpt><trkpt lat="43.1897267" lon="13.1583033"><ele>784.2</ele><time>2026-04-07T13:16:28.83Z</time></trkpt><trkpt lat="43.18962" lon="13.15822"><ele>785.6</ele><time>2026-04-07T13:16:30.83Z</time></trkpt><trkpt lat="43.1895567" lon="13.1581917"><ele>787.0</ele><time>2026-04-07T13:16:31.83Z</time></trkpt><trkpt lat="43.1894883" lon="13.15818"><ele>788.8571428571429</ele><time>2026-04-07T13:16:32.83Z</time></trkpt><trkpt lat="43.1894183" lon="13.1581633"><ele>790.7142857142857</ele><time>2026-04-07T13:16:33.83Z</time></trkpt><trkpt lat="43.189345" lon="13.158135"><ele>792.5714285714287</ele><time>2026-04-07T13:16:34.83Z</time></trkpt><trkpt lat="43.18928" lon="13.1580883"><ele>794.4285714285714</ele><time>2026-04-07T13:16:35.829Z</time></trkpt><trkpt lat="43.1892133" lon="13.158035"><ele>796.2857142857143</ele><time>2026-04-07T13:16:36.83Z</time></trkpt><trkpt lat="43.1891567" lon="13.1579783"><ele>798.1428571428572</ele><time>2026-04-07T13:16:37.83Z</time></trkpt><trkpt lat="43.189095" lon="13.1579233"><ele>800.0</ele><time>2026-04-07T13:16:38.83Z</time></trkpt><trkpt lat="43.18903" lon="13.1578667"><ele>799.6666666666667</ele><time>2026-04-07T13:16:39.83Z</time></trkpt><trkpt lat="43.1889683" lon="13.1578117"><ele>799.3333333333334</ele><time>2026-04-07T13:16:40.83Z</time></trkpt><trkpt lat="43.18891" lon="13.15777"><ele>799.0</ele><time>2026-04-07T13:16:41.829Z</time></trkpt><trkpt lat="43.188795" lon="13.1577083"><ele>798.6666666666667</ele><time>2026-04-07T13:16:43.83Z</time></trkpt><trkpt lat="43.18871" lon="13.1576483"><ele>798.3333333333334</ele><time>2026-04-07T13:16:45.83Z</time></trkpt><trkpt lat="43.188665" lon="13.15757"><ele>798.0</ele><time>2026-04-07T13:16:47.83Z</time></trkpt><trkpt lat="43.1886783" lon="13.1574583"><ele>799.4285714285714</ele><time>2026-04-07T13:16:49.83Z</time></trkpt><trkpt lat="43.188745" lon="13.157345"><ele>800.8571428571429</ele><time>2026-04-07T13:16:51.83Z</time></trkpt><trkpt lat="43.18879" lon="13.157275"><ele>802.2857142857142</ele><time>2026-04-07T13:16:52.83Z</time></trkpt><trkpt lat="43.1888267" lon="13.1572033"><ele>803.7142857142858</ele><time>2026-04-07T13:16:53.83Z</time></trkpt><trkpt lat="43.1888533" lon="13.1571233"><ele>805.1428571428571</ele><time>2026-04-07T13:16:54.829Z</time></trkpt><trkpt lat="43.1888783" lon="13.157035"><ele>806.5714285714286</ele><time>2026-04-07T13:16:55.83Z</time></trkpt><trkpt lat="43.1889" lon="13.156935"><ele>808.0</ele><time>2026-04-07T13:16:56.83Z</time></trkpt><trkpt lat="43.1889183" lon="13.156835"><ele>807.9999999999999</ele><time>2026-04-07T13:16:57.83Z</time></trkpt><trkpt lat="43.1889467" lon="13.1567283"><ele>808.0</ele><time>2026-04-07T13:16:58.83Z</time></trkpt><trkpt lat="43.1889783" lon="13.15662"><ele>808.0</ele><time>2026-04-07T13:16:59.83Z</time></trkpt><trkpt lat="43.1890117" lon="13.1565067"><ele>808.0</ele><time>2026-04-07T13:17:00.83Z</time></trkpt><trkpt lat="43.1890467" lon="13.156385"><ele>807.9999999999999</ele><time>2026-04-07T13:17:01.83Z</time></trkpt><trkpt lat="43.1890817" lon="13.1562633"><ele>808.0</ele><time>2026-04-07T13:17:02.829Z</time></trkpt><trkpt lat="43.1891283" lon="13.1561417"><ele>811.0</ele><time>2026-04-07T13:17:03.829Z</time></trkpt><trkpt lat="43.189175" lon="13.1560167"><ele>814.0</ele><time>2026-04-07T13:17:04.829Z</time></trkpt><trkpt lat="43.1892233" lon="13.1558933"><ele>817.0</ele><time>2026-04-07T13:17:05.83Z</time></trkpt><trkpt lat="43.1892683" lon="13.155765"><ele>820.0</ele><time>2026-04-07T13:17:06.83Z</time></trkpt><trkpt lat="43.1893133" lon="13.1556433"><ele>823.0</ele><time>2026-04-07T13:17:07.83Z</time></trkpt><trkpt lat="43.1893567" lon="13.1555283"><ele>824.8</ele><time>2026-04-07T13:17:08.829Z</time></trkpt><trkpt lat="43.1894067" lon="13.1554217"><ele>826.5999999999999</ele><time>2026-04-07T13:17:09.829Z</time></trkpt><trkpt lat="43.1894567" lon="13.1553133"><ele>828.4000000000001</ele><time>2026-04-07T13:17:10.829Z</time></trkpt><trkpt lat="43.1895083" lon="13.1552017"><ele>830.2</ele><time>2026-04-07T13:17:11.83Z</time></trkpt><trkpt lat="43.1895583" lon="13.1550833"><ele>832.0</ele><time>2026-04-07T13:17:12.83Z</time></trkpt><trkpt lat="43.1896017" lon="13.15496"><ele>832.8</ele><time>2026-04-07T13:17:13.829Z</time></trkpt><trkpt lat="43.1896433" lon="13.1548317"><ele>833.6</ele><time>2026-04-07T13:17:14.829Z</time></trkpt><trkpt lat="43.1896833" lon="13.1547017"><ele>834.4</ele><time>2026-04-07T13:17:15.829Z</time></trkpt><trkpt lat="43.18972" lon="13.154565"><ele>835.1999999999999</ele><time>2026-04-07T13:17:16.83Z</time></trkpt><trkpt lat="43.1897567" lon="13.1544267"><ele>836.0</ele><time>2026-04-07T13:17:17.83Z</time></trkpt><trkpt lat="43.1897917" lon="13.15429"><ele>836.0</ele><time>2026-04-07T13:17:18.829Z</time></trkpt><trkpt lat="43.1898317" lon="13.1541467"><ele>836.0</ele><time>2026-04-07T13:17:19.83Z</time></trkpt><trkpt lat="43.189875" lon="13.154"><ele>836.0</ele><time>2026-04-07T13:17:20.83Z</time></trkpt><trkpt lat="43.1899133" lon="13.1538583"><ele>836.0</ele><time>2026-04-07T13:17:21.83Z</time></trkpt><trkpt lat="43.1899467" lon="13.1537233"><ele>836.0</ele><time>2026-04-07T13:17:22.829Z</time></trkpt><trkpt lat="43.1899833" lon="13.1535767"><ele>838.4</ele><time>2026-04-07T13:17:23.83Z</time></trkpt><trkpt lat="43.1900233" lon="13.1534217"><ele>840.8</ele><time>2026-04-07T13:17:24.83Z</time></trkpt><trkpt lat="43.190065" lon="13.1532733"><ele>843.1999999999999</ele><time>2026-04-07T13:17:25.83Z</time></trkpt><trkpt lat="43.190105" lon="13.1531417"><ele>845.5999999999999</ele><time>2026-04-07T13:17:26.83Z</time></trkpt><trkpt lat="43.190145" lon="13.15302"><ele>848.0</ele><time>2026-04-07T13:17:27.83Z</time></trkpt><trkpt lat="43.190185" lon="13.152895"><ele>848.0</ele><time>2026-04-07T13:17:28.83Z</time></trkpt><trkpt lat="43.1902383" lon="13.152765"><ele>848.0</ele><time>2026-04-07T13:17:29.83Z</time></trkpt><trkpt lat="43.190295" lon="13.15263"><ele>848.0</ele><time>2026-04-07T13:17:30.83Z</time></trkpt><trkpt lat="43.1903517" lon="13.1524967"><ele>848.0</ele><time>2026-04-07T13:17:31.83Z</time></trkpt><trkpt lat="43.190405" lon="13.1523617"><ele>848.0</ele><time>2026-04-07T13:17:32.83Z</time></trkpt><trkpt lat="43.1904633" lon="13.1522233"><ele>848.0</ele><time>2026-04-07T13:17:33.83Z</time></trkpt><trkpt lat="43.1905167" lon="13.1520917"><ele>848.0</ele><time>2026-04-07T13:17:34.83Z</time></trkpt><trkpt lat="43.1905783" lon="13.1519683"><ele>848.0</ele><time>2026-04-07T13:17:35.829Z</time></trkpt><trkpt lat="43.1906367" lon="13.15187"><ele>848.0</ele><time>2026-04-07T13:17:36.83Z</time></trkpt><trkpt lat="43.1906983" lon="13.1517917"><ele>848.0</ele><time>2026-04-07T13:17:37.83Z</time></trkpt><trkpt lat="43.19078" lon="13.1517367"><ele>848.8</ele><time>2026-04-07T13:17:38.83Z</time></trkpt><trkpt lat="43.190875" lon="13.1516983"><ele>849.5999999999999</ele><time>2026-04-07T13:17:39.83Z</time></trkpt><trkpt lat="43.1909867" lon="13.1516767"><ele>850.4000000000001</ele><time>2026-04-07T13:17:40.83Z</time></trkpt><trkpt lat="43.1911" lon="13.1516767"><ele>851.2</ele><time>2026-04-07T13:17:41.83Z</time></trkpt><trkpt lat="43.1912167" lon="13.1516733"><ele>852.0</ele><time>2026-04-07T13:17:42.83Z</time></trkpt><trkpt lat="43.19133" lon="13.151655"><ele>852.0</ele><time>2026-04-07T13:17:43.83Z</time></trkpt><trkpt lat="43.1914383" lon="13.1516267"><ele>852.0</ele><time>2026-04-07T13:17:44.83Z</time></trkpt><trkpt lat="43.1915433" lon="13.1515767"><ele>852.0</ele><time>2026-04-07T13:17:45.83Z</time></trkpt><trkpt lat="43.1916433" lon="13.1515167"><ele>852.0</ele><time>2026-04-07T13:17:46.829Z</time></trkpt><trkpt lat="43.1917417" lon="13.1514533"><ele>852.0</ele><time>2026-04-07T13:17:47.83Z</time></trkpt><trkpt lat="43.1918383" lon="13.1513717"><ele>853.0</ele><time>2026-04-07T13:17:48.83Z</time></trkpt><trkpt lat="43.1919383" lon="13.151285"><ele>854.0</ele><time>2026-04-07T13:17:49.83Z</time></trkpt><trkpt lat="43.1920283" lon="13.1511833"><ele>855.0</ele><time>2026-04-07T13:17:50.83Z</time></trkpt><trkpt lat="43.19212" lon="13.1510767"><ele>856.0</ele><time>2026-04-07T13:17:51.83Z</time></trkpt><trkpt lat="43.1922067" lon="13.150965"><ele>856.0</ele><time>2026-04-07T13:17:52.829Z</time></trkpt><trkpt lat="43.192305" lon="13.1508517"><ele>856.0</ele><time>2026-04-07T13:17:53.83Z</time></trkpt><trkpt lat="43.1924067" lon="13.1507467"><ele>856.0</ele><time>2026-04-07T13:17:54.829Z</time></trkpt><trkpt lat="43.1925033" lon="13.15065"><ele>856.0</ele><time>2026-04-07T13:17:55.83Z</time></trkpt><trkpt lat="43.192605" lon="13.1505583"><ele>856.5</ele><time>2026-04-07T13:17:56.83Z</time></trkpt><trkpt lat="43.1927033" lon="13.1504583"><ele>857.0</ele><time>2026-04-07T13:17:57.83Z</time></trkpt><trkpt lat="43.192805" lon="13.1503667"><ele>857.5</ele><time>2026-04-07T13:17:58.83Z</time></trkpt><trkpt lat="43.1929067" lon="13.1502717"><ele>858.0</ele><time>2026-04-07T13:17:59.83Z</time></trkpt><trkpt lat="43.1930133" lon="13.1501833"><ele>858.0</ele><time>2026-04-07T13:18:00.83Z</time></trkpt><trkpt lat="43.1931133" lon="13.1500983"><ele>858.0</ele><time>2026-04-07T13:18:01.83Z</time></trkpt><trkpt lat="43.193215" lon="13.150035"><ele>858.0</ele><time>2026-04-07T13:18:02.829Z</time></trkpt><trkpt lat="43.1933267" lon="13.1499933"><ele>858.0</ele><time>2026-04-07T13:18:03.83Z</time></trkpt><trkpt lat="43.1934517" lon="13.1499633"><ele>859.5</ele><time>2026-04-07T13:18:04.83Z</time></trkpt><trkpt lat="43.1935817" lon="13.149955"><ele>861.0</ele><time>2026-04-07T13:18:05.83Z</time></trkpt><trkpt lat="43.19371" lon="13.1499467"><ele>862.5</ele><time>2026-04-07T13:18:06.83Z</time></trkpt><trkpt lat="43.1938333" lon="13.1499517"><ele>864.0</ele><time>2026-04-07T13:18:07.83Z</time></trkpt><trkpt lat="43.1939583" lon="13.1499467"><ele>866.0</ele><time>2026-04-07T13:18:08.829Z</time></trkpt><trkpt lat="43.1940783" lon="13.1499483"><ele>868.0</ele><time>2026-04-07T13:18:09.83Z</time></trkpt><trkpt lat="43.1942" lon="13.1499567"><ele>870.0</ele><time>2026-04-07T13:18:10.83Z</time></trkpt><trkpt lat="43.1943267" lon="13.1499683"><ele>872.0</ele><time>2026-04-07T13:18:11.829Z</time></trkpt><trkpt lat="43.1944467" lon="13.1499883"><ele>872.0</ele><time>2026-04-07T13:18:12.83Z</time></trkpt><trkpt lat="43.1945667" lon="13.150015"><ele>872.0</ele><time>2026-04-07T13:18:13.83Z</time></trkpt><trkpt lat="43.1946833" lon="13.150045"><ele>872.0</ele><time>2026-04-07T13:18:14.83Z</time></trkpt><trkpt lat="43.1948033" lon="13.1500717"><ele>872.0</ele><time>2026-04-07T13:18:15.83Z</time></trkpt><trkpt lat="43.1949183" lon="13.150095"><ele>873.75</ele><time>2026-04-07T13:18:16.83Z</time></trkpt><trkpt lat="43.1950367" lon="13.1501183"><ele>875.5</ele><time>2026-04-07T13:18:17.83Z</time></trkpt><trkpt lat="43.195155" lon="13.15015"><ele>877.25</ele><time>2026-04-07T13:18:18.83Z</time></trkpt><trkpt lat="43.1952717" lon="13.1501733"><ele>879.0</ele><time>2026-04-07T13:18:19.83Z</time></trkpt><trkpt lat="43.1953783" lon="13.1501883"><ele>879.0</ele><time>2026-04-07T13:18:20.83Z</time></trkpt><trkpt lat="43.1954817" lon="13.15019"><ele>879.0</ele><time>2026-04-07T13:18:21.829Z</time></trkpt><trkpt lat="43.1955733" lon="13.1501633"><ele>879.0</ele><time>2026-04-07T13:18:22.829Z</time></trkpt><trkpt lat="43.1956467" lon="13.15012"><ele>879.0</ele><time>2026-04-07T13:18:23.83Z</time></trkpt><trkpt lat="43.1957067" lon="13.1500633"><ele>879.0</ele><time>2026-04-07T13:18:24.83Z</time></trkpt><trkpt lat="43.19575" lon="13.14999"><ele>879.0</ele><time>2026-04-07T13:18:25.829Z</time></trkpt><trkpt lat="43.19578" lon="13.1498983"><ele>880.1666666666666</ele><time>2026-04-07T13:18:26.829Z</time></trkpt><trkpt lat="43.1958117" lon="13.1498017"><ele>881.3333333333333</ele><time>2026-04-07T13:18:27.83Z</time></trkpt><trkpt lat="43.1958167" lon="13.1497033"><ele>882.5</ele><time>2026-04-07T13:18:28.83Z</time></trkpt><trkpt lat="43.1958117" lon="13.1495933"><ele>883.6666666666666</ele><time>2026-04-07T13:18:29.83Z</time></trkpt><trkpt lat="43.1957933" lon="13.14949"><ele>884.8333333333333</ele><time>2026-04-07T13:18:30.829Z</time></trkpt><trkpt lat="43.1957617" lon="13.149385"><ele>886.0</ele><time>2026-04-07T13:18:31.83Z</time></trkpt><trkpt lat="43.1957083" lon="13.14928"><ele>887.0</ele><time>2026-04-07T13:18:32.83Z</time></trkpt><trkpt lat="43.19566" lon="13.14918"><ele>887.9999999999999</ele><time>2026-04-07T13:18:33.83Z</time></trkpt><trkpt lat="43.1956083" lon="13.149075"><ele>888.9999999999999</ele><time>2026-04-07T13:18:34.829Z</time></trkpt><trkpt lat="43.1955617" lon="13.14897"><ele>890.0</ele><time>2026-04-07T13:18:35.83Z</time></trkpt><trkpt lat="43.1955133" lon="13.1488583"><ele>891.0</ele><time>2026-04-07T13:18:36.83Z</time></trkpt><trkpt lat="43.195465" lon="13.14874"><ele>893.4</ele><time>2026-04-07T13:18:37.83Z</time></trkpt><trkpt lat="43.1954217" lon="13.148625"><ele>895.8</ele><time>2026-04-07T13:18:38.829Z</time></trkpt><trkpt lat="43.1953783" lon="13.1485017"><ele>898.1999999999999</ele><time>2026-04-07T13:18:39.83Z</time></trkpt><trkpt lat="43.195335" lon="13.1483717"><ele>900.5999999999999</ele><time>2026-04-07T13:18:40.83Z</time></trkpt><trkpt lat="43.195295" lon="13.148245"><ele>903.0</ele><time>2026-04-07T13:18:41.829Z</time></trkpt><trkpt lat="43.195255" lon="13.1481083"><ele>904.2</ele><time>2026-04-07T13:18:42.83Z</time></trkpt><trkpt lat="43.1952133" lon="13.14797"><ele>905.4</ele><time>2026-04-07T13:18:43.83Z</time></trkpt><trkpt lat="43.19516" lon="13.1478383"><ele>906.6000000000001</ele><time>2026-04-07T13:18:44.83Z</time></trkpt><trkpt lat="43.195095" lon="13.1477183"><ele>907.8000000000001</ele><time>2026-04-07T13:18:45.829Z</time></trkpt><trkpt lat="43.1950317" lon="13.1476083"><ele>909.0</ele><time>2026-04-07T13:18:46.83Z</time></trkpt><trkpt lat="43.19497" lon="13.1474967"><ele>909.0</ele><time>2026-04-07T13:18:47.83Z</time></trkpt><trkpt lat="43.1949067" lon="13.1473867"><ele>909.0000000000001</ele><time>2026-04-07T13:18:48.829Z</time></trkpt><trkpt lat="43.19484" lon="13.1472783"><ele>909.0000000000001</ele><time>2026-04-07T13:18:49.83Z</time></trkpt><trkpt lat="43.1947817" lon="13.1471667"><ele>909.0</ele><time>2026-04-07T13:18:50.83Z</time></trkpt><trkpt lat="43.1947233" lon="13.14705"><ele>909.0</ele><time>2026-04-07T13:18:51.829Z</time></trkpt><trkpt lat="43.19467" lon="13.146925"><ele>912.0</ele><time>2026-04-07T13:18:52.83Z</time></trkpt><trkpt lat="43.19461" lon="13.146795"><ele>915.0000000000001</ele><time>2026-04-07T13:18:53.829Z</time></trkpt><trkpt lat="43.19455" lon="13.146665"><ele>918.0000000000001</ele><time>2026-04-07T13:18:54.829Z</time></trkpt><trkpt lat="43.19449" lon="13.1465417"><ele>921.0</ele><time>2026-04-07T13:18:55.829Z</time></trkpt><trkpt lat="43.1944283" lon="13.1464183"><ele>924.0</ele><time>2026-04-07T13:18:56.83Z</time></trkpt><trkpt lat="43.1943667" lon="13.1462933"><ele>925.6</ele><time>2026-04-07T13:18:57.83Z</time></trkpt><trkpt lat="43.1942983" lon="13.14618"><ele>927.2</ele><time>2026-04-07T13:18:58.83Z</time></trkpt><trkpt lat="43.194225" lon="13.146065"><ele>928.8000000000001</ele><time>2026-04-07T13:18:59.83Z</time></trkpt><trkpt lat="43.1941483" lon="13.1459433"><ele>930.4000000000001</ele><time>2026-04-07T13:19:00.83Z</time></trkpt><trkpt lat="43.194075" lon="13.1458267"><ele>932.0</ele><time>2026-04-07T13:19:01.83Z</time></trkpt><trkpt lat="43.1940117" lon="13.1456967"><ele>933.75</ele><time>2026-04-07T13:19:02.83Z</time></trkpt><trkpt lat="43.1939483" lon="13.1455533"><ele>935.5</ele><time>2026-04-07T13:19:03.83Z</time></trkpt><trkpt lat="43.193885" lon="13.1454017"><ele>937.25</ele><time>2026-04-07T13:19:04.829Z</time></trkpt><trkpt lat="43.1938233" lon="13.14525"><ele>939.0</ele><time>2026-04-07T13:19:05.83Z</time></trkpt><trkpt lat="43.1937633" lon="13.1451"><ele>939.0</ele><time>2026-04-07T13:19:06.83Z</time></trkpt><trkpt lat="43.1937017" lon="13.1449617"><ele>939.0</ele><time>2026-04-07T13:19:07.83Z</time></trkpt><trkpt lat="43.1936283" lon="13.144835"><ele>939.0</ele><time>2026-04-07T13:19:08.83Z</time></trkpt><trkpt lat="43.193545" lon="13.1447283"><ele>939.0</ele><time>2026-04-07T13:19:09.83Z</time></trkpt><trkpt lat="43.1934617" lon="13.1446417"><ele>939.1666666666666</ele><time>2026-04-07T13:19:10.83Z</time></trkpt><trkpt lat="43.19339" lon="13.1445717"><ele>939.3333333333333</ele><time>2026-04-07T13:19:11.83Z</time></trkpt><trkpt lat="43.1933233" lon="13.144505"><ele>939.5</ele><time>2026-04-07T13:19:12.829Z</time></trkpt><trkpt lat="43.19326" lon="13.1444333"><ele>939.6666666666666</ele><time>2026-04-07T13:19:13.83Z</time></trkpt><trkpt lat="43.1932067" lon="13.1443617"><ele>939.8333333333333</ele><time>2026-04-07T13:19:14.83Z</time></trkpt><trkpt lat="43.193165" lon="13.1442867"><ele>940.0</ele><time>2026-04-07T13:19:15.83Z</time></trkpt><trkpt lat="43.1931183" lon="13.1442017"><ele>939.9999999999999</ele><time>2026-04-07T13:19:16.83Z</time></trkpt><trkpt lat="43.193075" lon="13.1441083"><ele>940.0</ele><time>2026-04-07T13:19:17.829Z</time></trkpt><trkpt lat="43.1930283" lon="13.1440083"><ele>940.0</ele><time>2026-04-07T13:19:18.829Z</time></trkpt><trkpt lat="43.1929783" lon="13.1439317"><ele>940.0</ele><time>2026-04-07T13:19:19.83Z</time></trkpt><trkpt lat="43.192925" lon="13.1438633"><ele>939.9999999999999</ele><time>2026-04-07T13:19:20.83Z</time></trkpt><trkpt lat="43.1928717" lon="13.1438033"><ele>940.0</ele><time>2026-04-07T13:19:21.83Z</time></trkpt><trkpt lat="43.1928117" lon="13.1437517"><ele>942.6666666666666</ele><time>2026-04-07T13:19:22.829Z</time></trkpt><trkpt lat="43.1927467" lon="13.143695"><ele>945.3333333333333</ele><time>2026-04-07T13:19:23.83Z</time></trkpt><trkpt lat="43.1926833" lon="13.14364"><ele>948.0</ele><time>2026-04-07T13:19:24.83Z</time></trkpt><trkpt lat="43.1926183" lon="13.1435783"><ele>950.6666666666667</ele><time>2026-04-07T13:19:25.829Z</time></trkpt><trkpt lat="43.1925533" lon="13.1435017"><ele>953.3333333333334</ele><time>2026-04-07T13:19:26.83Z</time></trkpt><trkpt lat="43.19249" lon="13.1434183"><ele>956.0</ele><time>2026-04-07T13:19:27.83Z</time></trkpt><trkpt lat="43.192425" lon="13.14332"><ele>956.0</ele><time>2026-04-07T13:19:28.83Z</time></trkpt><trkpt lat="43.192365" lon="13.1432217"><ele>955.9999999999999</ele><time>2026-04-07T13:19:29.83Z</time></trkpt><trkpt lat="43.192315" lon="13.143125"><ele>955.9999999999999</ele><time>2026-04-07T13:19:30.83Z</time></trkpt><trkpt lat="43.19227" lon="13.1430233"><ele>956.0</ele><time>2026-04-07T13:19:31.83Z</time></trkpt><trkpt lat="43.1922267" lon="13.1429067"><ele>956.0</ele><time>2026-04-07T13:19:32.83Z</time></trkpt><trkpt lat="43.1921967" lon="13.1427933"><ele>951.8</ele><time>2026-04-07T13:19:33.829Z</time></trkpt><trkpt lat="43.1921583" lon="13.1426717"><ele>947.5999999999999</ele><time>2026-04-07T13:19:34.83Z</time></trkpt><trkpt lat="43.1921283" lon="13.1425383"><ele>943.4</ele><time>2026-04-07T13:19:35.83Z</time></trkpt><trkpt lat="43.1921017" lon="13.1423983"><ele>939.2</ele><time>2026-04-07T13:19:36.83Z</time></trkpt><trkpt lat="43.1920683" lon="13.142265"><ele>935.0</ele><time>2026-04-07T13:19:37.83Z</time></trkpt><trkpt lat="43.1920367" lon="13.1421433"><ele>934.8333333333334</ele><time>2026-04-07T13:19:38.829Z</time></trkpt><trkpt lat="43.19201" lon="13.1420283"><ele>934.6666666666667</ele><time>2026-04-07T13:19:39.83Z</time></trkpt><trkpt lat="43.19198" lon="13.1419183"><ele>934.5</ele><time>2026-04-07T13:19:40.829Z</time></trkpt><trkpt lat="43.1919417" lon="13.14182"><ele>934.3333333333333</ele><time>2026-04-07T13:19:41.83Z</time></trkpt><trkpt lat="43.191895" lon="13.1417283"><ele>934.1666666666666</ele><time>2026-04-07T13:19:42.83Z</time></trkpt><trkpt lat="43.1918383" lon="13.141645"><ele>934.0</ele><time>2026-04-07T13:19:43.83Z</time></trkpt><trkpt lat="43.19178" lon="13.14156"><ele>933.4999999999999</ele><time>2026-04-07T13:19:44.83Z</time></trkpt><trkpt lat="43.1917217" lon="13.1414817"><ele>933.0</ele><time>2026-04-07T13:19:45.83Z</time></trkpt><trkpt lat="43.1916633" lon="13.1414"><ele>932.5</ele><time>2026-04-07T13:19:46.83Z</time></trkpt><trkpt lat="43.191605" lon="13.1413133"><ele>932.0</ele><time>2026-04-07T13:19:47.829Z</time></trkpt><trkpt lat="43.191555" lon="13.1412267"><ele>931.4999999999999</ele><time>2026-04-07T13:19:48.83Z</time></trkpt><trkpt lat="43.19151" lon="13.1411383"><ele>931.0</ele><time>2026-04-07T13:19:49.83Z</time></trkpt><trkpt lat="43.1914583" lon="13.1410367"><ele>928.9999999999999</ele><time>2026-04-07T13:19:50.83Z</time></trkpt><trkpt lat="43.1913983" lon="13.140935"><ele>927.0</ele><time>2026-04-07T13:19:51.83Z</time></trkpt><trkpt lat="43.19134" lon="13.14084"><ele>925.0</ele><time>2026-04-07T13:19:52.83Z</time></trkpt><trkpt lat="43.1912883" lon="13.1407467"><ele>923.0</ele><time>2026-04-07T13:19:53.829Z</time></trkpt><trkpt lat="43.1912367" lon="13.14065"><ele>920.9999999999999</ele><time>2026-04-07T13:19:54.83Z</time></trkpt><trkpt lat="43.191185" lon="13.1405533"><ele>919.0</ele><time>2026-04-07T13:19:55.83Z</time></trkpt><trkpt lat="43.19113" lon="13.1404483"><ele>918.8000000000001</ele><time>2026-04-07T13:19:56.83Z</time></trkpt><trkpt lat="43.1910683" lon="13.140345"><ele>918.6000000000001</ele><time>2026-04-07T13:19:57.83Z</time></trkpt><trkpt lat="43.1910083" lon="13.1402433"><ele>918.4</ele><time>2026-04-07T13:19:58.829Z</time></trkpt><trkpt lat="43.19095" lon="13.140145"><ele>918.2</ele><time>2026-04-07T13:19:59.829Z</time></trkpt><trkpt lat="43.1908933" lon="13.1400483"><ele>918.0</ele><time>2026-04-07T13:20:00.83Z</time></trkpt><trkpt lat="43.1908383" lon="13.13995"><ele>917.6666666666666</ele><time>2026-04-07T13:20:01.83Z</time></trkpt><trkpt lat="43.190785" lon="13.1398567"><ele>917.3333333333333</ele><time>2026-04-07T13:20:02.83Z</time></trkpt><trkpt lat="43.1907333" lon="13.1397717"><ele>917.0</ele><time>2026-04-07T13:20:03.829Z</time></trkpt><trkpt lat="43.1906817" lon="13.1396783"><ele>916.6666666666666</ele><time>2026-04-07T13:20:04.83Z</time></trkpt><trkpt lat="43.1906283" lon="13.1395867"><ele>916.3333333333333</ele><time>2026-04-07T13:20:05.83Z</time></trkpt><trkpt lat="43.190575" lon="13.1394967"><ele>916.0</ele><time>2026-04-07T13:20:06.83Z</time></trkpt><trkpt lat="43.19053" lon="13.1394067"><ele>913.8333333333333</ele><time>2026-04-07T13:20:07.83Z</time></trkpt><trkpt lat="43.190485" lon="13.1393167"><ele>911.6666666666666</ele><time>2026-04-07T13:20:08.83Z</time></trkpt><trkpt lat="43.1904483" lon="13.1392183"><ele>909.5</ele><time>2026-04-07T13:20:09.829Z</time></trkpt><trkpt lat="43.1904117" lon="13.13911"><ele>907.3333333333333</ele><time>2026-04-07T13:20:10.83Z</time></trkpt><trkpt lat="43.1903783" lon="13.13899"><ele>905.1666666666666</ele><time>2026-04-07T13:20:11.83Z</time></trkpt><trkpt lat="43.1903533" lon="13.13887"><ele>903.0</ele><time>2026-04-07T13:20:12.83Z</time></trkpt><trkpt lat="43.1903283" lon="13.1387417"><ele>902.0</ele><time>2026-04-07T13:20:13.829Z</time></trkpt><trkpt lat="43.190305" lon="13.1386067"><ele>901.0</ele><time>2026-04-07T13:20:14.83Z</time></trkpt><trkpt lat="43.1902833" lon="13.1384767"><ele>900.0</ele><time>2026-04-07T13:20:15.83Z</time></trkpt><trkpt lat="43.1902767" lon="13.1383583"><ele>899.0</ele><time>2026-04-07T13:20:16.83Z</time></trkpt><trkpt lat="43.1902683" lon="13.13825"><ele>898.0</ele><time>2026-04-07T13:20:17.83Z</time></trkpt><trkpt lat="43.1902683" lon="13.13814"><ele>897.0</ele><time>2026-04-07T13:20:18.829Z</time></trkpt><trkpt lat="43.1902717" lon="13.1380233"><ele>895.5</ele><time>2026-04-07T13:20:19.83Z</time></trkpt><trkpt lat="43.1902783" lon="13.1379083"><ele>894.0</ele><time>2026-04-07T13:20:20.829Z</time></trkpt><trkpt lat="43.1902883" lon="13.1377933"><ele>892.5</ele><time>2026-04-07T13:20:21.83Z</time></trkpt><trkpt lat="43.1903083" lon="13.13768"><ele>891.0</ele><time>2026-04-07T13:20:22.83Z</time></trkpt><trkpt lat="43.1903333" lon="13.1375717"><ele>889.5</ele><time>2026-04-07T13:20:23.83Z</time></trkpt><trkpt lat="43.190365" lon="13.1374683"><ele>888.0</ele><time>2026-04-07T13:20:24.83Z</time></trkpt><trkpt lat="43.190395" lon="13.1373717"><ele>886.1666666666666</ele><time>2026-04-07T13:20:25.83Z</time></trkpt><trkpt lat="43.1904317" lon="13.13727"><ele>884.3333333333333</ele><time>2026-04-07T13:20:26.829Z</time></trkpt><trkpt lat="43.1904717" lon="13.137175"><ele>882.5</ele><time>2026-04-07T13:20:27.83Z</time></trkpt><trkpt lat="43.1905133" lon="13.13709"><ele>880.6666666666666</ele><time>2026-04-07T13:20:28.829Z</time></trkpt><trkpt lat="43.1905533" lon="13.1370067"><ele>878.8333333333333</ele><time>2026-04-07T13:20:29.83Z</time></trkpt><trkpt lat="43.1905983" lon="13.1369267"><ele>877.0</ele><time>2026-04-07T13:20:30.829Z</time></trkpt><trkpt lat="43.190645" lon="13.1368533"><ele>878.4285714285714</ele><time>2026-04-07T13:20:31.83Z</time></trkpt><trkpt lat="43.1906933" lon="13.1367833"><ele>879.8571428571429</ele><time>2026-04-07T13:20:32.829Z</time></trkpt><trkpt lat="43.1907433" lon="13.1367233"><ele>881.2857142857142</ele><time>2026-04-07T13:20:33.83Z</time></trkpt><trkpt lat="43.1907933" lon="13.1366633"><ele>882.7142857142858</ele><time>2026-04-07T13:20:34.83Z</time></trkpt><trkpt lat="43.1908517" lon="13.1366167"><ele>884.1428571428571</ele><time>2026-04-07T13:20:35.83Z</time></trkpt><trkpt lat="43.1909167" lon="13.136585"><ele>885.5714285714286</ele><time>2026-04-07T13:20:36.829Z</time></trkpt><trkpt lat="43.1909867" lon="13.13655"><ele>887.0</ele><time>2026-04-07T13:20:37.829Z</time></trkpt><trkpt lat="43.1910633" lon="13.1365333"><ele>887.0000000000001</ele><time>2026-04-07T13:20:38.83Z</time></trkpt><trkpt lat="43.1911417" lon="13.1365183"><ele>887.0</ele><time>2026-04-07T13:20:39.83Z</time></trkpt><trkpt lat="43.19122" lon="13.1365233"><ele>887.0</ele><time>2026-04-07T13:20:40.83Z</time></trkpt><trkpt lat="43.191295" lon="13.1365433"><ele>887.0</ele><time>2026-04-07T13:20:41.829Z</time></trkpt><trkpt lat="43.1913783" lon="13.1365617"><ele>887.0000000000001</ele><time>2026-04-07T13:20:42.83Z</time></trkpt><trkpt lat="43.191455" lon="13.1365817"><ele>887.0</ele><time>2026-04-07T13:20:43.829Z</time></trkpt><trkpt lat="43.1915333" lon="13.1366017"><ele>886.0</ele><time>2026-04-07T13:20:44.829Z</time></trkpt><trkpt lat="43.1916067" lon="13.1366083"><ele>885.0</ele><time>2026-04-07T13:20:45.829Z</time></trkpt><trkpt lat="43.19168" lon="13.1366067"><ele>884.0</ele><time>2026-04-07T13:20:46.83Z</time></trkpt><trkpt lat="43.19175" lon="13.1365883"><ele>883.0</ele><time>2026-04-07T13:20:47.83Z</time></trkpt><trkpt lat="43.1918433" lon="13.1364817"><ele>882.0</ele><time>2026-04-07T13:20:49.83Z</time></trkpt><trkpt lat="43.19187" lon="13.136335"><ele>879.5</ele><time>2026-04-07T13:20:51.83Z</time></trkpt><trkpt lat="43.19181" lon="13.1362017"><ele>877.0</ele><time>2026-04-07T13:20:53.83Z</time></trkpt><trkpt lat="43.1917567" lon="13.1361517"><ele>874.5</ele><time>2026-04-07T13:20:54.83Z</time></trkpt><trkpt lat="43.191685" lon="13.136105"><ele>872.0</ele><time>2026-04-07T13:20:55.83Z</time></trkpt><trkpt lat="43.1915983" lon="13.1360717"><ele>869.5</ele><time>2026-04-07T13:20:56.829Z</time></trkpt><trkpt lat="43.1915133" lon="13.1360433"><ele>867.0</ele><time>2026-04-07T13:20:57.83Z</time></trkpt><trkpt lat="43.1914367" lon="13.136015"><ele>867.0</ele><time>2026-04-07T13:20:58.83Z</time></trkpt><trkpt lat="43.19136" lon="13.1359867"><ele>867.0</ele><time>2026-04-07T13:20:59.829Z</time></trkpt><trkpt lat="43.1912783" lon="13.1359483"><ele>867.0</ele><time>2026-04-07T13:21:00.829Z</time></trkpt><trkpt lat="43.1911983" lon="13.13591"><ele>867.0</ele><time>2026-04-07T13:21:01.83Z</time></trkpt><trkpt lat="43.19112" lon="13.1358833"><ele>867.0</ele><time>2026-04-07T13:21:02.83Z</time></trkpt><trkpt lat="43.1910367" lon="13.135845"><ele>867.0</ele><time>2026-04-07T13:21:03.829Z</time></trkpt><trkpt lat="43.190955" lon="13.1358017"><ele>867.0</ele><time>2026-04-07T13:21:04.83Z</time></trkpt><trkpt lat="43.1908783" lon="13.1357667"><ele>867.0</ele><time>2026-04-07T13:21:05.83Z</time></trkpt><trkpt lat="43.1908" lon="13.13573"><ele>867.0</ele><time>2026-04-07T13:21:06.83Z</time></trkpt><trkpt lat="43.1907283" lon="13.13569"><ele>867.0</ele><time>2026-04-07T13:21:07.829Z</time></trkpt><trkpt lat="43.1906517" lon="13.1356517"><ele>867.0</ele><time>2026-04-07T13:21:08.829Z</time></trkpt><trkpt lat="43.1905733" lon="13.1356083"><ele>867.0</ele><time>2026-04-07T13:21:09.83Z</time></trkpt><trkpt lat="43.1904867" lon="13.135575"><ele>864.3333333333334</ele><time>2026-04-07T13:21:10.829Z</time></trkpt><trkpt lat="43.1904083" lon="13.1355333"><ele>861.6666666666667</ele><time>2026-04-07T13:21:11.83Z</time></trkpt><trkpt lat="43.19033" lon="13.1355033"><ele>859.0</ele><time>2026-04-07T13:21:12.83Z</time></trkpt><trkpt lat="43.1902517" lon="13.1354867"><ele>856.3333333333334</ele><time>2026-04-07T13:21:13.83Z</time></trkpt><trkpt lat="43.190175" lon="13.1354733"><ele>853.6666666666667</ele><time>2026-04-07T13:21:14.829Z</time></trkpt><trkpt lat="43.190095" lon="13.13548"><ele>851.0</ele><time>2026-04-07T13:21:15.83Z</time></trkpt><trkpt lat="43.19002" lon="13.13549"><ele>851.0000000000001</ele><time>2026-04-07T13:21:16.829Z</time></trkpt><trkpt lat="43.1899433" lon="13.1354983"><ele>851.0</ele><time>2026-04-07T13:21:17.83Z</time></trkpt><trkpt lat="43.18987" lon="13.1355083"><ele>851.0</ele><time>2026-04-07T13:21:18.83Z</time></trkpt><trkpt lat="43.189805" lon="13.1355217"><ele>851.0</ele><time>2026-04-07T13:21:19.83Z</time></trkpt><trkpt lat="43.1897433" lon="13.13554"><ele>851.0000000000001</ele><time>2026-04-07T13:21:20.83Z</time></trkpt><trkpt lat="43.189615" lon="13.1355633"><ele>851.0</ele><time>2026-04-07T13:21:22.829Z</time></trkpt><trkpt lat="43.1895017" lon="13.13554"><ele>849.1666666666667</ele><time>2026-04-07T13:21:24.83Z</time></trkpt><trkpt lat="43.1894317" lon="13.1354483"><ele>847.3333333333334</ele><time>2026-04-07T13:21:26.829Z</time></trkpt><trkpt lat="43.1894217" lon="13.1353067"><ele>845.5</ele><time>2026-04-07T13:21:28.829Z</time></trkpt><trkpt lat="43.1894683" lon="13.1351717"><ele>843.6666666666667</ele><time>2026-04-07T13:21:30.83Z</time></trkpt><trkpt lat="43.189515" lon="13.1351117"><ele>841.8333333333334</ele><time>2026-04-07T13:21:31.83Z</time></trkpt><trkpt lat="43.189575" lon="13.1350533"><ele>840.0</ele><time>2026-04-07T13:21:32.83Z</time></trkpt><trkpt lat="43.18964" lon="13.135"><ele>840.0</ele><time>2026-04-07T13:21:33.83Z</time></trkpt><trkpt lat="43.1897083" lon="13.1349467"><ele>840.0</ele><time>2026-04-07T13:21:34.83Z</time></trkpt><trkpt lat="43.1897783" lon="13.1348967"><ele>840.0</ele><time>2026-04-07T13:21:35.829Z</time></trkpt><trkpt lat="43.1898483" lon="13.134845"><ele>840.0</ele><time>2026-04-07T13:21:36.83Z</time></trkpt><trkpt lat="43.1899217" lon="13.1348"><ele>840.0</ele><time>2026-04-07T13:21:37.829Z</time></trkpt><trkpt lat="43.18999" lon="13.1347517"><ele>840.0</ele><time>2026-04-07T13:21:38.83Z</time></trkpt><trkpt lat="43.1900633" lon="13.134705"><ele>838.0</ele><time>2026-04-07T13:21:39.83Z</time></trkpt><trkpt lat="43.190145" lon="13.1346567"><ele>836.0</ele><time>2026-04-07T13:21:40.829Z</time></trkpt><trkpt lat="43.19023" lon="13.1346133"><ele>834.0</ele><time>2026-04-07T13:21:41.83Z</time></trkpt><trkpt lat="43.1903117" lon="13.1345667"><ele>832.0</ele><time>2026-04-07T13:21:42.83Z</time></trkpt><trkpt lat="43.1903983" lon="13.1345233"><ele>830.0</ele><time>2026-04-07T13:21:43.83Z</time></trkpt><trkpt lat="43.1904833" lon="13.13448"><ele>830.0</ele><time>2026-04-07T13:21:44.83Z</time></trkpt><trkpt lat="43.1905733" lon="13.1344283"><ele>830.0</ele><time>2026-04-07T13:21:45.83Z</time></trkpt><trkpt lat="43.1906617" lon="13.13438"><ele>830.0</ele><time>2026-04-07T13:21:46.83Z</time></trkpt><trkpt lat="43.1907517" lon="13.13433"><ele>830.0</ele><time>2026-04-07T13:21:47.83Z</time></trkpt><trkpt lat="43.19084" lon="13.1342833"><ele>830.0</ele><time>2026-04-07T13:21:48.83Z</time></trkpt><trkpt lat="43.1909267" lon="13.1342417"><ele>830.5000000000001</ele><time>2026-04-07T13:21:49.829Z</time></trkpt><trkpt lat="43.19101" lon="13.134205"><ele>831.0</ele><time>2026-04-07T13:21:50.83Z</time></trkpt><trkpt lat="43.1910917" lon="13.134175"><ele>831.5</ele><time>2026-04-07T13:21:51.83Z</time></trkpt><trkpt lat="43.1911667" lon="13.1341533"><ele>832.0</ele><time>2026-04-07T13:21:52.83Z</time></trkpt><trkpt lat="43.1912367" lon="13.1341383"><ele>832.5000000000001</ele><time>2026-04-07T13:21:53.83Z</time></trkpt><trkpt lat="43.1913083" lon="13.1341133"><ele>833.0</ele><time>2026-04-07T13:21:54.83Z</time></trkpt><trkpt lat="43.1913733" lon="13.1340567"><ele>831.0000000000001</ele><time>2026-04-07T13:21:55.829Z</time></trkpt><trkpt lat="43.1914267" lon="13.1339733"><ele>829.0</ele><time>2026-04-07T13:21:56.83Z</time></trkpt><trkpt lat="43.191465" lon="13.1338817"><ele>827.0</ele><time>2026-04-07T13:21:57.83Z</time></trkpt><trkpt lat="43.191485" lon="13.1337767"><ele>825.0</ele><time>2026-04-07T13:21:58.83Z</time></trkpt><trkpt lat="43.1914867" lon="13.1336667"><ele>823.0000000000001</ele><time>2026-04-07T13:21:59.829Z</time></trkpt><trkpt lat="43.19148" lon="13.133565"><ele>821.0</ele><time>2026-04-07T13:22:00.83Z</time></trkpt><trkpt lat="43.1914583" lon="13.1334767"><ele>821.0000000000001</ele><time>2026-04-07T13:22:01.83Z</time></trkpt><trkpt lat="43.1914217" lon="13.133405"><ele>821.0</ele><time>2026-04-07T13:22:02.829Z</time></trkpt><trkpt lat="43.1913717" lon="13.1333383"><ele>821.0</ele><time>2026-04-07T13:22:03.83Z</time></trkpt><trkpt lat="43.1913133" lon="13.1332717"><ele>821.0</ele><time>2026-04-07T13:22:04.829Z</time></trkpt><trkpt lat="43.1912583" lon="13.1332033"><ele>821.0</ele><time>2026-04-07T13:22:05.829Z</time></trkpt><trkpt lat="43.19121" lon="13.1331367"><ele>821.0000000000001</ele><time>2026-04-07T13:22:06.83Z</time></trkpt><trkpt lat="43.1911683" lon="13.1330667"><ele>821.0</ele><time>2026-04-07T13:22:07.83Z</time></trkpt><trkpt lat="43.1911217" lon="13.133"><ele>819.1999999999999</ele><time>2026-04-07T13:22:08.83Z</time></trkpt><trkpt lat="43.191035" lon="13.13288"><ele>817.4</ele><time>2026-04-07T13:22:10.829Z</time></trkpt><trkpt lat="43.1909567" lon="13.132755"><ele>815.6</ele><time>2026-04-07T13:22:12.829Z</time></trkpt><trkpt lat="43.1909133" lon="13.1326833"><ele>813.8</ele><time>2026-04-07T13:22:13.83Z</time></trkpt><trkpt lat="43.1908689" lon="13.132613"><ele>812.0</ele><time>2026-04-07T13:22:14.83Z</time></trkpt><trkpt lat="43.1908208" lon="13.1325353"><ele>812.0000000000001</ele><time>2026-04-07T13:22:15.83Z</time></trkpt><trkpt lat="43.1907722" lon="13.1324609"><ele>812.0</ele><time>2026-04-07T13:22:16.83Z</time></trkpt><trkpt lat="43.190731" lon="13.1323836"><ele>812.0</ele><time>2026-04-07T13:22:17.83Z</time></trkpt><trkpt lat="43.1906854" lon="13.1323063"><ele>812.0</ele><time>2026-04-07T13:22:18.83Z</time></trkpt><trkpt lat="43.190634" lon="13.1322262"><ele>812.0000000000001</ele><time>2026-04-07T13:22:19.829Z</time></trkpt><trkpt lat="43.1905812" lon="13.1321467"><ele>812.0</ele><time>2026-04-07T13:22:20.83Z</time></trkpt><trkpt lat="43.1905247" lon="13.1320636"><ele>808.0</ele><time>2026-04-07T13:22:21.83Z</time></trkpt><trkpt lat="43.1904707" lon="13.13198"><ele>804.0</ele><time>2026-04-07T13:22:22.83Z</time></trkpt><trkpt lat="43.1904126" lon="13.1318964"><ele>800.0</ele><time>2026-04-07T13:22:23.829Z</time></trkpt><trkpt lat="43.1903488" lon="13.1318023"><ele>796.0</ele><time>2026-04-07T13:22:24.83Z</time></trkpt><trkpt lat="43.1902843" lon="13.1317004"><ele>792.0</ele><time>2026-04-07T13:22:25.83Z</time></trkpt><trkpt lat="43.1902223" lon="13.1315964"><ele>791.0</ele><time>2026-04-07T13:22:26.83Z</time></trkpt><trkpt lat="43.190161" lon="13.1314878"><ele>790.0</ele><time>2026-04-07T13:22:27.83Z</time></trkpt><trkpt lat="43.1900982" lon="13.1313815"><ele>789.0</ele><time>2026-04-07T13:22:28.829Z</time></trkpt><trkpt lat="43.1900293" lon="13.1312651"><ele>788.0</ele><time>2026-04-07T13:22:29.829Z</time></trkpt><trkpt lat="43.1899602" lon="13.1311497"><ele>787.0</ele><time>2026-04-07T13:22:30.83Z</time></trkpt><trkpt lat="43.1898931" lon="13.1310364"><ele>785.2</ele><time>2026-04-07T13:22:31.83Z</time></trkpt><trkpt lat="43.1898275" lon="13.130931"><ele>783.4000000000001</ele><time>2026-04-07T13:22:32.83Z</time></trkpt><trkpt lat="43.1897633" lon="13.1308196"><ele>781.5999999999999</ele><time>2026-04-07T13:22:33.83Z</time></trkpt><trkpt lat="43.1896873" lon="13.1306963"><ele>779.8</ele><time>2026-04-07T13:22:34.829Z</time></trkpt><trkpt lat="43.1896091" lon="13.1305715"><ele>778.0</ele><time>2026-04-07T13:22:35.83Z</time></trkpt><trkpt lat="43.1895346" lon="13.1304496"><ele>778.0</ele><time>2026-04-07T13:22:36.829Z</time></trkpt><trkpt lat="43.1894586" lon="13.130329"><ele>778.0</ele><time>2026-04-07T13:22:37.83Z</time></trkpt><trkpt lat="43.1893835" lon="13.1302091"><ele>778.0</ele><time>2026-04-07T13:22:38.83Z</time></trkpt><trkpt lat="43.1893075" lon="13.1300918"><ele>778.0</ele><time>2026-04-07T13:22:39.83Z</time></trkpt><trkpt lat="43.1892333" lon="13.1299737"><ele>777.4</ele><time>2026-04-07T13:22:40.83Z</time></trkpt><trkpt lat="43.1891596" lon="13.1298543"><ele>776.8</ele><time>2026-04-07T13:22:41.83Z</time></trkpt><trkpt lat="43.1890881" lon="13.1297385"><ele>776.2</ele><time>2026-04-07T13:22:42.83Z</time></trkpt><trkpt lat="43.1890174" lon="13.1296246"><ele>775.6</ele><time>2026-04-07T13:22:43.83Z</time></trkpt><trkpt lat="43.1889437" lon="13.1295088"><ele>775.0</ele><time>2026-04-07T13:22:44.83Z</time></trkpt><trkpt lat="43.1888728" lon="13.129395"><ele>773.0</ele><time>2026-04-07T13:22:45.83Z</time></trkpt><trkpt lat="43.1888043" lon="13.1292838"><ele>771.0</ele><time>2026-04-07T13:22:46.829Z</time></trkpt><trkpt lat="43.1887333" lon="13.1291718"><ele>769.0</ele><time>2026-04-07T13:22:47.829Z</time></trkpt><trkpt lat="43.1886655" lon="13.1290631"><ele>767.0</ele><time>2026-04-07T13:22:48.829Z</time></trkpt><trkpt lat="43.1885966" lon="13.1289549"><ele>765.0</ele><time>2026-04-07T13:22:49.83Z</time></trkpt><trkpt lat="43.1885297" lon="13.128847"><ele>764.8</ele><time>2026-04-07T13:22:50.829Z</time></trkpt><trkpt lat="43.1884672" lon="13.128739"><ele>764.6</ele><time>2026-04-07T13:22:51.829Z</time></trkpt><trkpt lat="43.1884045" lon="13.1286363"><ele>764.4000000000001</ele><time>2026-04-07T13:22:52.83Z</time></trkpt><trkpt lat="43.188337" lon="13.1285289"><ele>764.2</ele><time>2026-04-07T13:22:53.83Z</time></trkpt><trkpt lat="43.1882643" lon="13.1284136"><ele>764.0</ele><time>2026-04-07T13:22:54.83Z</time></trkpt><trkpt lat="43.1881944" lon="13.1282979"><ele>762.6</ele><time>2026-04-07T13:22:55.83Z</time></trkpt><trkpt lat="43.1881273" lon="13.1281892"><ele>761.2</ele><time>2026-04-07T13:22:56.83Z</time></trkpt><trkpt lat="43.1880637" lon="13.1280826"><ele>759.8000000000001</ele><time>2026-04-07T13:22:57.83Z</time></trkpt><trkpt lat="43.1879968" lon="13.1279725"><ele>758.4000000000001</ele><time>2026-04-07T13:22:58.83Z</time></trkpt><trkpt lat="43.1879273" lon="13.1278658"><ele>757.0</ele><time>2026-04-07T13:22:59.83Z</time></trkpt><trkpt lat="43.1878547" lon="13.1277509"><ele>757.0</ele><time>2026-04-07T13:23:00.829Z</time></trkpt><trkpt lat="43.1877795" lon="13.1276272"><ele>757.0</ele><time>2026-04-07T13:23:01.83Z</time></trkpt><trkpt lat="43.1876962" lon="13.1274969"><ele>757.0</ele><time>2026-04-07T13:23:02.83Z</time></trkpt><trkpt lat="43.1876132" lon="13.1273641"><ele>757.0</ele><time>2026-04-07T13:23:03.83Z</time></trkpt><trkpt lat="43.1875311" lon="13.1272305"><ele>755.5</ele><time>2026-04-07T13:23:04.829Z</time></trkpt><trkpt lat="43.1874526" lon="13.1271026"><ele>754.0</ele><time>2026-04-07T13:23:05.83Z</time></trkpt><trkpt lat="43.1873775" lon="13.12698"><ele>752.5</ele><time>2026-04-07T13:23:06.83Z</time></trkpt><trkpt lat="43.1873057" lon="13.1268631"><ele>751.0</ele><time>2026-04-07T13:23:07.83Z</time></trkpt><trkpt lat="43.1872423" lon="13.1267539"><ele>750.5999999999999</ele><time>2026-04-07T13:23:08.83Z</time></trkpt><trkpt lat="43.1871774" lon="13.1266484"><ele>750.2</ele><time>2026-04-07T13:23:09.83Z</time></trkpt><trkpt lat="43.1871075" lon="13.1265374"><ele>749.8</ele><time>2026-04-07T13:23:10.83Z</time></trkpt><trkpt lat="43.187044" lon="13.1264396"><ele>749.4000000000001</ele><time>2026-04-07T13:23:11.83Z</time></trkpt><trkpt lat="43.186983" lon="13.1263458"><ele>749.0</ele><time>2026-04-07T13:23:12.829Z</time></trkpt><trkpt lat="43.1869259" lon="13.1262563"><ele>749.0</ele><time>2026-04-07T13:23:13.83Z</time></trkpt><trkpt lat="43.1868664" lon="13.1261691"><ele>749.0</ele><time>2026-04-07T13:23:14.83Z</time></trkpt><trkpt lat="43.1868021" lon="13.1260851"><ele>749.0</ele><time>2026-04-07T13:23:15.83Z</time></trkpt><trkpt lat="43.1867333" lon="13.1260174"><ele>749.0</ele><time>2026-04-07T13:23:16.829Z</time></trkpt><trkpt lat="43.1866631" lon="13.1259407"><ele>749.0</ele><time>2026-04-07T13:23:17.83Z</time></trkpt><trkpt lat="43.1865934" lon="13.1258527"><ele>749.0</ele><time>2026-04-07T13:23:18.83Z</time></trkpt><trkpt lat="43.186522" lon="13.1257557"><ele>749.5</ele><time>2026-04-07T13:23:19.83Z</time></trkpt><trkpt lat="43.1864437" lon="13.1256461"><ele>750.0</ele><time>2026-04-07T13:23:20.83Z</time></trkpt><trkpt lat="43.1863633" lon="13.125525"><ele>750.5</ele><time>2026-04-07T13:23:21.83Z</time></trkpt><trkpt lat="43.1862867" lon="13.125415"><ele>751.0</ele><time>2026-04-07T13:23:22.83Z</time></trkpt><trkpt lat="43.18621" lon="13.1253033"><ele>751.0</ele><time>2026-04-07T13:23:23.83Z</time></trkpt><trkpt lat="43.1861317" lon="13.1251883"><ele>751.0</ele><time>2026-04-07T13:23:24.83Z</time></trkpt><trkpt lat="43.1860567" lon="13.125075"><ele>751.0</ele><time>2026-04-07T13:23:25.83Z</time></trkpt><trkpt lat="43.18598" lon="13.1249467"><ele>751.0</ele><time>2026-04-07T13:23:26.83Z</time></trkpt><trkpt lat="43.18589" lon="13.1248133"><ele>750.5</ele><time>2026-04-07T13:23:27.83Z</time></trkpt><trkpt lat="43.1857933" lon="13.1246767"><ele>750.0</ele><time>2026-04-07T13:23:28.83Z</time></trkpt><trkpt lat="43.1857" lon="13.1245417"><ele>749.5</ele><time>2026-04-07T13:23:29.829Z</time></trkpt><trkpt lat="43.1856" lon="13.124405"><ele>749.0</ele><time>2026-04-07T13:23:30.829Z</time></trkpt><trkpt lat="43.1855033" lon="13.1242683"><ele>749.0</ele><time>2026-04-07T13:23:31.83Z</time></trkpt><trkpt lat="43.1854067" lon="13.1241233"><ele>749.0</ele><time>2026-04-07T13:23:32.83Z</time></trkpt><trkpt lat="43.1853167" lon="13.12399"><ele>749.0</ele><time>2026-04-07T13:23:33.83Z</time></trkpt><trkpt lat="43.1852317" lon="13.123865"><ele>749.0</ele><time>2026-04-07T13:23:34.83Z</time></trkpt><trkpt lat="43.1851433" lon="13.1237367"><ele>749.0</ele><time>2026-04-07T13:23:35.829Z</time></trkpt><trkpt lat="43.185055" lon="13.1236117"><ele>749.0</ele><time>2026-04-07T13:23:36.83Z</time></trkpt><trkpt lat="43.18497" lon="13.1234783"><ele>749.0</ele><time>2026-04-07T13:23:37.83Z</time></trkpt><trkpt lat="43.1848783" lon="13.1233383"><ele>749.0</ele><time>2026-04-07T13:23:38.83Z</time></trkpt><trkpt lat="43.1847883" lon="13.1232"><ele>749.25</ele><time>2026-04-07T13:23:39.83Z</time></trkpt><trkpt lat="43.1847067" lon="13.1230483"><ele>749.5</ele><time>2026-04-07T13:23:40.829Z</time></trkpt><trkpt lat="43.1846383" lon="13.12288"><ele>749.75</ele><time>2026-04-07T13:23:41.83Z</time></trkpt><trkpt lat="43.1845767" lon="13.1227"><ele>750.0</ele><time>2026-04-07T13:23:42.83Z</time></trkpt><trkpt lat="43.18452" lon="13.1225067"><ele>751.25</ele><time>2026-04-07T13:23:43.83Z</time></trkpt><trkpt lat="43.18446" lon="13.122325"><ele>752.5</ele><time>2026-04-07T13:23:44.83Z</time></trkpt><trkpt lat="43.1844017" lon="13.1221383"><ele>753.75</ele><time>2026-04-07T13:23:45.83Z</time></trkpt><trkpt lat="43.1843433" lon="13.1219567"><ele>755.0</ele><time>2026-04-07T13:23:46.829Z</time></trkpt><trkpt lat="43.18428" lon="13.121775"><ele>755.0</ele><time>2026-04-07T13:23:47.83Z</time></trkpt><trkpt lat="43.1842183" lon="13.1216"><ele>755.0</ele><time>2026-04-07T13:23:48.83Z</time></trkpt><trkpt lat="43.1841483" lon="13.1214417"><ele>755.0</ele><time>2026-04-07T13:23:49.83Z</time></trkpt><trkpt lat="43.184065" lon="13.1213"><ele>755.0</ele><time>2026-04-07T13:23:50.829Z</time></trkpt><trkpt lat="43.1839633" lon="13.12118"><ele>754.25</ele><time>2026-04-07T13:23:51.83Z</time></trkpt><trkpt lat="43.18384" lon="13.121075"><ele>753.5</ele><time>2026-04-07T13:23:52.83Z</time></trkpt><trkpt lat="43.1837067" lon="13.12099"><ele>752.75</ele><time>2026-04-07T13:23:53.83Z</time></trkpt><trkpt lat="43.1835667" lon="13.120915"><ele>752.0</ele><time>2026-04-07T13:23:54.829Z</time></trkpt><trkpt lat="43.1834183" lon="13.1208567"><ele>752.0</ele><time>2026-04-07T13:23:55.83Z</time></trkpt><trkpt lat="43.1832633" lon="13.1208067"><ele>752.0</ele><time>2026-04-07T13:23:56.83Z</time></trkpt><trkpt lat="43.1831083" lon="13.1207517"><ele>752.0</ele><time>2026-04-07T13:23:57.83Z</time></trkpt><trkpt lat="43.18295" lon="13.1207017"><ele>753.0</ele><time>2026-04-07T13:23:58.829Z</time></trkpt><trkpt lat="43.182795" lon="13.1206533"><ele>754.0</ele><time>2026-04-07T13:23:59.83Z</time></trkpt><trkpt lat="43.18265" lon="13.1206067"><ele>755.0</ele><time>2026-04-07T13:24:00.829Z</time></trkpt><trkpt lat="43.1825083" lon="13.12056"><ele>755.0</ele><time>2026-04-07T13:24:01.83Z</time></trkpt><trkpt lat="43.182365" lon="13.1205067"><ele>755.0</ele><time>2026-04-07T13:24:02.83Z</time></trkpt><trkpt lat="43.18222" lon="13.1204617"><ele>755.0</ele><time>2026-04-07T13:24:03.83Z</time></trkpt><trkpt lat="43.1820867" lon="13.1204017"><ele>755.0</ele><time>2026-04-07T13:24:04.83Z</time></trkpt><trkpt lat="43.18197" lon="13.1203233"><ele>754.5</ele><time>2026-04-07T13:24:05.83Z</time></trkpt><trkpt lat="43.1818583" lon="13.1202267"><ele>754.0</ele><time>2026-04-07T13:24:06.83Z</time></trkpt><trkpt lat="43.1817583" lon="13.1201083"><ele>753.5</ele><time>2026-04-07T13:24:07.83Z</time></trkpt><trkpt lat="43.1816533" lon="13.1199767"><ele>753.0</ele><time>2026-04-07T13:24:08.829Z</time></trkpt><trkpt lat="43.18155" lon="13.1198167"><ele>753.0</ele><time>2026-04-07T13:24:09.83Z</time></trkpt><trkpt lat="43.1814383" lon="13.119665"><ele>753.0</ele><time>2026-04-07T13:24:10.83Z</time></trkpt><trkpt lat="43.181315" lon="13.11953"><ele>753.0</ele><time>2026-04-07T13:24:11.83Z</time></trkpt><trkpt lat="43.18118" lon="13.11941"><ele>753.0</ele><time>2026-04-07T13:24:12.829Z</time></trkpt><trkpt lat="43.1810383" lon="13.1192933"><ele>753.0</ele><time>2026-04-07T13:24:13.83Z</time></trkpt><trkpt lat="43.1808967" lon="13.1191833"><ele>753.0</ele><time>2026-04-07T13:24:14.83Z</time></trkpt><trkpt lat="43.180755" lon="13.1190933"><ele>751.0</ele><time>2026-04-07T13:24:15.83Z</time></trkpt><trkpt lat="43.1806167" lon="13.1190217"><ele>749.0</ele><time>2026-04-07T13:24:16.83Z</time></trkpt><trkpt lat="43.1804883" lon="13.1189383"><ele>747.0</ele><time>2026-04-07T13:24:17.83Z</time></trkpt><trkpt lat="43.1803583" lon="13.1188683"><ele>745.0</ele><time>2026-04-07T13:24:18.83Z</time></trkpt><trkpt lat="43.1802333" lon="13.118775"><ele>745.0</ele><time>2026-04-07T13:24:19.83Z</time></trkpt><trkpt lat="43.1801067" lon="13.11868"><ele>745.0</ele><time>2026-04-07T13:24:20.83Z</time></trkpt><trkpt lat="43.1799717" lon="13.11859"><ele>745.0</ele><time>2026-04-07T13:24:21.83Z</time></trkpt><trkpt lat="43.1798367" lon="13.1185033"><ele>745.0</ele><time>2026-04-07T13:24:22.829Z</time></trkpt><trkpt lat="43.179695" lon="13.1184133"><ele>744.25</ele><time>2026-04-07T13:24:23.83Z</time></trkpt><trkpt lat="43.179565" lon="13.11832"><ele>743.5</ele><time>2026-04-07T13:24:24.83Z</time></trkpt><trkpt lat="43.1794383" lon="13.1182417"><ele>742.75</ele><time>2026-04-07T13:24:25.829Z</time></trkpt><trkpt lat="43.179315" lon="13.1181733"><ele>742.0</ele><time>2026-04-07T13:24:26.829Z</time></trkpt><trkpt lat="43.179195" lon="13.11812"><ele>741.5</ele><time>2026-04-07T13:24:27.83Z</time></trkpt><trkpt lat="43.1790633" lon="13.1180967"><ele>741.0</ele><time>2026-04-07T13:24:28.83Z</time></trkpt><trkpt lat="43.178915" lon="13.1180833"><ele>740.5</ele><time>2026-04-07T13:24:29.83Z</time></trkpt><trkpt lat="43.1787583" lon="13.11808"><ele>740.0</ele><time>2026-04-07T13:24:30.83Z</time></trkpt><trkpt lat="43.1786017" lon="13.1180733"><ele>739.5</ele><time>2026-04-07T13:24:31.83Z</time></trkpt><trkpt lat="43.1784517" lon="13.1180733"><ele>739.0</ele><time>2026-04-07T13:24:32.83Z</time></trkpt><trkpt lat="43.1783083" lon="13.1180667"><ele>738.5</ele><time>2026-04-07T13:24:33.829Z</time></trkpt><trkpt lat="43.1781733" lon="13.11806"><ele>738.0</ele><time>2026-04-07T13:24:34.83Z</time></trkpt><trkpt lat="43.1780383" lon="13.1180567"><ele>737.25</ele><time>2026-04-07T13:24:35.83Z</time></trkpt><trkpt lat="43.1779017" lon="13.1180483"><ele>736.5</ele><time>2026-04-07T13:24:36.83Z</time></trkpt><trkpt lat="43.1777767" lon="13.1180317"><ele>735.75</ele><time>2026-04-07T13:24:37.83Z</time></trkpt><trkpt lat="43.1776567" lon="13.1180067"><ele>735.0</ele><time>2026-04-07T13:24:38.83Z</time></trkpt><trkpt lat="43.177535" lon="13.1179733"><ele>735.0</ele><time>2026-04-07T13:24:39.83Z</time></trkpt><trkpt lat="43.17742" lon="13.1179317"><ele>735.0</ele><time>2026-04-07T13:24:40.83Z</time></trkpt><trkpt lat="43.1773067" lon="13.1178767"><ele>735.0</ele><time>2026-04-07T13:24:41.83Z</time></trkpt><trkpt lat="43.177185" lon="13.117815"><ele>735.0</ele><time>2026-04-07T13:24:42.83Z</time></trkpt><trkpt lat="43.177055" lon="13.1177433"><ele>735.0</ele><time>2026-04-07T13:24:43.83Z</time></trkpt><trkpt lat="43.1769233" lon="13.117665"><ele>735.0</ele><time>2026-04-07T13:24:44.829Z</time></trkpt><trkpt lat="43.1768017" lon="13.1175767"><ele>735.0</ele><time>2026-04-07T13:24:45.83Z</time></trkpt><trkpt lat="43.17669" lon="13.11747"><ele>735.0</ele><time>2026-04-07T13:24:46.83Z</time></trkpt><trkpt lat="43.176575" lon="13.11735"><ele>730.25</ele><time>2026-04-07T13:24:47.83Z</time></trkpt><trkpt lat="43.1764617" lon="13.11723"><ele>725.5</ele><time>2026-04-07T13:24:48.83Z</time></trkpt><trkpt lat="43.1763567" lon="13.1171"><ele>720.75</ele><time>2026-04-07T13:24:49.83Z</time></trkpt><trkpt lat="43.1762683" lon="13.116965"><ele>716.0</ele><time>2026-04-07T13:24:50.83Z</time></trkpt><trkpt lat="43.1761983" lon="13.11681"><ele>716.0</ele><time>2026-04-07T13:24:51.83Z</time></trkpt><trkpt lat="43.176145" lon="13.1166433"><ele>716.0</ele><time>2026-04-07T13:24:52.83Z</time></trkpt><trkpt lat="43.1760983" lon="13.1164567"><ele>716.0</ele><time>2026-04-07T13:24:53.83Z</time></trkpt><trkpt lat="43.1760567" lon="13.1162567"><ele>716.0</ele><time>2026-04-07T13:24:54.83Z</time></trkpt><trkpt lat="43.176025" lon="13.1160617"><ele>714.75</ele><time>2026-04-07T13:24:55.83Z</time></trkpt><trkpt lat="43.1759933" lon="13.115865"><ele>713.5</ele><time>2026-04-07T13:24:56.83Z</time></trkpt><trkpt lat="43.1759517" lon="13.115675"><ele>712.25</ele><time>2026-04-07T13:24:57.83Z</time></trkpt><trkpt lat="43.1759117" lon="13.1154967"><ele>711.0</ele><time>2026-04-07T13:24:58.83Z</time></trkpt><trkpt lat="43.1758767" lon="13.1153183"><ele>710.5</ele><time>2026-04-07T13:24:59.83Z</time></trkpt><trkpt lat="43.1758467" lon="13.1151383"><ele>710.0</ele><time>2026-04-07T13:25:00.83Z</time></trkpt><trkpt lat="43.1758067" lon="13.1149683"><ele>709.5</ele><time>2026-04-07T13:25:01.83Z</time></trkpt><trkpt lat="43.1757683" lon="13.1147983"><ele>709.0</ele><time>2026-04-07T13:25:02.829Z</time></trkpt><trkpt lat="43.1757233" lon="13.1146183"><ele>705.75</ele><time>2026-04-07T13:25:03.83Z</time></trkpt><trkpt lat="43.175665" lon="13.1144417"><ele>702.5</ele><time>2026-04-07T13:25:04.829Z</time></trkpt><trkpt lat="43.1755983" lon="13.1142883"><ele>699.25</ele><time>2026-04-07T13:25:05.829Z</time></trkpt><trkpt lat="43.1755133" lon="13.1141567"><ele>696.0</ele><time>2026-04-07T13:25:06.83Z</time></trkpt><trkpt lat="43.17541" lon="13.1140417"><ele>696.0</ele><time>2026-04-07T13:25:07.83Z</time></trkpt><trkpt lat="43.17529" lon="13.1139367"><ele>696.0</ele><time>2026-04-07T13:25:08.829Z</time></trkpt><trkpt lat="43.17515" lon="13.113845"><ele>696.0</ele><time>2026-04-07T13:25:09.83Z</time></trkpt><trkpt lat="43.1749983" lon="13.11377"><ele>695.0</ele><time>2026-04-07T13:25:10.83Z</time></trkpt><trkpt lat="43.1748533" lon="13.1136967"><ele>694.0</ele><time>2026-04-07T13:25:11.83Z</time></trkpt><trkpt lat="43.1747117" lon="13.1136283"><ele>693.0</ele><time>2026-04-07T13:25:12.83Z</time></trkpt><trkpt lat="43.1745733" lon="13.11357"><ele>692.0</ele><time>2026-04-07T13:25:13.829Z</time></trkpt><trkpt lat="43.1744367" lon="13.113505"><ele>692.0</ele><time>2026-04-07T13:25:14.829Z</time></trkpt><trkpt lat="43.1743033" lon="13.1134517"><ele>692.0</ele><time>2026-04-07T13:25:15.83Z</time></trkpt><trkpt lat="43.17417" lon="13.113385"><ele>692.0</ele><time>2026-04-07T13:25:16.83Z</time></trkpt><trkpt lat="43.1740317" lon="13.11332"><ele>692.0</ele><time>2026-04-07T13:25:17.83Z</time></trkpt><trkpt lat="43.173885" lon="13.1132583"><ele>688.3333333333333</ele><time>2026-04-07T13:25:18.83Z</time></trkpt><trkpt lat="43.173735" lon="13.1131917"><ele>684.6666666666666</ele><time>2026-04-07T13:25:19.83Z</time></trkpt><trkpt lat="43.1735817" lon="13.1131217"><ele>681.0</ele><time>2026-04-07T13:25:20.83Z</time></trkpt><trkpt lat="43.17344" lon="13.1130517"><ele>681.0</ele><time>2026-04-07T13:25:21.83Z</time></trkpt><trkpt lat="43.1733" lon="13.1129817"><ele>681.0</ele><time>2026-04-07T13:25:22.83Z</time></trkpt><trkpt lat="43.17315" lon="13.11291"><ele>681.0</ele><time>2026-04-07T13:25:23.829Z</time></trkpt><trkpt lat="43.1729883" lon="13.1128367"><ele>681.0</ele><time>2026-04-07T13:25:24.83Z</time></trkpt><trkpt lat="43.17282" lon="13.1127617"><ele>681.0</ele><time>2026-04-07T13:25:25.83Z</time></trkpt><trkpt lat="43.172655" lon="13.1126783"><ele>681.0</ele><time>2026-04-07T13:25:26.829Z</time></trkpt><trkpt lat="43.1724933" lon="13.1126"><ele>682.0</ele><time>2026-04-07T13:25:27.83Z</time></trkpt><trkpt lat="43.1723333" lon="13.112505"><ele>683.0</ele><time>2026-04-07T13:25:28.83Z</time></trkpt><trkpt lat="43.1721733" lon="13.112405"><ele>684.0</ele><time>2026-04-07T13:25:29.829Z</time></trkpt><trkpt lat="43.172015" lon="13.112295"><ele>680.3333333333334</ele><time>2026-04-07T13:25:30.83Z</time></trkpt><trkpt lat="43.1718633" lon="13.1121883"><ele>676.6666666666667</ele><time>2026-04-07T13:25:31.83Z</time></trkpt><trkpt lat="43.1717167" lon="13.1120833"><ele>673.0</ele><time>2026-04-07T13:25:32.829Z</time></trkpt><trkpt lat="43.17157" lon="13.111975"><ele>673.6666666666667</ele><time>2026-04-07T13:25:33.83Z</time></trkpt><trkpt lat="43.171425" lon="13.111865"><ele>674.3333333333334</ele><time>2026-04-07T13:25:34.83Z</time></trkpt><trkpt lat="43.1712767" lon="13.1117567"><ele>675.0</ele><time>2026-04-07T13:25:35.83Z</time></trkpt><trkpt lat="43.17113" lon="13.111645"><ele>671.0</ele><time>2026-04-07T13:25:36.83Z</time></trkpt><trkpt lat="43.1709917" lon="13.1115417"><ele>667.0</ele><time>2026-04-07T13:25:37.829Z</time></trkpt><trkpt lat="43.1708533" lon="13.1114417"><ele>663.0</ele><time>2026-04-07T13:25:38.83Z</time></trkpt><trkpt lat="43.170715" lon="13.1113433"><ele>663.25</ele><time>2026-04-07T13:25:39.829Z</time></trkpt><trkpt lat="43.1705817" lon="13.1112433"><ele>663.5</ele><time>2026-04-07T13:25:40.83Z</time></trkpt><trkpt lat="43.1704483" lon="13.1111567"><ele>663.75</ele><time>2026-04-07T13:25:41.829Z</time></trkpt><trkpt lat="43.1703167" lon="13.1110683"><ele>664.0</ele><time>2026-04-07T13:25:42.83Z</time></trkpt><trkpt lat="43.1701883" lon="13.1109783"><ele>664.0</ele><time>2026-04-07T13:25:43.829Z</time></trkpt><trkpt lat="43.1700517" lon="13.1108967"><ele>664.0</ele><time>2026-04-07T13:25:44.83Z</time></trkpt><trkpt lat="43.169905" lon="13.1108117"><ele>664.0</ele><time>2026-04-07T13:25:45.829Z</time></trkpt><trkpt lat="43.1697467" lon="13.1107283"><ele>660.0</ele><time>2026-04-07T13:25:46.83Z</time></trkpt><trkpt lat="43.1695917" lon="13.11066"><ele>656.0</ele><time>2026-04-07T13:25:47.829Z</time></trkpt><trkpt lat="43.1694383" lon="13.1105883"><ele>652.0</ele><time>2026-04-07T13:25:48.83Z</time></trkpt><trkpt lat="43.16929" lon="13.1105183"><ele>652.0</ele><time>2026-04-07T13:25:49.83Z</time></trkpt><trkpt lat="43.1691433" lon="13.1104417"><ele>652.0</ele><time>2026-04-07T13:25:50.83Z</time></trkpt><trkpt lat="43.1689917" lon="13.11038"><ele>652.0</ele><time>2026-04-07T13:25:51.83Z</time></trkpt><trkpt lat="43.1688467" lon="13.1103167"><ele>651.0</ele><time>2026-04-07T13:25:52.83Z</time></trkpt><trkpt lat="43.1687033" lon="13.1102533"><ele>650.0</ele><time>2026-04-07T13:25:53.83Z</time></trkpt><trkpt lat="43.168565" lon="13.1101833"><ele>649.0</ele><time>2026-04-07T13:25:54.83Z</time></trkpt><trkpt lat="43.168425" lon="13.1101183"><ele>648.0</ele><time>2026-04-07T13:25:55.829Z</time></trkpt><trkpt lat="43.1682867" lon="13.1100533"><ele>644.75</ele><time>2026-04-07T13:25:56.83Z</time></trkpt><trkpt lat="43.168155" lon="13.10998"><ele>641.5</ele><time>2026-04-07T13:25:57.83Z</time></trkpt><trkpt lat="43.1680333" lon="13.1099"><ele>638.25</ele><time>2026-04-07T13:25:58.83Z</time></trkpt><trkpt lat="43.1679083" lon="13.1098067"><ele>635.0</ele><time>2026-04-07T13:25:59.83Z</time></trkpt><trkpt lat="43.1677817" lon="13.1097083"><ele>635.0</ele><time>2026-04-07T13:26:00.83Z</time></trkpt><trkpt lat="43.1676583" lon="13.1095967"><ele>635.0</ele><time>2026-04-07T13:26:01.83Z</time></trkpt><trkpt lat="43.1675383" lon="13.109495"><ele>635.0</ele><time>2026-04-07T13:26:02.829Z</time></trkpt><trkpt lat="43.1674217" lon="13.1093933"><ele>635.0</ele><time>2026-04-07T13:26:03.83Z</time></trkpt><trkpt lat="43.16731" lon="13.1092933"><ele>636.0</ele><time>2026-04-07T13:26:04.83Z</time></trkpt><trkpt lat="43.1671967" lon="13.1092067"><ele>637.0</ele><time>2026-04-07T13:26:05.83Z</time></trkpt><trkpt lat="43.16709" lon="13.1091183"><ele>638.0</ele><time>2026-04-07T13:26:06.83Z</time></trkpt><trkpt lat="43.166995" lon="13.1090217"><ele>639.0</ele><time>2026-04-07T13:26:07.83Z</time></trkpt><trkpt lat="43.1669" lon="13.108915"><ele>640.25</ele><time>2026-04-07T13:26:08.829Z</time></trkpt><trkpt lat="43.1668167" lon="13.1087767"><ele>641.5</ele><time>2026-04-07T13:26:09.83Z</time></trkpt><trkpt lat="43.1667483" lon="13.108625"><ele>642.75</ele><time>2026-04-07T13:26:10.829Z</time></trkpt><trkpt lat="43.166675" lon="13.1084717"><ele>644.0</ele><time>2026-04-07T13:26:11.83Z</time></trkpt><trkpt lat="43.166615" lon="13.1083083"><ele>645.4000000000001</ele><time>2026-04-07T13:26:12.83Z</time></trkpt><trkpt lat="43.1665783" lon="13.1081467"><ele>646.8</ele><time>2026-04-07T13:26:13.829Z</time></trkpt><trkpt lat="43.166545" lon="13.10799"><ele>648.2</ele><time>2026-04-07T13:26:14.829Z</time></trkpt><trkpt lat="43.166515" lon="13.1078483"><ele>649.5999999999999</ele><time>2026-04-07T13:26:15.83Z</time></trkpt><trkpt lat="43.1664867" lon="13.1077317"><ele>651.0</ele><time>2026-04-07T13:26:16.83Z</time></trkpt><trkpt lat="43.1664567" lon="13.1076333"><ele>651.0</ele><time>2026-04-07T13:26:17.83Z</time></trkpt><trkpt lat="43.1664283" lon="13.107555"><ele>651.0</ele><time>2026-04-07T13:26:18.83Z</time></trkpt><trkpt lat="43.1663917" lon="13.1074517"><ele>651.0</ele><time>2026-04-07T13:26:20.83Z</time></trkpt><trkpt lat="43.1663717" lon="13.10736"><ele>651.0</ele><time>2026-04-07T13:26:22.83Z</time></trkpt><trkpt lat="43.166325" lon="13.1072667"><ele>651.0</ele><time>2026-04-07T13:26:24.83Z</time></trkpt><trkpt lat="43.1662183" lon="13.1071767"><ele>651.0</ele><time>2026-04-07T13:26:26.83Z</time></trkpt><trkpt lat="43.16614" lon="13.1071267"><ele>647.8</ele><time>2026-04-07T13:26:27.83Z</time></trkpt><trkpt lat="43.1660617" lon="13.10707"><ele>644.5999999999999</ele><time>2026-04-07T13:26:28.83Z</time></trkpt><trkpt lat="43.165965" lon="13.1070083"><ele>641.4</ele><time>2026-04-07T13:26:29.83Z</time></trkpt><trkpt lat="43.1658567" lon="13.1069517"><ele>638.2</ele><time>2026-04-07T13:26:30.829Z</time></trkpt><trkpt lat="43.1657483" lon="13.1068867"><ele>635.0</ele><time>2026-04-07T13:26:31.83Z</time></trkpt><trkpt lat="43.165635" lon="13.1068217"><ele>635.0</ele><time>2026-04-07T13:26:32.83Z</time></trkpt><trkpt lat="43.1655167" lon="13.106745"><ele>635.0</ele><time>2026-04-07T13:26:33.83Z</time></trkpt><trkpt lat="43.1653983" lon="13.1066733"><ele>635.0</ele><time>2026-04-07T13:26:34.829Z</time></trkpt><trkpt lat="43.165285" lon="13.1065983"><ele>635.0</ele><time>2026-04-07T13:26:35.829Z</time></trkpt><trkpt lat="43.1651733" lon="13.1065167"><ele>636.25</ele><time>2026-04-07T13:26:36.829Z</time></trkpt><trkpt lat="43.16507" lon="13.10643"><ele>637.5</ele><time>2026-04-07T13:26:37.829Z</time></trkpt><trkpt lat="43.1649733" lon="13.1063283"><ele>638.75</ele><time>2026-04-07T13:26:38.829Z</time></trkpt><trkpt lat="43.164875" lon="13.106215"><ele>640.0</ele><time>2026-04-07T13:26:39.83Z</time></trkpt><trkpt lat="43.16477" lon="13.106095"><ele>640.0</ele><time>2026-04-07T13:26:40.83Z</time></trkpt><trkpt lat="43.164655" lon="13.1060117"><ele>640.0</ele><time>2026-04-07T13:26:41.83Z</time></trkpt><trkpt lat="43.16453" lon="13.1059867"><ele>640.0</ele><time>2026-04-07T13:26:42.83Z</time></trkpt><trkpt lat="43.1643917" lon="13.1059933"><ele>640.0</ele><time>2026-04-07T13:26:43.829Z</time></trkpt><trkpt lat="43.1642467" lon="13.106"><ele>640.0</ele><time>2026-04-07T13:26:44.83Z</time></trkpt><trkpt lat="43.1641017" lon="13.1060117"><ele>640.0</ele><time>2026-04-07T13:26:45.829Z</time></trkpt><trkpt lat="43.1639633" lon="13.1060267"><ele>640.0</ele><time>2026-04-07T13:26:46.83Z</time></trkpt><trkpt lat="43.1638133" lon="13.1060417"><ele>640.0</ele><time>2026-04-07T13:26:47.829Z</time></trkpt><trkpt lat="43.163655" lon="13.1060467"><ele>642.0</ele><time>2026-04-07T13:26:48.829Z</time></trkpt><trkpt lat="43.1635167" lon="13.1060583"><ele>644.0</ele><time>2026-04-07T13:26:49.83Z</time></trkpt><trkpt lat="43.16337" lon="13.106045"><ele>646.0</ele><time>2026-04-07T13:26:50.83Z</time></trkpt><trkpt lat="43.16323" lon="13.1060217"><ele>648.0</ele><time>2026-04-07T13:26:51.83Z</time></trkpt><trkpt lat="43.1630933" lon="13.105985"><ele>648.0</ele><time>2026-04-07T13:26:52.83Z</time></trkpt><trkpt lat="43.162955" lon="13.105915"><ele>648.0</ele><time>2026-04-07T13:26:53.83Z</time></trkpt><trkpt lat="43.1628133" lon="13.10584"><ele>648.0</ele><time>2026-04-07T13:26:54.83Z</time></trkpt><trkpt lat="43.162675" lon="13.1057633"><ele>648.0</ele><time>2026-04-07T13:26:55.83Z</time></trkpt><trkpt lat="43.1625317" lon="13.1057183"><ele>654.3333333333334</ele><time>2026-04-07T13:26:56.83Z</time></trkpt><trkpt lat="43.1623733" lon="13.105695"><ele>660.6666666666667</ele><time>2026-04-07T13:26:57.83Z</time></trkpt><trkpt lat="43.1622183" lon="13.105685"><ele>667.0</ele><time>2026-04-07T13:26:58.83Z</time></trkpt><trkpt lat="43.1620617" lon="13.105665"><ele>667.0</ele><time>2026-04-07T13:26:59.829Z</time></trkpt><trkpt lat="43.1619017" lon="13.1056483"><ele>667.0</ele><time>2026-04-07T13:27:00.83Z</time></trkpt><trkpt lat="43.161755" lon="13.1055733"><ele>667.0</ele><time>2026-04-07T13:27:01.829Z</time></trkpt><trkpt lat="43.1616133" lon="13.1055367"><ele>664.6666666666667</ele><time>2026-04-07T13:27:02.829Z</time></trkpt><trkpt lat="43.1614783" lon="13.1054483"><ele>662.3333333333334</ele><time>2026-04-07T13:27:03.829Z</time></trkpt><trkpt lat="43.16134" lon="13.105345"><ele>660.0</ele><time>2026-04-07T13:27:04.83Z</time></trkpt><trkpt lat="43.1611983" lon="13.1052333"><ele>660.0</ele><time>2026-04-07T13:27:05.83Z</time></trkpt><trkpt lat="43.1610567" lon="13.1051067"><ele>660.0</ele><time>2026-04-07T13:27:06.83Z</time></trkpt><trkpt lat="43.16091" lon="13.1050033"><ele>660.0</ele><time>2026-04-07T13:27:07.83Z</time></trkpt><trkpt lat="43.1607667" lon="13.1048983"><ele>661.6666666666666</ele><time>2026-04-07T13:27:08.83Z</time></trkpt><trkpt lat="43.16063" lon="13.10479"><ele>663.3333333333333</ele><time>2026-04-07T13:27:09.83Z</time></trkpt><trkpt lat="43.1604867" lon="13.1046883"><ele>665.0</ele><time>2026-04-07T13:27:10.83Z</time></trkpt><trkpt lat="43.16035" lon="13.10459"><ele>665.0</ele><time>2026-04-07T13:27:11.83Z</time></trkpt><trkpt lat="43.1602317" lon="13.10446"><ele>665.0</ele><time>2026-04-07T13:27:12.83Z</time></trkpt><trkpt lat="43.160125" lon="13.1043133"><ele>665.0</ele><time>2026-04-07T13:27:13.83Z</time></trkpt><trkpt lat="43.1600183" lon="13.1041683"><ele>664.6666666666666</ele><time>2026-04-07T13:27:14.829Z</time></trkpt><trkpt lat="43.1598967" lon="13.104025"><ele>664.3333333333334</ele><time>2026-04-07T13:27:15.83Z</time></trkpt><trkpt lat="43.15978" lon="13.1038867"><ele>664.0</ele><time>2026-04-07T13:27:16.83Z</time></trkpt><trkpt lat="43.1596517" lon="13.103755"><ele>664.0</ele><time>2026-04-07T13:27:17.829Z</time></trkpt><trkpt lat="43.159515" lon="13.1036367"><ele>664.0</ele><time>2026-04-07T13:27:18.83Z</time></trkpt><trkpt lat="43.1593767" lon="13.1035217"><ele>664.0</ele><time>2026-04-07T13:27:19.83Z</time></trkpt><trkpt lat="43.159235" lon="13.10342"><ele>664.0</ele><time>2026-04-07T13:27:20.83Z</time></trkpt><trkpt lat="43.1590983" lon="13.103315"><ele>664.0</ele><time>2026-04-07T13:27:21.83Z</time></trkpt><trkpt lat="43.1589617" lon="13.103225"><ele>664.0</ele><time>2026-04-07T13:27:22.829Z</time></trkpt><trkpt lat="43.1588233" lon="13.10313"><ele>663.0</ele><time>2026-04-07T13:27:23.83Z</time></trkpt><trkpt lat="43.1586817" lon="13.1030317"><ele>662.0</ele><time>2026-04-07T13:27:24.83Z</time></trkpt><trkpt lat="43.1585367" lon="13.102965"><ele>661.0</ele><time>2026-04-07T13:27:25.83Z</time></trkpt><trkpt lat="43.15839" lon="13.10287"><ele>661.0</ele><time>2026-04-07T13:27:26.83Z</time></trkpt><trkpt lat="43.1582483" lon="13.10277"><ele>661.0</ele><time>2026-04-07T13:27:27.829Z</time></trkpt><trkpt lat="43.1581133" lon="13.10265"><ele>661.0</ele><time>2026-04-07T13:27:28.83Z</time></trkpt><trkpt lat="43.1579783" lon="13.1025217"><ele>662.3333333333334</ele><time>2026-04-07T13:27:29.83Z</time></trkpt><trkpt lat="43.1578483" lon="13.1023983"><ele>663.6666666666666</ele><time>2026-04-07T13:27:30.829Z</time></trkpt><trkpt lat="43.1577167" lon="13.1022733"><ele>665.0</ele><time>2026-04-07T13:27:31.83Z</time></trkpt><trkpt lat="43.1575867" lon="13.102155"><ele>665.0</ele><time>2026-04-07T13:27:32.83Z</time></trkpt><trkpt lat="43.15745" lon="13.1020517"><ele>665.0</ele><time>2026-04-07T13:27:33.829Z</time></trkpt><trkpt lat="43.1573117" lon="13.10195"><ele>665.0</ele><time>2026-04-07T13:27:34.829Z</time></trkpt><trkpt lat="43.15716" lon="13.1018783"><ele>667.3333333333333</ele><time>2026-04-07T13:27:35.83Z</time></trkpt><trkpt lat="43.1570033" lon="13.1018267"><ele>669.6666666666666</ele><time>2026-04-07T13:27:36.83Z</time></trkpt><trkpt lat="43.1568517" lon="13.1017983"><ele>672.0</ele><time>2026-04-07T13:27:37.83Z</time></trkpt><trkpt lat="43.1567017" lon="13.1018017"><ele>672.0</ele><time>2026-04-07T13:27:38.83Z</time></trkpt><trkpt lat="43.1565633" lon="13.1017917"><ele>672.0</ele><time>2026-04-07T13:27:39.83Z</time></trkpt><trkpt lat="43.156425" lon="13.101745"><ele>672.0</ele><time>2026-04-07T13:27:40.83Z</time></trkpt><trkpt lat="43.15629" lon="13.10165"><ele>672.0</ele><time>2026-04-07T13:27:41.83Z</time></trkpt><trkpt lat="43.1561533" lon="13.101525"><ele>669.0</ele><time>2026-04-07T13:27:42.83Z</time></trkpt><trkpt lat="43.1560233" lon="13.1014033"><ele>666.0</ele><time>2026-04-07T13:27:43.83Z</time></trkpt><trkpt lat="43.1558883" lon="13.1013117"><ele>663.0</ele><time>2026-04-07T13:27:44.83Z</time></trkpt><trkpt lat="43.1557433" lon="13.101245"><ele>667.6666666666666</ele><time>2026-04-07T13:27:45.83Z</time></trkpt><trkpt lat="43.1555867" lon="13.101205"><ele>672.3333333333333</ele><time>2026-04-07T13:27:46.83Z</time></trkpt><trkpt lat="43.155435" lon="13.10118"><ele>677.0</ele><time>2026-04-07T13:27:47.829Z</time></trkpt><trkpt lat="43.1552917" lon="13.1011467"><ele>677.0</ele><time>2026-04-07T13:27:48.829Z</time></trkpt><trkpt lat="43.15516" lon="13.10109"><ele>677.0</ele><time>2026-04-07T13:27:49.83Z</time></trkpt><trkpt lat="43.1550333" lon="13.100985"><ele>677.0</ele><time>2026-04-07T13:27:50.83Z</time></trkpt><trkpt lat="43.1549167" lon="13.1008483"><ele>677.0</ele><time>2026-04-07T13:27:51.83Z</time></trkpt><trkpt lat="43.15481" lon="13.1006667"><ele>677.6666666666666</ele><time>2026-04-07T13:27:52.829Z</time></trkpt><trkpt lat="43.1547117" lon="13.100485"><ele>678.3333333333334</ele><time>2026-04-07T13:27:53.83Z</time></trkpt><trkpt lat="43.1546133" lon="13.1003067"><ele>679.0</ele><time>2026-04-07T13:27:54.83Z</time></trkpt><trkpt lat="43.1545217" lon="13.100125"><ele>679.0</ele><time>2026-04-07T13:27:55.829Z</time></trkpt><trkpt lat="43.1544283" lon="13.0999483"><ele>679.0</ele><time>2026-04-07T13:27:56.83Z</time></trkpt><trkpt lat="43.15433" lon="13.0997667"><ele>679.0</ele><time>2026-04-07T13:27:57.829Z</time></trkpt><trkpt lat="43.15423" lon="13.09959"><ele>678.0</ele><time>2026-04-07T13:27:58.83Z</time></trkpt><trkpt lat="43.1541367" lon="13.0994217"><ele>677.0</ele><time>2026-04-07T13:27:59.83Z</time></trkpt><trkpt lat="43.1540483" lon="13.0992567"><ele>676.0</ele><time>2026-04-07T13:28:00.83Z</time></trkpt><trkpt lat="43.1539667" lon="13.0990967"><ele>675.0</ele><time>2026-04-07T13:28:01.829Z</time></trkpt><trkpt lat="43.1538833" lon="13.0989467"><ele>675.0</ele><time>2026-04-07T13:28:02.83Z</time></trkpt><trkpt lat="43.153795" lon="13.0988017"><ele>675.0</ele><time>2026-04-07T13:28:03.829Z</time></trkpt><trkpt lat="43.153695" lon="13.0986483"><ele>675.0</ele><time>2026-04-07T13:28:04.829Z</time></trkpt><trkpt lat="43.1535917" lon="13.0984983"><ele>675.0</ele><time>2026-04-07T13:28:05.83Z</time></trkpt><trkpt lat="43.15348" lon="13.09835"><ele>673.75</ele><time>2026-04-07T13:28:06.83Z</time></trkpt><trkpt lat="43.153365" lon="13.0982217"><ele>672.5</ele><time>2026-04-07T13:28:07.83Z</time></trkpt><trkpt lat="43.1532467" lon="13.0981067"><ele>671.25</ele><time>2026-04-07T13:28:08.83Z</time></trkpt><trkpt lat="43.1531233" lon="13.097995"><ele>670.0</ele><time>2026-04-07T13:28:09.829Z</time></trkpt><trkpt lat="43.1530017" lon="13.0979083"><ele>670.0</ele><time>2026-04-07T13:28:10.83Z</time></trkpt><trkpt lat="43.1528767" lon="13.0978433"><ele>670.0</ele><time>2026-04-07T13:28:11.83Z</time></trkpt><trkpt lat="43.1527483" lon="13.0978167"><ele>670.0</ele><time>2026-04-07T13:28:12.83Z</time></trkpt><trkpt lat="43.152615" lon="13.0977983"><ele>670.0</ele><time>2026-04-07T13:28:13.83Z</time></trkpt><trkpt lat="43.1524717" lon="13.0978033"><ele>668.5</ele><time>2026-04-07T13:28:14.83Z</time></trkpt><trkpt lat="43.15234" lon="13.09776"><ele>667.0</ele><time>2026-04-07T13:28:15.829Z</time></trkpt><trkpt lat="43.152195" lon="13.0977"><ele>665.5</ele><time>2026-04-07T13:28:16.83Z</time></trkpt><trkpt lat="43.1520467" lon="13.0976383"><ele>664.0</ele><time>2026-04-07T13:28:17.83Z</time></trkpt><trkpt lat="43.15191" lon="13.0975417"><ele>664.0</ele><time>2026-04-07T13:28:18.83Z</time></trkpt><trkpt lat="43.1517783" lon="13.097445"><ele>664.0</ele><time>2026-04-07T13:28:19.83Z</time></trkpt><trkpt lat="43.1516633" lon="13.097315"><ele>664.0</ele><time>2026-04-07T13:28:20.83Z</time></trkpt><trkpt lat="43.1515533" lon="13.09715"><ele>664.6666666666667</ele><time>2026-04-07T13:28:21.83Z</time></trkpt><trkpt lat="43.15144" lon="13.0969767"><ele>665.3333333333334</ele><time>2026-04-07T13:28:22.83Z</time></trkpt><trkpt lat="43.1513483" lon="13.0967983"><ele>666.0</ele><time>2026-04-07T13:28:23.829Z</time></trkpt><trkpt lat="43.1512533" lon="13.0966283"><ele>660.75</ele><time>2026-04-07T13:28:24.829Z</time></trkpt><trkpt lat="43.1511683" lon="13.09647"><ele>655.5</ele><time>2026-04-07T13:28:25.83Z</time></trkpt><trkpt lat="43.1510833" lon="13.09631"><ele>650.25</ele><time>2026-04-07T13:28:26.83Z</time></trkpt><trkpt lat="43.15099" lon="13.0961583"><ele>645.0</ele><time>2026-04-07T13:28:27.83Z</time></trkpt><trkpt lat="43.150885" lon="13.0960017"><ele>645.0</ele><time>2026-04-07T13:28:28.829Z</time></trkpt><trkpt lat="43.1507733" lon="13.09585"><ele>645.0</ele><time>2026-04-07T13:28:29.829Z</time></trkpt><trkpt lat="43.1506483" lon="13.0957033"><ele>645.0</ele><time>2026-04-07T13:28:30.83Z</time></trkpt><trkpt lat="43.1505383" lon="13.0955633"><ele>645.0</ele><time>2026-04-07T13:28:31.83Z</time></trkpt><trkpt lat="43.15044" lon="13.0954233"><ele>645.0</ele><time>2026-04-07T13:28:32.83Z</time></trkpt><trkpt lat="43.150335" lon="13.0952917"><ele>645.0</ele><time>2026-04-07T13:28:33.83Z</time></trkpt><trkpt lat="43.1502267" lon="13.0951733"><ele>645.0</ele><time>2026-04-07T13:28:34.83Z</time></trkpt><trkpt lat="43.1501033" lon="13.09508"><ele>645.0</ele><time>2026-04-07T13:28:35.83Z</time></trkpt><trkpt lat="43.1499717" lon="13.0949933"><ele>645.0</ele><time>2026-04-07T13:28:36.83Z</time></trkpt><trkpt lat="43.14985" lon="13.0948933"><ele>645.0</ele><time>2026-04-07T13:28:37.83Z</time></trkpt><trkpt lat="43.1497383" lon="13.0947917"><ele>645.0</ele><time>2026-04-07T13:28:38.83Z</time></trkpt><trkpt lat="43.1496317" lon="13.0946783"><ele>643.25</ele><time>2026-04-07T13:28:39.83Z</time></trkpt><trkpt lat="43.1495317" lon="13.0945533"><ele>641.5</ele><time>2026-04-07T13:28:40.829Z</time></trkpt><trkpt lat="43.14945" lon="13.0943967"><ele>639.75</ele><time>2026-04-07T13:28:41.83Z</time></trkpt><trkpt lat="43.1493967" lon="13.0942167"><ele>638.0</ele><time>2026-04-07T13:28:42.83Z</time></trkpt><trkpt lat="43.1493417" lon="13.0940517"><ele>634.75</ele><time>2026-04-07T13:28:43.83Z</time></trkpt><trkpt lat="43.14927" lon="13.0938883"><ele>631.5</ele><time>2026-04-07T13:28:44.83Z</time></trkpt><trkpt lat="43.1491683" lon="13.0937467"><ele>628.25</ele><time>2026-04-07T13:28:45.829Z</time></trkpt><trkpt lat="43.1490633" lon="13.0935933"><ele>625.0</ele><time>2026-04-07T13:28:46.83Z</time></trkpt><trkpt lat="43.148955" lon="13.0934433"><ele>625.0</ele><time>2026-04-07T13:28:47.829Z</time></trkpt><trkpt lat="43.14885" lon="13.093285"><ele>625.0</ele><time>2026-04-07T13:28:48.829Z</time></trkpt><trkpt lat="43.1487417" lon="13.09313"><ele>625.0</ele><time>2026-04-07T13:28:49.83Z</time></trkpt><trkpt lat="43.148635" lon="13.09299"><ele>621.5</ele><time>2026-04-07T13:28:50.83Z</time></trkpt><trkpt lat="43.14852" lon="13.092875"><ele>618.0</ele><time>2026-04-07T13:28:51.829Z</time></trkpt><trkpt lat="43.1483883" lon="13.0927733"><ele>614.5</ele><time>2026-04-07T13:28:52.83Z</time></trkpt><trkpt lat="43.1482433" lon="13.0927083"><ele>611.0</ele><time>2026-04-07T13:28:53.83Z</time></trkpt><trkpt lat="43.1480967" lon="13.0926317"><ele>611.0</ele><time>2026-04-07T13:28:54.83Z</time></trkpt><trkpt lat="43.147955" lon="13.0925317"><ele>611.0</ele><time>2026-04-07T13:28:55.83Z</time></trkpt><trkpt lat="43.1478183" lon="13.0924017"><ele>611.0</ele><time>2026-04-07T13:28:56.83Z</time></trkpt><trkpt lat="43.1476817" lon="13.0922633"><ele>606.0</ele><time>2026-04-07T13:28:57.83Z</time></trkpt><trkpt lat="43.1475467" lon="13.092125"><ele>601.0</ele><time>2026-04-07T13:28:58.83Z</time></trkpt><trkpt lat="43.147405" lon="13.09199"><ele>596.0</ele><time>2026-04-07T13:28:59.83Z</time></trkpt><trkpt lat="43.1472667" lon="13.0918533"><ele>596.0</ele><time>2026-04-07T13:29:00.83Z</time></trkpt><trkpt lat="43.147135" lon="13.0917267"><ele>596.0</ele><time>2026-04-07T13:29:01.83Z</time></trkpt><trkpt lat="43.1469983" lon="13.0915883"><ele>596.0</ele><time>2026-04-07T13:29:02.83Z</time></trkpt><trkpt lat="43.1468583" lon="13.0914617"><ele>593.0</ele><time>2026-04-07T13:29:03.83Z</time></trkpt><trkpt lat="43.146725" lon="13.09133"><ele>590.0</ele><time>2026-04-07T13:29:04.829Z</time></trkpt><trkpt lat="43.1466017" lon="13.0912083"><ele>587.0</ele><time>2026-04-07T13:29:05.83Z</time></trkpt><trkpt lat="43.146485" lon="13.0910917"><ele>585.5</ele><time>2026-04-07T13:29:06.829Z</time></trkpt><trkpt lat="43.1463967" lon="13.090945"><ele>584.0</ele><time>2026-04-07T13:29:07.83Z</time></trkpt><trkpt lat="43.1463183" lon="13.0907833"><ele>582.5</ele><time>2026-04-07T13:29:08.83Z</time></trkpt><trkpt lat="43.146255" lon="13.090615"><ele>581.0</ele><time>2026-04-07T13:29:09.83Z</time></trkpt><trkpt lat="43.1461983" lon="13.09042"><ele>581.0</ele><time>2026-04-07T13:29:10.83Z</time></trkpt><trkpt lat="43.1461267" lon="13.0902183"><ele>581.0</ele><time>2026-04-07T13:29:11.83Z</time></trkpt><trkpt lat="43.1460583" lon="13.0900133"><ele>581.0</ele><time>2026-04-07T13:29:12.829Z</time></trkpt><trkpt lat="43.1459983" lon="13.0898117"><ele>580.5</ele><time>2026-04-07T13:29:13.83Z</time></trkpt><trkpt lat="43.145935" lon="13.0896233"><ele>580.0</ele><time>2026-04-07T13:29:14.83Z</time></trkpt><trkpt lat="43.1458783" lon="13.0894433"><ele>579.5</ele><time>2026-04-07T13:29:15.83Z</time></trkpt><trkpt lat="43.1458217" lon="13.0892717"><ele>579.0</ele><time>2026-04-07T13:29:16.829Z</time></trkpt><trkpt lat="43.1457567" lon="13.0891067"><ele>575.75</ele><time>2026-04-07T13:29:17.83Z</time></trkpt><trkpt lat="43.1456783" lon="13.0889617"><ele>572.5</ele><time>2026-04-07T13:29:18.83Z</time></trkpt><trkpt lat="43.1455967" lon="13.0888283"><ele>569.25</ele><time>2026-04-07T13:29:19.83Z</time></trkpt><trkpt lat="43.1455117" lon="13.0886967"><ele>566.0</ele><time>2026-04-07T13:29:20.83Z</time></trkpt><trkpt lat="43.14541" lon="13.0885667"><ele>566.0</ele><time>2026-04-07T13:29:21.83Z</time></trkpt><trkpt lat="43.1452983" lon="13.0884433"><ele>566.0</ele><time>2026-04-07T13:29:22.829Z</time></trkpt><trkpt lat="43.145195" lon="13.08832"><ele>566.0</ele><time>2026-04-07T13:29:23.829Z</time></trkpt><trkpt lat="43.1450933" lon="13.0881933"><ele>566.0</ele><time>2026-04-07T13:29:24.83Z</time></trkpt><trkpt lat="43.144995" lon="13.0880833"><ele>565.25</ele><time>2026-04-07T13:29:25.83Z</time></trkpt><trkpt lat="43.1448967" lon="13.0879617"><ele>564.5</ele><time>2026-04-07T13:29:26.829Z</time></trkpt><trkpt lat="43.1448017" lon="13.087845"><ele>563.75</ele><time>2026-04-07T13:29:27.83Z</time></trkpt><trkpt lat="43.144715" lon="13.0877433"><ele>563.0</ele><time>2026-04-07T13:29:28.829Z</time></trkpt><trkpt lat="43.1446417" lon="13.0876383"><ele>562.8</ele><time>2026-04-07T13:29:29.83Z</time></trkpt><trkpt lat="43.1445733" lon="13.0875417"><ele>562.5999999999999</ele><time>2026-04-07T13:29:30.83Z</time></trkpt><trkpt lat="43.14451" lon="13.0874633"><ele>562.4000000000001</ele><time>2026-04-07T13:29:31.83Z</time></trkpt><trkpt lat="43.1444667" lon="13.0873967"><ele>562.2</ele><time>2026-04-07T13:29:32.83Z</time></trkpt><trkpt lat="43.1444217" lon="13.0872533"><ele>562.0</ele><time>2026-04-07T13:29:34.83Z</time></trkpt><trkpt lat="43.14441" lon="13.087085"><ele>562.0</ele><time>2026-04-07T13:29:36.829Z</time></trkpt><trkpt lat="43.144325" lon="13.0869483"><ele>562.0</ele><time>2026-04-07T13:29:38.83Z</time></trkpt><trkpt lat="43.1442467" lon="13.0868833"><ele>562.0</ele><time>2026-04-07T13:29:39.83Z</time></trkpt><trkpt lat="43.1441667" lon="13.0868117"><ele>562.0</ele><time>2026-04-07T13:29:40.83Z</time></trkpt><trkpt lat="43.1440917" lon="13.0867033"><ele>562.0</ele><time>2026-04-07T13:29:41.83Z</time></trkpt><trkpt lat="43.1440283" lon="13.0865767"><ele>565.25</ele><time>2026-04-07T13:29:42.83Z</time></trkpt><trkpt lat="43.14398" lon="13.086425"><ele>568.5</ele><time>2026-04-07T13:29:43.829Z</time></trkpt><trkpt lat="43.1439267" lon="13.086265"><ele>571.75</ele><time>2026-04-07T13:29:44.83Z</time></trkpt><trkpt lat="43.143885" lon="13.0860933"><ele>575.0</ele><time>2026-04-07T13:29:45.829Z</time></trkpt><trkpt lat="43.1438833" lon="13.0859233"><ele>574.0</ele><time>2026-04-07T13:29:46.829Z</time></trkpt><trkpt lat="43.1439067" lon="13.0857467"><ele>573.0</ele><time>2026-04-07T13:29:47.829Z</time></trkpt><trkpt lat="43.1439583" lon="13.0855783"><ele>572.0</ele><time>2026-04-07T13:29:48.829Z</time></trkpt><trkpt lat="43.144015" lon="13.0853883"><ele>571.0</ele><time>2026-04-07T13:29:49.83Z</time></trkpt><trkpt lat="43.1440733" lon="13.0852017"><ele>571.0</ele><time>2026-04-07T13:29:50.83Z</time></trkpt><trkpt lat="43.14414" lon="13.0850083"><ele>571.0</ele><time>2026-04-07T13:29:51.83Z</time></trkpt><trkpt lat="43.1442017" lon="13.0848167"><ele>571.0</ele><time>2026-04-07T13:29:52.83Z</time></trkpt><trkpt lat="43.1442683" lon="13.0846233"><ele>574.6666666666667</ele><time>2026-04-07T13:29:53.83Z</time></trkpt><trkpt lat="43.1443417" lon="13.0844317"><ele>578.3333333333334</ele><time>2026-04-07T13:29:54.83Z</time></trkpt><trkpt lat="43.14441" lon="13.084245"><ele>582.0</ele><time>2026-04-07T13:29:55.83Z</time></trkpt><trkpt lat="43.1444767" lon="13.0840667"><ele>582.5</ele><time>2026-04-07T13:29:56.829Z</time></trkpt><trkpt lat="43.144535" lon="13.0839033"><ele>583.0</ele><time>2026-04-07T13:29:57.83Z</time></trkpt><trkpt lat="43.14456" lon="13.0837283"><ele>583.5</ele><time>2026-04-07T13:29:58.83Z</time></trkpt><trkpt lat="43.144565" lon="13.08355"><ele>584.0</ele><time>2026-04-07T13:29:59.83Z</time></trkpt><trkpt lat="43.144545" lon="13.0833717"><ele>582.75</ele><time>2026-04-07T13:30:00.829Z</time></trkpt><trkpt lat="43.14451" lon="13.083205"><ele>581.5</ele><time>2026-04-07T13:30:01.83Z</time></trkpt><trkpt lat="43.1444333" lon="13.0830633"><ele>580.25</ele><time>2026-04-07T13:30:02.83Z</time></trkpt><trkpt lat="43.1443383" lon="13.0829267"><ele>579.0</ele><time>2026-04-07T13:30:03.829Z</time></trkpt><trkpt lat="43.1442233" lon="13.0827967"><ele>579.0</ele><time>2026-04-07T13:30:04.829Z</time></trkpt><trkpt lat="43.144105" lon="13.08266"><ele>579.0</ele><time>2026-04-07T13:30:05.83Z</time></trkpt><trkpt lat="43.1439867" lon="13.082525"><ele>579.0</ele><time>2026-04-07T13:30:06.829Z</time></trkpt><trkpt lat="43.14387" lon="13.08239"><ele>578.5</ele><time>2026-04-07T13:30:07.83Z</time></trkpt><trkpt lat="43.14376" lon="13.08226"><ele>578.0</ele><time>2026-04-07T13:30:08.83Z</time></trkpt><trkpt lat="43.143665" lon="13.0821433"><ele>577.5</ele><time>2026-04-07T13:30:09.83Z</time></trkpt><trkpt lat="43.14358" lon="13.082015"><ele>577.0</ele><time>2026-04-07T13:30:10.83Z</time></trkpt><trkpt lat="43.1435" lon="13.08189"><ele>577.0</ele><time>2026-04-07T13:30:11.829Z</time></trkpt><trkpt lat="43.143425" lon="13.0817683"><ele>577.0</ele><time>2026-04-07T13:30:12.83Z</time></trkpt><trkpt lat="43.1433717" lon="13.08162"><ele>577.0</ele><time>2026-04-07T13:30:13.83Z</time></trkpt><trkpt lat="43.14333" lon="13.0814567"><ele>577.0</ele><time>2026-04-07T13:30:14.83Z</time></trkpt><trkpt lat="43.1433" lon="13.0812783"><ele>576.25</ele><time>2026-04-07T13:30:15.829Z</time></trkpt><trkpt lat="43.1432733" lon="13.081085"><ele>575.5</ele><time>2026-04-07T13:30:16.83Z</time></trkpt><trkpt lat="43.1432267" lon="13.0809033"><ele>574.75</ele><time>2026-04-07T13:30:17.829Z</time></trkpt><trkpt lat="43.1431883" lon="13.080735"><ele>574.0</ele><time>2026-04-07T13:30:18.829Z</time></trkpt><trkpt lat="43.1431567" lon="13.0805517"><ele>572.5</ele><time>2026-04-07T13:30:19.83Z</time></trkpt><trkpt lat="43.143105" lon="13.0803917"><ele>571.0</ele><time>2026-04-07T13:30:20.83Z</time></trkpt><trkpt lat="43.14306" lon="13.0802183"><ele>569.5</ele><time>2026-04-07T13:30:21.83Z</time></trkpt><trkpt lat="43.1430267" lon="13.0800317"><ele>568.0</ele><time>2026-04-07T13:30:22.83Z</time></trkpt><trkpt lat="43.1429867" lon="13.0798483"><ele>568.0</ele><time>2026-04-07T13:30:23.829Z</time></trkpt><trkpt lat="43.1429417" lon="13.0796817"><ele>568.0</ele><time>2026-04-07T13:30:24.83Z</time></trkpt><trkpt lat="43.1429083" lon="13.07953"><ele>568.0</ele><time>2026-04-07T13:30:25.83Z</time></trkpt><trkpt lat="43.142885" lon="13.0793817"><ele>568.0</ele><time>2026-04-07T13:30:26.83Z</time></trkpt><trkpt lat="43.142855" lon="13.07924"><ele>568.0</ele><time>2026-04-07T13:30:27.83Z</time></trkpt><trkpt lat="43.1428317" lon="13.0791017"><ele>568.0</ele><time>2026-04-07T13:30:28.83Z</time></trkpt><trkpt lat="43.1428017" lon="13.07898"><ele>568.0</ele><time>2026-04-07T13:30:29.83Z</time></trkpt><trkpt lat="43.142775" lon="13.078855"><ele>568.0</ele><time>2026-04-07T13:30:30.83Z</time></trkpt><trkpt lat="43.14274" lon="13.0787267"><ele>568.0</ele><time>2026-04-07T13:30:31.829Z</time></trkpt><trkpt lat="43.1427083" lon="13.0785917"><ele>568.1666666666667</ele><time>2026-04-07T13:30:32.83Z</time></trkpt><trkpt lat="43.1426783" lon="13.078465"><ele>568.3333333333334</ele><time>2026-04-07T13:30:33.83Z</time></trkpt><trkpt lat="43.1426483" lon="13.0783383"><ele>568.5</ele><time>2026-04-07T13:30:34.83Z</time></trkpt><trkpt lat="43.1426183" lon="13.0782267"><ele>568.6666666666666</ele><time>2026-04-07T13:30:35.83Z</time></trkpt><trkpt lat="43.1425933" lon="13.0781217"><ele>568.8333333333333</ele><time>2026-04-07T13:30:36.83Z</time></trkpt><trkpt lat="43.142575" lon="13.0780217"><ele>569.0</ele><time>2026-04-07T13:30:37.83Z</time></trkpt><trkpt lat="43.142605" lon="13.07787"><ele>569.0</ele><time>2026-04-07T13:30:39.83Z</time></trkpt><trkpt lat="43.1426617" lon="13.0778317"><ele>569.0</ele><time>2026-04-07T13:30:40.83Z</time></trkpt><trkpt lat="43.1427467" lon="13.0778"><ele>569.0</ele><time>2026-04-07T13:30:41.83Z</time></trkpt><trkpt lat="43.1428383" lon="13.0777633"><ele>569.0</ele><time>2026-04-07T13:30:42.83Z</time></trkpt><trkpt lat="43.1429133" lon="13.077685"><ele>569.0</ele><time>2026-04-07T13:30:43.83Z</time></trkpt><trkpt lat="43.142975" lon="13.0775767"><ele>569.0</ele><time>2026-04-07T13:30:44.83Z</time></trkpt><trkpt lat="43.1430133" lon="13.0774333"><ele>568.25</ele><time>2026-04-07T13:30:45.83Z</time></trkpt><trkpt lat="43.1430267" lon="13.0772583"><ele>567.5</ele><time>2026-04-07T13:30:46.83Z</time></trkpt><trkpt lat="43.1430333" lon="13.077085"><ele>566.75</ele><time>2026-04-07T13:30:47.83Z</time></trkpt><trkpt lat="43.1430433" lon="13.0769083"><ele>566.0</ele><time>2026-04-07T13:30:48.83Z</time></trkpt><trkpt lat="43.1430583" lon="13.0767433"><ele>565.5</ele><time>2026-04-07T13:30:49.83Z</time></trkpt><trkpt lat="43.14306" lon="13.0765817"><ele>565.0</ele><time>2026-04-07T13:30:50.829Z</time></trkpt><trkpt lat="43.14306" lon="13.076425"><ele>564.5</ele><time>2026-04-07T13:30:51.83Z</time></trkpt><trkpt lat="43.14307" lon="13.0762717"><ele>564.0</ele><time>2026-04-07T13:30:52.83Z</time></trkpt><trkpt lat="43.143085" lon="13.076125"><ele>564.0</ele><time>2026-04-07T13:30:53.83Z</time></trkpt><trkpt lat="43.1430933" lon="13.075975"><ele>564.0</ele><time>2026-04-07T13:30:54.83Z</time></trkpt><trkpt lat="43.1431033" lon="13.075825"><ele>564.0</ele><time>2026-04-07T13:30:55.829Z</time></trkpt><trkpt lat="43.1431083" lon="13.0756767"><ele>564.0</ele><time>2026-04-07T13:30:56.83Z</time></trkpt><trkpt lat="43.143125" lon="13.07553"><ele>564.0</ele><time>2026-04-07T13:30:57.83Z</time></trkpt><trkpt lat="43.1431433" lon="13.075385"><ele>565.5</ele><time>2026-04-07T13:30:58.829Z</time></trkpt><trkpt lat="43.1431667" lon="13.0752333"><ele>567.0</ele><time>2026-04-07T13:30:59.83Z</time></trkpt><trkpt lat="43.1432083" lon="13.0750717"><ele>568.5</ele><time>2026-04-07T13:31:00.83Z</time></trkpt><trkpt lat="43.1432617" lon="13.074895"><ele>570.0</ele><time>2026-04-07T13:31:01.83Z</time></trkpt><trkpt lat="43.14332" lon="13.074725"><ele>565.0</ele><time>2026-04-07T13:31:02.83Z</time></trkpt><trkpt lat="43.1433683" lon="13.0745633"><ele>560.0</ele><time>2026-04-07T13:31:03.83Z</time></trkpt><trkpt lat="43.1434167" lon="13.0744033"><ele>555.0</ele><time>2026-04-07T13:31:04.83Z</time></trkpt><trkpt lat="43.143455" lon="13.0742517"><ele>550.0</ele><time>2026-04-07T13:31:05.83Z</time></trkpt><trkpt lat="43.143485" lon="13.0741017"><ele>549.2</ele><time>2026-04-07T13:31:06.83Z</time></trkpt><trkpt lat="43.1434967" lon="13.0739617"><ele>548.4</ele><time>2026-04-07T13:31:07.83Z</time></trkpt><trkpt lat="43.14349" lon="13.0738233"><ele>547.6</ele><time>2026-04-07T13:31:08.829Z</time></trkpt><trkpt lat="43.1434733" lon="13.0736967"><ele>546.8</ele><time>2026-04-07T13:31:09.83Z</time></trkpt><trkpt lat="43.1434567" lon="13.0735883"><ele>546.0</ele><time>2026-04-07T13:31:10.83Z</time></trkpt><trkpt lat="43.1434433" lon="13.0734917"><ele>546.0</ele><time>2026-04-07T13:31:11.829Z</time></trkpt><trkpt lat="43.1434617" lon="13.0733617"><ele>546.0</ele><time>2026-04-07T13:31:13.83Z</time></trkpt><trkpt lat="43.14357" lon="13.0733367"><ele>546.0</ele><time>2026-04-07T13:31:15.83Z</time></trkpt><trkpt lat="43.14365" lon="13.0733467"><ele>546.0</ele><time>2026-04-07T13:31:16.83Z</time></trkpt><trkpt lat="43.14375" lon="13.0733517"><ele>546.0</ele><time>2026-04-07T13:31:17.829Z</time></trkpt><trkpt lat="43.1438617" lon="13.073365"><ele>546.0</ele><time>2026-04-07T13:31:18.83Z</time></trkpt><trkpt lat="43.1439817" lon="13.0733833"><ele>546.0</ele><time>2026-04-07T13:31:19.83Z</time></trkpt><trkpt lat="43.1440933" lon="13.0734033"><ele>546.0</ele><time>2026-04-07T13:31:20.83Z</time></trkpt><trkpt lat="43.1442067" lon="13.0734133"><ele>546.0</ele><time>2026-04-07T13:31:21.829Z</time></trkpt><trkpt lat="43.144315" lon="13.07343"><ele>536.0</ele><time>2026-04-07T13:31:22.829Z</time></trkpt><trkpt lat="43.1444167" lon="13.073435"><ele>536.0</ele><time>2026-04-07T13:31:23.83Z</time></trkpt><trkpt lat="43.144515" lon="13.0734467"><ele>536.0</ele><time>2026-04-07T13:31:24.83Z</time></trkpt></trkseg></trk></gpx>